<?xml version="1.0" encoding="UTF-8" standalone="no" ?>
<gpx xmlns="http://www.topografix.com/GPX/1/1" xmlns:xsi="http://www.w3.org/2001/XMLSchema-instance" xsi:schemaLocation="http://www.topografix.com/GPX/1/1 http://www.topografix.com/GPX/1/1/gpx.xsd" version="1.1" creator="VisuGPX - https://www.visugpx.com">
  <metadata>
    <name>La Lande de Fronsac vers Fourques sur Garonne</name>
    <desc><![CDATA[La Lande de Fronsac vers Fourques sur Garonne]]></desc>
  </metadata>
  <trk>
    <name><![CDATA[PruneTrack]]></name>
    <trkseg>
      <trkpt lat="44.98903" lon="-0.38251">
        <ele>158.3</ele>
        <time>2011-11-02T08:24:07.000Z</time>
      </trkpt>
      <trkpt lat="44.98845" lon="-0.38256">
        <ele>92.5</ele>
        <time>2011-11-02T08:24:08.000Z</time>
      </trkpt>
      <trkpt lat="44.98811" lon="-0.38257">
        <ele>87.7</ele>
        <time>2011-11-02T08:24:21.000Z</time>
      </trkpt>
      <trkpt lat="44.98785" lon="-0.38253">
        <ele>96</ele>
        <time>2011-11-02T08:24:35.000Z</time>
      </trkpt>
      <trkpt lat="44.98758" lon="-0.38249">
        <ele>82</ele>
        <time>2011-11-02T08:24:39.000Z</time>
      </trkpt>
      <trkpt lat="44.9873" lon="-0.38246">
        <ele>90.1</ele>
        <time>2011-11-02T08:24:47.000Z</time>
      </trkpt>
      <trkpt lat="44.98702" lon="-0.38254">
        <ele>89.5</ele>
        <time>2011-11-02T08:24:53.000Z</time>
      </trkpt>
      <trkpt lat="44.98672" lon="-0.38265">
        <ele>93.3</ele>
        <time>2011-11-02T08:24:59.000Z</time>
      </trkpt>
      <trkpt lat="44.98644" lon="-0.38272">
        <ele>93.6</ele>
        <time>2011-11-02T08:25:04.000Z</time>
      </trkpt>
      <trkpt lat="44.9861" lon="-0.38276">
        <ele>90.6</ele>
        <time>2011-11-02T08:25:09.000Z</time>
      </trkpt>
      <trkpt lat="44.98583" lon="-0.38278">
        <ele>87.3</ele>
        <time>2011-11-02T08:25:13.000Z</time>
      </trkpt>
      <trkpt lat="44.98555" lon="-0.38281">
        <ele>87.1</ele>
        <time>2011-11-02T08:25:18.000Z</time>
      </trkpt>
      <trkpt lat="44.98528" lon="-0.38284">
        <ele>86.6</ele>
        <time>2011-11-02T08:25:23.000Z</time>
      </trkpt>
      <trkpt lat="44.98499" lon="-0.38287">
        <ele>84.9</ele>
        <time>2011-11-02T08:25:28.000Z</time>
      </trkpt>
      <trkpt lat="44.98472" lon="-0.38293">
        <ele>83.8</ele>
        <time>2011-11-02T08:25:33.000Z</time>
      </trkpt>
      <trkpt lat="44.98441" lon="-0.38299">
        <ele>82.4</ele>
        <time>2011-11-02T08:25:40.000Z</time>
      </trkpt>
      <trkpt lat="44.98412" lon="-0.38307">
        <ele>79.8</ele>
        <time>2011-11-02T08:25:48.000Z</time>
      </trkpt>
      <trkpt lat="44.98382" lon="-0.38314">
        <ele>80.1</ele>
        <time>2011-11-02T08:25:59.000Z</time>
      </trkpt>
      <trkpt lat="44.98354" lon="-0.3832">
        <ele>80.4</ele>
        <time>2011-11-02T08:26:07.000Z</time>
      </trkpt>
      <trkpt lat="44.98325" lon="-0.38325">
        <ele>78.8</ele>
        <time>2011-11-02T08:26:16.000Z</time>
      </trkpt>
      <trkpt lat="44.98298" lon="-0.38308">
        <ele>75.8</ele>
        <time>2011-11-02T08:26:30.000Z</time>
      </trkpt>
      <trkpt lat="44.98291" lon="-0.38271">
        <ele>74.3</ele>
        <time>2011-11-02T08:26:40.000Z</time>
      </trkpt>
      <trkpt lat="44.98282" lon="-0.38232">
        <ele>72.3</ele>
        <time>2011-11-02T08:26:50.000Z</time>
      </trkpt>
      <trkpt lat="44.98274" lon="-0.38193">
        <ele>69.7</ele>
        <time>2011-11-02T08:27:00.000Z</time>
      </trkpt>
      <trkpt lat="44.98264" lon="-0.38155">
        <ele>67.1</ele>
        <time>2011-11-02T08:27:09.000Z</time>
      </trkpt>
      <trkpt lat="44.98248" lon="-0.3812">
        <ele>64.8</ele>
        <time>2011-11-02T08:27:18.000Z</time>
      </trkpt>
      <trkpt lat="44.9823" lon="-0.38091">
        <ele>63.4</ele>
        <time>2011-11-02T08:27:26.000Z</time>
      </trkpt>
      <trkpt lat="44.98211" lon="-0.38058">
        <ele>61.2</ele>
        <time>2011-11-02T08:27:35.000Z</time>
      </trkpt>
      <trkpt lat="44.98193" lon="-0.38026">
        <ele>57.2</ele>
        <time>2011-11-02T08:27:44.000Z</time>
      </trkpt>
      <trkpt lat="44.98176" lon="-0.37997">
        <ele>53.9</ele>
        <time>2011-11-02T08:27:52.000Z</time>
      </trkpt>
      <trkpt lat="44.98153" lon="-0.37984">
        <ele>40.3</ele>
        <time>2011-11-02T08:27:57.000Z</time>
      </trkpt>
      <trkpt lat="44.98124" lon="-0.37997">
        <ele>36</ele>
        <time>2011-11-02T08:28:07.000Z</time>
      </trkpt>
      <trkpt lat="44.98098" lon="-0.38017">
        <ele>38.6</ele>
        <time>2011-11-02T08:28:17.000Z</time>
      </trkpt>
      <trkpt lat="44.98074" lon="-0.38037">
        <ele>44</ele>
        <time>2011-11-02T08:28:28.000Z</time>
      </trkpt>
      <trkpt lat="44.98051" lon="-0.38055">
        <ele>50.6</ele>
        <time>2011-11-02T08:28:39.000Z</time>
      </trkpt>
      <trkpt lat="44.98026" lon="-0.38072">
        <ele>48.6</ele>
        <time>2011-11-02T08:28:48.000Z</time>
      </trkpt>
      <trkpt lat="44.98003" lon="-0.38091">
        <ele>44.1</ele>
        <time>2011-11-02T08:28:56.000Z</time>
      </trkpt>
      <trkpt lat="44.97976" lon="-0.38111">
        <ele>42</ele>
        <time>2011-11-02T08:29:05.000Z</time>
      </trkpt>
      <trkpt lat="44.9795" lon="-0.38126">
        <ele>41</ele>
        <time>2011-11-02T08:29:14.000Z</time>
      </trkpt>
      <trkpt lat="44.97924" lon="-0.38142">
        <ele>40.1</ele>
        <time>2011-11-02T08:29:24.000Z</time>
      </trkpt>
      <trkpt lat="44.97896" lon="-0.38157">
        <ele>39.4</ele>
        <time>2011-11-02T08:29:35.000Z</time>
      </trkpt>
      <trkpt lat="44.97868" lon="-0.3816">
        <ele>37.4</ele>
        <time>2011-11-02T08:30:13.000Z</time>
      </trkpt>
      <trkpt lat="44.97839" lon="-0.38164">
        <ele>35.8</ele>
        <time>2011-11-02T08:30:19.000Z</time>
      </trkpt>
      <trkpt lat="44.9781" lon="-0.38179">
        <ele>34.5</ele>
        <time>2011-11-02T08:30:25.000Z</time>
      </trkpt>
      <trkpt lat="44.97785" lon="-0.38197">
        <ele>32.5</ele>
        <time>2011-11-02T08:30:30.000Z</time>
      </trkpt>
      <trkpt lat="44.97757" lon="-0.38218">
        <ele>32.1</ele>
        <time>2011-11-02T08:30:36.000Z</time>
      </trkpt>
      <trkpt lat="44.97731" lon="-0.38241">
        <ele>31.4</ele>
        <time>2011-11-02T08:30:42.000Z</time>
      </trkpt>
      <trkpt lat="44.97709" lon="-0.38266">
        <ele>30.5</ele>
        <time>2011-11-02T08:30:47.000Z</time>
      </trkpt>
      <trkpt lat="44.97687" lon="-0.38294">
        <ele>29.9</ele>
        <time>2011-11-02T08:30:52.000Z</time>
      </trkpt>
      <trkpt lat="44.97663" lon="-0.38324">
        <ele>29.1</ele>
        <time>2011-11-02T08:30:57.000Z</time>
      </trkpt>
      <trkpt lat="44.97642" lon="-0.38352">
        <ele>28.3</ele>
        <time>2011-11-02T08:31:01.000Z</time>
      </trkpt>
      <trkpt lat="44.97622" lon="-0.38379">
        <ele>28.1</ele>
        <time>2011-11-02T08:31:05.000Z</time>
      </trkpt>
      <trkpt lat="44.97601" lon="-0.38405">
        <ele>27.6</ele>
        <time>2011-11-02T08:31:09.000Z</time>
      </trkpt>
      <trkpt lat="44.97582" lon="-0.38431">
        <ele>27</ele>
        <time>2011-11-02T08:31:13.000Z</time>
      </trkpt>
      <trkpt lat="44.97557" lon="-0.38463">
        <ele>26.1</ele>
        <time>2011-11-02T08:31:18.000Z</time>
      </trkpt>
      <trkpt lat="44.97533" lon="-0.38495">
        <ele>24.6</ele>
        <time>2011-11-02T08:31:23.000Z</time>
      </trkpt>
      <trkpt lat="44.9751" lon="-0.38526">
        <ele>23.6</ele>
        <time>2011-11-02T08:31:28.000Z</time>
      </trkpt>
      <trkpt lat="44.97487" lon="-0.38556">
        <ele>23.2</ele>
        <time>2011-11-02T08:31:33.000Z</time>
      </trkpt>
      <trkpt lat="44.97461" lon="-0.38586">
        <ele>22.1</ele>
        <time>2011-11-02T08:31:38.000Z</time>
      </trkpt>
      <trkpt lat="44.97437" lon="-0.38616">
        <ele>21.1</ele>
        <time>2011-11-02T08:31:43.000Z</time>
      </trkpt>
      <trkpt lat="44.97414" lon="-0.38642">
        <ele>21.1</ele>
        <time>2011-11-02T08:31:48.000Z</time>
      </trkpt>
      <trkpt lat="44.97389" lon="-0.38668">
        <ele>20.5</ele>
        <time>2011-11-02T08:31:54.000Z</time>
      </trkpt>
      <trkpt lat="44.9736" lon="-0.38683">
        <ele>20</ele>
        <time>2011-11-02T08:32:01.000Z</time>
      </trkpt>
      <trkpt lat="44.97335" lon="-0.38706">
        <ele>20.9</ele>
        <time>2011-11-02T08:32:10.000Z</time>
      </trkpt>
      <trkpt lat="44.9731" lon="-0.38693">
        <ele>21.1</ele>
        <time>2011-11-02T08:32:20.000Z</time>
      </trkpt>
      <trkpt lat="44.97301" lon="-0.38657">
        <ele>21.4</ele>
        <time>2011-11-02T08:32:28.000Z</time>
      </trkpt>
      <trkpt lat="44.97286" lon="-0.38621">
        <ele>22.5</ele>
        <time>2011-11-02T08:32:38.000Z</time>
      </trkpt>
      <trkpt lat="44.9727" lon="-0.38587">
        <ele>23.6</ele>
        <time>2011-11-02T08:32:49.000Z</time>
      </trkpt>
      <trkpt lat="44.97256" lon="-0.38554">
        <ele>25.9</ele>
        <time>2011-11-02T08:34:10.000Z</time>
      </trkpt>
      <trkpt lat="44.97241" lon="-0.3852">
        <ele>25.8</ele>
        <time>2011-11-02T08:34:19.000Z</time>
      </trkpt>
      <trkpt lat="44.97226" lon="-0.38486">
        <ele>25.1</ele>
        <time>2011-11-02T08:34:28.000Z</time>
      </trkpt>
      <trkpt lat="44.97211" lon="-0.38454">
        <ele>25.3</ele>
        <time>2011-11-02T08:36:35.000Z</time>
      </trkpt>
      <trkpt lat="44.97198" lon="-0.38419">
        <ele>25.5</ele>
        <time>2011-11-02T08:36:46.000Z</time>
      </trkpt>
      <trkpt lat="44.97184" lon="-0.38385">
        <ele>25.9</ele>
        <time>2011-11-02T08:36:56.000Z</time>
      </trkpt>
      <trkpt lat="44.97169" lon="-0.38353">
        <ele>25.4</ele>
        <time>2011-11-02T08:37:06.000Z</time>
      </trkpt>
      <trkpt lat="44.97152" lon="-0.38318">
        <ele>24.7</ele>
        <time>2011-11-02T08:37:16.000Z</time>
      </trkpt>
      <trkpt lat="44.97137" lon="-0.38284">
        <ele>25.5</ele>
        <time>2011-11-02T08:37:25.000Z</time>
      </trkpt>
      <trkpt lat="44.97122" lon="-0.38251">
        <ele>25.4</ele>
        <time>2011-11-02T08:37:34.000Z</time>
      </trkpt>
      <trkpt lat="44.97107" lon="-0.38216">
        <ele>25.1</ele>
        <time>2011-11-02T08:37:44.000Z</time>
      </trkpt>
      <trkpt lat="44.97092" lon="-0.38182">
        <ele>24.2</ele>
        <time>2011-11-02T08:37:52.000Z</time>
      </trkpt>
      <trkpt lat="44.97076" lon="-0.38146">
        <ele>23.6</ele>
        <time>2011-11-02T08:38:00.000Z</time>
      </trkpt>
      <trkpt lat="44.9706" lon="-0.38111">
        <ele>23.9</ele>
        <time>2011-11-02T08:38:08.000Z</time>
      </trkpt>
      <trkpt lat="44.97044" lon="-0.38076">
        <ele>24.6</ele>
        <time>2011-11-02T08:38:16.000Z</time>
      </trkpt>
      <trkpt lat="44.97029" lon="-0.38041">
        <ele>23.6</ele>
        <time>2011-11-02T08:38:24.000Z</time>
      </trkpt>
      <trkpt lat="44.97014" lon="-0.38007">
        <ele>22.7</ele>
        <time>2011-11-02T08:38:32.000Z</time>
      </trkpt>
      <trkpt lat="44.96999" lon="-0.37973">
        <ele>22.6</ele>
        <time>2011-11-02T08:38:39.000Z</time>
      </trkpt>
      <trkpt lat="44.96982" lon="-0.37938">
        <ele>22.8</ele>
        <time>2011-11-02T08:38:46.000Z</time>
      </trkpt>
      <trkpt lat="44.96966" lon="-0.37903">
        <ele>22.8</ele>
        <time>2011-11-02T08:38:53.000Z</time>
      </trkpt>
      <trkpt lat="44.96949" lon="-0.37865">
        <ele>21.9</ele>
        <time>2011-11-02T08:39:00.000Z</time>
      </trkpt>
      <trkpt lat="44.96935" lon="-0.37832">
        <ele>20.8</ele>
        <time>2011-11-02T08:39:06.000Z</time>
      </trkpt>
      <trkpt lat="44.96917" lon="-0.37795">
        <ele>21.1</ele>
        <time>2011-11-02T08:39:13.000Z</time>
      </trkpt>
      <trkpt lat="44.96902" lon="-0.3776">
        <ele>20.3</ele>
        <time>2011-11-02T08:39:20.000Z</time>
      </trkpt>
      <trkpt lat="44.96885" lon="-0.37722">
        <ele>20.6</ele>
        <time>2011-11-02T08:39:27.000Z</time>
      </trkpt>
      <trkpt lat="44.96869" lon="-0.37689">
        <ele>20.8</ele>
        <time>2011-11-02T08:39:33.000Z</time>
      </trkpt>
      <trkpt lat="44.96854" lon="-0.37656">
        <ele>21.1</ele>
        <time>2011-11-02T08:39:39.000Z</time>
      </trkpt>
      <trkpt lat="44.96838" lon="-0.37619">
        <ele>20.3</ele>
        <time>2011-11-02T08:39:46.000Z</time>
      </trkpt>
      <trkpt lat="44.96823" lon="-0.37586">
        <ele>19.4</ele>
        <time>2011-11-02T08:39:52.000Z</time>
      </trkpt>
      <trkpt lat="44.96807" lon="-0.37551">
        <ele>19.4</ele>
        <time>2011-11-02T08:39:58.000Z</time>
      </trkpt>
      <trkpt lat="44.96793" lon="-0.37516">
        <ele>21.9</ele>
        <time>2011-11-02T08:40:04.000Z</time>
      </trkpt>
      <trkpt lat="44.96779" lon="-0.37482">
        <ele>21.8</ele>
        <time>2011-11-02T08:40:10.000Z</time>
      </trkpt>
      <trkpt lat="44.96766" lon="-0.37446">
        <ele>25.8</ele>
        <time>2011-11-02T08:40:16.000Z</time>
      </trkpt>
      <trkpt lat="44.96752" lon="-0.37409">
        <ele>28.1</ele>
        <time>2011-11-02T08:40:23.000Z</time>
      </trkpt>
      <trkpt lat="44.96738" lon="-0.37376">
        <ele>32.2</ele>
        <time>2011-11-02T08:40:29.000Z</time>
      </trkpt>
      <trkpt lat="44.96721" lon="-0.37339">
        <ele>37.8</ele>
        <time>2011-11-02T08:40:36.000Z</time>
      </trkpt>
      <trkpt lat="44.96708" lon="-0.37304">
        <ele>45.7</ele>
        <time>2011-11-02T08:40:42.000Z</time>
      </trkpt>
      <trkpt lat="44.96695" lon="-0.37266">
        <ele>46.5</ele>
        <time>2011-11-02T08:40:49.000Z</time>
      </trkpt>
      <trkpt lat="44.96679" lon="-0.37231">
        <ele>46.2</ele>
        <time>2011-11-02T08:40:56.000Z</time>
      </trkpt>
      <trkpt lat="44.96661" lon="-0.37205">
        <ele>35.6</ele>
        <time>2011-11-02T08:41:02.000Z</time>
      </trkpt>
      <trkpt lat="44.96642" lon="-0.37171">
        <ele>29.9</ele>
        <time>2011-11-02T08:41:09.000Z</time>
      </trkpt>
      <trkpt lat="44.96624" lon="-0.37137">
        <ele>24.5</ele>
        <time>2011-11-02T08:41:17.000Z</time>
      </trkpt>
      <trkpt lat="44.96609" lon="-0.37103">
        <ele>23.3</ele>
        <time>2011-11-02T08:41:24.000Z</time>
      </trkpt>
      <trkpt lat="44.96593" lon="-0.37069">
        <ele>22.7</ele>
        <time>2011-11-02T08:41:31.000Z</time>
      </trkpt>
      <trkpt lat="44.96577" lon="-0.37035">
        <ele>21.7</ele>
        <time>2011-11-02T08:41:38.000Z</time>
      </trkpt>
      <trkpt lat="44.96562" lon="-0.37003">
        <ele>21.7</ele>
        <time>2011-11-02T08:41:44.000Z</time>
      </trkpt>
      <trkpt lat="44.96547" lon="-0.36967">
        <ele>23</ele>
        <time>2011-11-02T08:41:50.000Z</time>
      </trkpt>
      <trkpt lat="44.96534" lon="-0.36934">
        <ele>23.7</ele>
        <time>2011-11-02T08:41:55.000Z</time>
      </trkpt>
      <trkpt lat="44.96518" lon="-0.36899">
        <ele>24.3</ele>
        <time>2011-11-02T08:42:00.000Z</time>
      </trkpt>
      <trkpt lat="44.965" lon="-0.36858">
        <ele>24.7</ele>
        <time>2011-11-02T08:42:05.000Z</time>
      </trkpt>
      <trkpt lat="44.96484" lon="-0.3682">
        <ele>24.5</ele>
        <time>2011-11-02T08:42:09.000Z</time>
      </trkpt>
      <trkpt lat="44.96465" lon="-0.3678">
        <ele>20.7</ele>
        <time>2011-11-02T08:42:13.000Z</time>
      </trkpt>
      <trkpt lat="44.96449" lon="-0.36747">
        <ele>17</ele>
        <time>2011-11-02T08:42:16.000Z</time>
      </trkpt>
      <trkpt lat="44.96433" lon="-0.36712">
        <ele>13.3</ele>
        <time>2011-11-02T08:42:19.000Z</time>
      </trkpt>
      <trkpt lat="44.96417" lon="-0.36676">
        <ele>10.8</ele>
        <time>2011-11-02T08:42:22.000Z</time>
      </trkpt>
      <trkpt lat="44.964" lon="-0.36638">
        <ele>7.4</ele>
        <time>2011-11-02T08:42:25.000Z</time>
      </trkpt>
      <trkpt lat="44.96383" lon="-0.36601">
        <ele>4.6</ele>
        <time>2011-11-02T08:42:28.000Z</time>
      </trkpt>
      <trkpt lat="44.96365" lon="-0.36562">
        <ele>2.4</ele>
        <time>2011-11-02T08:42:31.000Z</time>
      </trkpt>
      <trkpt lat="44.96348" lon="-0.36524">
        <ele>1</ele>
        <time>2011-11-02T08:42:34.000Z</time>
      </trkpt>
      <trkpt lat="44.96333" lon="-0.3649">
        <ele>1.3</ele>
        <time>2011-11-02T08:42:37.000Z</time>
      </trkpt>
      <trkpt lat="44.96312" lon="-0.36451">
        <ele>2.6</ele>
        <time>2011-11-02T08:42:41.000Z</time>
      </trkpt>
      <trkpt lat="44.96294" lon="-0.36413">
        <ele>4.2</ele>
        <time>2011-11-02T08:42:45.000Z</time>
      </trkpt>
      <trkpt lat="44.96278" lon="-0.36376">
        <ele>7.2</ele>
        <time>2011-11-02T08:42:49.000Z</time>
      </trkpt>
      <trkpt lat="44.96261" lon="-0.36337">
        <ele>9.1</ele>
        <time>2011-11-02T08:42:54.000Z</time>
      </trkpt>
      <trkpt lat="44.96244" lon="-0.36298">
        <ele>12.3</ele>
        <time>2011-11-02T08:42:59.000Z</time>
      </trkpt>
      <trkpt lat="44.96229" lon="-0.36264">
        <ele>14.9</ele>
        <time>2011-11-02T08:43:03.000Z</time>
      </trkpt>
      <trkpt lat="44.96215" lon="-0.36227">
        <ele>14.8</ele>
        <time>2011-11-02T08:43:08.000Z</time>
      </trkpt>
      <trkpt lat="44.96202" lon="-0.36186">
        <ele>13.4</ele>
        <time>2011-11-02T08:43:14.000Z</time>
      </trkpt>
      <trkpt lat="44.96187" lon="-0.36154">
        <ele>10.1</ele>
        <time>2011-11-02T08:43:19.000Z</time>
      </trkpt>
      <trkpt lat="44.96169" lon="-0.36116">
        <ele>7.1</ele>
        <time>2011-11-02T08:43:25.000Z</time>
      </trkpt>
      <trkpt lat="44.96149" lon="-0.36081">
        <ele>3.2</ele>
        <time>2011-11-02T08:43:31.000Z</time>
      </trkpt>
      <trkpt lat="44.96133" lon="-0.36047">
        <ele>1.7</ele>
        <time>2011-11-02T08:43:37.000Z</time>
      </trkpt>
      <trkpt lat="44.96119" lon="-0.36013">
        <ele>1.4</ele>
        <time>2011-11-02T08:43:43.000Z</time>
      </trkpt>
      <trkpt lat="44.96102" lon="-0.35978">
        <ele>1</ele>
        <time>2011-11-02T08:43:50.000Z</time>
      </trkpt>
      <trkpt lat="44.96087" lon="-0.35944">
        <ele>0.9</ele>
        <time>2011-11-02T08:43:57.000Z</time>
      </trkpt>
      <trkpt lat="44.96072" lon="-0.35909">
        <ele>0.9</ele>
        <time>2011-11-02T08:44:05.000Z</time>
      </trkpt>
      <trkpt lat="44.96055" lon="-0.35873">
        <ele>0.4</ele>
        <time>2011-11-02T08:44:14.000Z</time>
      </trkpt>
      <trkpt lat="44.96041" lon="-0.35838">
        <ele>0.8</ele>
        <time>2011-11-02T08:44:22.000Z</time>
      </trkpt>
      <trkpt lat="44.96025" lon="-0.35802">
        <ele>1.8</ele>
        <time>2011-11-02T08:44:31.000Z</time>
      </trkpt>
      <trkpt lat="44.96009" lon="-0.35769">
        <ele>3.3</ele>
        <time>2011-11-02T08:44:40.000Z</time>
      </trkpt>
      <trkpt lat="44.95993" lon="-0.35735">
        <ele>1</ele>
        <time>2011-11-02T08:44:48.000Z</time>
      </trkpt>
      <trkpt lat="44.95978" lon="-0.35702">
        <ele>1.7</ele>
        <time>2011-11-02T08:44:59.000Z</time>
      </trkpt>
      <trkpt lat="44.95964" lon="-0.35668">
        <ele>3.1</ele>
        <time>2011-11-02T08:45:13.000Z</time>
      </trkpt>
      <trkpt lat="44.95949" lon="-0.35636">
        <ele>3.6</ele>
        <time>2011-11-02T08:45:28.000Z</time>
      </trkpt>
      <trkpt lat="44.95935" lon="-0.35602">
        <ele>5</ele>
        <time>2011-11-02T08:45:42.000Z</time>
      </trkpt>
      <trkpt lat="44.9592" lon="-0.35569">
        <ele>5.8</ele>
        <time>2011-11-02T08:45:56.000Z</time>
      </trkpt>
      <trkpt lat="44.95905" lon="-0.35537">
        <ele>6.8</ele>
        <time>2011-11-02T08:46:12.000Z</time>
      </trkpt>
      <trkpt lat="44.95888" lon="-0.35507">
        <ele>11.9</ele>
        <time>2011-11-02T08:46:30.000Z</time>
      </trkpt>
      <trkpt lat="44.95881" lon="-0.35469">
        <ele>21.5</ele>
        <time>2011-11-02T08:46:46.000Z</time>
      </trkpt>
      <trkpt lat="44.95873" lon="-0.35432">
        <ele>27.2</ele>
        <time>2011-11-02T08:47:01.000Z</time>
      </trkpt>
      <trkpt lat="44.95851" lon="-0.35405">
        <ele>26.4</ele>
        <time>2011-11-02T08:47:14.000Z</time>
      </trkpt>
      <trkpt lat="44.95837" lon="-0.35372">
        <ele>27.7</ele>
        <time>2011-11-02T08:47:27.000Z</time>
      </trkpt>
      <trkpt lat="44.9582" lon="-0.35342">
        <ele>23.3</ele>
        <time>2011-11-02T08:47:42.000Z</time>
      </trkpt>
      <trkpt lat="44.95802" lon="-0.35312">
        <ele>22.4</ele>
        <time>2011-11-02T08:47:57.000Z</time>
      </trkpt>
      <trkpt lat="44.95788" lon="-0.35277">
        <ele>21.1</ele>
        <time>2011-11-02T08:48:09.000Z</time>
      </trkpt>
      <trkpt lat="44.95773" lon="-0.35241">
        <ele>20.5</ele>
        <time>2011-11-02T08:48:20.000Z</time>
      </trkpt>
      <trkpt lat="44.95756" lon="-0.35207">
        <ele>20.3</ele>
        <time>2011-11-02T08:48:31.000Z</time>
      </trkpt>
      <trkpt lat="44.95741" lon="-0.35173">
        <ele>21</ele>
        <time>2011-11-02T08:48:42.000Z</time>
      </trkpt>
      <trkpt lat="44.95726" lon="-0.35141">
        <ele>21.6</ele>
        <time>2011-11-02T08:48:52.000Z</time>
      </trkpt>
      <trkpt lat="44.95711" lon="-0.35108">
        <ele>21.9</ele>
        <time>2011-11-02T08:49:02.000Z</time>
      </trkpt>
      <trkpt lat="44.95696" lon="-0.35075">
        <ele>22.4</ele>
        <time>2011-11-02T08:49:12.000Z</time>
      </trkpt>
      <trkpt lat="44.9568" lon="-0.35041">
        <ele>22.5</ele>
        <time>2011-11-02T08:49:22.000Z</time>
      </trkpt>
      <trkpt lat="44.95666" lon="-0.35009">
        <ele>23</ele>
        <time>2011-11-02T08:49:31.000Z</time>
      </trkpt>
      <trkpt lat="44.9565" lon="-0.34973">
        <ele>23.6</ele>
        <time>2011-11-02T08:49:41.000Z</time>
      </trkpt>
      <trkpt lat="44.95634" lon="-0.34938">
        <ele>23.9</ele>
        <time>2011-11-02T08:49:51.000Z</time>
      </trkpt>
      <trkpt lat="44.95618" lon="-0.34906">
        <ele>25.1</ele>
        <time>2011-11-02T08:50:00.000Z</time>
      </trkpt>
      <trkpt lat="44.95604" lon="-0.34872">
        <ele>24.9</ele>
        <time>2011-11-02T08:50:09.000Z</time>
      </trkpt>
      <trkpt lat="44.95589" lon="-0.34839">
        <ele>25.6</ele>
        <time>2011-11-02T08:50:18.000Z</time>
      </trkpt>
      <trkpt lat="44.95576" lon="-0.34806">
        <ele>25.7</ele>
        <time>2011-11-02T08:50:27.000Z</time>
      </trkpt>
      <trkpt lat="44.9556" lon="-0.34771">
        <ele>26.3</ele>
        <time>2011-11-02T08:50:37.000Z</time>
      </trkpt>
      <trkpt lat="44.95545" lon="-0.3474">
        <ele>27.1</ele>
        <time>2011-11-02T08:50:46.000Z</time>
      </trkpt>
      <trkpt lat="44.9553" lon="-0.34704">
        <ele>29.2</ele>
        <time>2011-11-02T08:50:56.000Z</time>
      </trkpt>
      <trkpt lat="44.95517" lon="-0.3467">
        <ele>32.1</ele>
        <time>2011-11-02T08:51:06.000Z</time>
      </trkpt>
      <trkpt lat="44.955" lon="-0.34636">
        <ele>33.2</ele>
        <time>2011-11-02T08:51:16.000Z</time>
      </trkpt>
      <trkpt lat="44.95486" lon="-0.34603">
        <ele>32.7</ele>
        <time>2011-11-02T08:51:25.000Z</time>
      </trkpt>
      <trkpt lat="44.95469" lon="-0.3457">
        <ele>33.4</ele>
        <time>2011-11-02T08:51:35.000Z</time>
      </trkpt>
      <trkpt lat="44.95454" lon="-0.34536">
        <ele>33.9</ele>
        <time>2011-11-02T08:51:46.000Z</time>
      </trkpt>
      <trkpt lat="44.95437" lon="-0.34503">
        <ele>35.4</ele>
        <time>2011-11-02T08:51:57.000Z</time>
      </trkpt>
      <trkpt lat="44.95419" lon="-0.34473">
        <ele>35.3</ele>
        <time>2011-11-02T08:52:12.000Z</time>
      </trkpt>
      <trkpt lat="44.95404" lon="-0.3444">
        <ele>34.8</ele>
        <time>2011-11-02T08:52:24.000Z</time>
      </trkpt>
      <trkpt lat="44.95392" lon="-0.34407">
        <ele>37.6</ele>
        <time>2011-11-02T08:52:35.000Z</time>
      </trkpt>
      <trkpt lat="44.95375" lon="-0.34374">
        <ele>39.5</ele>
        <time>2011-11-02T08:52:46.000Z</time>
      </trkpt>
      <trkpt lat="44.95354" lon="-0.34349">
        <ele>38.1</ele>
        <time>2011-11-02T08:52:57.000Z</time>
      </trkpt>
      <trkpt lat="44.95334" lon="-0.34323">
        <ele>44.1</ele>
        <time>2011-11-02T08:53:12.000Z</time>
      </trkpt>
      <trkpt lat="44.95306" lon="-0.34314">
        <ele>43.9</ele>
        <time>2011-11-02T08:53:22.000Z</time>
      </trkpt>
      <trkpt lat="44.95277" lon="-0.34315">
        <ele>43.9</ele>
        <time>2011-11-02T08:53:30.000Z</time>
      </trkpt>
      <trkpt lat="44.95246" lon="-0.34322">
        <ele>44.4</ele>
        <time>2011-11-02T08:53:37.000Z</time>
      </trkpt>
      <trkpt lat="44.95217" lon="-0.3433">
        <ele>44.1</ele>
        <time>2011-11-02T08:53:42.000Z</time>
      </trkpt>
      <trkpt lat="44.95187" lon="-0.34337">
        <ele>43</ele>
        <time>2011-11-02T08:53:47.000Z</time>
      </trkpt>
      <trkpt lat="44.95155" lon="-0.34345">
        <ele>41.5</ele>
        <time>2011-11-02T08:53:51.000Z</time>
      </trkpt>
      <trkpt lat="44.95123" lon="-0.34355">
        <ele>38.8</ele>
        <time>2011-11-02T08:53:55.000Z</time>
      </trkpt>
      <trkpt lat="44.9509" lon="-0.34364">
        <ele>35</ele>
        <time>2011-11-02T08:53:59.000Z</time>
      </trkpt>
      <trkpt lat="44.95055" lon="-0.34372">
        <ele>30.2</ele>
        <time>2011-11-02T08:54:03.000Z</time>
      </trkpt>
      <trkpt lat="44.95028" lon="-0.34376">
        <ele>24.8</ele>
        <time>2011-11-02T08:54:06.000Z</time>
      </trkpt>
      <trkpt lat="44.94996" lon="-0.34368">
        <ele>22.2</ele>
        <time>2011-11-02T08:54:10.000Z</time>
      </trkpt>
      <trkpt lat="44.94967" lon="-0.34352">
        <ele>20</ele>
        <time>2011-11-02T08:54:14.000Z</time>
      </trkpt>
      <trkpt lat="44.94942" lon="-0.34322">
        <ele>18.5</ele>
        <time>2011-11-02T08:54:18.000Z</time>
      </trkpt>
      <trkpt lat="44.94921" lon="-0.34283">
        <ele>17.3</ele>
        <time>2011-11-02T08:54:22.000Z</time>
      </trkpt>
      <trkpt lat="44.94908" lon="-0.3424">
        <ele>17</ele>
        <time>2011-11-02T08:54:26.000Z</time>
      </trkpt>
      <trkpt lat="44.94901" lon="-0.34197">
        <ele>15.7</ele>
        <time>2011-11-02T08:54:30.000Z</time>
      </trkpt>
      <trkpt lat="44.94895" lon="-0.34155">
        <ele>15.2</ele>
        <time>2011-11-02T08:54:34.000Z</time>
      </trkpt>
      <trkpt lat="44.94891" lon="-0.34112">
        <ele>13.4</ele>
        <time>2011-11-02T08:54:38.000Z</time>
      </trkpt>
      <trkpt lat="44.94886" lon="-0.3407">
        <ele>12.2</ele>
        <time>2011-11-02T08:54:42.000Z</time>
      </trkpt>
      <trkpt lat="44.94881" lon="-0.34028">
        <ele>11.1</ele>
        <time>2011-11-02T08:54:46.000Z</time>
      </trkpt>
      <trkpt lat="44.94877" lon="-0.33985">
        <ele>9.9</ele>
        <time>2011-11-02T08:54:50.000Z</time>
      </trkpt>
      <trkpt lat="44.94872" lon="-0.33943">
        <ele>9</ele>
        <time>2011-11-02T08:54:54.000Z</time>
      </trkpt>
      <trkpt lat="44.94867" lon="-0.33901">
        <ele>8.3</ele>
        <time>2011-11-02T08:54:58.000Z</time>
      </trkpt>
      <trkpt lat="44.94862" lon="-0.33859">
        <ele>7.5</ele>
        <time>2011-11-02T08:55:02.000Z</time>
      </trkpt>
      <trkpt lat="44.94857" lon="-0.3382">
        <ele>7</ele>
        <time>2011-11-02T08:55:06.000Z</time>
      </trkpt>
      <trkpt lat="44.94851" lon="-0.33774">
        <ele>7.6</ele>
        <time>2011-11-02T08:55:11.000Z</time>
      </trkpt>
      <trkpt lat="44.94845" lon="-0.33728">
        <ele>8.7</ele>
        <time>2011-11-02T08:55:16.000Z</time>
      </trkpt>
      <trkpt lat="44.94838" lon="-0.33686">
        <ele>8.2</ele>
        <time>2011-11-02T08:55:21.000Z</time>
      </trkpt>
      <trkpt lat="44.94833" lon="-0.33646">
        <ele>6.9</ele>
        <time>2011-11-02T08:55:26.000Z</time>
      </trkpt>
      <trkpt lat="44.94827" lon="-0.33602">
        <ele>5.8</ele>
        <time>2011-11-02T08:55:32.000Z</time>
      </trkpt>
      <trkpt lat="44.94823" lon="-0.3356">
        <ele>4.4</ele>
        <time>2011-11-02T08:55:37.000Z</time>
      </trkpt>
      <trkpt lat="44.94822" lon="-0.3352">
        <ele>3.7</ele>
        <time>2011-11-02T08:55:42.000Z</time>
      </trkpt>
      <trkpt lat="44.94825" lon="-0.33476">
        <ele>4.3</ele>
        <time>2011-11-02T08:55:49.000Z</time>
      </trkpt>
      <trkpt lat="44.94823" lon="-0.33437">
        <ele>3.7</ele>
        <time>2011-11-02T08:55:55.000Z</time>
      </trkpt>
      <trkpt lat="44.94824" lon="-0.33395">
        <ele>1.8</ele>
        <time>2011-11-02T08:56:02.000Z</time>
      </trkpt>
      <trkpt lat="44.94823" lon="-0.33356">
        <ele>0.8</ele>
        <time>2011-11-02T08:56:09.000Z</time>
      </trkpt>
      <trkpt lat="44.94821" lon="-0.33317">
        <ele>2.3</ele>
        <time>2011-11-02T08:56:16.000Z</time>
      </trkpt>
      <trkpt lat="44.9482" lon="-0.33274">
        <ele>2.3</ele>
        <time>2011-11-02T08:56:24.000Z</time>
      </trkpt>
      <trkpt lat="44.9481" lon="-0.33234">
        <ele>0.9</ele>
        <time>2011-11-02T08:56:32.000Z</time>
      </trkpt>
      <trkpt lat="44.94806" lon="-0.33195">
        <ele>-0.3</ele>
        <time>2011-11-02T08:56:39.000Z</time>
      </trkpt>
      <trkpt lat="44.94788" lon="-0.33162">
        <ele>0.7</ele>
        <time>2011-11-02T08:56:45.000Z</time>
      </trkpt>
      <trkpt lat="44.9477" lon="-0.33127">
        <ele>0.8</ele>
        <time>2011-11-02T08:56:51.000Z</time>
      </trkpt>
      <trkpt lat="44.94752" lon="-0.33092">
        <ele>0.7</ele>
        <time>2011-11-02T08:56:57.000Z</time>
      </trkpt>
      <trkpt lat="44.94735" lon="-0.33061">
        <ele>0.3</ele>
        <time>2011-11-02T08:57:03.000Z</time>
      </trkpt>
      <trkpt lat="44.94718" lon="-0.3303">
        <ele>1</ele>
        <time>2011-11-02T08:57:09.000Z</time>
      </trkpt>
      <trkpt lat="44.94703" lon="-0.32998">
        <ele>1.5</ele>
        <time>2011-11-02T08:57:15.000Z</time>
      </trkpt>
      <trkpt lat="44.94687" lon="-0.32961">
        <ele>1.9</ele>
        <time>2011-11-02T08:57:22.000Z</time>
      </trkpt>
      <trkpt lat="44.94674" lon="-0.32926">
        <ele>2</ele>
        <time>2011-11-02T08:57:29.000Z</time>
      </trkpt>
      <trkpt lat="44.94664" lon="-0.3289">
        <ele>1.8</ele>
        <time>2011-11-02T08:57:36.000Z</time>
      </trkpt>
      <trkpt lat="44.94651" lon="-0.32854">
        <ele>4.3</ele>
        <time>2011-11-02T08:57:44.000Z</time>
      </trkpt>
      <trkpt lat="44.94639" lon="-0.32818">
        <ele>6.1</ele>
        <time>2011-11-02T08:57:52.000Z</time>
      </trkpt>
      <trkpt lat="44.9463" lon="-0.32781">
        <ele>7.2</ele>
        <time>2011-11-02T08:58:00.000Z</time>
      </trkpt>
      <trkpt lat="44.94621" lon="-0.32745">
        <ele>8.7</ele>
        <time>2011-11-02T08:58:08.000Z</time>
      </trkpt>
      <trkpt lat="44.94609" lon="-0.32705">
        <ele>11.1</ele>
        <time>2011-11-02T08:58:17.000Z</time>
      </trkpt>
      <trkpt lat="44.94594" lon="-0.32673">
        <ele>17.1</ele>
        <time>2011-11-02T08:58:26.000Z</time>
      </trkpt>
      <trkpt lat="44.9459" lon="-0.32635">
        <ele>15.1</ele>
        <time>2011-11-02T08:58:33.000Z</time>
      </trkpt>
      <trkpt lat="44.94585" lon="-0.32598">
        <ele>12</ele>
        <time>2011-11-02T08:58:40.000Z</time>
      </trkpt>
      <trkpt lat="44.9458" lon="-0.32561">
        <ele>9.3</ele>
        <time>2011-11-02T08:58:46.000Z</time>
      </trkpt>
      <trkpt lat="44.94564" lon="-0.32528">
        <ele>7.5</ele>
        <time>2011-11-02T08:58:53.000Z</time>
      </trkpt>
      <trkpt lat="44.94545" lon="-0.325">
        <ele>6.7</ele>
        <time>2011-11-02T08:59:00.000Z</time>
      </trkpt>
      <trkpt lat="44.94525" lon="-0.32469">
        <ele>3.3</ele>
        <time>2011-11-02T08:59:08.000Z</time>
      </trkpt>
      <trkpt lat="44.94505" lon="-0.32438">
        <ele>0.8</ele>
        <time>2011-11-02T08:59:16.000Z</time>
      </trkpt>
      <trkpt lat="44.94485" lon="-0.32407">
        <ele>-0.3</ele>
        <time>2011-11-02T08:59:24.000Z</time>
      </trkpt>
      <trkpt lat="44.94463" lon="-0.32377">
        <ele>-1.3</ele>
        <time>2011-11-02T08:59:32.000Z</time>
      </trkpt>
      <trkpt lat="44.94442" lon="-0.32347">
        <ele>-1.7</ele>
        <time>2011-11-02T08:59:40.000Z</time>
      </trkpt>
      <trkpt lat="44.94423" lon="-0.32321">
        <ele>-2.5</ele>
        <time>2011-11-02T08:59:47.000Z</time>
      </trkpt>
      <trkpt lat="44.94404" lon="-0.32293">
        <ele>-3.2</ele>
        <time>2011-11-02T08:59:54.000Z</time>
      </trkpt>
      <trkpt lat="44.94382" lon="-0.32265">
        <ele>-3.6</ele>
        <time>2011-11-02T09:00:02.000Z</time>
      </trkpt>
      <trkpt lat="44.94361" lon="-0.32236">
        <ele>-3.8</ele>
        <time>2011-11-02T09:00:10.000Z</time>
      </trkpt>
      <trkpt lat="44.94339" lon="-0.32207">
        <ele>-4.4</ele>
        <time>2011-11-02T09:00:18.000Z</time>
      </trkpt>
      <trkpt lat="44.9432" lon="-0.32181">
        <ele>-4.8</ele>
        <time>2011-11-02T09:00:25.000Z</time>
      </trkpt>
      <trkpt lat="44.943" lon="-0.32154">
        <ele>-5.5</ele>
        <time>2011-11-02T09:00:32.000Z</time>
      </trkpt>
      <trkpt lat="44.94279" lon="-0.32126">
        <ele>-6</ele>
        <time>2011-11-02T09:00:39.000Z</time>
      </trkpt>
      <trkpt lat="44.94259" lon="-0.32099">
        <ele>-6.8</ele>
        <time>2011-11-02T09:00:46.000Z</time>
      </trkpt>
      <trkpt lat="44.94238" lon="-0.32073">
        <ele>-6.6</ele>
        <time>2011-11-02T09:00:53.000Z</time>
      </trkpt>
      <trkpt lat="44.94219" lon="-0.32046">
        <ele>-6.7</ele>
        <time>2011-11-02T09:01:00.000Z</time>
      </trkpt>
      <trkpt lat="44.94199" lon="-0.32019">
        <ele>-6.8</ele>
        <time>2011-11-02T09:01:07.000Z</time>
      </trkpt>
      <trkpt lat="44.94178" lon="-0.31992">
        <ele>-6.8</ele>
        <time>2011-11-02T09:01:14.000Z</time>
      </trkpt>
      <trkpt lat="44.94158" lon="-0.31965">
        <ele>-6.6</ele>
        <time>2011-11-02T09:01:21.000Z</time>
      </trkpt>
      <trkpt lat="44.94138" lon="-0.31937">
        <ele>-6.6</ele>
        <time>2011-11-02T09:01:28.000Z</time>
      </trkpt>
      <trkpt lat="44.94117" lon="-0.31908">
        <ele>-6.4</ele>
        <time>2011-11-02T09:01:36.000Z</time>
      </trkpt>
      <trkpt lat="44.94095" lon="-0.31879">
        <ele>-6</ele>
        <time>2011-11-02T09:01:44.000Z</time>
      </trkpt>
      <trkpt lat="44.94075" lon="-0.31853">
        <ele>-5.7</ele>
        <time>2011-11-02T09:01:51.000Z</time>
      </trkpt>
      <trkpt lat="44.94054" lon="-0.31825">
        <ele>-5.1</ele>
        <time>2011-11-02T09:01:58.000Z</time>
      </trkpt>
      <trkpt lat="44.94033" lon="-0.31796">
        <ele>-4.9</ele>
        <time>2011-11-02T09:02:05.000Z</time>
      </trkpt>
      <trkpt lat="44.94011" lon="-0.31767">
        <ele>-4.8</ele>
        <time>2011-11-02T09:02:12.000Z</time>
      </trkpt>
      <trkpt lat="44.93988" lon="-0.31739">
        <ele>-4.9</ele>
        <time>2011-11-02T09:02:19.000Z</time>
      </trkpt>
      <trkpt lat="44.93967" lon="-0.31709">
        <ele>-5.4</ele>
        <time>2011-11-02T09:02:26.000Z</time>
      </trkpt>
      <trkpt lat="44.93944" lon="-0.31681">
        <ele>-6</ele>
        <time>2011-11-02T09:02:33.000Z</time>
      </trkpt>
      <trkpt lat="44.93922" lon="-0.31651">
        <ele>-6.1</ele>
        <time>2011-11-02T09:02:40.000Z</time>
      </trkpt>
      <trkpt lat="44.939" lon="-0.3162">
        <ele>-6.3</ele>
        <time>2011-11-02T09:02:47.000Z</time>
      </trkpt>
      <trkpt lat="44.9388" lon="-0.31592">
        <ele>-6.6</ele>
        <time>2011-11-02T09:02:54.000Z</time>
      </trkpt>
      <trkpt lat="44.93858" lon="-0.31563">
        <ele>-6.5</ele>
        <time>2011-11-02T09:03:02.000Z</time>
      </trkpt>
      <trkpt lat="44.93835" lon="-0.31533">
        <ele>-6.5</ele>
        <time>2011-11-02T09:03:10.000Z</time>
      </trkpt>
      <trkpt lat="44.93813" lon="-0.31503">
        <ele>-6.8</ele>
        <time>2011-11-02T09:03:18.000Z</time>
      </trkpt>
      <trkpt lat="44.93791" lon="-0.31474">
        <ele>-6.5</ele>
        <time>2011-11-02T09:03:26.000Z</time>
      </trkpt>
      <trkpt lat="44.93768" lon="-0.31445">
        <ele>-6</ele>
        <time>2011-11-02T09:03:34.000Z</time>
      </trkpt>
      <trkpt lat="44.93746" lon="-0.31419">
        <ele>-3.9</ele>
        <time>2011-11-02T09:03:42.000Z</time>
      </trkpt>
      <trkpt lat="44.93728" lon="-0.31386">
        <ele>-1.9</ele>
        <time>2011-11-02T09:03:51.000Z</time>
      </trkpt>
      <trkpt lat="44.93705" lon="-0.3136">
        <ele>-1.4</ele>
        <time>2011-11-02T09:04:00.000Z</time>
      </trkpt>
      <trkpt lat="44.93684" lon="-0.3133">
        <ele>-2.2</ele>
        <time>2011-11-02T09:04:09.000Z</time>
      </trkpt>
      <trkpt lat="44.93663" lon="-0.31303">
        <ele>-0.3</ele>
        <time>2011-11-02T09:04:17.000Z</time>
      </trkpt>
      <trkpt lat="44.93642" lon="-0.31276">
        <ele>0.3</ele>
        <time>2011-11-02T09:04:25.000Z</time>
      </trkpt>
      <trkpt lat="44.93623" lon="-0.31249">
        <ele>-0.3</ele>
        <time>2011-11-02T09:04:32.000Z</time>
      </trkpt>
      <trkpt lat="44.93601" lon="-0.3122">
        <ele>-0.4</ele>
        <time>2011-11-02T09:04:40.000Z</time>
      </trkpt>
      <trkpt lat="44.93581" lon="-0.31193">
        <ele>-0.9</ele>
        <time>2011-11-02T09:04:47.000Z</time>
      </trkpt>
      <trkpt lat="44.93559" lon="-0.31167">
        <ele>-0.8</ele>
        <time>2011-11-02T09:04:54.000Z</time>
      </trkpt>
      <trkpt lat="44.93538" lon="-0.31139">
        <ele>-1</ele>
        <time>2011-11-02T09:05:01.000Z</time>
      </trkpt>
      <trkpt lat="44.93518" lon="-0.31109">
        <ele>-1.6</ele>
        <time>2011-11-02T09:05:08.000Z</time>
      </trkpt>
      <trkpt lat="44.93497" lon="-0.31079">
        <ele>-1.9</ele>
        <time>2011-11-02T09:05:15.000Z</time>
      </trkpt>
      <trkpt lat="44.93476" lon="-0.3105">
        <ele>-1.9</ele>
        <time>2011-11-02T09:05:22.000Z</time>
      </trkpt>
      <trkpt lat="44.93453" lon="-0.31019">
        <ele>-1.7</ele>
        <time>2011-11-02T09:05:29.000Z</time>
      </trkpt>
      <trkpt lat="44.93433" lon="-0.30994">
        <ele>-0.8</ele>
        <time>2011-11-02T09:05:35.000Z</time>
      </trkpt>
      <trkpt lat="44.93413" lon="-0.30967">
        <ele>-1.4</ele>
        <time>2011-11-02T09:05:41.000Z</time>
      </trkpt>
      <trkpt lat="44.93394" lon="-0.3094">
        <ele>-1.3</ele>
        <time>2011-11-02T09:05:47.000Z</time>
      </trkpt>
      <trkpt lat="44.93374" lon="-0.30912">
        <ele>-1.5</ele>
        <time>2011-11-02T09:05:53.000Z</time>
      </trkpt>
      <trkpt lat="44.93355" lon="-0.30884">
        <ele>-0.7</ele>
        <time>2011-11-02T09:05:59.000Z</time>
      </trkpt>
      <trkpt lat="44.93333" lon="-0.30859">
        <ele>-1.1</ele>
        <time>2011-11-02T09:06:05.000Z</time>
      </trkpt>
      <trkpt lat="44.93313" lon="-0.30833">
        <ele>-0.8</ele>
        <time>2011-11-02T09:06:11.000Z</time>
      </trkpt>
      <trkpt lat="44.93291" lon="-0.30805">
        <ele>-1.3</ele>
        <time>2011-11-02T09:06:18.000Z</time>
      </trkpt>
      <trkpt lat="44.9327" lon="-0.30774">
        <ele>-2.1</ele>
        <time>2011-11-02T09:06:26.000Z</time>
      </trkpt>
      <trkpt lat="44.9325" lon="-0.30746">
        <ele>-2.8</ele>
        <time>2011-11-02T09:06:33.000Z</time>
      </trkpt>
      <trkpt lat="44.93228" lon="-0.3072">
        <ele>-2.7</ele>
        <time>2011-11-02T09:06:40.000Z</time>
      </trkpt>
      <trkpt lat="44.93209" lon="-0.3069">
        <ele>-4</ele>
        <time>2011-11-02T09:06:47.000Z</time>
      </trkpt>
      <trkpt lat="44.93191" lon="-0.30661">
        <ele>-3.5</ele>
        <time>2011-11-02T09:06:54.000Z</time>
      </trkpt>
      <trkpt lat="44.93172" lon="-0.30629">
        <ele>-0.7</ele>
        <time>2011-11-02T09:07:02.000Z</time>
      </trkpt>
      <trkpt lat="44.9315" lon="-0.30605">
        <ele>0.5</ele>
        <time>2011-11-02T09:07:09.000Z</time>
      </trkpt>
      <trkpt lat="44.9313" lon="-0.30577">
        <ele>1.7</ele>
        <time>2011-11-02T09:07:16.000Z</time>
      </trkpt>
      <trkpt lat="44.9311" lon="-0.30551">
        <ele>1.4</ele>
        <time>2011-11-02T09:07:23.000Z</time>
      </trkpt>
      <trkpt lat="44.9309" lon="-0.30524">
        <ele>2.4</ele>
        <time>2011-11-02T09:07:31.000Z</time>
      </trkpt>
      <trkpt lat="44.9307" lon="-0.30497">
        <ele>4.4</ele>
        <time>2011-11-02T09:07:39.000Z</time>
      </trkpt>
      <trkpt lat="44.93048" lon="-0.30473">
        <ele>4.4</ele>
        <time>2011-11-02T09:07:46.000Z</time>
      </trkpt>
      <trkpt lat="44.93026" lon="-0.30446">
        <ele>4.4</ele>
        <time>2011-11-02T09:07:54.000Z</time>
      </trkpt>
      <trkpt lat="44.93004" lon="-0.3042">
        <ele>4.1</ele>
        <time>2011-11-02T09:08:01.000Z</time>
      </trkpt>
      <trkpt lat="44.92982" lon="-0.3039">
        <ele>2.1</ele>
        <time>2011-11-02T09:08:08.000Z</time>
      </trkpt>
      <trkpt lat="44.92958" lon="-0.30365">
        <ele>2.6</ele>
        <time>2011-11-02T09:08:15.000Z</time>
      </trkpt>
      <trkpt lat="44.92933" lon="-0.30348">
        <ele>4.8</ele>
        <time>2011-11-02T09:08:21.000Z</time>
      </trkpt>
      <trkpt lat="44.92904" lon="-0.30335">
        <ele>5.9</ele>
        <time>2011-11-02T09:08:27.000Z</time>
      </trkpt>
      <trkpt lat="44.92875" lon="-0.30318">
        <ele>6.2</ele>
        <time>2011-11-02T09:08:33.000Z</time>
      </trkpt>
      <trkpt lat="44.92851" lon="-0.30299">
        <ele>2.5</ele>
        <time>2011-11-02T09:08:39.000Z</time>
      </trkpt>
      <trkpt lat="44.92824" lon="-0.30279">
        <ele>2.3</ele>
        <time>2011-11-02T09:08:46.000Z</time>
      </trkpt>
      <trkpt lat="44.92796" lon="-0.30263">
        <ele>3.5</ele>
        <time>2011-11-02T09:08:53.000Z</time>
      </trkpt>
      <trkpt lat="44.92771" lon="-0.30247">
        <ele>6.1</ele>
        <time>2011-11-02T09:09:01.000Z</time>
      </trkpt>
      <trkpt lat="44.92745" lon="-0.30228">
        <ele>5.4</ele>
        <time>2011-11-02T09:09:10.000Z</time>
      </trkpt>
      <trkpt lat="44.92719" lon="-0.30208">
        <ele>5</ele>
        <time>2011-11-02T09:09:19.000Z</time>
      </trkpt>
      <trkpt lat="44.92693" lon="-0.30194">
        <ele>8.8</ele>
        <time>2011-11-02T09:09:30.000Z</time>
      </trkpt>
      <trkpt lat="44.92667" lon="-0.30178">
        <ele>12.1</ele>
        <time>2011-11-02T09:09:39.000Z</time>
      </trkpt>
      <trkpt lat="44.92639" lon="-0.30164">
        <ele>16.8</ele>
        <time>2011-11-02T09:09:48.000Z</time>
      </trkpt>
      <trkpt lat="44.92614" lon="-0.30147">
        <ele>23.3</ele>
        <time>2011-11-02T09:09:58.000Z</time>
      </trkpt>
      <trkpt lat="44.92587" lon="-0.3014">
        <ele>24.8</ele>
        <time>2011-11-02T09:10:06.000Z</time>
      </trkpt>
      <trkpt lat="44.9256" lon="-0.30144">
        <ele>26.3</ele>
        <time>2011-11-02T09:10:14.000Z</time>
      </trkpt>
      <trkpt lat="44.92532" lon="-0.30139">
        <ele>28.1</ele>
        <time>2011-11-02T09:10:23.000Z</time>
      </trkpt>
      <trkpt lat="44.92504" lon="-0.30124">
        <ele>27.9</ele>
        <time>2011-11-02T09:10:31.000Z</time>
      </trkpt>
      <trkpt lat="44.92476" lon="-0.30123">
        <ele>26.7</ele>
        <time>2011-11-02T09:10:37.000Z</time>
      </trkpt>
      <trkpt lat="44.92448" lon="-0.30106">
        <ele>27.9</ele>
        <time>2011-11-02T09:10:45.000Z</time>
      </trkpt>
      <trkpt lat="44.92418" lon="-0.301">
        <ele>28</ele>
        <time>2011-11-02T09:10:50.000Z</time>
      </trkpt>
      <trkpt lat="44.92388" lon="-0.30086">
        <ele>28.6</ele>
        <time>2011-11-02T09:10:56.000Z</time>
      </trkpt>
      <trkpt lat="44.92365" lon="-0.30058">
        <ele>20.6</ele>
        <time>2011-11-02T09:11:02.000Z</time>
      </trkpt>
      <trkpt lat="44.92346" lon="-0.30024">
        <ele>19.2</ele>
        <time>2011-11-02T09:11:08.000Z</time>
      </trkpt>
      <trkpt lat="44.92329" lon="-0.29989">
        <ele>18.1</ele>
        <time>2011-11-02T09:11:14.000Z</time>
      </trkpt>
      <trkpt lat="44.92317" lon="-0.29953">
        <ele>15.1</ele>
        <time>2011-11-02T09:11:20.000Z</time>
      </trkpt>
      <trkpt lat="44.92307" lon="-0.29912">
        <ele>13.5</ele>
        <time>2011-11-02T09:11:28.000Z</time>
      </trkpt>
      <trkpt lat="44.92299" lon="-0.29873">
        <ele>12.7</ele>
        <time>2011-11-02T09:11:36.000Z</time>
      </trkpt>
      <trkpt lat="44.92291" lon="-0.29835">
        <ele>12.3</ele>
        <time>2011-11-02T09:11:44.000Z</time>
      </trkpt>
      <trkpt lat="44.92283" lon="-0.29797">
        <ele>11.6</ele>
        <time>2011-11-02T09:11:52.000Z</time>
      </trkpt>
      <trkpt lat="44.9228" lon="-0.29755">
        <ele>10.9</ele>
        <time>2011-11-02T09:12:00.000Z</time>
      </trkpt>
      <trkpt lat="44.92287" lon="-0.29717">
        <ele>12.6</ele>
        <time>2011-11-02T09:12:10.000Z</time>
      </trkpt>
      <trkpt lat="44.92281" lon="-0.2968">
        <ele>18.1</ele>
        <time>2011-11-02T09:12:21.000Z</time>
      </trkpt>
      <trkpt lat="44.92275" lon="-0.2964">
        <ele>18.2</ele>
        <time>2011-11-02T09:12:31.000Z</time>
      </trkpt>
      <trkpt lat="44.9227" lon="-0.29599">
        <ele>13.9</ele>
        <time>2011-11-02T09:12:40.000Z</time>
      </trkpt>
      <trkpt lat="44.92262" lon="-0.29559">
        <ele>12.2</ele>
        <time>2011-11-02T09:12:49.000Z</time>
      </trkpt>
      <trkpt lat="44.92254" lon="-0.29522">
        <ele>9.7</ele>
        <time>2011-11-02T09:12:58.000Z</time>
      </trkpt>
      <trkpt lat="44.92249" lon="-0.29481">
        <ele>10.6</ele>
        <time>2011-11-02T09:13:07.000Z</time>
      </trkpt>
      <trkpt lat="44.92247" lon="-0.29442">
        <ele>11.1</ele>
        <time>2011-11-02T09:13:15.000Z</time>
      </trkpt>
      <trkpt lat="44.92248" lon="-0.29404">
        <ele>12.7</ele>
        <time>2011-11-02T09:13:22.000Z</time>
      </trkpt>
      <trkpt lat="44.92252" lon="-0.29365">
        <ele>13.3</ele>
        <time>2011-11-02T09:13:29.000Z</time>
      </trkpt>
      <trkpt lat="44.92254" lon="-0.29322">
        <ele>14.3</ele>
        <time>2011-11-02T09:13:36.000Z</time>
      </trkpt>
      <trkpt lat="44.92254" lon="-0.2928">
        <ele>13.2</ele>
        <time>2011-11-02T09:13:42.000Z</time>
      </trkpt>
      <trkpt lat="44.92255" lon="-0.2924">
        <ele>11.6</ele>
        <time>2011-11-02T09:13:48.000Z</time>
      </trkpt>
      <trkpt lat="44.92257" lon="-0.29197">
        <ele>11.8</ele>
        <time>2011-11-02T09:13:54.000Z</time>
      </trkpt>
      <trkpt lat="44.92256" lon="-0.29158">
        <ele>9.8</ele>
        <time>2011-11-02T09:13:59.000Z</time>
      </trkpt>
      <trkpt lat="44.92255" lon="-0.29117">
        <ele>8.8</ele>
        <time>2011-11-02T09:14:04.000Z</time>
      </trkpt>
      <trkpt lat="44.92253" lon="-0.29077">
        <ele>8.2</ele>
        <time>2011-11-02T09:14:09.000Z</time>
      </trkpt>
      <trkpt lat="44.9225" lon="-0.29032">
        <ele>7.4</ele>
        <time>2011-11-02T09:14:15.000Z</time>
      </trkpt>
      <trkpt lat="44.92246" lon="-0.28989">
        <ele>7</ele>
        <time>2011-11-02T09:14:21.000Z</time>
      </trkpt>
      <trkpt lat="44.92244" lon="-0.28946">
        <ele>7.1</ele>
        <time>2011-11-02T09:14:28.000Z</time>
      </trkpt>
      <trkpt lat="44.9224" lon="-0.28907">
        <ele>7</ele>
        <time>2011-11-02T09:14:35.000Z</time>
      </trkpt>
      <trkpt lat="44.9224" lon="-0.28868">
        <ele>5.5</ele>
        <time>2011-11-02T09:14:42.000Z</time>
      </trkpt>
      <trkpt lat="44.9225" lon="-0.28832">
        <ele>6.8</ele>
        <time>2011-11-02T09:14:49.000Z</time>
      </trkpt>
      <trkpt lat="44.9227" lon="-0.28801">
        <ele>9.2</ele>
        <time>2011-11-02T09:14:57.000Z</time>
      </trkpt>
      <trkpt lat="44.92292" lon="-0.28776">
        <ele>12.9</ele>
        <time>2011-11-02T09:15:05.000Z</time>
      </trkpt>
      <trkpt lat="44.92309" lon="-0.28748">
        <ele>19.8</ele>
        <time>2011-11-02T09:15:14.000Z</time>
      </trkpt>
      <trkpt lat="44.92326" lon="-0.2872">
        <ele>25.7</ele>
        <time>2011-11-02T09:15:23.000Z</time>
      </trkpt>
      <trkpt lat="44.92342" lon="-0.28688">
        <ele>24.4</ele>
        <time>2011-11-02T09:15:29.000Z</time>
      </trkpt>
      <trkpt lat="44.92354" lon="-0.28648">
        <ele>20.4</ele>
        <time>2011-11-02T09:15:35.000Z</time>
      </trkpt>
      <trkpt lat="44.92368" lon="-0.28609">
        <ele>17.2</ele>
        <time>2011-11-02T09:15:41.000Z</time>
      </trkpt>
      <trkpt lat="44.92379" lon="-0.28572">
        <ele>15</ele>
        <time>2011-11-02T09:15:47.000Z</time>
      </trkpt>
      <trkpt lat="44.92388" lon="-0.28531">
        <ele>14.1</ele>
        <time>2011-11-02T09:15:54.000Z</time>
      </trkpt>
      <trkpt lat="44.92394" lon="-0.28493">
        <ele>15.5</ele>
        <time>2011-11-02T09:16:01.000Z</time>
      </trkpt>
      <trkpt lat="44.92401" lon="-0.28453">
        <ele>14.9</ele>
        <time>2011-11-02T09:16:08.000Z</time>
      </trkpt>
      <trkpt lat="44.92406" lon="-0.28415">
        <ele>18.1</ele>
        <time>2011-11-02T09:16:15.000Z</time>
      </trkpt>
      <trkpt lat="44.92407" lon="-0.28376">
        <ele>19.8</ele>
        <time>2011-11-02T09:16:22.000Z</time>
      </trkpt>
      <trkpt lat="44.92402" lon="-0.28336">
        <ele>17.4</ele>
        <time>2011-11-02T09:16:29.000Z</time>
      </trkpt>
      <trkpt lat="44.92392" lon="-0.28297">
        <ele>15.6</ele>
        <time>2011-11-02T09:16:35.000Z</time>
      </trkpt>
      <trkpt lat="44.92369" lon="-0.28272">
        <ele>11.5</ele>
        <time>2011-11-02T09:16:42.000Z</time>
      </trkpt>
      <trkpt lat="44.9234" lon="-0.28253">
        <ele>8.8</ele>
        <time>2011-11-02T09:16:49.000Z</time>
      </trkpt>
      <trkpt lat="44.92314" lon="-0.28231">
        <ele>6.8</ele>
        <time>2011-11-02T09:16:56.000Z</time>
      </trkpt>
      <trkpt lat="44.92297" lon="-0.282">
        <ele>6.2</ele>
        <time>2011-11-02T09:17:02.000Z</time>
      </trkpt>
      <trkpt lat="44.92283" lon="-0.28165">
        <ele>5.6</ele>
        <time>2011-11-02T09:17:08.000Z</time>
      </trkpt>
      <trkpt lat="44.92269" lon="-0.28126">
        <ele>7.5</ele>
        <time>2011-11-02T09:17:15.000Z</time>
      </trkpt>
      <trkpt lat="44.92256" lon="-0.28091">
        <ele>8.1</ele>
        <time>2011-11-02T09:17:21.000Z</time>
      </trkpt>
      <trkpt lat="44.92241" lon="-0.28056">
        <ele>7.5</ele>
        <time>2011-11-02T09:17:27.000Z</time>
      </trkpt>
      <trkpt lat="44.92226" lon="-0.28024">
        <ele>4.9</ele>
        <time>2011-11-02T09:17:33.000Z</time>
      </trkpt>
      <trkpt lat="44.9221" lon="-0.27988">
        <ele>5.3</ele>
        <time>2011-11-02T09:17:40.000Z</time>
      </trkpt>
      <trkpt lat="44.92194" lon="-0.27954">
        <ele>5.9</ele>
        <time>2011-11-02T09:17:47.000Z</time>
      </trkpt>
      <trkpt lat="44.92179" lon="-0.27921">
        <ele>8.3</ele>
        <time>2011-11-02T09:17:54.000Z</time>
      </trkpt>
      <trkpt lat="44.9216" lon="-0.2789">
        <ele>9.4</ele>
        <time>2011-11-02T09:18:01.000Z</time>
      </trkpt>
      <trkpt lat="44.92139" lon="-0.27861">
        <ele>8.4</ele>
        <time>2011-11-02T09:18:08.000Z</time>
      </trkpt>
      <trkpt lat="44.92125" lon="-0.27824">
        <ele>9.3</ele>
        <time>2011-11-02T09:18:15.000Z</time>
      </trkpt>
      <trkpt lat="44.9211" lon="-0.27787">
        <ele>7.7</ele>
        <time>2011-11-02T09:18:22.000Z</time>
      </trkpt>
      <trkpt lat="44.92098" lon="-0.27748">
        <ele>7.4</ele>
        <time>2011-11-02T09:18:29.000Z</time>
      </trkpt>
      <trkpt lat="44.92086" lon="-0.27712">
        <ele>6.3</ele>
        <time>2011-11-02T09:18:35.000Z</time>
      </trkpt>
      <trkpt lat="44.92076" lon="-0.27674">
        <ele>7</ele>
        <time>2011-11-02T09:18:41.000Z</time>
      </trkpt>
      <trkpt lat="44.92068" lon="-0.27634">
        <ele>6.1</ele>
        <time>2011-11-02T09:18:47.000Z</time>
      </trkpt>
      <trkpt lat="44.92059" lon="-0.27595">
        <ele>6.1</ele>
        <time>2011-11-02T09:18:53.000Z</time>
      </trkpt>
      <trkpt lat="44.9205" lon="-0.27556">
        <ele>4.6</ele>
        <time>2011-11-02T09:18:59.000Z</time>
      </trkpt>
      <trkpt lat="44.92041" lon="-0.27518">
        <ele>5.6</ele>
        <time>2011-11-02T09:19:05.000Z</time>
      </trkpt>
      <trkpt lat="44.92031" lon="-0.27481">
        <ele>4.9</ele>
        <time>2011-11-02T09:19:11.000Z</time>
      </trkpt>
      <trkpt lat="44.9202" lon="-0.27443">
        <ele>4.3</ele>
        <time>2011-11-02T09:19:17.000Z</time>
      </trkpt>
      <trkpt lat="44.9201" lon="-0.27407">
        <ele>3.4</ele>
        <time>2011-11-02T09:19:23.000Z</time>
      </trkpt>
      <trkpt lat="44.91998" lon="-0.27366">
        <ele>7.2</ele>
        <time>2011-11-02T09:19:30.000Z</time>
      </trkpt>
      <trkpt lat="44.91986" lon="-0.27327">
        <ele>7</ele>
        <time>2011-11-02T09:19:37.000Z</time>
      </trkpt>
      <trkpt lat="44.91975" lon="-0.27291">
        <ele>8.7</ele>
        <time>2011-11-02T09:19:44.000Z</time>
      </trkpt>
      <trkpt lat="44.9197" lon="-0.27253">
        <ele>10.4</ele>
        <time>2011-11-02T09:19:51.000Z</time>
      </trkpt>
      <trkpt lat="44.9197" lon="-0.27213">
        <ele>9.9</ele>
        <time>2011-11-02T09:19:59.000Z</time>
      </trkpt>
      <trkpt lat="44.91973" lon="-0.27174">
        <ele>9.3</ele>
        <time>2011-11-02T09:20:07.000Z</time>
      </trkpt>
      <trkpt lat="44.91976" lon="-0.27132">
        <ele>11</ele>
        <time>2011-11-02T09:20:16.000Z</time>
      </trkpt>
      <trkpt lat="44.91979" lon="-0.27092">
        <ele>10.5</ele>
        <time>2011-11-02T09:20:24.000Z</time>
      </trkpt>
      <trkpt lat="44.91975" lon="-0.27051">
        <ele>8.3</ele>
        <time>2011-11-02T09:20:31.000Z</time>
      </trkpt>
      <trkpt lat="44.91976" lon="-0.27006">
        <ele>7.6</ele>
        <time>2011-11-02T09:20:37.000Z</time>
      </trkpt>
      <trkpt lat="44.9198" lon="-0.26963">
        <ele>7.9</ele>
        <time>2011-11-02T09:20:42.000Z</time>
      </trkpt>
      <trkpt lat="44.91981" lon="-0.26921">
        <ele>7.4</ele>
        <time>2011-11-02T09:20:47.000Z</time>
      </trkpt>
      <trkpt lat="44.91982" lon="-0.2688">
        <ele>7.4</ele>
        <time>2011-11-02T09:20:52.000Z</time>
      </trkpt>
      <trkpt lat="44.91983" lon="-0.26842">
        <ele>7.7</ele>
        <time>2011-11-02T09:20:57.000Z</time>
      </trkpt>
      <trkpt lat="44.91987" lon="-0.26799">
        <ele>8.4</ele>
        <time>2011-11-02T09:21:03.000Z</time>
      </trkpt>
      <trkpt lat="44.91995" lon="-0.2676">
        <ele>9.4</ele>
        <time>2011-11-02T09:21:09.000Z</time>
      </trkpt>
      <trkpt lat="44.92002" lon="-0.2672">
        <ele>10.5</ele>
        <time>2011-11-02T09:21:16.000Z</time>
      </trkpt>
      <trkpt lat="44.92008" lon="-0.2668">
        <ele>10.8</ele>
        <time>2011-11-02T09:21:24.000Z</time>
      </trkpt>
      <trkpt lat="44.92008" lon="-0.26636">
        <ele>12.6</ele>
        <time>2011-11-02T09:21:31.000Z</time>
      </trkpt>
      <trkpt lat="44.92007" lon="-0.26593">
        <ele>15</ele>
        <time>2011-11-02T09:21:38.000Z</time>
      </trkpt>
      <trkpt lat="44.92008" lon="-0.26554">
        <ele>19.9</ele>
        <time>2011-11-02T09:21:46.000Z</time>
      </trkpt>
      <trkpt lat="44.9201" lon="-0.26516">
        <ele>24.9</ele>
        <time>2011-11-02T09:21:56.000Z</time>
      </trkpt>
      <trkpt lat="44.92023" lon="-0.26483">
        <ele>34.5</ele>
        <time>2011-11-02T09:22:04.000Z</time>
      </trkpt>
      <trkpt lat="44.92037" lon="-0.2645">
        <ele>36.6</ele>
        <time>2011-11-02T09:22:13.000Z</time>
      </trkpt>
      <trkpt lat="44.92064" lon="-0.26426">
        <ele>42</ele>
        <time>2011-11-02T09:22:20.000Z</time>
      </trkpt>
      <trkpt lat="44.92065" lon="-0.26382">
        <ele>41.6</ele>
        <time>2011-11-02T09:22:27.000Z</time>
      </trkpt>
      <trkpt lat="44.92062" lon="-0.26344">
        <ele>40.3</ele>
        <time>2011-11-02T09:22:33.000Z</time>
      </trkpt>
      <trkpt lat="44.92075" lon="-0.26305">
        <ele>39.3</ele>
        <time>2011-11-02T09:22:40.000Z</time>
      </trkpt>
      <trkpt lat="44.92084" lon="-0.26262">
        <ele>36.9</ele>
        <time>2011-11-02T09:22:47.000Z</time>
      </trkpt>
      <trkpt lat="44.92092" lon="-0.26225">
        <ele>33.9</ele>
        <time>2011-11-02T09:22:53.000Z</time>
      </trkpt>
      <trkpt lat="44.92104" lon="-0.26184">
        <ele>30</ele>
        <time>2011-11-02T09:22:59.000Z</time>
      </trkpt>
      <trkpt lat="44.92108" lon="-0.26144">
        <ele>28.4</ele>
        <time>2011-11-02T09:23:05.000Z</time>
      </trkpt>
      <trkpt lat="44.92105" lon="-0.26106">
        <ele>27.7</ele>
        <time>2011-11-02T09:23:11.000Z</time>
      </trkpt>
      <trkpt lat="44.92098" lon="-0.26069">
        <ele>26.2</ele>
        <time>2011-11-02T09:23:18.000Z</time>
      </trkpt>
      <trkpt lat="44.92089" lon="-0.2603">
        <ele>23.8</ele>
        <time>2011-11-02T09:23:25.000Z</time>
      </trkpt>
      <trkpt lat="44.92081" lon="-0.25992">
        <ele>23</ele>
        <time>2011-11-02T09:23:32.000Z</time>
      </trkpt>
      <trkpt lat="44.9207" lon="-0.25953">
        <ele>17.9</ele>
        <time>2011-11-02T09:23:39.000Z</time>
      </trkpt>
      <trkpt lat="44.92059" lon="-0.25916">
        <ele>16</ele>
        <time>2011-11-02T09:23:46.000Z</time>
      </trkpt>
      <trkpt lat="44.92049" lon="-0.25876">
        <ele>15.3</ele>
        <time>2011-11-02T09:23:53.000Z</time>
      </trkpt>
      <trkpt lat="44.92043" lon="-0.25833">
        <ele>15.3</ele>
        <time>2011-11-02T09:24:00.000Z</time>
      </trkpt>
      <trkpt lat="44.92035" lon="-0.25794">
        <ele>15.5</ele>
        <time>2011-11-02T09:24:07.000Z</time>
      </trkpt>
      <trkpt lat="44.92028" lon="-0.25754">
        <ele>14.7</ele>
        <time>2011-11-02T09:24:14.000Z</time>
      </trkpt>
      <trkpt lat="44.92021" lon="-0.25711">
        <ele>12.7</ele>
        <time>2011-11-02T09:24:21.000Z</time>
      </trkpt>
      <trkpt lat="44.92013" lon="-0.25673">
        <ele>12.6</ele>
        <time>2011-11-02T09:24:27.000Z</time>
      </trkpt>
      <trkpt lat="44.92006" lon="-0.25635">
        <ele>13.7</ele>
        <time>2011-11-02T09:24:33.000Z</time>
      </trkpt>
      <trkpt lat="44.91997" lon="-0.25596">
        <ele>14.4</ele>
        <time>2011-11-02T09:24:40.000Z</time>
      </trkpt>
      <trkpt lat="44.91988" lon="-0.25559">
        <ele>11.4</ele>
        <time>2011-11-02T09:24:46.000Z</time>
      </trkpt>
      <trkpt lat="44.91975" lon="-0.25525">
        <ele>6.2</ele>
        <time>2011-11-02T09:24:52.000Z</time>
      </trkpt>
      <trkpt lat="44.91962" lon="-0.2549">
        <ele>8.1</ele>
        <time>2011-11-02T09:24:59.000Z</time>
      </trkpt>
      <trkpt lat="44.91953" lon="-0.25452">
        <ele>17.5</ele>
        <time>2011-11-02T09:25:07.000Z</time>
      </trkpt>
      <trkpt lat="44.91944" lon="-0.25414">
        <ele>15.7</ele>
        <time>2011-11-02T09:25:13.000Z</time>
      </trkpt>
      <trkpt lat="44.91936" lon="-0.25375">
        <ele>13.7</ele>
        <time>2011-11-02T09:25:20.000Z</time>
      </trkpt>
      <trkpt lat="44.9193" lon="-0.25333">
        <ele>13.6</ele>
        <time>2011-11-02T09:25:27.000Z</time>
      </trkpt>
      <trkpt lat="44.9192" lon="-0.25292">
        <ele>12.1</ele>
        <time>2011-11-02T09:25:34.000Z</time>
      </trkpt>
      <trkpt lat="44.9191" lon="-0.25254">
        <ele>13.3</ele>
        <time>2011-11-02T09:25:42.000Z</time>
      </trkpt>
      <trkpt lat="44.919" lon="-0.25218">
        <ele>13.7</ele>
        <time>2011-11-02T09:25:49.000Z</time>
      </trkpt>
      <trkpt lat="44.91888" lon="-0.25179">
        <ele>16.7</ele>
        <time>2011-11-02T09:25:57.000Z</time>
      </trkpt>
      <trkpt lat="44.91881" lon="-0.25139">
        <ele>16.3</ele>
        <time>2011-11-02T09:26:06.000Z</time>
      </trkpt>
      <trkpt lat="44.91854" lon="-0.25126">
        <ele>8.9</ele>
        <time>2011-11-02T09:26:25.000Z</time>
      </trkpt>
      <trkpt lat="44.91868" lon="-0.2509">
        <ele>12.2</ele>
        <time>2011-11-02T09:26:40.000Z</time>
      </trkpt>
      <trkpt lat="44.91869" lon="-0.25051">
        <ele>9.7</ele>
        <time>2011-11-02T09:26:48.000Z</time>
      </trkpt>
      <trkpt lat="44.91872" lon="-0.25009">
        <ele>10.2</ele>
        <time>2011-11-02T09:26:56.000Z</time>
      </trkpt>
      <trkpt lat="44.91878" lon="-0.24969">
        <ele>9.8</ele>
        <time>2011-11-02T09:27:03.000Z</time>
      </trkpt>
      <trkpt lat="44.91888" lon="-0.2493">
        <ele>9.5</ele>
        <time>2011-11-02T09:27:09.000Z</time>
      </trkpt>
      <trkpt lat="44.91898" lon="-0.2489">
        <ele>9.9</ele>
        <time>2011-11-02T09:27:15.000Z</time>
      </trkpt>
      <trkpt lat="44.91908" lon="-0.24851">
        <ele>9.9</ele>
        <time>2011-11-02T09:27:21.000Z</time>
      </trkpt>
      <trkpt lat="44.91916" lon="-0.24811">
        <ele>8.8</ele>
        <time>2011-11-02T09:27:27.000Z</time>
      </trkpt>
      <trkpt lat="44.91927" lon="-0.24775">
        <ele>10.5</ele>
        <time>2011-11-02T09:27:33.000Z</time>
      </trkpt>
      <trkpt lat="44.91937" lon="-0.2474">
        <ele>11.1</ele>
        <time>2011-11-02T09:27:39.000Z</time>
      </trkpt>
      <trkpt lat="44.91942" lon="-0.24702">
        <ele>9.1</ele>
        <time>2011-11-02T09:27:45.000Z</time>
      </trkpt>
      <trkpt lat="44.91952" lon="-0.2466">
        <ele>9.8</ele>
        <time>2011-11-02T09:27:52.000Z</time>
      </trkpt>
      <trkpt lat="44.91963" lon="-0.24621">
        <ele>10.4</ele>
        <time>2011-11-02T09:27:59.000Z</time>
      </trkpt>
      <trkpt lat="44.91975" lon="-0.24582">
        <ele>14.6</ele>
        <time>2011-11-02T09:28:07.000Z</time>
      </trkpt>
      <trkpt lat="44.91971" lon="-0.24544">
        <ele>12.7</ele>
        <time>2011-11-02T09:28:18.000Z</time>
      </trkpt>
      <trkpt lat="44.91964" lon="-0.24508">
        <ele>18.8</ele>
        <time>2011-11-02T09:28:34.000Z</time>
      </trkpt>
      <trkpt lat="44.91947" lon="-0.24474">
        <ele>21.1</ele>
        <time>2011-11-02T09:28:48.000Z</time>
      </trkpt>
      <trkpt lat="44.91929" lon="-0.24443">
        <ele>21.3</ele>
        <time>2011-11-02T09:28:59.000Z</time>
      </trkpt>
      <trkpt lat="44.91906" lon="-0.24417">
        <ele>17.9</ele>
        <time>2011-11-02T09:29:09.000Z</time>
      </trkpt>
      <trkpt lat="44.91897" lon="-0.2438">
        <ele>18</ele>
        <time>2011-11-02T09:29:16.000Z</time>
      </trkpt>
      <trkpt lat="44.91895" lon="-0.24341">
        <ele>15.9</ele>
        <time>2011-11-02T09:29:25.000Z</time>
      </trkpt>
      <trkpt lat="44.91888" lon="-0.24304">
        <ele>14.8</ele>
        <time>2011-11-02T09:29:35.000Z</time>
      </trkpt>
      <trkpt lat="44.91879" lon="-0.24266">
        <ele>11.1</ele>
        <time>2011-11-02T09:29:46.000Z</time>
      </trkpt>
      <trkpt lat="44.91858" lon="-0.24241">
        <ele>17.9</ele>
        <time>2011-11-02T09:29:59.000Z</time>
      </trkpt>
      <trkpt lat="44.91859" lon="-0.24209">
        <ele>35.5</ele>
        <time>2011-11-02T09:30:18.000Z</time>
      </trkpt>
      <trkpt lat="44.91872" lon="-0.24243">
        <ele>31.2</ele>
        <time>2011-11-02T09:30:31.000Z</time>
      </trkpt>
      <trkpt lat="44.91846" lon="-0.24227">
        <ele>28.9</ele>
        <time>2011-11-02T09:30:42.000Z</time>
      </trkpt>
      <trkpt lat="44.91821" lon="-0.24205">
        <ele>28.3</ele>
        <time>2011-11-02T09:30:53.000Z</time>
      </trkpt>
      <trkpt lat="44.91803" lon="-0.24176">
        <ele>27.9</ele>
        <time>2011-11-02T09:33:01.000Z</time>
      </trkpt>
      <trkpt lat="44.91779" lon="-0.24157">
        <ele>32.9</ele>
        <time>2011-11-02T09:33:13.000Z</time>
      </trkpt>
      <trkpt lat="44.91759" lon="-0.24131">
        <ele>40.6</ele>
        <time>2011-11-02T09:33:55.000Z</time>
      </trkpt>
      <trkpt lat="44.91735" lon="-0.24114">
        <ele>38.2</ele>
        <time>2011-11-02T09:34:04.000Z</time>
      </trkpt>
      <trkpt lat="44.91712" lon="-0.24088">
        <ele>38.5</ele>
        <time>2011-11-02T09:34:16.000Z</time>
      </trkpt>
      <trkpt lat="44.91696" lon="-0.24052">
        <ele>39.7</ele>
        <time>2011-11-02T09:34:25.000Z</time>
      </trkpt>
      <trkpt lat="44.91672" lon="-0.2403">
        <ele>37.1</ele>
        <time>2011-11-02T09:34:34.000Z</time>
      </trkpt>
      <trkpt lat="44.91647" lon="-0.2402">
        <ele>25.1</ele>
        <time>2011-11-02T09:34:57.000Z</time>
      </trkpt>
      <trkpt lat="44.91621" lon="-0.24028">
        <ele>25.4</ele>
        <time>2011-11-02T09:35:13.000Z</time>
      </trkpt>
      <trkpt lat="44.91594" lon="-0.24018">
        <ele>24.3</ele>
        <time>2011-11-02T09:35:24.000Z</time>
      </trkpt>
      <trkpt lat="44.91575" lon="-0.23988">
        <ele>26.2</ele>
        <time>2011-11-02T09:35:35.000Z</time>
      </trkpt>
      <trkpt lat="44.91574" lon="-0.2395">
        <ele>32.1</ele>
        <time>2011-11-02T09:35:47.000Z</time>
      </trkpt>
      <trkpt lat="44.91601" lon="-0.23942">
        <ele>37</ele>
        <time>2011-11-02T09:36:00.000Z</time>
      </trkpt>
      <trkpt lat="44.91624" lon="-0.23964">
        <ele>43.1</ele>
        <time>2011-11-02T09:36:12.000Z</time>
      </trkpt>
      <trkpt lat="44.9163" lon="-0.23924">
        <ele>44.7</ele>
        <time>2011-11-02T09:36:26.000Z</time>
      </trkpt>
      <trkpt lat="44.91618" lon="-0.23911">
        <ele>70.8</ele>
        <time>2011-11-02T09:36:37.000Z</time>
      </trkpt>
      <trkpt lat="44.91625" lon="-0.23879">
        <ele>85.6</ele>
        <time>2011-11-02T09:36:47.000Z</time>
      </trkpt>
      <trkpt lat="44.91626" lon="-0.23837">
        <ele>89.1</ele>
        <time>2011-11-02T09:36:58.000Z</time>
      </trkpt>
      <trkpt lat="44.91619" lon="-0.23799">
        <ele>89.7</ele>
        <time>2011-11-02T09:37:07.000Z</time>
      </trkpt>
      <trkpt lat="44.91639" lon="-0.23771">
        <ele>81.3</ele>
        <time>2011-11-02T09:37:22.000Z</time>
      </trkpt>
      <trkpt lat="44.91665" lon="-0.23757">
        <ele>79.7</ele>
        <time>2011-11-02T09:37:30.000Z</time>
      </trkpt>
      <trkpt lat="44.9169" lon="-0.23741">
        <ele>74.3</ele>
        <time>2011-11-02T09:37:44.000Z</time>
      </trkpt>
      <trkpt lat="44.91707" lon="-0.23709">
        <ele>78.5</ele>
        <time>2011-11-02T09:37:54.000Z</time>
      </trkpt>
      <trkpt lat="44.91727" lon="-0.23686">
        <ele>67.7</ele>
        <time>2011-11-02T09:38:04.000Z</time>
      </trkpt>
      <trkpt lat="44.91726" lon="-0.23645">
        <ele>61.9</ele>
        <time>2011-11-02T09:38:15.000Z</time>
      </trkpt>
      <trkpt lat="44.91744" lon="-0.23607">
        <ele>61.1</ele>
        <time>2011-11-02T09:38:23.000Z</time>
      </trkpt>
      <trkpt lat="44.91748" lon="-0.23569">
        <ele>52.6</ele>
        <time>2011-11-02T09:38:31.000Z</time>
      </trkpt>
      <trkpt lat="44.9174" lon="-0.2353">
        <ele>42.5</ele>
        <time>2011-11-02T09:38:38.000Z</time>
      </trkpt>
      <trkpt lat="44.91729" lon="-0.23495">
        <ele>40.5</ele>
        <time>2011-11-02T09:38:44.000Z</time>
      </trkpt>
      <trkpt lat="44.91699" lon="-0.23499">
        <ele>39.6</ele>
        <time>2011-11-02T09:38:51.000Z</time>
      </trkpt>
      <trkpt lat="44.91671" lon="-0.23509">
        <ele>35.5</ele>
        <time>2011-11-02T09:38:57.000Z</time>
      </trkpt>
      <trkpt lat="44.91644" lon="-0.23516">
        <ele>32.1</ele>
        <time>2011-11-02T09:39:02.000Z</time>
      </trkpt>
      <trkpt lat="44.91614" lon="-0.23524">
        <ele>32</ele>
        <time>2011-11-02T09:39:07.000Z</time>
      </trkpt>
      <trkpt lat="44.91583" lon="-0.23536">
        <ele>33.9</ele>
        <time>2011-11-02T09:39:12.000Z</time>
      </trkpt>
      <trkpt lat="44.91551" lon="-0.23539">
        <ele>33.4</ele>
        <time>2011-11-02T09:39:18.000Z</time>
      </trkpt>
      <trkpt lat="44.91541" lon="-0.23502">
        <ele>35.7</ele>
        <time>2011-11-02T09:39:24.000Z</time>
      </trkpt>
      <trkpt lat="44.91538" lon="-0.23465">
        <ele>40.3</ele>
        <time>2011-11-02T09:39:30.000Z</time>
      </trkpt>
      <trkpt lat="44.91528" lon="-0.23428">
        <ele>44</ele>
        <time>2011-11-02T09:39:37.000Z</time>
      </trkpt>
      <trkpt lat="44.9152" lon="-0.23391">
        <ele>42.4</ele>
        <time>2011-11-02T09:39:43.000Z</time>
      </trkpt>
      <trkpt lat="44.91514" lon="-0.23351">
        <ele>45.7</ele>
        <time>2011-11-02T09:39:50.000Z</time>
      </trkpt>
      <trkpt lat="44.91511" lon="-0.23308">
        <ele>41.7</ele>
        <time>2011-11-02T09:39:56.000Z</time>
      </trkpt>
      <trkpt lat="44.91501" lon="-0.23269">
        <ele>38.5</ele>
        <time>2011-11-02T09:40:03.000Z</time>
      </trkpt>
      <trkpt lat="44.91487" lon="-0.23232">
        <ele>37.4</ele>
        <time>2011-11-02T09:40:11.000Z</time>
      </trkpt>
      <trkpt lat="44.91469" lon="-0.23197">
        <ele>34</ele>
        <time>2011-11-02T09:40:19.000Z</time>
      </trkpt>
      <trkpt lat="44.91456" lon="-0.23164">
        <ele>34.9</ele>
        <time>2011-11-02T09:40:27.000Z</time>
      </trkpt>
      <trkpt lat="44.91439" lon="-0.2313">
        <ele>33.5</ele>
        <time>2011-11-02T09:40:36.000Z</time>
      </trkpt>
      <trkpt lat="44.91423" lon="-0.23096">
        <ele>31.7</ele>
        <time>2011-11-02T09:40:44.000Z</time>
      </trkpt>
      <trkpt lat="44.91411" lon="-0.23062">
        <ele>25.8</ele>
        <time>2011-11-02T09:40:52.000Z</time>
      </trkpt>
      <trkpt lat="44.91399" lon="-0.23027">
        <ele>24.8</ele>
        <time>2011-11-02T09:41:31.000Z</time>
      </trkpt>
      <trkpt lat="44.91386" lon="-0.22989">
        <ele>27.5</ele>
        <time>2011-11-02T09:41:40.000Z</time>
      </trkpt>
      <trkpt lat="44.91374" lon="-0.22956">
        <ele>27.4</ele>
        <time>2011-11-02T09:41:47.000Z</time>
      </trkpt>
      <trkpt lat="44.91363" lon="-0.22918">
        <ele>32.4</ele>
        <time>2011-11-02T09:41:55.000Z</time>
      </trkpt>
      <trkpt lat="44.91359" lon="-0.22879">
        <ele>42</ele>
        <time>2011-11-02T09:42:04.000Z</time>
      </trkpt>
      <trkpt lat="44.91354" lon="-0.22838">
        <ele>42.2</ele>
        <time>2011-11-02T09:42:12.000Z</time>
      </trkpt>
      <trkpt lat="44.91348" lon="-0.228">
        <ele>45.3</ele>
        <time>2011-11-02T09:42:20.000Z</time>
      </trkpt>
      <trkpt lat="44.91343" lon="-0.22761">
        <ele>40.9</ele>
        <time>2011-11-02T09:42:27.000Z</time>
      </trkpt>
      <trkpt lat="44.91339" lon="-0.22723">
        <ele>38.7</ele>
        <time>2011-11-02T09:42:34.000Z</time>
      </trkpt>
      <trkpt lat="44.91329" lon="-0.22687">
        <ele>39.7</ele>
        <time>2011-11-02T09:42:45.000Z</time>
      </trkpt>
      <trkpt lat="44.9132" lon="-0.22648">
        <ele>42.9</ele>
        <time>2011-11-02T09:43:13.000Z</time>
      </trkpt>
      <trkpt lat="44.91311" lon="-0.22609">
        <ele>45.2</ele>
        <time>2011-11-02T09:43:23.000Z</time>
      </trkpt>
      <trkpt lat="44.91303" lon="-0.22568">
        <ele>40.2</ele>
        <time>2011-11-02T09:43:31.000Z</time>
      </trkpt>
      <trkpt lat="44.91293" lon="-0.2253">
        <ele>37.6</ele>
        <time>2011-11-02T09:43:38.000Z</time>
      </trkpt>
      <trkpt lat="44.91285" lon="-0.2249">
        <ele>37.8</ele>
        <time>2011-11-02T09:43:46.000Z</time>
      </trkpt>
      <trkpt lat="44.91279" lon="-0.22452">
        <ele>36.6</ele>
        <time>2011-11-02T09:43:53.000Z</time>
      </trkpt>
      <trkpt lat="44.91275" lon="-0.22412">
        <ele>31.8</ele>
        <time>2011-11-02T09:44:00.000Z</time>
      </trkpt>
      <trkpt lat="44.91268" lon="-0.22371">
        <ele>28.5</ele>
        <time>2011-11-02T09:44:08.000Z</time>
      </trkpt>
      <trkpt lat="44.91261" lon="-0.2233">
        <ele>25.8</ele>
        <time>2011-11-02T09:44:16.000Z</time>
      </trkpt>
      <trkpt lat="44.91256" lon="-0.2229">
        <ele>22</ele>
        <time>2011-11-02T09:44:23.000Z</time>
      </trkpt>
      <trkpt lat="44.91251" lon="-0.22251">
        <ele>21.6</ele>
        <time>2011-11-02T09:44:30.000Z</time>
      </trkpt>
      <trkpt lat="44.91247" lon="-0.22208">
        <ele>21.7</ele>
        <time>2011-11-02T09:44:37.000Z</time>
      </trkpt>
      <trkpt lat="44.91242" lon="-0.22166">
        <ele>22.4</ele>
        <time>2011-11-02T09:44:44.000Z</time>
      </trkpt>
      <trkpt lat="44.91241" lon="-0.22124">
        <ele>20</ele>
        <time>2011-11-02T09:44:50.000Z</time>
      </trkpt>
      <trkpt lat="44.91235" lon="-0.22087">
        <ele>17</ele>
        <time>2011-11-02T09:44:56.000Z</time>
      </trkpt>
      <trkpt lat="44.9123" lon="-0.22046">
        <ele>16.9</ele>
        <time>2011-11-02T09:45:03.000Z</time>
      </trkpt>
      <trkpt lat="44.91228" lon="-0.22008">
        <ele>18.1</ele>
        <time>2011-11-02T09:45:10.000Z</time>
      </trkpt>
      <trkpt lat="44.91225" lon="-0.21969">
        <ele>18.1</ele>
        <time>2011-11-02T09:45:17.000Z</time>
      </trkpt>
      <trkpt lat="44.91223" lon="-0.2193">
        <ele>18.5</ele>
        <time>2011-11-02T09:45:24.000Z</time>
      </trkpt>
      <trkpt lat="44.9122" lon="-0.2189">
        <ele>17.9</ele>
        <time>2011-11-02T09:45:31.000Z</time>
      </trkpt>
      <trkpt lat="44.91212" lon="-0.21849">
        <ele>19.4</ele>
        <time>2011-11-02T09:45:39.000Z</time>
      </trkpt>
      <trkpt lat="44.91206" lon="-0.21811">
        <ele>24.9</ele>
        <time>2011-11-02T09:45:48.000Z</time>
      </trkpt>
      <trkpt lat="44.91197" lon="-0.2177">
        <ele>26.5</ele>
        <time>2011-11-02T09:45:56.000Z</time>
      </trkpt>
      <trkpt lat="44.91188" lon="-0.21734">
        <ele>28.5</ele>
        <time>2011-11-02T09:46:03.000Z</time>
      </trkpt>
      <trkpt lat="44.91176" lon="-0.21696">
        <ele>27.1</ele>
        <time>2011-11-02T09:46:10.000Z</time>
      </trkpt>
      <trkpt lat="44.91168" lon="-0.2166">
        <ele>23.3</ele>
        <time>2011-11-02T09:46:16.000Z</time>
      </trkpt>
      <trkpt lat="44.91158" lon="-0.21622">
        <ele>19.8</ele>
        <time>2011-11-02T09:46:23.000Z</time>
      </trkpt>
      <trkpt lat="44.9115" lon="-0.21586">
        <ele>19</ele>
        <time>2011-11-02T09:46:30.000Z</time>
      </trkpt>
      <trkpt lat="44.91139" lon="-0.21547">
        <ele>20.6</ele>
        <time>2011-11-02T09:46:38.000Z</time>
      </trkpt>
      <trkpt lat="44.91127" lon="-0.21512">
        <ele>22.7</ele>
        <time>2011-11-02T09:46:46.000Z</time>
      </trkpt>
      <trkpt lat="44.91119" lon="-0.21475">
        <ele>25.7</ele>
        <time>2011-11-02T09:46:57.000Z</time>
      </trkpt>
      <trkpt lat="44.91108" lon="-0.21439">
        <ele>27.4</ele>
        <time>2011-11-02T09:47:11.000Z</time>
      </trkpt>
      <trkpt lat="44.91101" lon="-0.21401">
        <ele>28.3</ele>
        <time>2011-11-02T09:47:21.000Z</time>
      </trkpt>
      <trkpt lat="44.91096" lon="-0.21362">
        <ele>24.5</ele>
        <time>2011-11-02T09:47:30.000Z</time>
      </trkpt>
      <trkpt lat="44.91095" lon="-0.21324">
        <ele>23.9</ele>
        <time>2011-11-02T09:47:39.000Z</time>
      </trkpt>
      <trkpt lat="44.91071" lon="-0.21305">
        <ele>21.3</ele>
        <time>2011-11-02T09:47:46.000Z</time>
      </trkpt>
      <trkpt lat="44.91048" lon="-0.2128">
        <ele>19.8</ele>
        <time>2011-11-02T09:47:53.000Z</time>
      </trkpt>
      <trkpt lat="44.91038" lon="-0.2124">
        <ele>18.4</ele>
        <time>2011-11-02T09:48:00.000Z</time>
      </trkpt>
      <trkpt lat="44.91032" lon="-0.21201">
        <ele>17.9</ele>
        <time>2011-11-02T09:48:07.000Z</time>
      </trkpt>
      <trkpt lat="44.91022" lon="-0.21161">
        <ele>16.7</ele>
        <time>2011-11-02T09:48:15.000Z</time>
      </trkpt>
      <trkpt lat="44.91014" lon="-0.2112">
        <ele>16</ele>
        <time>2011-11-02T09:48:23.000Z</time>
      </trkpt>
      <trkpt lat="44.91006" lon="-0.21083">
        <ele>15.4</ele>
        <time>2011-11-02T09:48:30.000Z</time>
      </trkpt>
      <trkpt lat="44.90999" lon="-0.21045">
        <ele>16.3</ele>
        <time>2011-11-02T09:48:37.000Z</time>
      </trkpt>
      <trkpt lat="44.9099" lon="-0.21005">
        <ele>17.4</ele>
        <time>2011-11-02T09:48:43.000Z</time>
      </trkpt>
      <trkpt lat="44.90983" lon="-0.20967">
        <ele>17.6</ele>
        <time>2011-11-02T09:48:48.000Z</time>
      </trkpt>
      <trkpt lat="44.90975" lon="-0.20926">
        <ele>19.4</ele>
        <time>2011-11-02T09:48:54.000Z</time>
      </trkpt>
      <trkpt lat="44.90968" lon="-0.20889">
        <ele>22</ele>
        <time>2011-11-02T09:49:00.000Z</time>
      </trkpt>
      <trkpt lat="44.90963" lon="-0.20849">
        <ele>22.3</ele>
        <time>2011-11-02T09:49:06.000Z</time>
      </trkpt>
      <trkpt lat="44.90954" lon="-0.20811">
        <ele>23.9</ele>
        <time>2011-11-02T09:49:14.000Z</time>
      </trkpt>
      <trkpt lat="44.9095" lon="-0.20772">
        <ele>23.8</ele>
        <time>2011-11-02T09:49:22.000Z</time>
      </trkpt>
      <trkpt lat="44.90947" lon="-0.20734">
        <ele>21.1</ele>
        <time>2011-11-02T09:49:30.000Z</time>
      </trkpt>
      <trkpt lat="44.90942" lon="-0.20692">
        <ele>19.7</ele>
        <time>2011-11-02T09:49:39.000Z</time>
      </trkpt>
      <trkpt lat="44.90943" lon="-0.20652">
        <ele>19.9</ele>
        <time>2011-11-02T09:49:47.000Z</time>
      </trkpt>
      <trkpt lat="44.90939" lon="-0.20612">
        <ele>18.3</ele>
        <time>2011-11-02T09:49:56.000Z</time>
      </trkpt>
      <trkpt lat="44.90932" lon="-0.20573">
        <ele>18.3</ele>
        <time>2011-11-02T09:50:05.000Z</time>
      </trkpt>
      <trkpt lat="44.90929" lon="-0.20534">
        <ele>21</ele>
        <time>2011-11-02T09:50:14.000Z</time>
      </trkpt>
      <trkpt lat="44.90923" lon="-0.20496">
        <ele>20</ele>
        <time>2011-11-02T09:50:22.000Z</time>
      </trkpt>
      <trkpt lat="44.90914" lon="-0.20457">
        <ele>19.4</ele>
        <time>2011-11-02T09:50:30.000Z</time>
      </trkpt>
      <trkpt lat="44.90907" lon="-0.20419">
        <ele>19.7</ele>
        <time>2011-11-02T09:50:38.000Z</time>
      </trkpt>
      <trkpt lat="44.90903" lon="-0.20379">
        <ele>20</ele>
        <time>2011-11-02T09:50:46.000Z</time>
      </trkpt>
      <trkpt lat="44.90902" lon="-0.2034">
        <ele>20.2</ele>
        <time>2011-11-02T09:50:54.000Z</time>
      </trkpt>
      <trkpt lat="44.90906" lon="-0.20298">
        <ele>20.5</ele>
        <time>2011-11-02T09:51:02.000Z</time>
      </trkpt>
      <trkpt lat="44.90911" lon="-0.20259">
        <ele>19.5</ele>
        <time>2011-11-02T09:51:10.000Z</time>
      </trkpt>
      <trkpt lat="44.90916" lon="-0.20221">
        <ele>18.9</ele>
        <time>2011-11-02T09:51:18.000Z</time>
      </trkpt>
      <trkpt lat="44.90921" lon="-0.20179">
        <ele>20.5</ele>
        <time>2011-11-02T09:51:27.000Z</time>
      </trkpt>
      <trkpt lat="44.90929" lon="-0.20142">
        <ele>20.6</ele>
        <time>2011-11-02T09:51:35.000Z</time>
      </trkpt>
      <trkpt lat="44.90938" lon="-0.20105">
        <ele>21.3</ele>
        <time>2011-11-02T09:51:43.000Z</time>
      </trkpt>
      <trkpt lat="44.90952" lon="-0.20068">
        <ele>22.6</ele>
        <time>2011-11-02T09:51:52.000Z</time>
      </trkpt>
      <trkpt lat="44.90968" lon="-0.20035">
        <ele>23.6</ele>
        <time>2011-11-02T09:52:00.000Z</time>
      </trkpt>
      <trkpt lat="44.90984" lon="-0.20002">
        <ele>24.8</ele>
        <time>2011-11-02T09:52:08.000Z</time>
      </trkpt>
      <trkpt lat="44.90997" lon="-0.19968">
        <ele>25.4</ele>
        <time>2011-11-02T09:52:16.000Z</time>
      </trkpt>
      <trkpt lat="44.91005" lon="-0.19928">
        <ele>25.7</ele>
        <time>2011-11-02T09:52:24.000Z</time>
      </trkpt>
      <trkpt lat="44.91006" lon="-0.19887">
        <ele>24.6</ele>
        <time>2011-11-02T09:52:32.000Z</time>
      </trkpt>
      <trkpt lat="44.91007" lon="-0.19848">
        <ele>25.1</ele>
        <time>2011-11-02T09:52:40.000Z</time>
      </trkpt>
      <trkpt lat="44.91005" lon="-0.19807">
        <ele>24.9</ele>
        <time>2011-11-02T09:52:49.000Z</time>
      </trkpt>
      <trkpt lat="44.91005" lon="-0.19768">
        <ele>25</ele>
        <time>2011-11-02T09:52:58.000Z</time>
      </trkpt>
      <trkpt lat="44.91006" lon="-0.19728">
        <ele>25</ele>
        <time>2011-11-02T09:53:07.000Z</time>
      </trkpt>
      <trkpt lat="44.91007" lon="-0.19689">
        <ele>26.6</ele>
        <time>2011-11-02T09:55:51.000Z</time>
      </trkpt>
      <trkpt lat="44.91013" lon="-0.1965">
        <ele>25.6</ele>
        <time>2011-11-02T09:56:03.000Z</time>
      </trkpt>
      <trkpt lat="44.9102" lon="-0.19611">
        <ele>24.2</ele>
        <time>2011-11-02T09:56:14.000Z</time>
      </trkpt>
      <trkpt lat="44.91027" lon="-0.19571">
        <ele>23.5</ele>
        <time>2011-11-02T09:56:25.000Z</time>
      </trkpt>
      <trkpt lat="44.91032" lon="-0.19531">
        <ele>23.6</ele>
        <time>2011-11-02T09:56:36.000Z</time>
      </trkpt>
      <trkpt lat="44.91037" lon="-0.1949">
        <ele>23.8</ele>
        <time>2011-11-02T09:56:47.000Z</time>
      </trkpt>
      <trkpt lat="44.9104" lon="-0.19449">
        <ele>24</ele>
        <time>2011-11-02T09:56:58.000Z</time>
      </trkpt>
      <trkpt lat="44.91043" lon="-0.19409">
        <ele>23.8</ele>
        <time>2011-11-02T09:57:09.000Z</time>
      </trkpt>
      <trkpt lat="44.91044" lon="-0.19369">
        <ele>24.5</ele>
        <time>2011-11-02T09:57:20.000Z</time>
      </trkpt>
      <trkpt lat="44.91045" lon="-0.19331">
        <ele>25</ele>
        <time>2011-11-02T09:57:30.000Z</time>
      </trkpt>
      <trkpt lat="44.91046" lon="-0.19292">
        <ele>25.3</ele>
        <time>2011-11-02T09:57:40.000Z</time>
      </trkpt>
      <trkpt lat="44.91047" lon="-0.19254">
        <ele>25.2</ele>
        <time>2011-11-02T09:57:50.000Z</time>
      </trkpt>
      <trkpt lat="44.91047" lon="-0.19215">
        <ele>25.6</ele>
        <time>2011-11-02T09:58:00.000Z</time>
      </trkpt>
      <trkpt lat="44.91047" lon="-0.19174">
        <ele>25.7</ele>
        <time>2011-11-02T09:58:10.000Z</time>
      </trkpt>
      <trkpt lat="44.91047" lon="-0.19134">
        <ele>26.1</ele>
        <time>2011-11-02T09:58:19.000Z</time>
      </trkpt>
      <trkpt lat="44.91048" lon="-0.19093">
        <ele>26.5</ele>
        <time>2011-11-02T09:58:28.000Z</time>
      </trkpt>
      <trkpt lat="44.91051" lon="-0.19052">
        <ele>26.9</ele>
        <time>2011-11-02T09:58:37.000Z</time>
      </trkpt>
      <trkpt lat="44.91053" lon="-0.19013">
        <ele>27.2</ele>
        <time>2011-11-02T09:58:45.000Z</time>
      </trkpt>
      <trkpt lat="44.91056" lon="-0.18974">
        <ele>27.5</ele>
        <time>2011-11-02T09:58:53.000Z</time>
      </trkpt>
      <trkpt lat="44.91059" lon="-0.18934">
        <ele>27.5</ele>
        <time>2011-11-02T09:59:01.000Z</time>
      </trkpt>
      <trkpt lat="44.91062" lon="-0.18892">
        <ele>27.5</ele>
        <time>2011-11-02T09:59:09.000Z</time>
      </trkpt>
      <trkpt lat="44.91065" lon="-0.18853">
        <ele>27.1</ele>
        <time>2011-11-02T09:59:17.000Z</time>
      </trkpt>
      <trkpt lat="44.91068" lon="-0.18814">
        <ele>27.1</ele>
        <time>2011-11-02T09:59:25.000Z</time>
      </trkpt>
      <trkpt lat="44.91069" lon="-0.18773">
        <ele>26.4</ele>
        <time>2011-11-02T09:59:33.000Z</time>
      </trkpt>
      <trkpt lat="44.91066" lon="-0.18734">
        <ele>26</ele>
        <time>2011-11-02T09:59:41.000Z</time>
      </trkpt>
      <trkpt lat="44.91059" lon="-0.18697">
        <ele>26.5</ele>
        <time>2011-11-02T09:59:49.000Z</time>
      </trkpt>
      <trkpt lat="44.91051" lon="-0.18659">
        <ele>26.2</ele>
        <time>2011-11-02T09:59:57.000Z</time>
      </trkpt>
      <trkpt lat="44.91041" lon="-0.18623">
        <ele>26.1</ele>
        <time>2011-11-02T10:00:06.000Z</time>
      </trkpt>
      <trkpt lat="44.91028" lon="-0.1859">
        <ele>26.4</ele>
        <time>2011-11-02T10:00:14.000Z</time>
      </trkpt>
      <trkpt lat="44.91014" lon="-0.18552">
        <ele>27</ele>
        <time>2011-11-02T10:00:23.000Z</time>
      </trkpt>
      <trkpt lat="44.91008" lon="-0.18514">
        <ele>27.5</ele>
        <time>2011-11-02T10:00:31.000Z</time>
      </trkpt>
      <trkpt lat="44.91001" lon="-0.18475">
        <ele>27.2</ele>
        <time>2011-11-02T10:00:39.000Z</time>
      </trkpt>
      <trkpt lat="44.90992" lon="-0.18438">
        <ele>26.7</ele>
        <time>2011-11-02T10:00:48.000Z</time>
      </trkpt>
      <trkpt lat="44.90972" lon="-0.18408">
        <ele>27.2</ele>
        <time>2011-11-02T10:00:57.000Z</time>
      </trkpt>
      <trkpt lat="44.90963" lon="-0.18369">
        <ele>28</ele>
        <time>2011-11-02T10:01:06.000Z</time>
      </trkpt>
      <trkpt lat="44.90955" lon="-0.18328">
        <ele>29</ele>
        <time>2011-11-02T10:01:15.000Z</time>
      </trkpt>
      <trkpt lat="44.90945" lon="-0.18288">
        <ele>28.9</ele>
        <time>2011-11-02T10:01:24.000Z</time>
      </trkpt>
      <trkpt lat="44.90934" lon="-0.18249">
        <ele>29.5</ele>
        <time>2011-11-02T10:01:33.000Z</time>
      </trkpt>
      <trkpt lat="44.90929" lon="-0.18211">
        <ele>30.9</ele>
        <time>2011-11-02T10:01:41.000Z</time>
      </trkpt>
      <trkpt lat="44.9092" lon="-0.18173">
        <ele>30.3</ele>
        <time>2011-11-02T10:01:49.000Z</time>
      </trkpt>
      <trkpt lat="44.90912" lon="-0.18135">
        <ele>30.7</ele>
        <time>2011-11-02T10:01:57.000Z</time>
      </trkpt>
      <trkpt lat="44.90903" lon="-0.18098">
        <ele>30.3</ele>
        <time>2011-11-02T10:02:05.000Z</time>
      </trkpt>
      <trkpt lat="44.90894" lon="-0.18059">
        <ele>29.7</ele>
        <time>2011-11-02T10:02:14.000Z</time>
      </trkpt>
      <trkpt lat="44.90883" lon="-0.18023">
        <ele>28.2</ele>
        <time>2011-11-02T10:02:22.000Z</time>
      </trkpt>
      <trkpt lat="44.90872" lon="-0.17987">
        <ele>28.4</ele>
        <time>2011-11-02T10:02:30.000Z</time>
      </trkpt>
      <trkpt lat="44.90857" lon="-0.17949">
        <ele>28.6</ele>
        <time>2011-11-02T10:02:39.000Z</time>
      </trkpt>
      <trkpt lat="44.90846" lon="-0.17913">
        <ele>29.1</ele>
        <time>2011-11-02T10:02:47.000Z</time>
      </trkpt>
      <trkpt lat="44.90834" lon="-0.17878">
        <ele>29.1</ele>
        <time>2011-11-02T10:02:55.000Z</time>
      </trkpt>
      <trkpt lat="44.90818" lon="-0.1784">
        <ele>30.5</ele>
        <time>2011-11-02T10:03:04.000Z</time>
      </trkpt>
      <trkpt lat="44.90807" lon="-0.17805">
        <ele>31.6</ele>
        <time>2011-11-02T10:03:12.000Z</time>
      </trkpt>
      <trkpt lat="44.90795" lon="-0.17771">
        <ele>31.8</ele>
        <time>2011-11-02T10:03:20.000Z</time>
      </trkpt>
      <trkpt lat="44.90779" lon="-0.17737">
        <ele>32.9</ele>
        <time>2011-11-02T10:03:29.000Z</time>
      </trkpt>
      <trkpt lat="44.90762" lon="-0.17704">
        <ele>33.9</ele>
        <time>2011-11-02T10:03:38.000Z</time>
      </trkpt>
      <trkpt lat="44.90746" lon="-0.1767">
        <ele>35.1</ele>
        <time>2011-11-02T10:03:47.000Z</time>
      </trkpt>
      <trkpt lat="44.9073" lon="-0.17638">
        <ele>34</ele>
        <time>2011-11-02T10:03:55.000Z</time>
      </trkpt>
      <trkpt lat="44.90713" lon="-0.17606">
        <ele>39.1</ele>
        <time>2011-11-02T10:04:04.000Z</time>
      </trkpt>
      <trkpt lat="44.90694" lon="-0.17573">
        <ele>40.4</ele>
        <time>2011-11-02T10:04:13.000Z</time>
      </trkpt>
      <trkpt lat="44.90676" lon="-0.17542">
        <ele>41</ele>
        <time>2011-11-02T10:04:21.000Z</time>
      </trkpt>
      <trkpt lat="44.90658" lon="-0.1751">
        <ele>42.6</ele>
        <time>2011-11-02T10:04:29.000Z</time>
      </trkpt>
      <trkpt lat="44.90641" lon="-0.17476">
        <ele>42</ele>
        <time>2011-11-02T10:04:37.000Z</time>
      </trkpt>
      <trkpt lat="44.90627" lon="-0.17444">
        <ele>41.1</ele>
        <time>2011-11-02T10:04:45.000Z</time>
      </trkpt>
      <trkpt lat="44.90609" lon="-0.1741">
        <ele>41</ele>
        <time>2011-11-02T10:04:54.000Z</time>
      </trkpt>
      <trkpt lat="44.90599" lon="-0.17374">
        <ele>40.1</ele>
        <time>2011-11-02T10:05:02.000Z</time>
      </trkpt>
      <trkpt lat="44.90583" lon="-0.17343">
        <ele>38.1</ele>
        <time>2011-11-02T10:05:10.000Z</time>
      </trkpt>
      <trkpt lat="44.90566" lon="-0.17313">
        <ele>39.6</ele>
        <time>2011-11-02T10:05:19.000Z</time>
      </trkpt>
      <trkpt lat="44.90546" lon="-0.17285">
        <ele>39.5</ele>
        <time>2011-11-02T10:05:28.000Z</time>
      </trkpt>
      <trkpt lat="44.90526" lon="-0.17255">
        <ele>38.5</ele>
        <time>2011-11-02T10:05:37.000Z</time>
      </trkpt>
      <trkpt lat="44.90508" lon="-0.17226">
        <ele>38.5</ele>
        <time>2011-11-02T10:05:46.000Z</time>
      </trkpt>
      <trkpt lat="44.90488" lon="-0.17195">
        <ele>39.6</ele>
        <time>2011-11-02T10:05:56.000Z</time>
      </trkpt>
      <trkpt lat="44.90469" lon="-0.17164">
        <ele>42.3</ele>
        <time>2011-11-02T10:06:06.000Z</time>
      </trkpt>
      <trkpt lat="44.90449" lon="-0.17134">
        <ele>44.2</ele>
        <time>2011-11-02T10:06:16.000Z</time>
      </trkpt>
      <trkpt lat="44.90427" lon="-0.17105">
        <ele>44.1</ele>
        <time>2011-11-02T10:06:26.000Z</time>
      </trkpt>
      <trkpt lat="44.90408" lon="-0.17078">
        <ele>43.9</ele>
        <time>2011-11-02T10:06:35.000Z</time>
      </trkpt>
      <trkpt lat="44.90389" lon="-0.1705">
        <ele>44.7</ele>
        <time>2011-11-02T10:06:46.000Z</time>
      </trkpt>
      <trkpt lat="44.90371" lon="-0.17021">
        <ele>42.4</ele>
        <time>2011-11-02T10:08:12.000Z</time>
      </trkpt>
      <trkpt lat="44.90351" lon="-0.16993">
        <ele>43.7</ele>
        <time>2011-11-02T10:08:23.000Z</time>
      </trkpt>
      <trkpt lat="44.90331" lon="-0.16964">
        <ele>43.6</ele>
        <time>2011-11-02T10:08:35.000Z</time>
      </trkpt>
      <trkpt lat="44.90312" lon="-0.16936">
        <ele>43.7</ele>
        <time>2011-11-02T10:08:46.000Z</time>
      </trkpt>
      <trkpt lat="44.90293" lon="-0.16908">
        <ele>43.5</ele>
        <time>2011-11-02T10:08:56.000Z</time>
      </trkpt>
      <trkpt lat="44.90272" lon="-0.1688">
        <ele>44</ele>
        <time>2011-11-02T10:09:07.000Z</time>
      </trkpt>
      <trkpt lat="44.90254" lon="-0.16851">
        <ele>44.5</ele>
        <time>2011-11-02T10:09:17.000Z</time>
      </trkpt>
      <trkpt lat="44.90235" lon="-0.16821">
        <ele>46.4</ele>
        <time>2011-11-02T10:09:28.000Z</time>
      </trkpt>
      <trkpt lat="44.9022" lon="-0.16789">
        <ele>48.9</ele>
        <time>2011-11-02T10:09:41.000Z</time>
      </trkpt>
      <trkpt lat="44.90199" lon="-0.16765">
        <ele>47.3</ele>
        <time>2011-11-02T10:09:53.000Z</time>
      </trkpt>
      <trkpt lat="44.90176" lon="-0.16743">
        <ele>43.5</ele>
        <time>2011-11-02T10:10:06.000Z</time>
      </trkpt>
      <trkpt lat="44.90158" lon="-0.16715">
        <ele>46.6</ele>
        <time>2011-11-02T10:10:20.000Z</time>
      </trkpt>
      <trkpt lat="44.90138" lon="-0.16687">
        <ele>51.1</ele>
        <time>2011-11-02T10:10:35.000Z</time>
      </trkpt>
      <trkpt lat="44.90118" lon="-0.16658">
        <ele>52.1</ele>
        <time>2011-11-02T10:10:48.000Z</time>
      </trkpt>
      <trkpt lat="44.901" lon="-0.16626">
        <ele>52.2</ele>
        <time>2011-11-02T10:11:00.000Z</time>
      </trkpt>
      <trkpt lat="44.90086" lon="-0.16593">
        <ele>51.4</ele>
        <time>2011-11-02T10:11:10.000Z</time>
      </trkpt>
      <trkpt lat="44.90072" lon="-0.1656">
        <ele>52</ele>
        <time>2011-11-02T10:11:20.000Z</time>
      </trkpt>
      <trkpt lat="44.9006" lon="-0.16523">
        <ele>57.4</ele>
        <time>2011-11-02T10:11:31.000Z</time>
      </trkpt>
      <trkpt lat="44.90045" lon="-0.16491">
        <ele>56</ele>
        <time>2011-11-02T10:11:42.000Z</time>
      </trkpt>
      <trkpt lat="44.9003" lon="-0.16458">
        <ele>56.8</ele>
        <time>2011-11-02T10:11:52.000Z</time>
      </trkpt>
      <trkpt lat="44.90019" lon="-0.16421">
        <ele>58.4</ele>
        <time>2011-11-02T10:12:03.000Z</time>
      </trkpt>
      <trkpt lat="44.90009" lon="-0.16384">
        <ele>60.1</ele>
        <time>2011-11-02T10:12:14.000Z</time>
      </trkpt>
      <trkpt lat="44.89998" lon="-0.16348">
        <ele>59.6</ele>
        <time>2011-11-02T10:12:25.000Z</time>
      </trkpt>
      <trkpt lat="44.89983" lon="-0.16313">
        <ele>60.7</ele>
        <time>2011-11-02T10:12:38.000Z</time>
      </trkpt>
      <trkpt lat="44.89969" lon="-0.16277">
        <ele>60.8</ele>
        <time>2011-11-02T10:12:51.000Z</time>
      </trkpt>
      <trkpt lat="44.89953" lon="-0.16244">
        <ele>60.2</ele>
        <time>2011-11-02T10:13:03.000Z</time>
      </trkpt>
      <trkpt lat="44.8994" lon="-0.16207">
        <ele>62.1</ele>
        <time>2011-11-02T10:13:14.000Z</time>
      </trkpt>
      <trkpt lat="44.89924" lon="-0.16173">
        <ele>61.9</ele>
        <time>2011-11-02T10:13:24.000Z</time>
      </trkpt>
      <trkpt lat="44.89909" lon="-0.16138">
        <ele>62.2</ele>
        <time>2011-11-02T10:13:34.000Z</time>
      </trkpt>
      <trkpt lat="44.8989" lon="-0.16108">
        <ele>62.7</ele>
        <time>2011-11-02T10:13:44.000Z</time>
      </trkpt>
      <trkpt lat="44.89871" lon="-0.16077">
        <ele>65.9</ele>
        <time>2011-11-02T10:13:54.000Z</time>
      </trkpt>
      <trkpt lat="44.8985" lon="-0.16049">
        <ele>69.1</ele>
        <time>2011-11-02T10:14:04.000Z</time>
      </trkpt>
      <trkpt lat="44.89832" lon="-0.16019">
        <ele>66.3</ele>
        <time>2011-11-02T10:14:13.000Z</time>
      </trkpt>
      <trkpt lat="44.89814" lon="-0.1599">
        <ele>64.4</ele>
        <time>2011-11-02T10:14:22.000Z</time>
      </trkpt>
      <trkpt lat="44.89796" lon="-0.15957">
        <ele>62.4</ele>
        <time>2011-11-02T10:14:32.000Z</time>
      </trkpt>
      <trkpt lat="44.89777" lon="-0.15929">
        <ele>61.4</ele>
        <time>2011-11-02T10:14:42.000Z</time>
      </trkpt>
      <trkpt lat="44.89758" lon="-0.159">
        <ele>61.4</ele>
        <time>2011-11-02T10:14:52.000Z</time>
      </trkpt>
      <trkpt lat="44.89738" lon="-0.15869">
        <ele>60.9</ele>
        <time>2011-11-02T10:15:02.000Z</time>
      </trkpt>
      <trkpt lat="44.89719" lon="-0.15838">
        <ele>60.9</ele>
        <time>2011-11-02T10:15:13.000Z</time>
      </trkpt>
      <trkpt lat="44.89696" lon="-0.15811">
        <ele>59.4</ele>
        <time>2011-11-02T10:15:24.000Z</time>
      </trkpt>
      <trkpt lat="44.89673" lon="-0.15787">
        <ele>58.8</ele>
        <time>2011-11-02T10:15:34.000Z</time>
      </trkpt>
      <trkpt lat="44.8965" lon="-0.15761">
        <ele>59.9</ele>
        <time>2011-11-02T10:15:45.000Z</time>
      </trkpt>
      <trkpt lat="44.8963" lon="-0.15735">
        <ele>59</ele>
        <time>2011-11-02T10:15:55.000Z</time>
      </trkpt>
      <trkpt lat="44.89618" lon="-0.15701">
        <ele>61</ele>
        <time>2011-11-02T10:16:06.000Z</time>
      </trkpt>
      <trkpt lat="44.89613" lon="-0.15664">
        <ele>66</ele>
        <time>2011-11-02T10:16:18.000Z</time>
      </trkpt>
      <trkpt lat="44.89609" lon="-0.15626">
        <ele>67.7</ele>
        <time>2011-11-02T10:16:30.000Z</time>
      </trkpt>
      <trkpt lat="44.89609" lon="-0.15588">
        <ele>73.7</ele>
        <time>2011-11-02T10:16:46.000Z</time>
      </trkpt>
      <trkpt lat="44.89587" lon="-0.15568">
        <ele>81.3</ele>
        <time>2011-11-02T10:17:02.000Z</time>
      </trkpt>
      <trkpt lat="44.89598" lon="-0.15533">
        <ele>77.1</ele>
        <time>2011-11-02T10:26:26.000Z</time>
      </trkpt>
      <trkpt lat="44.89599" lon="-0.15495">
        <ele>77</ele>
        <time>2011-11-02T10:26:36.000Z</time>
      </trkpt>
      <trkpt lat="44.896" lon="-0.15457">
        <ele>74.5</ele>
        <time>2011-11-02T10:26:46.000Z</time>
      </trkpt>
      <trkpt lat="44.89607" lon="-0.15417">
        <ele>74.2</ele>
        <time>2011-11-02T10:26:55.000Z</time>
      </trkpt>
      <trkpt lat="44.89622" lon="-0.15384">
        <ele>72.2</ele>
        <time>2011-11-02T10:27:03.000Z</time>
      </trkpt>
      <trkpt lat="44.89637" lon="-0.15352">
        <ele>70.8</ele>
        <time>2011-11-02T10:27:10.000Z</time>
      </trkpt>
      <trkpt lat="44.89654" lon="-0.15319">
        <ele>70.6</ele>
        <time>2011-11-02T10:27:17.000Z</time>
      </trkpt>
      <trkpt lat="44.89668" lon="-0.15282">
        <ele>70</ele>
        <time>2011-11-02T10:27:24.000Z</time>
      </trkpt>
      <trkpt lat="44.89672" lon="-0.1524">
        <ele>70.1</ele>
        <time>2011-11-02T10:27:31.000Z</time>
      </trkpt>
      <trkpt lat="44.89673" lon="-0.15201">
        <ele>75.4</ele>
        <time>2011-11-02T10:27:41.000Z</time>
      </trkpt>
      <trkpt lat="44.89664" lon="-0.15163">
        <ele>84.5</ele>
        <time>2011-11-02T10:27:51.000Z</time>
      </trkpt>
      <trkpt lat="44.89656" lon="-0.15124">
        <ele>77.6</ele>
        <time>2011-11-02T10:28:01.000Z</time>
      </trkpt>
      <trkpt lat="44.89647" lon="-0.15087">
        <ele>78.8</ele>
        <time>2011-11-02T10:28:11.000Z</time>
      </trkpt>
      <trkpt lat="44.89637" lon="-0.15048">
        <ele>80.5</ele>
        <time>2011-11-02T10:28:22.000Z</time>
      </trkpt>
      <trkpt lat="44.8963" lon="-0.15008">
        <ele>86.7</ele>
        <time>2011-11-02T10:28:33.000Z</time>
      </trkpt>
      <trkpt lat="44.89621" lon="-0.1497">
        <ele>81.7</ele>
        <time>2011-11-02T10:28:44.000Z</time>
      </trkpt>
      <trkpt lat="44.8961" lon="-0.14934">
        <ele>74.8</ele>
        <time>2011-11-02T10:28:55.000Z</time>
      </trkpt>
      <trkpt lat="44.89596" lon="-0.149">
        <ele>81.4</ele>
        <time>2011-11-02T10:29:05.000Z</time>
      </trkpt>
      <trkpt lat="44.89578" lon="-0.14871">
        <ele>86</ele>
        <time>2011-11-02T10:29:15.000Z</time>
      </trkpt>
      <trkpt lat="44.8956" lon="-0.1484">
        <ele>89</ele>
        <time>2011-11-02T10:29:28.000Z</time>
      </trkpt>
      <trkpt lat="44.89544" lon="-0.1481">
        <ele>82.1</ele>
        <time>2011-11-02T10:29:41.000Z</time>
      </trkpt>
      <trkpt lat="44.89535" lon="-0.14773">
        <ele>76.9</ele>
        <time>2011-11-02T10:29:53.000Z</time>
      </trkpt>
      <trkpt lat="44.89527" lon="-0.14735">
        <ele>72</ele>
        <time>2011-11-02T10:30:04.000Z</time>
      </trkpt>
      <trkpt lat="44.89521" lon="-0.14696">
        <ele>70.4</ele>
        <time>2011-11-02T10:30:14.000Z</time>
      </trkpt>
      <trkpt lat="44.89515" lon="-0.14658">
        <ele>70.2</ele>
        <time>2011-11-02T10:30:24.000Z</time>
      </trkpt>
      <trkpt lat="44.89494" lon="-0.14632">
        <ele>76.2</ele>
        <time>2011-11-02T10:30:34.000Z</time>
      </trkpt>
      <trkpt lat="44.89466" lon="-0.14621">
        <ele>79</ele>
        <time>2011-11-02T10:30:46.000Z</time>
      </trkpt>
      <trkpt lat="44.89441" lon="-0.14605">
        <ele>79.4</ele>
        <time>2011-11-02T10:30:57.000Z</time>
      </trkpt>
      <trkpt lat="44.89416" lon="-0.14589">
        <ele>78.7</ele>
        <time>2011-11-02T10:31:07.000Z</time>
      </trkpt>
      <trkpt lat="44.89393" lon="-0.14571">
        <ele>75.2</ele>
        <time>2011-11-02T10:31:17.000Z</time>
      </trkpt>
      <trkpt lat="44.89371" lon="-0.14545">
        <ele>74.5</ele>
        <time>2011-11-02T10:31:27.000Z</time>
      </trkpt>
      <trkpt lat="44.89359" lon="-0.14581">
        <ele>73.6</ele>
        <time>2011-11-02T10:31:33.000Z</time>
      </trkpt>
      <trkpt lat="44.89357" lon="-0.1463">
        <ele>71.8</ele>
        <time>2011-11-02T10:31:38.000Z</time>
      </trkpt>
      <trkpt lat="44.89355" lon="-0.1468">
        <ele>69.6</ele>
        <time>2011-11-02T10:31:42.000Z</time>
      </trkpt>
      <trkpt lat="44.89351" lon="-0.14725">
        <ele>66.7</ele>
        <time>2011-11-02T10:31:46.000Z</time>
      </trkpt>
      <trkpt lat="44.89322" lon="-0.14747">
        <ele>65.3</ele>
        <time>2011-11-02T10:31:51.000Z</time>
      </trkpt>
      <trkpt lat="44.89298" lon="-0.14765">
        <ele>63.9</ele>
        <time>2011-11-02T10:31:54.000Z</time>
      </trkpt>
      <trkpt lat="44.89273" lon="-0.14791">
        <ele>62</ele>
        <time>2011-11-02T10:31:57.000Z</time>
      </trkpt>
      <trkpt lat="44.89253" lon="-0.14826">
        <ele>61.6</ele>
        <time>2011-11-02T10:32:00.000Z</time>
      </trkpt>
      <trkpt lat="44.89231" lon="-0.14861">
        <ele>59.3</ele>
        <time>2011-11-02T10:32:03.000Z</time>
      </trkpt>
      <trkpt lat="44.8921" lon="-0.14898">
        <ele>57.7</ele>
        <time>2011-11-02T10:32:06.000Z</time>
      </trkpt>
      <trkpt lat="44.89192" lon="-0.14938">
        <ele>56.3</ele>
        <time>2011-11-02T10:32:09.000Z</time>
      </trkpt>
      <trkpt lat="44.89177" lon="-0.14977">
        <ele>55.1</ele>
        <time>2011-11-02T10:32:12.000Z</time>
      </trkpt>
      <trkpt lat="44.8916" lon="-0.15014">
        <ele>54.7</ele>
        <time>2011-11-02T10:32:15.000Z</time>
      </trkpt>
      <trkpt lat="44.89143" lon="-0.15048">
        <ele>54.5</ele>
        <time>2011-11-02T10:32:18.000Z</time>
      </trkpt>
      <trkpt lat="44.89132" lon="-0.15086">
        <ele>54.5</ele>
        <time>2011-11-02T10:32:21.000Z</time>
      </trkpt>
      <trkpt lat="44.89128" lon="-0.15126">
        <ele>53.6</ele>
        <time>2011-11-02T10:32:24.000Z</time>
      </trkpt>
      <trkpt lat="44.89122" lon="-0.15164">
        <ele>53.5</ele>
        <time>2011-11-02T10:32:27.000Z</time>
      </trkpt>
      <trkpt lat="44.8911" lon="-0.152">
        <ele>53.1</ele>
        <time>2011-11-02T10:32:30.000Z</time>
      </trkpt>
      <trkpt lat="44.89097" lon="-0.15234">
        <ele>52.1</ele>
        <time>2011-11-02T10:32:33.000Z</time>
      </trkpt>
      <trkpt lat="44.89082" lon="-0.15275">
        <ele>51.3</ele>
        <time>2011-11-02T10:32:37.000Z</time>
      </trkpt>
      <trkpt lat="44.89076" lon="-0.15316">
        <ele>49.3</ele>
        <time>2011-11-02T10:32:41.000Z</time>
      </trkpt>
      <trkpt lat="44.89074" lon="-0.15357">
        <ele>48.8</ele>
        <time>2011-11-02T10:32:45.000Z</time>
      </trkpt>
      <trkpt lat="44.89084" lon="-0.15395">
        <ele>49.3</ele>
        <time>2011-11-02T10:32:50.000Z</time>
      </trkpt>
      <trkpt lat="44.89058" lon="-0.15421">
        <ele>50.9</ele>
        <time>2011-11-02T10:32:57.000Z</time>
      </trkpt>
      <trkpt lat="44.89034" lon="-0.15446">
        <ele>50.1</ele>
        <time>2011-11-02T10:33:03.000Z</time>
      </trkpt>
      <trkpt lat="44.89026" lon="-0.15482">
        <ele>55</ele>
        <time>2011-11-02T10:33:15.000Z</time>
      </trkpt>
      <trkpt lat="44.89053" lon="-0.15488">
        <ele>61.1</ele>
        <time>2011-11-02T10:33:29.000Z</time>
      </trkpt>
      <trkpt lat="44.89065" lon="-0.15522">
        <ele>59.8</ele>
        <time>2011-11-02T10:33:48.000Z</time>
      </trkpt>
      <trkpt lat="44.89051" lon="-0.1549">
        <ele>53.4</ele>
        <time>2011-11-02T10:40:07.000Z</time>
      </trkpt>
      <trkpt lat="44.89024" lon="-0.15478">
        <ele>52.6</ele>
        <time>2011-11-02T10:40:13.000Z</time>
      </trkpt>
      <trkpt lat="44.88992" lon="-0.15473">
        <ele>51.9</ele>
        <time>2011-11-02T10:40:18.000Z</time>
      </trkpt>
      <trkpt lat="44.88961" lon="-0.15475">
        <ele>50.3</ele>
        <time>2011-11-02T10:40:23.000Z</time>
      </trkpt>
      <trkpt lat="44.88931" lon="-0.15482">
        <ele>49.4</ele>
        <time>2011-11-02T10:40:28.000Z</time>
      </trkpt>
      <trkpt lat="44.88901" lon="-0.1549">
        <ele>45.7</ele>
        <time>2011-11-02T10:40:33.000Z</time>
      </trkpt>
      <trkpt lat="44.88871" lon="-0.15502">
        <ele>43.2</ele>
        <time>2011-11-02T10:40:38.000Z</time>
      </trkpt>
      <trkpt lat="44.88839" lon="-0.15517">
        <ele>41.2</ele>
        <time>2011-11-02T10:40:43.000Z</time>
      </trkpt>
      <trkpt lat="44.8881" lon="-0.15527">
        <ele>38.2</ele>
        <time>2011-11-02T10:40:47.000Z</time>
      </trkpt>
      <trkpt lat="44.88778" lon="-0.15534">
        <ele>36</ele>
        <time>2011-11-02T10:40:51.000Z</time>
      </trkpt>
      <trkpt lat="44.88751" lon="-0.15536">
        <ele>35.1</ele>
        <time>2011-11-02T10:40:54.000Z</time>
      </trkpt>
      <trkpt lat="44.88723" lon="-0.15539">
        <ele>32.9</ele>
        <time>2011-11-02T10:40:57.000Z</time>
      </trkpt>
      <trkpt lat="44.88689" lon="-0.15546">
        <ele>32</ele>
        <time>2011-11-02T10:41:01.000Z</time>
      </trkpt>
      <trkpt lat="44.8866" lon="-0.15563">
        <ele>31.1</ele>
        <time>2011-11-02T10:41:05.000Z</time>
      </trkpt>
      <trkpt lat="44.88634" lon="-0.15586">
        <ele>30.3</ele>
        <time>2011-11-02T10:41:09.000Z</time>
      </trkpt>
      <trkpt lat="44.88607" lon="-0.1561">
        <ele>28.1</ele>
        <time>2011-11-02T10:41:13.000Z</time>
      </trkpt>
      <trkpt lat="44.88585" lon="-0.15632">
        <ele>26.4</ele>
        <time>2011-11-02T10:41:17.000Z</time>
      </trkpt>
      <trkpt lat="44.88564" lon="-0.15661">
        <ele>24.1</ele>
        <time>2011-11-02T10:41:24.000Z</time>
      </trkpt>
      <trkpt lat="44.88533" lon="-0.15662">
        <ele>24.7</ele>
        <time>2011-11-02T10:42:19.000Z</time>
      </trkpt>
      <trkpt lat="44.88509" lon="-0.15639">
        <ele>27.4</ele>
        <time>2011-11-02T10:42:25.000Z</time>
      </trkpt>
      <trkpt lat="44.88487" lon="-0.15615">
        <ele>30.9</ele>
        <time>2011-11-02T10:42:31.000Z</time>
      </trkpt>
      <trkpt lat="44.88462" lon="-0.15586">
        <ele>32.8</ele>
        <time>2011-11-02T10:42:38.000Z</time>
      </trkpt>
      <trkpt lat="44.88437" lon="-0.1556">
        <ele>32.3</ele>
        <time>2011-11-02T10:42:44.000Z</time>
      </trkpt>
      <trkpt lat="44.88423" lon="-0.15526">
        <ele>37.1</ele>
        <time>2011-11-02T10:42:50.000Z</time>
      </trkpt>
      <trkpt lat="44.88406" lon="-0.15495">
        <ele>34.5</ele>
        <time>2011-11-02T10:42:56.000Z</time>
      </trkpt>
      <trkpt lat="44.88389" lon="-0.15458">
        <ele>32.4</ele>
        <time>2011-11-02T10:43:03.000Z</time>
      </trkpt>
      <trkpt lat="44.88373" lon="-0.15427">
        <ele>31.8</ele>
        <time>2011-11-02T10:43:09.000Z</time>
      </trkpt>
      <trkpt lat="44.88356" lon="-0.15394">
        <ele>30.9</ele>
        <time>2011-11-02T10:43:15.000Z</time>
      </trkpt>
      <trkpt lat="44.88338" lon="-0.15361">
        <ele>30.8</ele>
        <time>2011-11-02T10:43:21.000Z</time>
      </trkpt>
      <trkpt lat="44.8832" lon="-0.15328">
        <ele>32.9</ele>
        <time>2011-11-02T10:43:27.000Z</time>
      </trkpt>
      <trkpt lat="44.88303" lon="-0.15294">
        <ele>33.1</ele>
        <time>2011-11-02T10:43:33.000Z</time>
      </trkpt>
      <trkpt lat="44.88284" lon="-0.15261">
        <ele>32.5</ele>
        <time>2011-11-02T10:43:39.000Z</time>
      </trkpt>
      <trkpt lat="44.88267" lon="-0.1523">
        <ele>32.4</ele>
        <time>2011-11-02T10:43:45.000Z</time>
      </trkpt>
      <trkpt lat="44.88248" lon="-0.15195">
        <ele>33.5</ele>
        <time>2011-11-02T10:43:52.000Z</time>
      </trkpt>
      <trkpt lat="44.88231" lon="-0.15163">
        <ele>33.5</ele>
        <time>2011-11-02T10:43:59.000Z</time>
      </trkpt>
      <trkpt lat="44.88211" lon="-0.15131">
        <ele>32.6</ele>
        <time>2011-11-02T10:44:07.000Z</time>
      </trkpt>
      <trkpt lat="44.88195" lon="-0.151">
        <ele>30.9</ele>
        <time>2011-11-02T10:44:14.000Z</time>
      </trkpt>
      <trkpt lat="44.88179" lon="-0.15068">
        <ele>28.3</ele>
        <time>2011-11-02T10:44:21.000Z</time>
      </trkpt>
      <trkpt lat="44.88164" lon="-0.15031">
        <ele>27.7</ele>
        <time>2011-11-02T10:44:29.000Z</time>
      </trkpt>
      <trkpt lat="44.8815" lon="-0.14997">
        <ele>28.8</ele>
        <time>2011-11-02T10:44:36.000Z</time>
      </trkpt>
      <trkpt lat="44.88137" lon="-0.14961">
        <ele>28.9</ele>
        <time>2011-11-02T10:44:43.000Z</time>
      </trkpt>
      <trkpt lat="44.88123" lon="-0.14924">
        <ele>30.1</ele>
        <time>2011-11-02T10:44:50.000Z</time>
      </trkpt>
      <trkpt lat="44.88112" lon="-0.14888">
        <ele>30.6</ele>
        <time>2011-11-02T10:44:57.000Z</time>
      </trkpt>
      <trkpt lat="44.88104" lon="-0.14849">
        <ele>29.8</ele>
        <time>2011-11-02T10:45:05.000Z</time>
      </trkpt>
      <trkpt lat="44.88099" lon="-0.14807">
        <ele>30</ele>
        <time>2011-11-02T10:45:14.000Z</time>
      </trkpt>
      <trkpt lat="44.88093" lon="-0.14769">
        <ele>31.4</ele>
        <time>2011-11-02T10:45:22.000Z</time>
      </trkpt>
      <trkpt lat="44.88085" lon="-0.14728">
        <ele>34.8</ele>
        <time>2011-11-02T10:45:31.000Z</time>
      </trkpt>
      <trkpt lat="44.88076" lon="-0.1469">
        <ele>37.6</ele>
        <time>2011-11-02T10:45:39.000Z</time>
      </trkpt>
      <trkpt lat="44.88066" lon="-0.1465">
        <ele>38.4</ele>
        <time>2011-11-02T10:45:48.000Z</time>
      </trkpt>
      <trkpt lat="44.88055" lon="-0.14613">
        <ele>37.8</ele>
        <time>2011-11-02T10:45:57.000Z</time>
      </trkpt>
      <trkpt lat="44.88046" lon="-0.14573">
        <ele>36.2</ele>
        <time>2011-11-02T10:46:08.000Z</time>
      </trkpt>
      <trkpt lat="44.88041" lon="-0.14535">
        <ele>35.5</ele>
        <time>2011-11-02T10:46:18.000Z</time>
      </trkpt>
      <trkpt lat="44.88037" lon="-0.14494">
        <ele>34.4</ele>
        <time>2011-11-02T10:46:27.000Z</time>
      </trkpt>
      <trkpt lat="44.88032" lon="-0.14452">
        <ele>34.1</ele>
        <time>2011-11-02T10:46:35.000Z</time>
      </trkpt>
      <trkpt lat="44.88023" lon="-0.14414">
        <ele>34.5</ele>
        <time>2011-11-02T10:46:42.000Z</time>
      </trkpt>
      <trkpt lat="44.88012" lon="-0.14375">
        <ele>35.9</ele>
        <time>2011-11-02T10:46:49.000Z</time>
      </trkpt>
      <trkpt lat="44.87999" lon="-0.14338">
        <ele>35.4</ele>
        <time>2011-11-02T10:46:56.000Z</time>
      </trkpt>
      <trkpt lat="44.87986" lon="-0.14304">
        <ele>33.8</ele>
        <time>2011-11-02T10:47:02.000Z</time>
      </trkpt>
      <trkpt lat="44.87969" lon="-0.14268">
        <ele>32.6</ele>
        <time>2011-11-02T10:47:09.000Z</time>
      </trkpt>
      <trkpt lat="44.87956" lon="-0.14235">
        <ele>30.8</ele>
        <time>2011-11-02T10:47:15.000Z</time>
      </trkpt>
      <trkpt lat="44.87944" lon="-0.14199">
        <ele>30</ele>
        <time>2011-11-02T10:47:21.000Z</time>
      </trkpt>
      <trkpt lat="44.87942" lon="-0.14156">
        <ele>29.1</ele>
        <time>2011-11-02T10:47:28.000Z</time>
      </trkpt>
      <trkpt lat="44.87947" lon="-0.14116">
        <ele>29.9</ele>
        <time>2011-11-02T10:47:36.000Z</time>
      </trkpt>
      <trkpt lat="44.87951" lon="-0.14078">
        <ele>31.6</ele>
        <time>2011-11-02T10:47:45.000Z</time>
      </trkpt>
      <trkpt lat="44.87956" lon="-0.14037">
        <ele>33.2</ele>
        <time>2011-11-02T10:47:55.000Z</time>
      </trkpt>
      <trkpt lat="44.87959" lon="-0.13997">
        <ele>35.8</ele>
        <time>2011-11-02T10:48:05.000Z</time>
      </trkpt>
      <trkpt lat="44.87962" lon="-0.13959">
        <ele>38.2</ele>
        <time>2011-11-02T10:48:14.000Z</time>
      </trkpt>
      <trkpt lat="44.8796" lon="-0.13921">
        <ele>44.4</ele>
        <time>2011-11-02T10:48:24.000Z</time>
      </trkpt>
      <trkpt lat="44.87962" lon="-0.13882">
        <ele>47.2</ele>
        <time>2011-11-02T10:48:33.000Z</time>
      </trkpt>
      <trkpt lat="44.87965" lon="-0.13841">
        <ele>47.1</ele>
        <time>2011-11-02T10:48:40.000Z</time>
      </trkpt>
      <trkpt lat="44.8796" lon="-0.13801">
        <ele>49.5</ele>
        <time>2011-11-02T10:48:49.000Z</time>
      </trkpt>
      <trkpt lat="44.87957" lon="-0.13761">
        <ele>49.2</ele>
        <time>2011-11-02T10:48:55.000Z</time>
      </trkpt>
      <trkpt lat="44.87951" lon="-0.13718">
        <ele>50.1</ele>
        <time>2011-11-02T10:49:02.000Z</time>
      </trkpt>
      <trkpt lat="44.87947" lon="-0.13676">
        <ele>48.9</ele>
        <time>2011-11-02T10:49:09.000Z</time>
      </trkpt>
      <trkpt lat="44.87944" lon="-0.13638">
        <ele>47</ele>
        <time>2011-11-02T10:49:15.000Z</time>
      </trkpt>
      <trkpt lat="44.87941" lon="-0.13599">
        <ele>45.3</ele>
        <time>2011-11-02T10:49:21.000Z</time>
      </trkpt>
      <trkpt lat="44.87937" lon="-0.13556">
        <ele>43.3</ele>
        <time>2011-11-02T10:49:28.000Z</time>
      </trkpt>
      <trkpt lat="44.87935" lon="-0.13517">
        <ele>42.1</ele>
        <time>2011-11-02T10:49:35.000Z</time>
      </trkpt>
      <trkpt lat="44.87934" lon="-0.13477">
        <ele>41.2</ele>
        <time>2011-11-02T10:49:42.000Z</time>
      </trkpt>
      <trkpt lat="44.87934" lon="-0.13435">
        <ele>40.3</ele>
        <time>2011-11-02T10:49:49.000Z</time>
      </trkpt>
      <trkpt lat="44.87933" lon="-0.13395">
        <ele>40.6</ele>
        <time>2011-11-02T10:49:56.000Z</time>
      </trkpt>
      <trkpt lat="44.87929" lon="-0.13351">
        <ele>42.7</ele>
        <time>2011-11-02T10:50:04.000Z</time>
      </trkpt>
      <trkpt lat="44.87926" lon="-0.13311">
        <ele>42</ele>
        <time>2011-11-02T10:50:11.000Z</time>
      </trkpt>
      <trkpt lat="44.87921" lon="-0.1327">
        <ele>39.3</ele>
        <time>2011-11-02T10:50:18.000Z</time>
      </trkpt>
      <trkpt lat="44.87911" lon="-0.13231">
        <ele>38.3</ele>
        <time>2011-11-02T10:50:25.000Z</time>
      </trkpt>
      <trkpt lat="44.87895" lon="-0.13195">
        <ele>35.5</ele>
        <time>2011-11-02T10:50:33.000Z</time>
      </trkpt>
      <trkpt lat="44.87874" lon="-0.13165">
        <ele>33.5</ele>
        <time>2011-11-02T10:50:40.000Z</time>
      </trkpt>
      <trkpt lat="44.87853" lon="-0.13132">
        <ele>34</ele>
        <time>2011-11-02T10:50:46.000Z</time>
      </trkpt>
      <trkpt lat="44.87835" lon="-0.13102">
        <ele>33.5</ele>
        <time>2011-11-02T10:50:51.000Z</time>
      </trkpt>
      <trkpt lat="44.87818" lon="-0.13069">
        <ele>30.9</ele>
        <time>2011-11-02T10:50:57.000Z</time>
      </trkpt>
      <trkpt lat="44.87802" lon="-0.13037">
        <ele>28.7</ele>
        <time>2011-11-02T10:51:03.000Z</time>
      </trkpt>
      <trkpt lat="44.87782" lon="-0.13005">
        <ele>27.3</ele>
        <time>2011-11-02T10:51:09.000Z</time>
      </trkpt>
      <trkpt lat="44.87763" lon="-0.12973">
        <ele>24.9</ele>
        <time>2011-11-02T10:51:15.000Z</time>
      </trkpt>
      <trkpt lat="44.87743" lon="-0.1294">
        <ele>22.1</ele>
        <time>2011-11-02T10:51:21.000Z</time>
      </trkpt>
      <trkpt lat="44.87724" lon="-0.1291">
        <ele>19.9</ele>
        <time>2011-11-02T10:51:26.000Z</time>
      </trkpt>
      <trkpt lat="44.87705" lon="-0.1288">
        <ele>18.8</ele>
        <time>2011-11-02T10:51:31.000Z</time>
      </trkpt>
      <trkpt lat="44.87683" lon="-0.12847">
        <ele>17.4</ele>
        <time>2011-11-02T10:51:37.000Z</time>
      </trkpt>
      <trkpt lat="44.87664" lon="-0.12816">
        <ele>15.7</ele>
        <time>2011-11-02T10:51:43.000Z</time>
      </trkpt>
      <trkpt lat="44.87643" lon="-0.12784">
        <ele>15.6</ele>
        <time>2011-11-02T10:51:50.000Z</time>
      </trkpt>
      <trkpt lat="44.87622" lon="-0.12752">
        <ele>16.3</ele>
        <time>2011-11-02T10:51:57.000Z</time>
      </trkpt>
      <trkpt lat="44.87602" lon="-0.12719">
        <ele>14.9</ele>
        <time>2011-11-02T10:52:04.000Z</time>
      </trkpt>
      <trkpt lat="44.87583" lon="-0.12686">
        <ele>14.6</ele>
        <time>2011-11-02T10:52:11.000Z</time>
      </trkpt>
      <trkpt lat="44.87566" lon="-0.12654">
        <ele>12.1</ele>
        <time>2011-11-02T10:52:18.000Z</time>
      </trkpt>
      <trkpt lat="44.8755" lon="-0.12621">
        <ele>7.7</ele>
        <time>2011-11-02T10:52:25.000Z</time>
      </trkpt>
      <trkpt lat="44.87536" lon="-0.12582">
        <ele>11</ele>
        <time>2011-11-02T10:52:32.000Z</time>
      </trkpt>
      <trkpt lat="44.87526" lon="-0.12543">
        <ele>8.9</ele>
        <time>2011-11-02T10:52:39.000Z</time>
      </trkpt>
      <trkpt lat="44.87516" lon="-0.12504">
        <ele>8.3</ele>
        <time>2011-11-02T10:52:46.000Z</time>
      </trkpt>
      <trkpt lat="44.87505" lon="-0.12465">
        <ele>7</ele>
        <time>2011-11-02T10:52:53.000Z</time>
      </trkpt>
      <trkpt lat="44.87496" lon="-0.12426">
        <ele>3.9</ele>
        <time>2011-11-02T10:53:00.000Z</time>
      </trkpt>
      <trkpt lat="44.87486" lon="-0.12388">
        <ele>0.9</ele>
        <time>2011-11-02T10:53:07.000Z</time>
      </trkpt>
      <trkpt lat="44.87475" lon="-0.12352">
        <ele>1.4</ele>
        <time>2011-11-02T10:53:13.000Z</time>
      </trkpt>
      <trkpt lat="44.87466" lon="-0.12313">
        <ele>0.9</ele>
        <time>2011-11-02T10:53:19.000Z</time>
      </trkpt>
      <trkpt lat="44.87458" lon="-0.12275">
        <ele>2.3</ele>
        <time>2011-11-02T10:53:25.000Z</time>
      </trkpt>
      <trkpt lat="44.87452" lon="-0.12234">
        <ele>9.5</ele>
        <time>2011-11-02T10:53:31.000Z</time>
      </trkpt>
      <trkpt lat="44.87449" lon="-0.12191">
        <ele>12.1</ele>
        <time>2011-11-02T10:53:38.000Z</time>
      </trkpt>
      <trkpt lat="44.87445" lon="-0.12149">
        <ele>13.7</ele>
        <time>2011-11-02T10:53:45.000Z</time>
      </trkpt>
      <trkpt lat="44.87444" lon="-0.12106">
        <ele>14.7</ele>
        <time>2011-11-02T10:53:52.000Z</time>
      </trkpt>
      <trkpt lat="44.87446" lon="-0.12066">
        <ele>13.8</ele>
        <time>2011-11-02T10:53:58.000Z</time>
      </trkpt>
      <trkpt lat="44.8745" lon="-0.12024">
        <ele>13.5</ele>
        <time>2011-11-02T10:54:04.000Z</time>
      </trkpt>
      <trkpt lat="44.87451" lon="-0.11984">
        <ele>13.7</ele>
        <time>2011-11-02T10:54:10.000Z</time>
      </trkpt>
      <trkpt lat="44.87456" lon="-0.11946">
        <ele>13.9</ele>
        <time>2011-11-02T10:54:16.000Z</time>
      </trkpt>
      <trkpt lat="44.87463" lon="-0.11905">
        <ele>14.1</ele>
        <time>2011-11-02T10:54:23.000Z</time>
      </trkpt>
      <trkpt lat="44.87472" lon="-0.11865">
        <ele>14</ele>
        <time>2011-11-02T10:54:30.000Z</time>
      </trkpt>
      <trkpt lat="44.87478" lon="-0.11828">
        <ele>13.9</ele>
        <time>2011-11-02T10:54:36.000Z</time>
      </trkpt>
      <trkpt lat="44.87486" lon="-0.11785">
        <ele>14.2</ele>
        <time>2011-11-02T10:54:43.000Z</time>
      </trkpt>
      <trkpt lat="44.87491" lon="-0.11745">
        <ele>14.2</ele>
        <time>2011-11-02T10:54:49.000Z</time>
      </trkpt>
      <trkpt lat="44.87497" lon="-0.11705">
        <ele>13.8</ele>
        <time>2011-11-02T10:54:55.000Z</time>
      </trkpt>
      <trkpt lat="44.87504" lon="-0.11664">
        <ele>13.2</ele>
        <time>2011-11-02T10:55:01.000Z</time>
      </trkpt>
      <trkpt lat="44.87511" lon="-0.1162">
        <ele>12.8</ele>
        <time>2011-11-02T10:55:07.000Z</time>
      </trkpt>
      <trkpt lat="44.87518" lon="-0.11583">
        <ele>12.4</ele>
        <time>2011-11-02T10:55:12.000Z</time>
      </trkpt>
      <trkpt lat="44.87527" lon="-0.1154">
        <ele>12.3</ele>
        <time>2011-11-02T10:55:18.000Z</time>
      </trkpt>
      <trkpt lat="44.87536" lon="-0.115">
        <ele>12.4</ele>
        <time>2011-11-02T10:55:24.000Z</time>
      </trkpt>
      <trkpt lat="44.87544" lon="-0.11462">
        <ele>13.2</ele>
        <time>2011-11-02T10:55:30.000Z</time>
      </trkpt>
      <trkpt lat="44.87553" lon="-0.11421">
        <ele>13.3</ele>
        <time>2011-11-02T10:55:37.000Z</time>
      </trkpt>
      <trkpt lat="44.87563" lon="-0.1138">
        <ele>13.5</ele>
        <time>2011-11-02T10:55:44.000Z</time>
      </trkpt>
      <trkpt lat="44.87574" lon="-0.11342">
        <ele>13.6</ele>
        <time>2011-11-02T10:55:51.000Z</time>
      </trkpt>
      <trkpt lat="44.87586" lon="-0.11303">
        <ele>14.3</ele>
        <time>2011-11-02T10:55:59.000Z</time>
      </trkpt>
      <trkpt lat="44.87598" lon="-0.11266">
        <ele>15.2</ele>
        <time>2011-11-02T10:56:08.000Z</time>
      </trkpt>
      <trkpt lat="44.87608" lon="-0.11228">
        <ele>15.6</ele>
        <time>2011-11-02T10:56:17.000Z</time>
      </trkpt>
      <trkpt lat="44.87616" lon="-0.11186">
        <ele>14.8</ele>
        <time>2011-11-02T10:56:24.000Z</time>
      </trkpt>
      <trkpt lat="44.87623" lon="-0.11147">
        <ele>15</ele>
        <time>2011-11-02T10:56:30.000Z</time>
      </trkpt>
      <trkpt lat="44.87629" lon="-0.1111">
        <ele>15.6</ele>
        <time>2011-11-02T10:56:36.000Z</time>
      </trkpt>
      <trkpt lat="44.87634" lon="-0.1107">
        <ele>16.6</ele>
        <time>2011-11-02T10:56:43.000Z</time>
      </trkpt>
      <trkpt lat="44.87637" lon="-0.11032">
        <ele>15.9</ele>
        <time>2011-11-02T10:56:50.000Z</time>
      </trkpt>
      <trkpt lat="44.87642" lon="-0.1099">
        <ele>15.7</ele>
        <time>2011-11-02T10:56:58.000Z</time>
      </trkpt>
      <trkpt lat="44.87648" lon="-0.1095">
        <ele>15.9</ele>
        <time>2011-11-02T10:57:06.000Z</time>
      </trkpt>
      <trkpt lat="44.87654" lon="-0.10913">
        <ele>15.7</ele>
        <time>2011-11-02T10:57:14.000Z</time>
      </trkpt>
      <trkpt lat="44.87658" lon="-0.10871">
        <ele>15</ele>
        <time>2011-11-02T10:57:23.000Z</time>
      </trkpt>
      <trkpt lat="44.87666" lon="-0.10831">
        <ele>15.4</ele>
        <time>2011-11-02T10:57:32.000Z</time>
      </trkpt>
      <trkpt lat="44.87673" lon="-0.1079">
        <ele>14.8</ele>
        <time>2011-11-02T10:57:39.000Z</time>
      </trkpt>
      <trkpt lat="44.87677" lon="-0.10748">
        <ele>14.2</ele>
        <time>2011-11-02T10:57:46.000Z</time>
      </trkpt>
      <trkpt lat="44.87682" lon="-0.10706">
        <ele>13.8</ele>
        <time>2011-11-02T10:57:54.000Z</time>
      </trkpt>
      <trkpt lat="44.87692" lon="-0.1067">
        <ele>15</ele>
        <time>2011-11-02T10:58:02.000Z</time>
      </trkpt>
      <trkpt lat="44.87707" lon="-0.10635">
        <ele>14.9</ele>
        <time>2011-11-02T10:58:10.000Z</time>
      </trkpt>
      <trkpt lat="44.8772" lon="-0.106">
        <ele>14.3</ele>
        <time>2011-11-02T10:58:17.000Z</time>
      </trkpt>
      <trkpt lat="44.87732" lon="-0.10565">
        <ele>13.6</ele>
        <time>2011-11-02T10:58:23.000Z</time>
      </trkpt>
      <trkpt lat="44.87743" lon="-0.10527">
        <ele>13.2</ele>
        <time>2011-11-02T10:58:29.000Z</time>
      </trkpt>
      <trkpt lat="44.87749" lon="-0.10484">
        <ele>13</ele>
        <time>2011-11-02T10:58:35.000Z</time>
      </trkpt>
      <trkpt lat="44.87754" lon="-0.1044">
        <ele>12.9</ele>
        <time>2011-11-02T10:58:41.000Z</time>
      </trkpt>
      <trkpt lat="44.87758" lon="-0.10401">
        <ele>13.4</ele>
        <time>2011-11-02T10:58:47.000Z</time>
      </trkpt>
      <trkpt lat="44.87769" lon="-0.10363">
        <ele>12.8</ele>
        <time>2011-11-02T10:58:54.000Z</time>
      </trkpt>
      <trkpt lat="44.87796" lon="-0.10343">
        <ele>12.4</ele>
        <time>2011-11-02T10:59:01.000Z</time>
      </trkpt>
      <trkpt lat="44.87825" lon="-0.10329">
        <ele>12</ele>
        <time>2011-11-02T10:59:08.000Z</time>
      </trkpt>
      <trkpt lat="44.87836" lon="-0.10292">
        <ele>13.6</ele>
        <time>2011-11-02T10:59:16.000Z</time>
      </trkpt>
      <trkpt lat="44.87842" lon="-0.10254">
        <ele>15.5</ele>
        <time>2011-11-02T10:59:24.000Z</time>
      </trkpt>
      <trkpt lat="44.87852" lon="-0.10215">
        <ele>17.4</ele>
        <time>2011-11-02T10:59:32.000Z</time>
      </trkpt>
      <trkpt lat="44.8786" lon="-0.10175">
        <ele>18.2</ele>
        <time>2011-11-02T10:59:40.000Z</time>
      </trkpt>
      <trkpt lat="44.8787" lon="-0.10137">
        <ele>19.3</ele>
        <time>2011-11-02T10:59:48.000Z</time>
      </trkpt>
      <trkpt lat="44.87886" lon="-0.10106">
        <ele>18.4</ele>
        <time>2011-11-02T10:59:55.000Z</time>
      </trkpt>
      <trkpt lat="44.87911" lon="-0.10085">
        <ele>16.3</ele>
        <time>2011-11-02T11:00:03.000Z</time>
      </trkpt>
      <trkpt lat="44.87938" lon="-0.10074">
        <ele>17.3</ele>
        <time>2011-11-02T11:00:11.000Z</time>
      </trkpt>
      <trkpt lat="44.8796" lon="-0.10052">
        <ele>20.2</ele>
        <time>2011-11-02T11:00:21.000Z</time>
      </trkpt>
      <trkpt lat="44.87975" lon="-0.10017">
        <ele>18.9</ele>
        <time>2011-11-02T11:00:30.000Z</time>
      </trkpt>
      <trkpt lat="44.8798" lon="-0.09979">
        <ele>21</ele>
        <time>2011-11-02T11:00:39.000Z</time>
      </trkpt>
      <trkpt lat="44.87982" lon="-0.09937">
        <ele>22.3</ele>
        <time>2011-11-02T11:00:48.000Z</time>
      </trkpt>
      <trkpt lat="44.87978" lon="-0.09897">
        <ele>21.7</ele>
        <time>2011-11-02T11:00:58.000Z</time>
      </trkpt>
      <trkpt lat="44.87971" lon="-0.09858">
        <ele>25.6</ele>
        <time>2011-11-02T11:01:08.000Z</time>
      </trkpt>
      <trkpt lat="44.87966" lon="-0.09822">
        <ele>33</ele>
        <time>2011-11-02T11:01:18.000Z</time>
      </trkpt>
      <trkpt lat="44.87958" lon="-0.09785">
        <ele>33.2</ele>
        <time>2011-11-02T11:01:27.000Z</time>
      </trkpt>
      <trkpt lat="44.87949" lon="-0.09747">
        <ele>28.5</ele>
        <time>2011-11-02T11:01:37.000Z</time>
      </trkpt>
      <trkpt lat="44.87958" lon="-0.0971">
        <ele>25.2</ele>
        <time>2011-11-02T11:01:49.000Z</time>
      </trkpt>
      <trkpt lat="44.8796" lon="-0.09669">
        <ele>22</ele>
        <time>2011-11-02T11:01:59.000Z</time>
      </trkpt>
      <trkpt lat="44.8797" lon="-0.09629">
        <ele>18.5</ele>
        <time>2011-11-02T11:02:07.000Z</time>
      </trkpt>
      <trkpt lat="44.87966" lon="-0.09586">
        <ele>17.9</ele>
        <time>2011-11-02T11:02:14.000Z</time>
      </trkpt>
      <trkpt lat="44.8796" lon="-0.09546">
        <ele>18.3</ele>
        <time>2011-11-02T11:02:21.000Z</time>
      </trkpt>
      <trkpt lat="44.87942" lon="-0.09512">
        <ele>19.1</ele>
        <time>2011-11-02T11:02:28.000Z</time>
      </trkpt>
      <trkpt lat="44.87925" lon="-0.09476">
        <ele>19.5</ele>
        <time>2011-11-02T11:02:35.000Z</time>
      </trkpt>
      <trkpt lat="44.87911" lon="-0.09438">
        <ele>19.1</ele>
        <time>2011-11-02T11:02:42.000Z</time>
      </trkpt>
      <trkpt lat="44.87897" lon="-0.09402">
        <ele>20.9</ele>
        <time>2011-11-02T11:02:49.000Z</time>
      </trkpt>
      <trkpt lat="44.87887" lon="-0.09362">
        <ele>21.1</ele>
        <time>2011-11-02T11:02:57.000Z</time>
      </trkpt>
      <trkpt lat="44.87875" lon="-0.09326">
        <ele>21.7</ele>
        <time>2011-11-02T11:03:04.000Z</time>
      </trkpt>
      <trkpt lat="44.87862" lon="-0.09292">
        <ele>21.7</ele>
        <time>2011-11-02T11:03:11.000Z</time>
      </trkpt>
      <trkpt lat="44.87843" lon="-0.09262">
        <ele>20.6</ele>
        <time>2011-11-02T11:03:18.000Z</time>
      </trkpt>
      <trkpt lat="44.87824" lon="-0.09232">
        <ele>19</ele>
        <time>2011-11-02T11:03:25.000Z</time>
      </trkpt>
      <trkpt lat="44.87806" lon="-0.09202">
        <ele>17.4</ele>
        <time>2011-11-02T11:03:32.000Z</time>
      </trkpt>
      <trkpt lat="44.87788" lon="-0.09173">
        <ele>18.7</ele>
        <time>2011-11-02T11:03:39.000Z</time>
      </trkpt>
      <trkpt lat="44.8777" lon="-0.09142">
        <ele>22.3</ele>
        <time>2011-11-02T11:03:46.000Z</time>
      </trkpt>
      <trkpt lat="44.87752" lon="-0.09111">
        <ele>22.8</ele>
        <time>2011-11-02T11:03:53.000Z</time>
      </trkpt>
      <trkpt lat="44.87735" lon="-0.09076">
        <ele>19.5</ele>
        <time>2011-11-02T11:04:01.000Z</time>
      </trkpt>
      <trkpt lat="44.87717" lon="-0.09045">
        <ele>21</ele>
        <time>2011-11-02T11:04:08.000Z</time>
      </trkpt>
      <trkpt lat="44.877" lon="-0.09013">
        <ele>20.5</ele>
        <time>2011-11-02T11:04:15.000Z</time>
      </trkpt>
      <trkpt lat="44.87685" lon="-0.08981">
        <ele>19.1</ele>
        <time>2011-11-02T11:04:22.000Z</time>
      </trkpt>
      <trkpt lat="44.87671" lon="-0.08947">
        <ele>20.8</ele>
        <time>2011-11-02T11:04:29.000Z</time>
      </trkpt>
      <trkpt lat="44.87656" lon="-0.0891">
        <ele>20.7</ele>
        <time>2011-11-02T11:04:36.000Z</time>
      </trkpt>
      <trkpt lat="44.87643" lon="-0.08875">
        <ele>19.5</ele>
        <time>2011-11-02T11:04:43.000Z</time>
      </trkpt>
      <trkpt lat="44.8763" lon="-0.08841">
        <ele>19.2</ele>
        <time>2011-11-02T11:04:51.000Z</time>
      </trkpt>
      <trkpt lat="44.87612" lon="-0.08806">
        <ele>24.9</ele>
        <time>2011-11-02T11:04:59.000Z</time>
      </trkpt>
      <trkpt lat="44.87595" lon="-0.08768">
        <ele>21.8</ele>
        <time>2011-11-02T11:05:06.000Z</time>
      </trkpt>
      <trkpt lat="44.87574" lon="-0.08733">
        <ele>19.4</ele>
        <time>2011-11-02T11:05:12.000Z</time>
      </trkpt>
      <trkpt lat="44.87549" lon="-0.08711">
        <ele>18.7</ele>
        <time>2011-11-02T11:05:18.000Z</time>
      </trkpt>
      <trkpt lat="44.87521" lon="-0.08696">
        <ele>18.2</ele>
        <time>2011-11-02T11:05:24.000Z</time>
      </trkpt>
      <trkpt lat="44.87495" lon="-0.08683">
        <ele>19.1</ele>
        <time>2011-11-02T11:05:30.000Z</time>
      </trkpt>
      <trkpt lat="44.87473" lon="-0.08661">
        <ele>19.7</ele>
        <time>2011-11-02T11:05:36.000Z</time>
      </trkpt>
      <trkpt lat="44.87454" lon="-0.08633">
        <ele>18.2</ele>
        <time>2011-11-02T11:05:42.000Z</time>
      </trkpt>
      <trkpt lat="44.87438" lon="-0.086">
        <ele>16.9</ele>
        <time>2011-11-02T11:05:49.000Z</time>
      </trkpt>
      <trkpt lat="44.87422" lon="-0.08565">
        <ele>16.6</ele>
        <time>2011-11-02T11:05:56.000Z</time>
      </trkpt>
      <trkpt lat="44.87407" lon="-0.08529">
        <ele>15.2</ele>
        <time>2011-11-02T11:06:03.000Z</time>
      </trkpt>
      <trkpt lat="44.8739" lon="-0.085">
        <ele>18</ele>
        <time>2011-11-02T11:06:09.000Z</time>
      </trkpt>
      <trkpt lat="44.87366" lon="-0.08473">
        <ele>19.2</ele>
        <time>2011-11-02T11:06:16.000Z</time>
      </trkpt>
      <trkpt lat="44.87345" lon="-0.08448">
        <ele>14.2</ele>
        <time>2011-11-02T11:06:23.000Z</time>
      </trkpt>
      <trkpt lat="44.87322" lon="-0.08425">
        <ele>14.7</ele>
        <time>2011-11-02T11:06:30.000Z</time>
      </trkpt>
      <trkpt lat="44.87299" lon="-0.08404">
        <ele>16.6</ele>
        <time>2011-11-02T11:06:37.000Z</time>
      </trkpt>
      <trkpt lat="44.87275" lon="-0.0838">
        <ele>15.7</ele>
        <time>2011-11-02T11:06:45.000Z</time>
      </trkpt>
      <trkpt lat="44.8725" lon="-0.08356">
        <ele>14</ele>
        <time>2011-11-02T11:06:54.000Z</time>
      </trkpt>
      <trkpt lat="44.8723" lon="-0.08326">
        <ele>10</ele>
        <time>2011-11-02T11:07:04.000Z</time>
      </trkpt>
      <trkpt lat="44.87211" lon="-0.08299">
        <ele>9.1</ele>
        <time>2011-11-02T11:07:11.000Z</time>
      </trkpt>
      <trkpt lat="44.87186" lon="-0.08277">
        <ele>7.7</ele>
        <time>2011-11-02T11:07:17.000Z</time>
      </trkpt>
      <trkpt lat="44.87159" lon="-0.08254">
        <ele>6.9</ele>
        <time>2011-11-02T11:07:23.000Z</time>
      </trkpt>
      <trkpt lat="44.87134" lon="-0.08233">
        <ele>9.8</ele>
        <time>2011-11-02T11:07:28.000Z</time>
      </trkpt>
      <trkpt lat="44.87109" lon="-0.08211">
        <ele>12.4</ele>
        <time>2011-11-02T11:07:33.000Z</time>
      </trkpt>
      <trkpt lat="44.87086" lon="-0.0819">
        <ele>13.4</ele>
        <time>2011-11-02T11:07:38.000Z</time>
      </trkpt>
      <trkpt lat="44.87058" lon="-0.08169">
        <ele>15.8</ele>
        <time>2011-11-02T11:07:44.000Z</time>
      </trkpt>
      <trkpt lat="44.87032" lon="-0.08148">
        <ele>13.7</ele>
        <time>2011-11-02T11:07:50.000Z</time>
      </trkpt>
      <trkpt lat="44.87009" lon="-0.08128">
        <ele>14.7</ele>
        <time>2011-11-02T11:07:56.000Z</time>
      </trkpt>
      <trkpt lat="44.86985" lon="-0.08105">
        <ele>15.6</ele>
        <time>2011-11-02T11:08:04.000Z</time>
      </trkpt>
      <trkpt lat="44.8696" lon="-0.08089">
        <ele>16.8</ele>
        <time>2011-11-02T11:08:12.000Z</time>
      </trkpt>
      <trkpt lat="44.86934" lon="-0.08074">
        <ele>17.4</ele>
        <time>2011-11-02T11:08:21.000Z</time>
      </trkpt>
      <trkpt lat="44.86909" lon="-0.08059">
        <ele>17.7</ele>
        <time>2011-11-02T11:08:30.000Z</time>
      </trkpt>
      <trkpt lat="44.86882" lon="-0.08041">
        <ele>16.9</ele>
        <time>2011-11-02T11:08:41.000Z</time>
      </trkpt>
      <trkpt lat="44.86857" lon="-0.08022">
        <ele>15.7</ele>
        <time>2011-11-02T11:08:52.000Z</time>
      </trkpt>
      <trkpt lat="44.86834" lon="-0.08002">
        <ele>17.4</ele>
        <time>2011-11-02T11:09:03.000Z</time>
      </trkpt>
      <trkpt lat="44.86809" lon="-0.07978">
        <ele>18.1</ele>
        <time>2011-11-02T11:09:14.000Z</time>
      </trkpt>
      <trkpt lat="44.86787" lon="-0.07951">
        <ele>19.2</ele>
        <time>2011-11-02T11:09:24.000Z</time>
      </trkpt>
      <trkpt lat="44.86767" lon="-0.07922">
        <ele>18.2</ele>
        <time>2011-11-02T11:09:33.000Z</time>
      </trkpt>
      <trkpt lat="44.86749" lon="-0.0789">
        <ele>17.5</ele>
        <time>2011-11-02T11:09:42.000Z</time>
      </trkpt>
      <trkpt lat="44.8673" lon="-0.07857">
        <ele>17.7</ele>
        <time>2011-11-02T11:09:51.000Z</time>
      </trkpt>
      <trkpt lat="44.86712" lon="-0.07827">
        <ele>17.8</ele>
        <time>2011-11-02T11:09:59.000Z</time>
      </trkpt>
      <trkpt lat="44.86694" lon="-0.07798">
        <ele>19</ele>
        <time>2011-11-02T11:10:06.000Z</time>
      </trkpt>
      <trkpt lat="44.86675" lon="-0.07768">
        <ele>19.5</ele>
        <time>2011-11-02T11:10:13.000Z</time>
      </trkpt>
      <trkpt lat="44.86656" lon="-0.07737">
        <ele>18.3</ele>
        <time>2011-11-02T11:10:20.000Z</time>
      </trkpt>
      <trkpt lat="44.86636" lon="-0.07707">
        <ele>17.3</ele>
        <time>2011-11-02T11:10:27.000Z</time>
      </trkpt>
      <trkpt lat="44.86617" lon="-0.07679">
        <ele>18.6</ele>
        <time>2011-11-02T11:10:33.000Z</time>
      </trkpt>
      <trkpt lat="44.86598" lon="-0.07646">
        <ele>19.2</ele>
        <time>2011-11-02T11:10:40.000Z</time>
      </trkpt>
      <trkpt lat="44.8658" lon="-0.07611">
        <ele>18.4</ele>
        <time>2011-11-02T11:10:47.000Z</time>
      </trkpt>
      <trkpt lat="44.86562" lon="-0.07576">
        <ele>17.4</ele>
        <time>2011-11-02T11:10:54.000Z</time>
      </trkpt>
      <trkpt lat="44.86547" lon="-0.07539">
        <ele>16.5</ele>
        <time>2011-11-02T11:11:01.000Z</time>
      </trkpt>
      <trkpt lat="44.86533" lon="-0.07499">
        <ele>15.5</ele>
        <time>2011-11-02T11:11:08.000Z</time>
      </trkpt>
      <trkpt lat="44.86522" lon="-0.07458">
        <ele>15.4</ele>
        <time>2011-11-02T11:11:15.000Z</time>
      </trkpt>
      <trkpt lat="44.86513" lon="-0.07421">
        <ele>17.7</ele>
        <time>2011-11-02T11:11:21.000Z</time>
      </trkpt>
      <trkpt lat="44.86507" lon="-0.07383">
        <ele>17.4</ele>
        <time>2011-11-02T11:11:27.000Z</time>
      </trkpt>
      <trkpt lat="44.865" lon="-0.0734">
        <ele>17.3</ele>
        <time>2011-11-02T11:11:34.000Z</time>
      </trkpt>
      <trkpt lat="44.86493" lon="-0.07302">
        <ele>17.2</ele>
        <time>2011-11-02T11:11:41.000Z</time>
      </trkpt>
      <trkpt lat="44.86486" lon="-0.07263">
        <ele>17.4</ele>
        <time>2011-11-02T11:11:49.000Z</time>
      </trkpt>
      <trkpt lat="44.86478" lon="-0.07226">
        <ele>22.5</ele>
        <time>2011-11-02T11:11:59.000Z</time>
      </trkpt>
      <trkpt lat="44.86462" lon="-0.0719">
        <ele>23.5</ele>
        <time>2011-11-02T11:12:07.000Z</time>
      </trkpt>
      <trkpt lat="44.86454" lon="-0.07152">
        <ele>22.9</ele>
        <time>2011-11-02T11:12:15.000Z</time>
      </trkpt>
      <trkpt lat="44.86449" lon="-0.07115">
        <ele>22.5</ele>
        <time>2011-11-02T11:12:23.000Z</time>
      </trkpt>
      <trkpt lat="44.86447" lon="-0.07073">
        <ele>22.9</ele>
        <time>2011-11-02T11:12:32.000Z</time>
      </trkpt>
      <trkpt lat="44.86445" lon="-0.07034">
        <ele>23.1</ele>
        <time>2011-11-02T11:12:40.000Z</time>
      </trkpt>
      <trkpt lat="44.86442" lon="-0.06994">
        <ele>23.4</ele>
        <time>2011-11-02T11:12:48.000Z</time>
      </trkpt>
      <trkpt lat="44.86437" lon="-0.06955">
        <ele>24.1</ele>
        <time>2011-11-02T11:12:56.000Z</time>
      </trkpt>
      <trkpt lat="44.86433" lon="-0.06917">
        <ele>24.6</ele>
        <time>2011-11-02T11:13:04.000Z</time>
      </trkpt>
      <trkpt lat="44.8642" lon="-0.06878">
        <ele>28.1</ele>
        <time>2011-11-02T11:13:11.000Z</time>
      </trkpt>
      <trkpt lat="44.86412" lon="-0.06839">
        <ele>27.6</ele>
        <time>2011-11-02T11:13:18.000Z</time>
      </trkpt>
      <trkpt lat="44.86402" lon="-0.06802">
        <ele>28.5</ele>
        <time>2011-11-02T11:13:24.000Z</time>
      </trkpt>
      <trkpt lat="44.86395" lon="-0.06764">
        <ele>30.3</ele>
        <time>2011-11-02T11:13:30.000Z</time>
      </trkpt>
      <trkpt lat="44.86389" lon="-0.06727">
        <ele>31.7</ele>
        <time>2011-11-02T11:13:36.000Z</time>
      </trkpt>
      <trkpt lat="44.86385" lon="-0.06685">
        <ele>26.7</ele>
        <time>2011-11-02T11:13:43.000Z</time>
      </trkpt>
      <trkpt lat="44.86384" lon="-0.06642">
        <ele>24.7</ele>
        <time>2011-11-02T11:13:51.000Z</time>
      </trkpt>
      <trkpt lat="44.8638" lon="-0.06604">
        <ele>22.3</ele>
        <time>2011-11-02T11:13:58.000Z</time>
      </trkpt>
      <trkpt lat="44.86373" lon="-0.06567">
        <ele>21.6</ele>
        <time>2011-11-02T11:14:05.000Z</time>
      </trkpt>
      <trkpt lat="44.86365" lon="-0.06527">
        <ele>22.4</ele>
        <time>2011-11-02T11:14:13.000Z</time>
      </trkpt>
      <trkpt lat="44.86361" lon="-0.06489">
        <ele>23.8</ele>
        <time>2011-11-02T11:14:21.000Z</time>
      </trkpt>
      <trkpt lat="44.86366" lon="-0.06451">
        <ele>23</ele>
        <time>2011-11-02T11:14:32.000Z</time>
      </trkpt>
      <trkpt lat="44.86357" lon="-0.06412">
        <ele>19.1</ele>
        <time>2011-11-02T11:14:41.000Z</time>
      </trkpt>
      <trkpt lat="44.86341" lon="-0.06381">
        <ele>25.7</ele>
        <time>2011-11-02T11:14:48.000Z</time>
      </trkpt>
      <trkpt lat="44.86324" lon="-0.0635">
        <ele>25.1</ele>
        <time>2011-11-02T11:14:55.000Z</time>
      </trkpt>
      <trkpt lat="44.86306" lon="-0.06318">
        <ele>23.1</ele>
        <time>2011-11-02T11:15:03.000Z</time>
      </trkpt>
      <trkpt lat="44.86296" lon="-0.06281">
        <ele>24.2</ele>
        <time>2011-11-02T11:18:38.000Z</time>
      </trkpt>
      <trkpt lat="44.86278" lon="-0.06251">
        <ele>23.6</ele>
        <time>2011-11-02T11:18:52.000Z</time>
      </trkpt>
      <trkpt lat="44.86258" lon="-0.06223">
        <ele>25</ele>
        <time>2011-11-02T11:19:02.000Z</time>
      </trkpt>
      <trkpt lat="44.86239" lon="-0.06195">
        <ele>25.9</ele>
        <time>2011-11-02T11:19:11.000Z</time>
      </trkpt>
      <trkpt lat="44.8622" lon="-0.06166">
        <ele>25.2</ele>
        <time>2011-11-02T11:19:19.000Z</time>
      </trkpt>
      <trkpt lat="44.86204" lon="-0.06134">
        <ele>26.2</ele>
        <time>2011-11-02T11:19:28.000Z</time>
      </trkpt>
      <trkpt lat="44.8619" lon="-0.06102">
        <ele>25.7</ele>
        <time>2011-11-02T11:19:36.000Z</time>
      </trkpt>
      <trkpt lat="44.86173" lon="-0.06071">
        <ele>24.2</ele>
        <time>2011-11-02T11:19:43.000Z</time>
      </trkpt>
      <trkpt lat="44.86159" lon="-0.06035">
        <ele>22</ele>
        <time>2011-11-02T11:19:52.000Z</time>
      </trkpt>
      <trkpt lat="44.86148" lon="-0.05999">
        <ele>20.9</ele>
        <time>2011-11-02T11:20:01.000Z</time>
      </trkpt>
      <trkpt lat="44.86134" lon="-0.05966">
        <ele>21.1</ele>
        <time>2011-11-02T11:20:09.000Z</time>
      </trkpt>
      <trkpt lat="44.86122" lon="-0.05928">
        <ele>22</ele>
        <time>2011-11-02T11:20:18.000Z</time>
      </trkpt>
      <trkpt lat="44.86108" lon="-0.05895">
        <ele>20.8</ele>
        <time>2011-11-02T11:20:25.000Z</time>
      </trkpt>
      <trkpt lat="44.86091" lon="-0.05863">
        <ele>20.8</ele>
        <time>2011-11-02T11:20:32.000Z</time>
      </trkpt>
      <trkpt lat="44.86073" lon="-0.0583">
        <ele>21.1</ele>
        <time>2011-11-02T11:20:39.000Z</time>
      </trkpt>
      <trkpt lat="44.86058" lon="-0.05796">
        <ele>20.4</ele>
        <time>2011-11-02T11:20:46.000Z</time>
      </trkpt>
      <trkpt lat="44.86046" lon="-0.05756">
        <ele>18.1</ele>
        <time>2011-11-02T11:20:54.000Z</time>
      </trkpt>
      <trkpt lat="44.86031" lon="-0.05724">
        <ele>17.9</ele>
        <time>2011-11-02T11:21:01.000Z</time>
      </trkpt>
      <trkpt lat="44.86017" lon="-0.0569">
        <ele>17.2</ele>
        <time>2011-11-02T11:21:09.000Z</time>
      </trkpt>
      <trkpt lat="44.8599" lon="-0.05688">
        <ele>18.6</ele>
        <time>2011-11-02T11:21:17.000Z</time>
      </trkpt>
      <trkpt lat="44.86024" lon="-0.05721">
        <ele>-120.9</ele>
        <time>2011-11-02T11:50:51.000Z</time>
      </trkpt>
      <trkpt lat="44.85994" lon="-0.05713">
        <ele>-1.6</ele>
        <time>2011-11-02T11:50:52.000Z</time>
      </trkpt>
      <trkpt lat="44.85972" lon="-0.05706">
        <ele>16.4</ele>
        <time>2011-11-02T11:51:48.000Z</time>
      </trkpt>
      <trkpt lat="44.85945" lon="-0.05714">
        <ele>16.7</ele>
        <time>2011-11-02T11:52:04.000Z</time>
      </trkpt>
      <trkpt lat="44.85918" lon="-0.05731">
        <ele>15.3</ele>
        <time>2011-11-02T11:52:13.000Z</time>
      </trkpt>
      <trkpt lat="44.85891" lon="-0.05746">
        <ele>16.5</ele>
        <time>2011-11-02T11:52:21.000Z</time>
      </trkpt>
      <trkpt lat="44.85865" lon="-0.05761">
        <ele>15.8</ele>
        <time>2011-11-02T11:52:29.000Z</time>
      </trkpt>
      <trkpt lat="44.85839" lon="-0.05774">
        <ele>15.5</ele>
        <time>2011-11-02T11:52:37.000Z</time>
      </trkpt>
      <trkpt lat="44.85811" lon="-0.05792">
        <ele>15.9</ele>
        <time>2011-11-02T11:52:45.000Z</time>
      </trkpt>
      <trkpt lat="44.85783" lon="-0.05808">
        <ele>12.8</ele>
        <time>2011-11-02T11:52:53.000Z</time>
      </trkpt>
      <trkpt lat="44.85758" lon="-0.05826">
        <ele>14</ele>
        <time>2011-11-02T11:53:00.000Z</time>
      </trkpt>
      <trkpt lat="44.85736" lon="-0.05852">
        <ele>14.8</ele>
        <time>2011-11-02T11:53:07.000Z</time>
      </trkpt>
      <trkpt lat="44.85716" lon="-0.05878">
        <ele>14.5</ele>
        <time>2011-11-02T11:53:14.000Z</time>
      </trkpt>
      <trkpt lat="44.8569" lon="-0.05895">
        <ele>12.2</ele>
        <time>2011-11-02T11:53:21.000Z</time>
      </trkpt>
      <trkpt lat="44.85664" lon="-0.05908">
        <ele>12.3</ele>
        <time>2011-11-02T11:53:28.000Z</time>
      </trkpt>
      <trkpt lat="44.85638" lon="-0.05921">
        <ele>14.7</ele>
        <time>2011-11-02T11:53:35.000Z</time>
      </trkpt>
      <trkpt lat="44.85612" lon="-0.05932">
        <ele>16.5</ele>
        <time>2011-11-02T11:53:42.000Z</time>
      </trkpt>
      <trkpt lat="44.85584" lon="-0.05946">
        <ele>14.9</ele>
        <time>2011-11-02T11:53:50.000Z</time>
      </trkpt>
      <trkpt lat="44.85555" lon="-0.05958">
        <ele>16.2</ele>
        <time>2011-11-02T11:53:58.000Z</time>
      </trkpt>
      <trkpt lat="44.8553" lon="-0.05977">
        <ele>16.3</ele>
        <time>2011-11-02T11:54:06.000Z</time>
      </trkpt>
      <trkpt lat="44.85511" lon="-0.0601">
        <ele>16.3</ele>
        <time>2011-11-02T11:54:14.000Z</time>
      </trkpt>
      <trkpt lat="44.85492" lon="-0.0604">
        <ele>16.2</ele>
        <time>2011-11-02T11:54:22.000Z</time>
      </trkpt>
      <trkpt lat="44.85469" lon="-0.06064">
        <ele>15.5</ele>
        <time>2011-11-02T11:54:30.000Z</time>
      </trkpt>
      <trkpt lat="44.85441" lon="-0.06061">
        <ele>17.5</ele>
        <time>2011-11-02T11:54:40.000Z</time>
      </trkpt>
      <trkpt lat="44.85421" lon="-0.06029">
        <ele>16.7</ele>
        <time>2011-11-02T11:54:48.000Z</time>
      </trkpt>
      <trkpt lat="44.85408" lon="-0.05992">
        <ele>16.4</ele>
        <time>2011-11-02T11:54:55.000Z</time>
      </trkpt>
      <trkpt lat="44.85396" lon="-0.05955">
        <ele>17.2</ele>
        <time>2011-11-02T11:55:02.000Z</time>
      </trkpt>
      <trkpt lat="44.85385" lon="-0.05919">
        <ele>17.9</ele>
        <time>2011-11-02T11:55:09.000Z</time>
      </trkpt>
      <trkpt lat="44.85374" lon="-0.05879">
        <ele>18.5</ele>
        <time>2011-11-02T11:55:17.000Z</time>
      </trkpt>
      <trkpt lat="44.85364" lon="-0.05841">
        <ele>19.7</ele>
        <time>2011-11-02T11:55:25.000Z</time>
      </trkpt>
      <trkpt lat="44.85357" lon="-0.058">
        <ele>20.7</ele>
        <time>2011-11-02T11:55:33.000Z</time>
      </trkpt>
      <trkpt lat="44.8535" lon="-0.05762">
        <ele>20.6</ele>
        <time>2011-11-02T11:55:40.000Z</time>
      </trkpt>
      <trkpt lat="44.85344" lon="-0.05722">
        <ele>19.7</ele>
        <time>2011-11-02T11:55:47.000Z</time>
      </trkpt>
      <trkpt lat="44.85337" lon="-0.05681">
        <ele>19.3</ele>
        <time>2011-11-02T11:55:54.000Z</time>
      </trkpt>
      <trkpt lat="44.85331" lon="-0.05641">
        <ele>19.5</ele>
        <time>2011-11-02T11:56:01.000Z</time>
      </trkpt>
      <trkpt lat="44.85329" lon="-0.05602">
        <ele>19.6</ele>
        <time>2011-11-02T11:56:08.000Z</time>
      </trkpt>
      <trkpt lat="44.85326" lon="-0.05563">
        <ele>18.6</ele>
        <time>2011-11-02T11:56:15.000Z</time>
      </trkpt>
      <trkpt lat="44.85323" lon="-0.05522">
        <ele>19</ele>
        <time>2011-11-02T11:56:23.000Z</time>
      </trkpt>
      <trkpt lat="44.85321" lon="-0.05483">
        <ele>19</ele>
        <time>2011-11-02T11:56:31.000Z</time>
      </trkpt>
      <trkpt lat="44.85304" lon="-0.05449">
        <ele>18.6</ele>
        <time>2011-11-02T11:56:40.000Z</time>
      </trkpt>
      <trkpt lat="44.85275" lon="-0.05445">
        <ele>20</ele>
        <time>2011-11-02T11:56:48.000Z</time>
      </trkpt>
      <trkpt lat="44.85247" lon="-0.05443">
        <ele>22.2</ele>
        <time>2011-11-02T11:56:55.000Z</time>
      </trkpt>
      <trkpt lat="44.85215" lon="-0.05434">
        <ele>21.2</ele>
        <time>2011-11-02T11:57:01.000Z</time>
      </trkpt>
      <trkpt lat="44.85192" lon="-0.05411">
        <ele>21.7</ele>
        <time>2011-11-02T11:57:07.000Z</time>
      </trkpt>
      <trkpt lat="44.85169" lon="-0.05391">
        <ele>21.1</ele>
        <time>2011-11-02T11:57:13.000Z</time>
      </trkpt>
      <trkpt lat="44.85141" lon="-0.05369">
        <ele>20</ele>
        <time>2011-11-02T11:57:20.000Z</time>
      </trkpt>
      <trkpt lat="44.85113" lon="-0.05349">
        <ele>19.1</ele>
        <time>2011-11-02T11:57:27.000Z</time>
      </trkpt>
      <trkpt lat="44.85085" lon="-0.05336">
        <ele>18.3</ele>
        <time>2011-11-02T11:57:34.000Z</time>
      </trkpt>
      <trkpt lat="44.85059" lon="-0.05325">
        <ele>17.8</ele>
        <time>2011-11-02T11:57:42.000Z</time>
      </trkpt>
      <trkpt lat="44.85032" lon="-0.05321">
        <ele>17.3</ele>
        <time>2011-11-02T11:57:50.000Z</time>
      </trkpt>
      <trkpt lat="44.85003" lon="-0.05319">
        <ele>16.9</ele>
        <time>2011-11-02T11:57:57.000Z</time>
      </trkpt>
      <trkpt lat="44.84974" lon="-0.05316">
        <ele>15.8</ele>
        <time>2011-11-02T11:58:04.000Z</time>
      </trkpt>
      <trkpt lat="44.84945" lon="-0.05308">
        <ele>16.5</ele>
        <time>2011-11-02T11:58:11.000Z</time>
      </trkpt>
      <trkpt lat="44.84918" lon="-0.05297">
        <ele>16.7</ele>
        <time>2011-11-02T11:58:18.000Z</time>
      </trkpt>
      <trkpt lat="44.84892" lon="-0.05281">
        <ele>17.4</ele>
        <time>2011-11-02T11:58:26.000Z</time>
      </trkpt>
      <trkpt lat="44.84868" lon="-0.05262">
        <ele>18.8</ele>
        <time>2011-11-02T11:58:34.000Z</time>
      </trkpt>
      <trkpt lat="44.84847" lon="-0.05237">
        <ele>19.6</ele>
        <time>2011-11-02T11:58:41.000Z</time>
      </trkpt>
      <trkpt lat="44.84824" lon="-0.05215">
        <ele>16.3</ele>
        <time>2011-11-02T11:58:47.000Z</time>
      </trkpt>
      <trkpt lat="44.848" lon="-0.05188">
        <ele>14.4</ele>
        <time>2011-11-02T11:58:53.000Z</time>
      </trkpt>
      <trkpt lat="44.84777" lon="-0.05162">
        <ele>14.2</ele>
        <time>2011-11-02T11:58:59.000Z</time>
      </trkpt>
      <trkpt lat="44.84753" lon="-0.0514">
        <ele>14.2</ele>
        <time>2011-11-02T11:59:06.000Z</time>
      </trkpt>
      <trkpt lat="44.84734" lon="-0.05114">
        <ele>14.5</ele>
        <time>2011-11-02T11:59:15.000Z</time>
      </trkpt>
      <trkpt lat="44.84712" lon="-0.05088">
        <ele>17.4</ele>
        <time>2011-11-02T11:59:23.000Z</time>
      </trkpt>
      <trkpt lat="44.8469" lon="-0.05063">
        <ele>18.9</ele>
        <time>2011-11-02T11:59:32.000Z</time>
      </trkpt>
      <trkpt lat="44.8467" lon="-0.0503">
        <ele>19.2</ele>
        <time>2011-11-02T11:59:39.000Z</time>
      </trkpt>
      <trkpt lat="44.8465" lon="-0.04995">
        <ele>20.7</ele>
        <time>2011-11-02T11:59:45.000Z</time>
      </trkpt>
      <trkpt lat="44.8463" lon="-0.04965">
        <ele>20</ele>
        <time>2011-11-02T11:59:50.000Z</time>
      </trkpt>
      <trkpt lat="44.8461" lon="-0.04934">
        <ele>19.7</ele>
        <time>2011-11-02T11:59:55.000Z</time>
      </trkpt>
      <trkpt lat="44.8459" lon="-0.04905">
        <ele>20</ele>
        <time>2011-11-02T12:00:00.000Z</time>
      </trkpt>
      <trkpt lat="44.84568" lon="-0.04877">
        <ele>16.4</ele>
        <time>2011-11-02T12:00:05.000Z</time>
      </trkpt>
      <trkpt lat="44.84552" lon="-0.0484">
        <ele>14.7</ele>
        <time>2011-11-02T12:00:11.000Z</time>
      </trkpt>
      <trkpt lat="44.84548" lon="-0.04801">
        <ele>13.7</ele>
        <time>2011-11-02T12:00:17.000Z</time>
      </trkpt>
      <trkpt lat="44.84552" lon="-0.04763">
        <ele>12.4</ele>
        <time>2011-11-02T12:00:23.000Z</time>
      </trkpt>
      <trkpt lat="44.84556" lon="-0.04725">
        <ele>11.2</ele>
        <time>2011-11-02T12:00:29.000Z</time>
      </trkpt>
      <trkpt lat="44.84562" lon="-0.04682">
        <ele>10.1</ele>
        <time>2011-11-02T12:00:36.000Z</time>
      </trkpt>
      <trkpt lat="44.84567" lon="-0.04639">
        <ele>9.7</ele>
        <time>2011-11-02T12:00:43.000Z</time>
      </trkpt>
      <trkpt lat="44.84572" lon="-0.04602">
        <ele>8.4</ele>
        <time>2011-11-02T12:00:49.000Z</time>
      </trkpt>
      <trkpt lat="44.84578" lon="-0.04559">
        <ele>6.9</ele>
        <time>2011-11-02T12:00:56.000Z</time>
      </trkpt>
      <trkpt lat="44.84584" lon="-0.04521">
        <ele>6.7</ele>
        <time>2011-11-02T12:01:02.000Z</time>
      </trkpt>
      <trkpt lat="44.84589" lon="-0.04484">
        <ele>6.4</ele>
        <time>2011-11-02T12:01:08.000Z</time>
      </trkpt>
      <trkpt lat="44.84594" lon="-0.04447">
        <ele>6.5</ele>
        <time>2011-11-02T12:01:14.000Z</time>
      </trkpt>
      <trkpt lat="44.84599" lon="-0.04408">
        <ele>6.4</ele>
        <time>2011-11-02T12:01:20.000Z</time>
      </trkpt>
      <trkpt lat="44.84604" lon="-0.04371">
        <ele>5.2</ele>
        <time>2011-11-02T12:01:26.000Z</time>
      </trkpt>
      <trkpt lat="44.8461" lon="-0.04328">
        <ele>4.6</ele>
        <time>2011-11-02T12:01:33.000Z</time>
      </trkpt>
      <trkpt lat="44.84616" lon="-0.04286">
        <ele>4.6</ele>
        <time>2011-11-02T12:01:40.000Z</time>
      </trkpt>
      <trkpt lat="44.84622" lon="-0.04244">
        <ele>4.1</ele>
        <time>2011-11-02T12:01:47.000Z</time>
      </trkpt>
      <trkpt lat="44.84627" lon="-0.04206">
        <ele>3.7</ele>
        <time>2011-11-02T12:01:53.000Z</time>
      </trkpt>
      <trkpt lat="44.84633" lon="-0.04163">
        <ele>3</ele>
        <time>2011-11-02T12:02:00.000Z</time>
      </trkpt>
      <trkpt lat="44.84639" lon="-0.0412">
        <ele>2.4</ele>
        <time>2011-11-02T12:02:07.000Z</time>
      </trkpt>
      <trkpt lat="44.84644" lon="-0.04082">
        <ele>2</ele>
        <time>2011-11-02T12:02:13.000Z</time>
      </trkpt>
      <trkpt lat="44.84649" lon="-0.04039">
        <ele>2.1</ele>
        <time>2011-11-02T12:02:20.000Z</time>
      </trkpt>
      <trkpt lat="44.84649" lon="-0.04001">
        <ele>2.4</ele>
        <time>2011-11-02T12:02:26.000Z</time>
      </trkpt>
      <trkpt lat="44.84647" lon="-0.03958">
        <ele>3.6</ele>
        <time>2011-11-02T12:02:33.000Z</time>
      </trkpt>
      <trkpt lat="44.84645" lon="-0.03916">
        <ele>4.4</ele>
        <time>2011-11-02T12:02:40.000Z</time>
      </trkpt>
      <trkpt lat="44.84643" lon="-0.03876">
        <ele>5.2</ele>
        <time>2011-11-02T12:02:47.000Z</time>
      </trkpt>
      <trkpt lat="44.84641" lon="-0.03835">
        <ele>5.6</ele>
        <time>2011-11-02T12:02:54.000Z</time>
      </trkpt>
      <trkpt lat="44.84638" lon="-0.03794">
        <ele>6.4</ele>
        <time>2011-11-02T12:03:01.000Z</time>
      </trkpt>
      <trkpt lat="44.84639" lon="-0.03755">
        <ele>6.6</ele>
        <time>2011-11-02T12:03:08.000Z</time>
      </trkpt>
      <trkpt lat="44.84622" lon="-0.03723">
        <ele>6.6</ele>
        <time>2011-11-02T12:03:17.000Z</time>
      </trkpt>
      <trkpt lat="44.84596" lon="-0.03711">
        <ele>6.5</ele>
        <time>2011-11-02T12:03:24.000Z</time>
      </trkpt>
      <trkpt lat="44.84568" lon="-0.03701">
        <ele>5.9</ele>
        <time>2011-11-02T12:03:31.000Z</time>
      </trkpt>
      <trkpt lat="44.8454" lon="-0.03692">
        <ele>6</ele>
        <time>2011-11-02T12:03:38.000Z</time>
      </trkpt>
      <trkpt lat="44.84512" lon="-0.03682">
        <ele>5.7</ele>
        <time>2011-11-02T12:03:45.000Z</time>
      </trkpt>
      <trkpt lat="44.84485" lon="-0.03673">
        <ele>5.1</ele>
        <time>2011-11-02T12:03:52.000Z</time>
      </trkpt>
      <trkpt lat="44.84456" lon="-0.03663">
        <ele>5.4</ele>
        <time>2011-11-02T12:04:00.000Z</time>
      </trkpt>
      <trkpt lat="44.84429" lon="-0.03654">
        <ele>5.4</ele>
        <time>2011-11-02T12:04:07.000Z</time>
      </trkpt>
      <trkpt lat="44.84401" lon="-0.03645">
        <ele>5.6</ele>
        <time>2011-11-02T12:04:14.000Z</time>
      </trkpt>
      <trkpt lat="44.84372" lon="-0.03638">
        <ele>6.4</ele>
        <time>2011-11-02T12:04:21.000Z</time>
      </trkpt>
      <trkpt lat="44.84343" lon="-0.03633">
        <ele>6.2</ele>
        <time>2011-11-02T12:04:28.000Z</time>
      </trkpt>
      <trkpt lat="44.84314" lon="-0.03629">
        <ele>8</ele>
        <time>2011-11-02T12:04:35.000Z</time>
      </trkpt>
      <trkpt lat="44.84284" lon="-0.03632">
        <ele>11</ele>
        <time>2011-11-02T12:04:43.000Z</time>
      </trkpt>
      <trkpt lat="44.84256" lon="-0.03636">
        <ele>11.3</ele>
        <time>2011-11-02T12:04:49.000Z</time>
      </trkpt>
      <trkpt lat="44.84226" lon="-0.03638">
        <ele>10.7</ele>
        <time>2011-11-02T12:04:56.000Z</time>
      </trkpt>
      <trkpt lat="44.84197" lon="-0.03645">
        <ele>7.5</ele>
        <time>2011-11-02T12:05:03.000Z</time>
      </trkpt>
      <trkpt lat="44.8417" lon="-0.03656">
        <ele>5.4</ele>
        <time>2011-11-02T12:05:09.000Z</time>
      </trkpt>
      <trkpt lat="44.84141" lon="-0.03673">
        <ele>1.6</ele>
        <time>2011-11-02T12:05:16.000Z</time>
      </trkpt>
      <trkpt lat="44.84114" lon="-0.03686">
        <ele>1.2</ele>
        <time>2011-11-02T12:05:23.000Z</time>
      </trkpt>
      <trkpt lat="44.84087" lon="-0.03701">
        <ele>0.2</ele>
        <time>2011-11-02T12:05:30.000Z</time>
      </trkpt>
      <trkpt lat="44.84058" lon="-0.03715">
        <ele>-0.7</ele>
        <time>2011-11-02T12:05:37.000Z</time>
      </trkpt>
      <trkpt lat="44.84031" lon="-0.03729">
        <ele>-1.6</ele>
        <time>2011-11-02T12:05:44.000Z</time>
      </trkpt>
      <trkpt lat="44.84005" lon="-0.03742">
        <ele>-1.9</ele>
        <time>2011-11-02T12:05:51.000Z</time>
      </trkpt>
      <trkpt lat="44.83978" lon="-0.03755">
        <ele>-2</ele>
        <time>2011-11-02T12:05:58.000Z</time>
      </trkpt>
      <trkpt lat="44.83952" lon="-0.03769">
        <ele>-3.6</ele>
        <time>2011-11-02T12:06:05.000Z</time>
      </trkpt>
      <trkpt lat="44.83925" lon="-0.03782">
        <ele>-2.7</ele>
        <time>2011-11-02T12:06:12.000Z</time>
      </trkpt>
      <trkpt lat="44.83896" lon="-0.03796">
        <ele>-1.9</ele>
        <time>2011-11-02T12:06:20.000Z</time>
      </trkpt>
      <trkpt lat="44.8387" lon="-0.03809">
        <ele>-2.9</ele>
        <time>2011-11-02T12:06:27.000Z</time>
      </trkpt>
      <trkpt lat="44.83844" lon="-0.03821">
        <ele>-0.3</ele>
        <time>2011-11-02T12:06:34.000Z</time>
      </trkpt>
      <trkpt lat="44.83818" lon="-0.03832">
        <ele>3.1</ele>
        <time>2011-11-02T12:06:40.000Z</time>
      </trkpt>
      <trkpt lat="44.83791" lon="-0.03847">
        <ele>2.1</ele>
        <time>2011-11-02T12:06:47.000Z</time>
      </trkpt>
      <trkpt lat="44.83764" lon="-0.03861">
        <ele>1.5</ele>
        <time>2011-11-02T12:06:54.000Z</time>
      </trkpt>
      <trkpt lat="44.83737" lon="-0.03874">
        <ele>-1.5</ele>
        <time>2011-11-02T12:07:01.000Z</time>
      </trkpt>
      <trkpt lat="44.83708" lon="-0.03888">
        <ele>-2.4</ele>
        <time>2011-11-02T12:07:08.000Z</time>
      </trkpt>
      <trkpt lat="44.83678" lon="-0.039">
        <ele>-2.4</ele>
        <time>2011-11-02T12:07:15.000Z</time>
      </trkpt>
      <trkpt lat="44.8365" lon="-0.03907">
        <ele>2.2</ele>
        <time>2011-11-02T12:07:21.000Z</time>
      </trkpt>
      <trkpt lat="44.83623" lon="-0.0391">
        <ele>3.3</ele>
        <time>2011-11-02T12:07:28.000Z</time>
      </trkpt>
      <trkpt lat="44.83595" lon="-0.03899">
        <ele>2.8</ele>
        <time>2011-11-02T12:07:36.000Z</time>
      </trkpt>
      <trkpt lat="44.83567" lon="-0.0389">
        <ele>4.6</ele>
        <time>2011-11-02T12:07:43.000Z</time>
      </trkpt>
      <trkpt lat="44.83537" lon="-0.03883">
        <ele>4.1</ele>
        <time>2011-11-02T12:07:50.000Z</time>
      </trkpt>
      <trkpt lat="44.83509" lon="-0.03875">
        <ele>4.5</ele>
        <time>2011-11-02T12:07:57.000Z</time>
      </trkpt>
      <trkpt lat="44.83482" lon="-0.03866">
        <ele>6</ele>
        <time>2011-11-02T12:08:04.000Z</time>
      </trkpt>
      <trkpt lat="44.83453" lon="-0.03858">
        <ele>6.7</ele>
        <time>2011-11-02T12:08:11.000Z</time>
      </trkpt>
      <trkpt lat="44.83423" lon="-0.03851">
        <ele>5.5</ele>
        <time>2011-11-02T12:08:18.000Z</time>
      </trkpt>
      <trkpt lat="44.83392" lon="-0.03853">
        <ele>6.2</ele>
        <time>2011-11-02T12:08:25.000Z</time>
      </trkpt>
      <trkpt lat="44.83365" lon="-0.03871">
        <ele>8.1</ele>
        <time>2011-11-02T12:08:32.000Z</time>
      </trkpt>
      <trkpt lat="44.83342" lon="-0.03894">
        <ele>7.2</ele>
        <time>2011-11-02T12:08:39.000Z</time>
      </trkpt>
      <trkpt lat="44.83319" lon="-0.03918">
        <ele>4.8</ele>
        <time>2011-11-02T12:08:46.000Z</time>
      </trkpt>
      <trkpt lat="44.83294" lon="-0.03941">
        <ele>4</ele>
        <time>2011-11-02T12:08:54.000Z</time>
      </trkpt>
      <trkpt lat="44.83271" lon="-0.03965">
        <ele>1.6</ele>
        <time>2011-11-02T12:10:45.000Z</time>
      </trkpt>
      <trkpt lat="44.83246" lon="-0.03984">
        <ele>0.1</ele>
        <time>2011-11-02T12:10:55.000Z</time>
      </trkpt>
      <trkpt lat="44.8322" lon="-0.03999">
        <ele>-1.4</ele>
        <time>2011-11-02T12:11:04.000Z</time>
      </trkpt>
      <trkpt lat="44.83191" lon="-0.0401">
        <ele>-0.4</ele>
        <time>2011-11-02T12:11:13.000Z</time>
      </trkpt>
      <trkpt lat="44.8316" lon="-0.04014">
        <ele>1.6</ele>
        <time>2011-11-02T12:11:22.000Z</time>
      </trkpt>
      <trkpt lat="44.83133" lon="-0.04019">
        <ele>1.2</ele>
        <time>2011-11-02T12:11:30.000Z</time>
      </trkpt>
      <trkpt lat="44.83104" lon="-0.04024">
        <ele>0.3</ele>
        <time>2011-11-02T12:11:38.000Z</time>
      </trkpt>
      <trkpt lat="44.83077" lon="-0.04026">
        <ele>1.6</ele>
        <time>2011-11-02T12:11:45.000Z</time>
      </trkpt>
      <trkpt lat="44.83047" lon="-0.04032">
        <ele>0.9</ele>
        <time>2011-11-02T12:11:53.000Z</time>
      </trkpt>
      <trkpt lat="44.83016" lon="-0.04037">
        <ele>3.2</ele>
        <time>2011-11-02T12:12:00.000Z</time>
      </trkpt>
      <trkpt lat="44.82988" lon="-0.04048">
        <ele>3</ele>
        <time>2011-11-02T12:12:06.000Z</time>
      </trkpt>
      <trkpt lat="44.82961" lon="-0.04061">
        <ele>3.6</ele>
        <time>2011-11-02T12:12:12.000Z</time>
      </trkpt>
      <trkpt lat="44.82937" lon="-0.04077">
        <ele>4.9</ele>
        <time>2011-11-02T12:12:18.000Z</time>
      </trkpt>
      <trkpt lat="44.82911" lon="-0.04103">
        <ele>7.9</ele>
        <time>2011-11-02T12:12:25.000Z</time>
      </trkpt>
      <trkpt lat="44.82889" lon="-0.04128">
        <ele>6.8</ele>
        <time>2011-11-02T12:12:31.000Z</time>
      </trkpt>
      <trkpt lat="44.82867" lon="-0.04153">
        <ele>4.5</ele>
        <time>2011-11-02T12:12:37.000Z</time>
      </trkpt>
      <trkpt lat="44.82844" lon="-0.04175">
        <ele>3.4</ele>
        <time>2011-11-02T12:12:43.000Z</time>
      </trkpt>
      <trkpt lat="44.82821" lon="-0.04196">
        <ele>2.4</ele>
        <time>2011-11-02T12:12:49.000Z</time>
      </trkpt>
      <trkpt lat="44.82796" lon="-0.04217">
        <ele>0.8</ele>
        <time>2011-11-02T12:12:55.000Z</time>
      </trkpt>
      <trkpt lat="44.82769" lon="-0.04237">
        <ele>0.2</ele>
        <time>2011-11-02T12:13:02.000Z</time>
      </trkpt>
      <trkpt lat="44.82744" lon="-0.04255">
        <ele>-1.2</ele>
        <time>2011-11-02T12:13:09.000Z</time>
      </trkpt>
      <trkpt lat="44.82718" lon="-0.04272">
        <ele>-1.3</ele>
        <time>2011-11-02T12:13:16.000Z</time>
      </trkpt>
      <trkpt lat="44.82691" lon="-0.04291">
        <ele>-4.6</ele>
        <time>2011-11-02T12:13:23.000Z</time>
      </trkpt>
      <trkpt lat="44.82664" lon="-0.04308">
        <ele>-7.8</ele>
        <time>2011-11-02T12:13:30.000Z</time>
      </trkpt>
      <trkpt lat="44.82636" lon="-0.04314">
        <ele>-4.5</ele>
        <time>2011-11-02T12:13:37.000Z</time>
      </trkpt>
      <trkpt lat="44.82606" lon="-0.04313">
        <ele>-1.9</ele>
        <time>2011-11-02T12:13:45.000Z</time>
      </trkpt>
      <trkpt lat="44.82578" lon="-0.04312">
        <ele>-0.1</ele>
        <time>2011-11-02T12:13:52.000Z</time>
      </trkpt>
      <trkpt lat="44.82548" lon="-0.04311">
        <ele>3</ele>
        <time>2011-11-02T12:14:00.000Z</time>
      </trkpt>
      <trkpt lat="44.82518" lon="-0.04309">
        <ele>3.7</ele>
        <time>2011-11-02T12:14:08.000Z</time>
      </trkpt>
      <trkpt lat="44.8249" lon="-0.04308">
        <ele>1.8</ele>
        <time>2011-11-02T12:14:15.000Z</time>
      </trkpt>
      <trkpt lat="44.82463" lon="-0.04305">
        <ele>0.6</ele>
        <time>2011-11-02T12:14:22.000Z</time>
      </trkpt>
      <trkpt lat="44.82432" lon="-0.04298">
        <ele>2.1</ele>
        <time>2011-11-02T12:14:30.000Z</time>
      </trkpt>
      <trkpt lat="44.82404" lon="-0.04291">
        <ele>2.4</ele>
        <time>2011-11-02T12:14:38.000Z</time>
      </trkpt>
      <trkpt lat="44.82377" lon="-0.04285">
        <ele>2</ele>
        <time>2011-11-02T12:14:45.000Z</time>
      </trkpt>
      <trkpt lat="44.8235" lon="-0.0428">
        <ele>0.3</ele>
        <time>2011-11-02T12:14:52.000Z</time>
      </trkpt>
      <trkpt lat="44.82322" lon="-0.04273">
        <ele>0.8</ele>
        <time>2011-11-02T12:14:59.000Z</time>
      </trkpt>
      <trkpt lat="44.82295" lon="-0.04265">
        <ele>1.9</ele>
        <time>2011-11-02T12:15:06.000Z</time>
      </trkpt>
      <trkpt lat="44.82267" lon="-0.04259">
        <ele>2.8</ele>
        <time>2011-11-02T12:15:13.000Z</time>
      </trkpt>
      <trkpt lat="44.82239" lon="-0.04252">
        <ele>3</ele>
        <time>2011-11-02T12:15:21.000Z</time>
      </trkpt>
      <trkpt lat="44.82212" lon="-0.04244">
        <ele>3.9</ele>
        <time>2011-11-02T12:15:29.000Z</time>
      </trkpt>
      <trkpt lat="44.82185" lon="-0.04233">
        <ele>3.8</ele>
        <time>2011-11-02T12:15:36.000Z</time>
      </trkpt>
      <trkpt lat="44.82159" lon="-0.04215">
        <ele>1.3</ele>
        <time>2011-11-02T12:15:43.000Z</time>
      </trkpt>
      <trkpt lat="44.82135" lon="-0.04191">
        <ele>-0.4</ele>
        <time>2011-11-02T12:15:51.000Z</time>
      </trkpt>
      <trkpt lat="44.82111" lon="-0.04164">
        <ele>-0.8</ele>
        <time>2011-11-02T12:15:59.000Z</time>
      </trkpt>
      <trkpt lat="44.82088" lon="-0.04141">
        <ele>11.8</ele>
        <time>2011-11-02T12:16:06.000Z</time>
      </trkpt>
      <trkpt lat="44.82066" lon="-0.04116">
        <ele>0.7</ele>
        <time>2011-11-02T12:16:14.000Z</time>
      </trkpt>
      <trkpt lat="44.82044" lon="-0.04091">
        <ele>3.3</ele>
        <time>2011-11-02T12:16:22.000Z</time>
      </trkpt>
      <trkpt lat="44.82018" lon="-0.04077">
        <ele>2.5</ele>
        <time>2011-11-02T12:16:29.000Z</time>
      </trkpt>
      <trkpt lat="44.81993" lon="-0.04063">
        <ele>2.4</ele>
        <time>2011-11-02T12:16:37.000Z</time>
      </trkpt>
      <trkpt lat="44.81965" lon="-0.04051">
        <ele>2.5</ele>
        <time>2011-11-02T12:16:46.000Z</time>
      </trkpt>
      <trkpt lat="44.81937" lon="-0.04035">
        <ele>1.4</ele>
        <time>2011-11-02T12:16:53.000Z</time>
      </trkpt>
      <trkpt lat="44.81909" lon="-0.04019">
        <ele>0.2</ele>
        <time>2011-11-02T12:17:00.000Z</time>
      </trkpt>
      <trkpt lat="44.81883" lon="-0.04003">
        <ele>0.5</ele>
        <time>2011-11-02T12:17:07.000Z</time>
      </trkpt>
      <trkpt lat="44.81854" lon="-0.03987">
        <ele>-0.9</ele>
        <time>2011-11-02T12:17:15.000Z</time>
      </trkpt>
      <trkpt lat="44.81828" lon="-0.0397">
        <ele>-2.2</ele>
        <time>2011-11-02T12:17:23.000Z</time>
      </trkpt>
      <trkpt lat="44.81802" lon="-0.03954">
        <ele>-2.9</ele>
        <time>2011-11-02T12:17:31.000Z</time>
      </trkpt>
      <trkpt lat="44.81778" lon="-0.03937">
        <ele>-2.5</ele>
        <time>2011-11-02T12:17:38.000Z</time>
      </trkpt>
      <trkpt lat="44.81753" lon="-0.03918">
        <ele>-1.5</ele>
        <time>2011-11-02T12:17:45.000Z</time>
      </trkpt>
      <trkpt lat="44.81726" lon="-0.03904">
        <ele>0.2</ele>
        <time>2011-11-02T12:17:52.000Z</time>
      </trkpt>
      <trkpt lat="44.81703" lon="-0.03884">
        <ele>-1.4</ele>
        <time>2011-11-02T12:17:59.000Z</time>
      </trkpt>
      <trkpt lat="44.81675" lon="-0.03866">
        <ele>-1.4</ele>
        <time>2011-11-02T12:18:07.000Z</time>
      </trkpt>
      <trkpt lat="44.81648" lon="-0.03849">
        <ele>-1</ele>
        <time>2011-11-02T12:18:15.000Z</time>
      </trkpt>
      <trkpt lat="44.81622" lon="-0.03834">
        <ele>-1.3</ele>
        <time>2011-11-02T12:18:23.000Z</time>
      </trkpt>
      <trkpt lat="44.81595" lon="-0.03815">
        <ele>-2</ele>
        <time>2011-11-02T12:18:31.000Z</time>
      </trkpt>
      <trkpt lat="44.81573" lon="-0.03788">
        <ele>-2.1</ele>
        <time>2011-11-02T12:18:39.000Z</time>
      </trkpt>
      <trkpt lat="44.81554" lon="-0.03758">
        <ele>-1.1</ele>
        <time>2011-11-02T12:18:48.000Z</time>
      </trkpt>
      <trkpt lat="44.81535" lon="-0.03731">
        <ele>1.1</ele>
        <time>2011-11-02T12:18:58.000Z</time>
      </trkpt>
      <trkpt lat="44.81506" lon="-0.03722">
        <ele>5.4</ele>
        <time>2011-11-02T12:19:09.000Z</time>
      </trkpt>
      <trkpt lat="44.8148" lon="-0.0372">
        <ele>5.8</ele>
        <time>2011-11-02T12:19:19.000Z</time>
      </trkpt>
      <trkpt lat="44.81454" lon="-0.03739">
        <ele>3.6</ele>
        <time>2011-11-02T12:19:29.000Z</time>
      </trkpt>
      <trkpt lat="44.81432" lon="-0.03764">
        <ele>3.3</ele>
        <time>2011-11-02T12:19:38.000Z</time>
      </trkpt>
      <trkpt lat="44.8141" lon="-0.03791">
        <ele>3.5</ele>
        <time>2011-11-02T12:19:47.000Z</time>
      </trkpt>
      <trkpt lat="44.81384" lon="-0.03807">
        <ele>2.7</ele>
        <time>2011-11-02T12:19:55.000Z</time>
      </trkpt>
      <trkpt lat="44.81356" lon="-0.03819">
        <ele>3.1</ele>
        <time>2011-11-02T12:20:03.000Z</time>
      </trkpt>
      <trkpt lat="44.81327" lon="-0.03832">
        <ele>3.9</ele>
        <time>2011-11-02T12:20:11.000Z</time>
      </trkpt>
      <trkpt lat="44.81298" lon="-0.03846">
        <ele>3.9</ele>
        <time>2011-11-02T12:20:19.000Z</time>
      </trkpt>
      <trkpt lat="44.81269" lon="-0.03859">
        <ele>4.4</ele>
        <time>2011-11-02T12:20:27.000Z</time>
      </trkpt>
      <trkpt lat="44.81242" lon="-0.03869">
        <ele>3.6</ele>
        <time>2011-11-02T12:20:34.000Z</time>
      </trkpt>
      <trkpt lat="44.81215" lon="-0.03877">
        <ele>3.3</ele>
        <time>2011-11-02T12:20:41.000Z</time>
      </trkpt>
      <trkpt lat="44.81187" lon="-0.03884">
        <ele>3.2</ele>
        <time>2011-11-02T12:20:48.000Z</time>
      </trkpt>
      <trkpt lat="44.81158" lon="-0.03893">
        <ele>2.5</ele>
        <time>2011-11-02T12:20:56.000Z</time>
      </trkpt>
      <trkpt lat="44.8113" lon="-0.039">
        <ele>2.8</ele>
        <time>2011-11-02T12:21:04.000Z</time>
      </trkpt>
      <trkpt lat="44.81101" lon="-0.03909">
        <ele>3.2</ele>
        <time>2011-11-02T12:21:12.000Z</time>
      </trkpt>
      <trkpt lat="44.81075" lon="-0.03921">
        <ele>3.2</ele>
        <time>2011-11-02T12:21:20.000Z</time>
      </trkpt>
      <trkpt lat="44.81051" lon="-0.0394">
        <ele>2.4</ele>
        <time>2011-11-02T12:21:28.000Z</time>
      </trkpt>
      <trkpt lat="44.8103" lon="-0.03964">
        <ele>3.8</ele>
        <time>2011-11-02T12:21:35.000Z</time>
      </trkpt>
      <trkpt lat="44.81007" lon="-0.03992">
        <ele>4.3</ele>
        <time>2011-11-02T12:21:42.000Z</time>
      </trkpt>
      <trkpt lat="44.80987" lon="-0.04018">
        <ele>5.1</ele>
        <time>2011-11-02T12:21:48.000Z</time>
      </trkpt>
      <trkpt lat="44.80967" lon="-0.04044">
        <ele>5.6</ele>
        <time>2011-11-02T12:21:54.000Z</time>
      </trkpt>
      <trkpt lat="44.80947" lon="-0.0407">
        <ele>5.5</ele>
        <time>2011-11-02T12:22:00.000Z</time>
      </trkpt>
      <trkpt lat="44.80927" lon="-0.04097">
        <ele>5.5</ele>
        <time>2011-11-02T12:22:06.000Z</time>
      </trkpt>
      <trkpt lat="44.80905" lon="-0.04124">
        <ele>5.2</ele>
        <time>2011-11-02T12:22:12.000Z</time>
      </trkpt>
      <trkpt lat="44.80884" lon="-0.04152">
        <ele>5.6</ele>
        <time>2011-11-02T12:22:18.000Z</time>
      </trkpt>
      <trkpt lat="44.80863" lon="-0.04181">
        <ele>5.6</ele>
        <time>2011-11-02T12:22:24.000Z</time>
      </trkpt>
      <trkpt lat="44.80843" lon="-0.04212">
        <ele>5.7</ele>
        <time>2011-11-02T12:22:30.000Z</time>
      </trkpt>
      <trkpt lat="44.80824" lon="-0.04245">
        <ele>5.9</ele>
        <time>2011-11-02T12:22:36.000Z</time>
      </trkpt>
      <trkpt lat="44.80804" lon="-0.04275">
        <ele>5.9</ele>
        <time>2011-11-02T12:22:42.000Z</time>
      </trkpt>
      <trkpt lat="44.80783" lon="-0.043">
        <ele>5.5</ele>
        <time>2011-11-02T12:22:48.000Z</time>
      </trkpt>
      <trkpt lat="44.80758" lon="-0.04316">
        <ele>4.5</ele>
        <time>2011-11-02T12:22:54.000Z</time>
      </trkpt>
      <trkpt lat="44.80728" lon="-0.04332">
        <ele>4.4</ele>
        <time>2011-11-02T12:23:01.000Z</time>
      </trkpt>
      <trkpt lat="44.80703" lon="-0.0435">
        <ele>4.6</ele>
        <time>2011-11-02T12:23:07.000Z</time>
      </trkpt>
      <trkpt lat="44.8068" lon="-0.04377">
        <ele>5.6</ele>
        <time>2011-11-02T12:23:15.000Z</time>
      </trkpt>
      <trkpt lat="44.80658" lon="-0.04404">
        <ele>9.2</ele>
        <time>2011-11-02T12:23:24.000Z</time>
      </trkpt>
      <trkpt lat="44.80632" lon="-0.0442">
        <ele>8.8</ele>
        <time>2011-11-02T12:23:33.000Z</time>
      </trkpt>
      <trkpt lat="44.80603" lon="-0.0443">
        <ele>7.7</ele>
        <time>2011-11-02T12:23:43.000Z</time>
      </trkpt>
      <trkpt lat="44.80575" lon="-0.04439">
        <ele>8.9</ele>
        <time>2011-11-02T12:23:54.000Z</time>
      </trkpt>
      <trkpt lat="44.80548" lon="-0.04448">
        <ele>11.2</ele>
        <time>2011-11-02T12:24:06.000Z</time>
      </trkpt>
      <trkpt lat="44.80522" lon="-0.0446">
        <ele>9.1</ele>
        <time>2011-11-02T12:24:18.000Z</time>
      </trkpt>
      <trkpt lat="44.80496" lon="-0.04469">
        <ele>8.5</ele>
        <time>2011-11-02T12:24:30.000Z</time>
      </trkpt>
      <trkpt lat="44.80468" lon="-0.0448">
        <ele>9.6</ele>
        <time>2011-11-02T12:24:42.000Z</time>
      </trkpt>
      <trkpt lat="44.80442" lon="-0.04492">
        <ele>9.6</ele>
        <time>2011-11-02T12:24:54.000Z</time>
      </trkpt>
      <trkpt lat="44.80415" lon="-0.045">
        <ele>8.6</ele>
        <time>2011-11-02T12:25:04.000Z</time>
      </trkpt>
      <trkpt lat="44.80386" lon="-0.04504">
        <ele>10</ele>
        <time>2011-11-02T12:25:15.000Z</time>
      </trkpt>
      <trkpt lat="44.80357" lon="-0.04503">
        <ele>11.3</ele>
        <time>2011-11-02T12:25:25.000Z</time>
      </trkpt>
      <trkpt lat="44.80328" lon="-0.04505">
        <ele>12.9</ele>
        <time>2011-11-02T12:25:36.000Z</time>
      </trkpt>
      <trkpt lat="44.80299" lon="-0.04505">
        <ele>12.1</ele>
        <time>2011-11-02T12:25:49.000Z</time>
      </trkpt>
      <trkpt lat="44.80269" lon="-0.04508">
        <ele>14.5</ele>
        <time>2011-11-02T12:26:00.000Z</time>
      </trkpt>
      <trkpt lat="44.80241" lon="-0.04507">
        <ele>15.3</ele>
        <time>2011-11-02T12:26:08.000Z</time>
      </trkpt>
      <trkpt lat="44.80211" lon="-0.04509">
        <ele>13.7</ele>
        <time>2011-11-02T12:26:16.000Z</time>
      </trkpt>
      <trkpt lat="44.8018" lon="-0.04504">
        <ele>13.1</ele>
        <time>2011-11-02T12:26:24.000Z</time>
      </trkpt>
      <trkpt lat="44.80153" lon="-0.04499">
        <ele>10.9</ele>
        <time>2011-11-02T12:26:31.000Z</time>
      </trkpt>
      <trkpt lat="44.80125" lon="-0.04492">
        <ele>13</ele>
        <time>2011-11-02T12:26:38.000Z</time>
      </trkpt>
      <trkpt lat="44.80098" lon="-0.04485">
        <ele>13</ele>
        <time>2011-11-02T12:26:45.000Z</time>
      </trkpt>
      <trkpt lat="44.80069" lon="-0.04477">
        <ele>12.2</ele>
        <time>2011-11-02T12:26:52.000Z</time>
      </trkpt>
      <trkpt lat="44.80042" lon="-0.0447">
        <ele>11.5</ele>
        <time>2011-11-02T12:26:59.000Z</time>
      </trkpt>
      <trkpt lat="44.80015" lon="-0.04463">
        <ele>11.5</ele>
        <time>2011-11-02T12:27:06.000Z</time>
      </trkpt>
      <trkpt lat="44.79985" lon="-0.04455">
        <ele>11.1</ele>
        <time>2011-11-02T12:27:14.000Z</time>
      </trkpt>
      <trkpt lat="44.79958" lon="-0.0445">
        <ele>15.2</ele>
        <time>2011-11-02T12:27:22.000Z</time>
      </trkpt>
      <trkpt lat="44.79931" lon="-0.04448">
        <ele>22.1</ele>
        <time>2011-11-02T12:27:33.000Z</time>
      </trkpt>
      <trkpt lat="44.79903" lon="-0.0444">
        <ele>22.4</ele>
        <time>2011-11-02T12:27:49.000Z</time>
      </trkpt>
      <trkpt lat="44.79876" lon="-0.04439">
        <ele>20.4</ele>
        <time>2011-11-02T12:28:07.000Z</time>
      </trkpt>
      <trkpt lat="44.79847" lon="-0.04443">
        <ele>21</ele>
        <time>2011-11-02T12:28:23.000Z</time>
      </trkpt>
      <trkpt lat="44.7982" lon="-0.04447">
        <ele>22.4</ele>
        <time>2011-11-02T12:28:40.000Z</time>
      </trkpt>
      <trkpt lat="44.79793" lon="-0.04453">
        <ele>22.9</ele>
        <time>2011-11-02T12:28:50.000Z</time>
      </trkpt>
      <trkpt lat="44.79763" lon="-0.04458">
        <ele>22.7</ele>
        <time>2011-11-02T12:28:58.000Z</time>
      </trkpt>
      <trkpt lat="44.79734" lon="-0.04462">
        <ele>20.3</ele>
        <time>2011-11-02T12:29:04.000Z</time>
      </trkpt>
      <trkpt lat="44.79701" lon="-0.04466">
        <ele>15.9</ele>
        <time>2011-11-02T12:29:10.000Z</time>
      </trkpt>
      <trkpt lat="44.79669" lon="-0.04455">
        <ele>13.4</ele>
        <time>2011-11-02T12:29:15.000Z</time>
      </trkpt>
      <trkpt lat="44.79646" lon="-0.04434">
        <ele>11.5</ele>
        <time>2011-11-02T12:29:19.000Z</time>
      </trkpt>
      <trkpt lat="44.79623" lon="-0.0441">
        <ele>10</ele>
        <time>2011-11-02T12:29:23.000Z</time>
      </trkpt>
      <trkpt lat="44.79599" lon="-0.04389">
        <ele>10.3</ele>
        <time>2011-11-02T12:29:27.000Z</time>
      </trkpt>
      <trkpt lat="44.7957" lon="-0.0437">
        <ele>12</ele>
        <time>2011-11-02T12:29:32.000Z</time>
      </trkpt>
      <trkpt lat="44.79541" lon="-0.04377">
        <ele>11.3</ele>
        <time>2011-11-02T12:29:37.000Z</time>
      </trkpt>
      <trkpt lat="44.79511" lon="-0.04388">
        <ele>12.8</ele>
        <time>2011-11-02T12:29:43.000Z</time>
      </trkpt>
      <trkpt lat="44.79484" lon="-0.044">
        <ele>11.9</ele>
        <time>2011-11-02T12:29:49.000Z</time>
      </trkpt>
      <trkpt lat="44.79458" lon="-0.04411">
        <ele>11</ele>
        <time>2011-11-02T12:29:55.000Z</time>
      </trkpt>
      <trkpt lat="44.79431" lon="-0.0442">
        <ele>12.9</ele>
        <time>2011-11-02T12:30:02.000Z</time>
      </trkpt>
      <trkpt lat="44.79402" lon="-0.04431">
        <ele>12.7</ele>
        <time>2011-11-02T12:30:09.000Z</time>
      </trkpt>
      <trkpt lat="44.79374" lon="-0.04441">
        <ele>13.8</ele>
        <time>2011-11-02T12:30:16.000Z</time>
      </trkpt>
      <trkpt lat="44.79348" lon="-0.04451">
        <ele>13.7</ele>
        <time>2011-11-02T12:30:23.000Z</time>
      </trkpt>
      <trkpt lat="44.79319" lon="-0.04463">
        <ele>13.6</ele>
        <time>2011-11-02T12:30:31.000Z</time>
      </trkpt>
      <trkpt lat="44.79293" lon="-0.04473">
        <ele>13.5</ele>
        <time>2011-11-02T12:30:38.000Z</time>
      </trkpt>
      <trkpt lat="44.79265" lon="-0.04485">
        <ele>13.5</ele>
        <time>2011-11-02T12:30:46.000Z</time>
      </trkpt>
      <trkpt lat="44.79239" lon="-0.04495">
        <ele>12.7</ele>
        <time>2011-11-02T12:30:54.000Z</time>
      </trkpt>
      <trkpt lat="44.7921" lon="-0.04507">
        <ele>13.6</ele>
        <time>2011-11-02T12:31:03.000Z</time>
      </trkpt>
      <trkpt lat="44.79182" lon="-0.04516">
        <ele>15.5</ele>
        <time>2011-11-02T12:31:13.000Z</time>
      </trkpt>
      <trkpt lat="44.79156" lon="-0.04525">
        <ele>18.4</ele>
        <time>2011-11-02T12:31:23.000Z</time>
      </trkpt>
      <trkpt lat="44.79128" lon="-0.04537">
        <ele>18</ele>
        <time>2011-11-02T12:31:34.000Z</time>
      </trkpt>
      <trkpt lat="44.79102" lon="-0.04548">
        <ele>18.4</ele>
        <time>2011-11-02T12:31:44.000Z</time>
      </trkpt>
      <trkpt lat="44.79075" lon="-0.04557">
        <ele>19.7</ele>
        <time>2011-11-02T12:31:55.000Z</time>
      </trkpt>
      <trkpt lat="44.79048" lon="-0.04568">
        <ele>19.7</ele>
        <time>2011-11-02T12:32:06.000Z</time>
      </trkpt>
      <trkpt lat="44.79022" lon="-0.04578">
        <ele>19.4</ele>
        <time>2011-11-02T12:32:19.000Z</time>
      </trkpt>
      <trkpt lat="44.78995" lon="-0.04587">
        <ele>19.7</ele>
        <time>2011-11-02T12:32:35.000Z</time>
      </trkpt>
      <trkpt lat="44.78967" lon="-0.04597">
        <ele>21.8</ele>
        <time>2011-11-02T12:32:50.000Z</time>
      </trkpt>
      <trkpt lat="44.78941" lon="-0.04607">
        <ele>23.9</ele>
        <time>2011-11-02T12:33:05.000Z</time>
      </trkpt>
      <trkpt lat="44.78914" lon="-0.04616">
        <ele>26.1</ele>
        <time>2011-11-02T12:33:20.000Z</time>
      </trkpt>
      <trkpt lat="44.78887" lon="-0.04625">
        <ele>28.4</ele>
        <time>2011-11-02T12:33:34.000Z</time>
      </trkpt>
      <trkpt lat="44.7886" lon="-0.04634">
        <ele>31</ele>
        <time>2011-11-02T12:33:49.000Z</time>
      </trkpt>
      <trkpt lat="44.78834" lon="-0.04649">
        <ele>32.8</ele>
        <time>2011-11-02T12:34:05.000Z</time>
      </trkpt>
      <trkpt lat="44.78816" lon="-0.04677">
        <ele>35.9</ele>
        <time>2011-11-02T12:34:18.000Z</time>
      </trkpt>
      <trkpt lat="44.78817" lon="-0.04713">
        <ele>47.5</ele>
        <time>2011-11-02T12:34:34.000Z</time>
      </trkpt>
      <trkpt lat="44.78825" lon="-0.04749">
        <ele>56.9</ele>
        <time>2011-11-02T12:34:49.000Z</time>
      </trkpt>
      <trkpt lat="44.78833" lon="-0.04785">
        <ele>63.4</ele>
        <time>2011-11-02T12:35:03.000Z</time>
      </trkpt>
      <trkpt lat="44.78833" lon="-0.04822">
        <ele>72.5</ele>
        <time>2011-11-02T12:35:18.000Z</time>
      </trkpt>
      <trkpt lat="44.78837" lon="-0.04861">
        <ele>78.2</ele>
        <time>2011-11-02T12:35:33.000Z</time>
      </trkpt>
      <trkpt lat="44.78842" lon="-0.04899">
        <ele>81.3</ele>
        <time>2011-11-02T12:35:47.000Z</time>
      </trkpt>
      <trkpt lat="44.7883" lon="-0.04934">
        <ele>81.6</ele>
        <time>2011-11-02T12:36:04.000Z</time>
      </trkpt>
      <trkpt lat="44.78807" lon="-0.04919">
        <ele>71</ele>
        <time>2011-11-02T12:36:24.000Z</time>
      </trkpt>
      <trkpt lat="44.78794" lon="-0.04886">
        <ele>71.8</ele>
        <time>2011-11-02T12:36:40.000Z</time>
      </trkpt>
      <trkpt lat="44.78775" lon="-0.04857">
        <ele>70.1</ele>
        <time>2011-11-02T12:36:54.000Z</time>
      </trkpt>
      <trkpt lat="44.78759" lon="-0.04825">
        <ele>75</ele>
        <time>2011-11-02T12:37:10.000Z</time>
      </trkpt>
      <trkpt lat="44.78743" lon="-0.04793">
        <ele>77.4</ele>
        <time>2011-11-02T12:37:26.000Z</time>
      </trkpt>
      <trkpt lat="44.78723" lon="-0.04765">
        <ele>77.9</ele>
        <time>2011-11-02T12:37:40.000Z</time>
      </trkpt>
      <trkpt lat="44.78708" lon="-0.04733">
        <ele>78.9</ele>
        <time>2011-11-02T12:37:54.000Z</time>
      </trkpt>
      <trkpt lat="44.78685" lon="-0.04712">
        <ele>80.1</ele>
        <time>2011-11-02T12:38:08.000Z</time>
      </trkpt>
      <trkpt lat="44.78658" lon="-0.04716">
        <ele>81.5</ele>
        <time>2011-11-02T12:38:22.000Z</time>
      </trkpt>
      <trkpt lat="44.78635" lon="-0.04738">
        <ele>81.5</ele>
        <time>2011-11-02T12:38:34.000Z</time>
      </trkpt>
      <trkpt lat="44.78611" lon="-0.04761">
        <ele>80.6</ele>
        <time>2011-11-02T12:38:48.000Z</time>
      </trkpt>
      <trkpt lat="44.78586" lon="-0.04782">
        <ele>78.1</ele>
        <time>2011-11-02T12:39:01.000Z</time>
      </trkpt>
      <trkpt lat="44.7856" lon="-0.04803">
        <ele>76.2</ele>
        <time>2011-11-02T12:39:11.000Z</time>
      </trkpt>
      <trkpt lat="44.78534" lon="-0.04825">
        <ele>74.9</ele>
        <time>2011-11-02T12:39:19.000Z</time>
      </trkpt>
      <trkpt lat="44.78507" lon="-0.04847">
        <ele>73.3</ele>
        <time>2011-11-02T12:39:26.000Z</time>
      </trkpt>
      <trkpt lat="44.78481" lon="-0.0487">
        <ele>72</ele>
        <time>2011-11-02T12:39:32.000Z</time>
      </trkpt>
      <trkpt lat="44.78456" lon="-0.04892">
        <ele>71.3</ele>
        <time>2011-11-02T12:39:38.000Z</time>
      </trkpt>
      <trkpt lat="44.78431" lon="-0.04913">
        <ele>70.7</ele>
        <time>2011-11-02T12:39:44.000Z</time>
      </trkpt>
      <trkpt lat="44.78407" lon="-0.04935">
        <ele>70.6</ele>
        <time>2011-11-02T12:39:51.000Z</time>
      </trkpt>
      <trkpt lat="44.78383" lon="-0.04955">
        <ele>70.4</ele>
        <time>2011-11-02T12:39:58.000Z</time>
      </trkpt>
      <trkpt lat="44.78359" lon="-0.04976">
        <ele>69.8</ele>
        <time>2011-11-02T12:40:05.000Z</time>
      </trkpt>
      <trkpt lat="44.78334" lon="-0.04998">
        <ele>70.2</ele>
        <time>2011-11-02T12:40:12.000Z</time>
      </trkpt>
      <trkpt lat="44.7831" lon="-0.05021">
        <ele>70</ele>
        <time>2011-11-02T12:40:19.000Z</time>
      </trkpt>
      <trkpt lat="44.7829" lon="-0.0505">
        <ele>69.9</ele>
        <time>2011-11-02T12:40:26.000Z</time>
      </trkpt>
      <trkpt lat="44.78272" lon="-0.05079">
        <ele>70.1</ele>
        <time>2011-11-02T12:40:33.000Z</time>
      </trkpt>
      <trkpt lat="44.78254" lon="-0.0511">
        <ele>69.9</ele>
        <time>2011-11-02T12:40:40.000Z</time>
      </trkpt>
      <trkpt lat="44.78235" lon="-0.05142">
        <ele>69.4</ele>
        <time>2011-11-02T12:40:47.000Z</time>
      </trkpt>
      <trkpt lat="44.78217" lon="-0.05174">
        <ele>69.6</ele>
        <time>2011-11-02T12:40:54.000Z</time>
      </trkpt>
      <trkpt lat="44.78199" lon="-0.05205">
        <ele>69.4</ele>
        <time>2011-11-02T12:41:01.000Z</time>
      </trkpt>
      <trkpt lat="44.7818" lon="-0.05238">
        <ele>69.5</ele>
        <time>2011-11-02T12:41:08.000Z</time>
      </trkpt>
      <trkpt lat="44.78161" lon="-0.05271">
        <ele>69.3</ele>
        <time>2011-11-02T12:41:15.000Z</time>
      </trkpt>
      <trkpt lat="44.78144" lon="-0.05302">
        <ele>69.2</ele>
        <time>2011-11-02T12:41:22.000Z</time>
      </trkpt>
      <trkpt lat="44.78126" lon="-0.05334">
        <ele>69.8</ele>
        <time>2011-11-02T12:41:30.000Z</time>
      </trkpt>
      <trkpt lat="44.78108" lon="-0.05364">
        <ele>69.7</ele>
        <time>2011-11-02T12:41:38.000Z</time>
      </trkpt>
      <trkpt lat="44.7809" lon="-0.05395">
        <ele>69.6</ele>
        <time>2011-11-02T12:41:46.000Z</time>
      </trkpt>
      <trkpt lat="44.78074" lon="-0.05425">
        <ele>70.9</ele>
        <time>2011-11-02T12:41:55.000Z</time>
      </trkpt>
      <trkpt lat="44.7806" lon="-0.05459">
        <ele>73</ele>
        <time>2011-11-02T12:42:05.000Z</time>
      </trkpt>
      <trkpt lat="44.78046" lon="-0.05493">
        <ele>73.3</ele>
        <time>2011-11-02T12:42:15.000Z</time>
      </trkpt>
      <trkpt lat="44.78033" lon="-0.05529">
        <ele>73.7</ele>
        <time>2011-11-02T12:42:26.000Z</time>
      </trkpt>
      <trkpt lat="44.78017" lon="-0.05564">
        <ele>74.3</ele>
        <time>2011-11-02T12:42:36.000Z</time>
      </trkpt>
      <trkpt lat="44.78003" lon="-0.05599">
        <ele>73.7</ele>
        <time>2011-11-02T12:42:46.000Z</time>
      </trkpt>
      <trkpt lat="44.77988" lon="-0.05634">
        <ele>72.2</ele>
        <time>2011-11-02T12:42:54.000Z</time>
      </trkpt>
      <trkpt lat="44.77974" lon="-0.05667">
        <ele>71.5</ele>
        <time>2011-11-02T12:43:00.000Z</time>
      </trkpt>
      <trkpt lat="44.7796" lon="-0.05701">
        <ele>70</ele>
        <time>2011-11-02T12:43:05.000Z</time>
      </trkpt>
      <trkpt lat="44.77944" lon="-0.05741">
        <ele>67.4</ele>
        <time>2011-11-02T12:43:10.000Z</time>
      </trkpt>
      <trkpt lat="44.77928" lon="-0.05779">
        <ele>64.9</ele>
        <time>2011-11-02T12:43:14.000Z</time>
      </trkpt>
      <trkpt lat="44.77914" lon="-0.05812">
        <ele>63.4</ele>
        <time>2011-11-02T12:43:17.000Z</time>
      </trkpt>
      <trkpt lat="44.779" lon="-0.05849">
        <ele>60.9</ele>
        <time>2011-11-02T12:43:20.000Z</time>
      </trkpt>
      <trkpt lat="44.77884" lon="-0.05887">
        <ele>58.8</ele>
        <time>2011-11-02T12:43:23.000Z</time>
      </trkpt>
      <trkpt lat="44.77868" lon="-0.05926">
        <ele>56.9</ele>
        <time>2011-11-02T12:43:26.000Z</time>
      </trkpt>
      <trkpt lat="44.77853" lon="-0.05966">
        <ele>53.6</ele>
        <time>2011-11-02T12:43:29.000Z</time>
      </trkpt>
      <trkpt lat="44.77836" lon="-0.06001">
        <ele>52.2</ele>
        <time>2011-11-02T12:43:32.000Z</time>
      </trkpt>
      <trkpt lat="44.77809" lon="-0.0602">
        <ele>51.2</ele>
        <time>2011-11-02T12:43:35.000Z</time>
      </trkpt>
      <trkpt lat="44.77775" lon="-0.0601">
        <ele>50.8</ele>
        <time>2011-11-02T12:43:38.000Z</time>
      </trkpt>
      <trkpt lat="44.7775" lon="-0.05997">
        <ele>48.9</ele>
        <time>2011-11-02T12:43:40.000Z</time>
      </trkpt>
      <trkpt lat="44.77712" lon="-0.0599">
        <ele>46.5</ele>
        <time>2011-11-02T12:43:43.000Z</time>
      </trkpt>
      <trkpt lat="44.77675" lon="-0.05999">
        <ele>43.4</ele>
        <time>2011-11-02T12:43:46.000Z</time>
      </trkpt>
      <trkpt lat="44.77638" lon="-0.06013">
        <ele>40</ele>
        <time>2011-11-02T12:43:49.000Z</time>
      </trkpt>
      <trkpt lat="44.77597" lon="-0.06023">
        <ele>37.6</ele>
        <time>2011-11-02T12:43:52.000Z</time>
      </trkpt>
      <trkpt lat="44.77569" lon="-0.06031">
        <ele>36</ele>
        <time>2011-11-02T12:43:54.000Z</time>
      </trkpt>
      <trkpt lat="44.77531" lon="-0.06042">
        <ele>33.8</ele>
        <time>2011-11-02T12:43:57.000Z</time>
      </trkpt>
      <trkpt lat="44.77491" lon="-0.06054">
        <ele>31.1</ele>
        <time>2011-11-02T12:44:00.000Z</time>
      </trkpt>
      <trkpt lat="44.77464" lon="-0.06061">
        <ele>28.9</ele>
        <time>2011-11-02T12:44:02.000Z</time>
      </trkpt>
      <trkpt lat="44.77426" lon="-0.06073">
        <ele>25.6</ele>
        <time>2011-11-02T12:44:05.000Z</time>
      </trkpt>
      <trkpt lat="44.77389" lon="-0.06081">
        <ele>24.4</ele>
        <time>2011-11-02T12:44:08.000Z</time>
      </trkpt>
      <trkpt lat="44.77355" lon="-0.06091">
        <ele>22</ele>
        <time>2011-11-02T12:44:11.000Z</time>
      </trkpt>
      <trkpt lat="44.77324" lon="-0.061">
        <ele>19.6</ele>
        <time>2011-11-02T12:44:14.000Z</time>
      </trkpt>
      <trkpt lat="44.77293" lon="-0.06109">
        <ele>17.3</ele>
        <time>2011-11-02T12:44:17.000Z</time>
      </trkpt>
      <trkpt lat="44.77266" lon="-0.06117">
        <ele>16.1</ele>
        <time>2011-11-02T12:44:20.000Z</time>
      </trkpt>
      <trkpt lat="44.77236" lon="-0.06127">
        <ele>15.6</ele>
        <time>2011-11-02T12:44:24.000Z</time>
      </trkpt>
      <trkpt lat="44.77207" lon="-0.06137">
        <ele>15.1</ele>
        <time>2011-11-02T12:44:29.000Z</time>
      </trkpt>
      <trkpt lat="44.7718" lon="-0.06147">
        <ele>16.3</ele>
        <time>2011-11-02T12:44:35.000Z</time>
      </trkpt>
      <trkpt lat="44.77151" lon="-0.06156">
        <ele>18.7</ele>
        <time>2011-11-02T12:44:44.000Z</time>
      </trkpt>
      <trkpt lat="44.77124" lon="-0.06165">
        <ele>19.2</ele>
        <time>2011-11-02T12:44:53.000Z</time>
      </trkpt>
      <trkpt lat="44.77098" lon="-0.06176">
        <ele>18.5</ele>
        <time>2011-11-02T12:45:02.000Z</time>
      </trkpt>
      <trkpt lat="44.77071" lon="-0.06191">
        <ele>16.8</ele>
        <time>2011-11-02T12:45:11.000Z</time>
      </trkpt>
      <trkpt lat="44.77044" lon="-0.06208">
        <ele>17.3</ele>
        <time>2011-11-02T12:45:20.000Z</time>
      </trkpt>
      <trkpt lat="44.77018" lon="-0.06223">
        <ele>18.7</ele>
        <time>2011-11-02T12:45:29.000Z</time>
      </trkpt>
      <trkpt lat="44.76992" lon="-0.0624">
        <ele>17.7</ele>
        <time>2011-11-02T12:45:38.000Z</time>
      </trkpt>
      <trkpt lat="44.76966" lon="-0.06257">
        <ele>16.8</ele>
        <time>2011-11-02T12:45:46.000Z</time>
      </trkpt>
      <trkpt lat="44.76941" lon="-0.06272">
        <ele>16.2</ele>
        <time>2011-11-02T12:45:53.000Z</time>
      </trkpt>
      <trkpt lat="44.76916" lon="-0.06289">
        <ele>15.6</ele>
        <time>2011-11-02T12:46:00.000Z</time>
      </trkpt>
      <trkpt lat="44.76891" lon="-0.06305">
        <ele>15.8</ele>
        <time>2011-11-02T12:46:07.000Z</time>
      </trkpt>
      <trkpt lat="44.76866" lon="-0.06323">
        <ele>16.4</ele>
        <time>2011-11-02T12:46:15.000Z</time>
      </trkpt>
      <trkpt lat="44.76841" lon="-0.0634">
        <ele>16.8</ele>
        <time>2011-11-02T12:46:23.000Z</time>
      </trkpt>
      <trkpt lat="44.76814" lon="-0.06358">
        <ele>15.8</ele>
        <time>2011-11-02T12:46:32.000Z</time>
      </trkpt>
      <trkpt lat="44.76789" lon="-0.06377">
        <ele>16.5</ele>
        <time>2011-11-02T12:46:41.000Z</time>
      </trkpt>
      <trkpt lat="44.76765" lon="-0.06395">
        <ele>17.4</ele>
        <time>2011-11-02T12:46:50.000Z</time>
      </trkpt>
      <trkpt lat="44.76739" lon="-0.06412">
        <ele>17.4</ele>
        <time>2011-11-02T12:46:59.000Z</time>
      </trkpt>
      <trkpt lat="44.76712" lon="-0.06431">
        <ele>17.2</ele>
        <time>2011-11-02T12:47:08.000Z</time>
      </trkpt>
      <trkpt lat="44.76685" lon="-0.0645">
        <ele>16.6</ele>
        <time>2011-11-02T12:47:16.000Z</time>
      </trkpt>
      <trkpt lat="44.7666" lon="-0.06467">
        <ele>16.8</ele>
        <time>2011-11-02T12:47:23.000Z</time>
      </trkpt>
      <trkpt lat="44.76634" lon="-0.06485">
        <ele>16.7</ele>
        <time>2011-11-02T12:47:30.000Z</time>
      </trkpt>
      <trkpt lat="44.76609" lon="-0.06503">
        <ele>16.9</ele>
        <time>2011-11-02T12:47:37.000Z</time>
      </trkpt>
      <trkpt lat="44.76583" lon="-0.06521">
        <ele>17.1</ele>
        <time>2011-11-02T12:47:44.000Z</time>
      </trkpt>
      <trkpt lat="44.76556" lon="-0.0654">
        <ele>17.2</ele>
        <time>2011-11-02T12:47:52.000Z</time>
      </trkpt>
      <trkpt lat="44.76531" lon="-0.06558">
        <ele>17.3</ele>
        <time>2011-11-02T12:48:00.000Z</time>
      </trkpt>
      <trkpt lat="44.76505" lon="-0.06577">
        <ele>17.3</ele>
        <time>2011-11-02T12:48:08.000Z</time>
      </trkpt>
      <trkpt lat="44.76478" lon="-0.06594">
        <ele>18</ele>
        <time>2011-11-02T12:48:17.000Z</time>
      </trkpt>
      <trkpt lat="44.76452" lon="-0.06612">
        <ele>18.1</ele>
        <time>2011-11-02T12:48:26.000Z</time>
      </trkpt>
      <trkpt lat="44.76428" lon="-0.06631">
        <ele>18.7</ele>
        <time>2011-11-02T12:48:35.000Z</time>
      </trkpt>
      <trkpt lat="44.76402" lon="-0.06648">
        <ele>18.7</ele>
        <time>2011-11-02T12:48:44.000Z</time>
      </trkpt>
      <trkpt lat="44.76375" lon="-0.06667">
        <ele>18.1</ele>
        <time>2011-11-02T12:48:53.000Z</time>
      </trkpt>
      <trkpt lat="44.7635" lon="-0.06684">
        <ele>18.3</ele>
        <time>2011-11-02T12:49:01.000Z</time>
      </trkpt>
      <trkpt lat="44.76325" lon="-0.06702">
        <ele>18.6</ele>
        <time>2011-11-02T12:49:09.000Z</time>
      </trkpt>
      <trkpt lat="44.763" lon="-0.0672">
        <ele>18.2</ele>
        <time>2011-11-02T12:49:17.000Z</time>
      </trkpt>
      <trkpt lat="44.76274" lon="-0.06736">
        <ele>19.2</ele>
        <time>2011-11-02T12:49:27.000Z</time>
      </trkpt>
      <trkpt lat="44.76244" lon="-0.06741">
        <ele>16.9</ele>
        <time>2011-11-02T12:49:35.000Z</time>
      </trkpt>
      <trkpt lat="44.76213" lon="-0.06739">
        <ele>15.9</ele>
        <time>2011-11-02T12:49:42.000Z</time>
      </trkpt>
      <trkpt lat="44.76185" lon="-0.0673">
        <ele>16.2</ele>
        <time>2011-11-02T12:49:49.000Z</time>
      </trkpt>
      <trkpt lat="44.76158" lon="-0.0672">
        <ele>16.4</ele>
        <time>2011-11-02T12:49:56.000Z</time>
      </trkpt>
      <trkpt lat="44.7613" lon="-0.0671">
        <ele>19.1</ele>
        <time>2011-11-02T12:50:05.000Z</time>
      </trkpt>
      <trkpt lat="44.76103" lon="-0.06703">
        <ele>21.6</ele>
        <time>2011-11-02T12:50:16.000Z</time>
      </trkpt>
      <trkpt lat="44.76076" lon="-0.06705">
        <ele>21.9</ele>
        <time>2011-11-02T12:50:25.000Z</time>
      </trkpt>
      <trkpt lat="44.76049" lon="-0.06708">
        <ele>20.5</ele>
        <time>2011-11-02T12:50:34.000Z</time>
      </trkpt>
      <trkpt lat="44.7602" lon="-0.06708">
        <ele>25.2</ele>
        <time>2011-11-02T12:50:46.000Z</time>
      </trkpt>
      <trkpt lat="44.75993" lon="-0.06709">
        <ele>33</ele>
        <time>2011-11-02T12:50:57.000Z</time>
      </trkpt>
      <trkpt lat="44.75964" lon="-0.06715">
        <ele>34.5</ele>
        <time>2011-11-02T12:51:10.000Z</time>
      </trkpt>
      <trkpt lat="44.75936" lon="-0.06715">
        <ele>39.1</ele>
        <time>2011-11-02T12:51:21.000Z</time>
      </trkpt>
      <trkpt lat="44.7591" lon="-0.06714">
        <ele>50.5</ele>
        <time>2011-11-02T12:51:32.000Z</time>
      </trkpt>
      <trkpt lat="44.75884" lon="-0.06715">
        <ele>56.9</ele>
        <time>2011-11-02T12:51:41.000Z</time>
      </trkpt>
      <trkpt lat="44.75856" lon="-0.06721">
        <ele>64.1</ele>
        <time>2011-11-02T12:51:50.000Z</time>
      </trkpt>
      <trkpt lat="44.75827" lon="-0.06732">
        <ele>71.2</ele>
        <time>2011-11-02T12:52:00.000Z</time>
      </trkpt>
      <trkpt lat="44.75805" lon="-0.06755">
        <ele>66.6</ele>
        <time>2011-11-02T12:52:08.000Z</time>
      </trkpt>
      <trkpt lat="44.75782" lon="-0.06776">
        <ele>60.8</ele>
        <time>2011-11-02T12:52:18.000Z</time>
      </trkpt>
      <trkpt lat="44.7576" lon="-0.06796">
        <ele>53.7</ele>
        <time>2011-11-02T12:54:10.000Z</time>
      </trkpt>
      <trkpt lat="44.75737" lon="-0.06819">
        <ele>49</ele>
        <time>2011-11-02T12:54:18.000Z</time>
      </trkpt>
      <trkpt lat="44.75713" lon="-0.06844">
        <ele>44.3</ele>
        <time>2011-11-02T12:54:26.000Z</time>
      </trkpt>
      <trkpt lat="44.7569" lon="-0.06867">
        <ele>41.7</ele>
        <time>2011-11-02T12:54:33.000Z</time>
      </trkpt>
      <trkpt lat="44.75667" lon="-0.0689">
        <ele>38</ele>
        <time>2011-11-02T12:54:39.000Z</time>
      </trkpt>
      <trkpt lat="44.75643" lon="-0.06915">
        <ele>37.1</ele>
        <time>2011-11-02T12:54:46.000Z</time>
      </trkpt>
      <trkpt lat="44.75623" lon="-0.06944">
        <ele>37.6</ele>
        <time>2011-11-02T12:54:53.000Z</time>
      </trkpt>
      <trkpt lat="44.75605" lon="-0.06978">
        <ele>36.9</ele>
        <time>2011-11-02T12:55:00.000Z</time>
      </trkpt>
      <trkpt lat="44.75587" lon="-0.07007">
        <ele>33.5</ele>
        <time>2011-11-02T12:55:06.000Z</time>
      </trkpt>
      <trkpt lat="44.75569" lon="-0.07038">
        <ele>33.1</ele>
        <time>2011-11-02T12:55:13.000Z</time>
      </trkpt>
      <trkpt lat="44.75552" lon="-0.07071">
        <ele>30</ele>
        <time>2011-11-02T12:55:20.000Z</time>
      </trkpt>
      <trkpt lat="44.75536" lon="-0.07104">
        <ele>28.7</ele>
        <time>2011-11-02T12:55:27.000Z</time>
      </trkpt>
      <trkpt lat="44.75521" lon="-0.07136">
        <ele>28.5</ele>
        <time>2011-11-02T12:55:34.000Z</time>
      </trkpt>
      <trkpt lat="44.75506" lon="-0.07168">
        <ele>28.1</ele>
        <time>2011-11-02T12:55:41.000Z</time>
      </trkpt>
      <trkpt lat="44.75489" lon="-0.07202">
        <ele>25.9</ele>
        <time>2011-11-02T12:55:49.000Z</time>
      </trkpt>
      <trkpt lat="44.75473" lon="-0.07233">
        <ele>25.3</ele>
        <time>2011-11-02T12:55:57.000Z</time>
      </trkpt>
      <trkpt lat="44.75456" lon="-0.07268">
        <ele>24.8</ele>
        <time>2011-11-02T12:56:06.000Z</time>
      </trkpt>
      <trkpt lat="44.75439" lon="-0.07301">
        <ele>24.2</ele>
        <time>2011-11-02T12:56:15.000Z</time>
      </trkpt>
      <trkpt lat="44.7542" lon="-0.07333">
        <ele>27.4</ele>
        <time>2011-11-02T12:56:25.000Z</time>
      </trkpt>
      <trkpt lat="44.75399" lon="-0.07358">
        <ele>29.6</ele>
        <time>2011-11-02T12:56:34.000Z</time>
      </trkpt>
      <trkpt lat="44.75376" lon="-0.07382">
        <ele>29.8</ele>
        <time>2011-11-02T12:56:44.000Z</time>
      </trkpt>
      <trkpt lat="44.75352" lon="-0.07402">
        <ele>31.5</ele>
        <time>2011-11-02T12:56:55.000Z</time>
      </trkpt>
      <trkpt lat="44.75325" lon="-0.0741">
        <ele>30.6</ele>
        <time>2011-11-02T12:57:10.000Z</time>
      </trkpt>
      <trkpt lat="44.75297" lon="-0.07415">
        <ele>32.8</ele>
        <time>2011-11-02T12:57:24.000Z</time>
      </trkpt>
      <trkpt lat="44.7527" lon="-0.07419">
        <ele>35.3</ele>
        <time>2011-11-02T12:57:39.000Z</time>
      </trkpt>
      <trkpt lat="44.75242" lon="-0.07419">
        <ele>37.3</ele>
        <time>2011-11-02T12:57:52.000Z</time>
      </trkpt>
      <trkpt lat="44.75215" lon="-0.07428">
        <ele>41.6</ele>
        <time>2011-11-02T12:58:10.000Z</time>
      </trkpt>
      <trkpt lat="44.75188" lon="-0.07436">
        <ele>43.1</ele>
        <time>2011-11-02T12:58:25.000Z</time>
      </trkpt>
      <trkpt lat="44.75162" lon="-0.07451">
        <ele>46.4</ele>
        <time>2011-11-02T12:58:38.000Z</time>
      </trkpt>
      <trkpt lat="44.75139" lon="-0.07469">
        <ele>55.1</ele>
        <time>2011-11-02T12:58:53.000Z</time>
      </trkpt>
      <trkpt lat="44.75121" lon="-0.07498">
        <ele>62.7</ele>
        <time>2011-11-02T12:59:10.000Z</time>
      </trkpt>
      <trkpt lat="44.75112" lon="-0.07536">
        <ele>63.8</ele>
        <time>2011-11-02T12:59:26.000Z</time>
      </trkpt>
      <trkpt lat="44.75095" lon="-0.07568">
        <ele>64.5</ele>
        <time>2011-11-02T12:59:41.000Z</time>
      </trkpt>
      <trkpt lat="44.75081" lon="-0.07601">
        <ele>61.9</ele>
        <time>2011-11-02T12:59:54.000Z</time>
      </trkpt>
      <trkpt lat="44.75068" lon="-0.07634">
        <ele>58.7</ele>
        <time>2011-11-02T13:00:07.000Z</time>
      </trkpt>
      <trkpt lat="44.75052" lon="-0.07668">
        <ele>58.5</ele>
        <time>2011-11-02T13:00:22.000Z</time>
      </trkpt>
      <trkpt lat="44.75028" lon="-0.07687">
        <ele>61.5</ele>
        <time>2011-11-02T13:00:41.000Z</time>
      </trkpt>
      <trkpt lat="44.75004" lon="-0.07664">
        <ele>65.2</ele>
        <time>2011-11-02T13:00:56.000Z</time>
      </trkpt>
      <trkpt lat="44.74995" lon="-0.07628">
        <ele>64.7</ele>
        <time>2011-11-02T13:01:10.000Z</time>
      </trkpt>
      <trkpt lat="44.74984" lon="-0.07594">
        <ele>67.5</ele>
        <time>2011-11-02T13:01:25.000Z</time>
      </trkpt>
      <trkpt lat="44.74969" lon="-0.07561">
        <ele>69.5</ele>
        <time>2011-11-02T13:01:40.000Z</time>
      </trkpt>
      <trkpt lat="44.74951" lon="-0.07532">
        <ele>75.4</ele>
        <time>2011-11-02T13:01:55.000Z</time>
      </trkpt>
      <trkpt lat="44.74934" lon="-0.07502">
        <ele>73.8</ele>
        <time>2011-11-02T13:02:08.000Z</time>
      </trkpt>
      <trkpt lat="44.74917" lon="-0.07471">
        <ele>72.9</ele>
        <time>2011-11-02T13:02:22.000Z</time>
      </trkpt>
      <trkpt lat="44.74904" lon="-0.07435">
        <ele>75.1</ele>
        <time>2011-11-02T13:02:39.000Z</time>
      </trkpt>
      <trkpt lat="44.74892" lon="-0.07399">
        <ele>77.9</ele>
        <time>2011-11-02T13:02:53.000Z</time>
      </trkpt>
      <trkpt lat="44.74884" lon="-0.07361">
        <ele>77.2</ele>
        <time>2011-11-02T13:03:06.000Z</time>
      </trkpt>
      <trkpt lat="44.74881" lon="-0.07324">
        <ele>74.7</ele>
        <time>2011-11-02T13:03:17.000Z</time>
      </trkpt>
      <trkpt lat="44.74862" lon="-0.07298">
        <ele>71.1</ele>
        <time>2011-11-02T13:03:29.000Z</time>
      </trkpt>
      <trkpt lat="44.74834" lon="-0.07297">
        <ele>66</ele>
        <time>2011-11-02T13:03:42.000Z</time>
      </trkpt>
      <trkpt lat="44.74806" lon="-0.07287">
        <ele>68.5</ele>
        <time>2011-11-02T13:03:51.000Z</time>
      </trkpt>
      <trkpt lat="44.74778" lon="-0.07287">
        <ele>71.4</ele>
        <time>2011-11-02T13:04:02.000Z</time>
      </trkpt>
      <trkpt lat="44.74749" lon="-0.07291">
        <ele>65.9</ele>
        <time>2011-11-02T13:04:11.000Z</time>
      </trkpt>
      <trkpt lat="44.74721" lon="-0.07283">
        <ele>63.7</ele>
        <time>2011-11-02T13:04:20.000Z</time>
      </trkpt>
      <trkpt lat="44.74694" lon="-0.07276">
        <ele>62.9</ele>
        <time>2011-11-02T13:04:28.000Z</time>
      </trkpt>
      <trkpt lat="44.74667" lon="-0.07266">
        <ele>62.7</ele>
        <time>2011-11-02T13:04:35.000Z</time>
      </trkpt>
      <trkpt lat="44.7464" lon="-0.07261">
        <ele>59.5</ele>
        <time>2011-11-02T13:04:42.000Z</time>
      </trkpt>
      <trkpt lat="44.74611" lon="-0.07252">
        <ele>58.8</ele>
        <time>2011-11-02T13:04:49.000Z</time>
      </trkpt>
      <trkpt lat="44.74584" lon="-0.07244">
        <ele>58.7</ele>
        <time>2011-11-02T13:04:56.000Z</time>
      </trkpt>
      <trkpt lat="44.74558" lon="-0.07235">
        <ele>58.8</ele>
        <time>2011-11-02T13:05:04.000Z</time>
      </trkpt>
      <trkpt lat="44.74528" lon="-0.07226">
        <ele>59</ele>
        <time>2011-11-02T13:05:14.000Z</time>
      </trkpt>
      <trkpt lat="44.74501" lon="-0.07217">
        <ele>59.8</ele>
        <time>2011-11-02T13:05:25.000Z</time>
      </trkpt>
      <trkpt lat="44.74474" lon="-0.07208">
        <ele>60.3</ele>
        <time>2011-11-02T13:05:38.000Z</time>
      </trkpt>
      <trkpt lat="44.74446" lon="-0.07201">
        <ele>62.6</ele>
        <time>2011-11-02T13:05:54.000Z</time>
      </trkpt>
      <trkpt lat="44.74419" lon="-0.07192">
        <ele>63.3</ele>
        <time>2011-11-02T13:06:08.000Z</time>
      </trkpt>
      <trkpt lat="44.74391" lon="-0.07184">
        <ele>65.1</ele>
        <time>2011-11-02T13:06:24.000Z</time>
      </trkpt>
      <trkpt lat="44.74365" lon="-0.07176">
        <ele>66.8</ele>
        <time>2011-11-02T13:06:39.000Z</time>
      </trkpt>
      <trkpt lat="44.74338" lon="-0.07168">
        <ele>67.7</ele>
        <time>2011-11-02T13:06:55.000Z</time>
      </trkpt>
      <trkpt lat="44.7431" lon="-0.07159">
        <ele>67.6</ele>
        <time>2011-11-02T13:07:14.000Z</time>
      </trkpt>
      <trkpt lat="44.74283" lon="-0.07151">
        <ele>67.1</ele>
        <time>2011-11-02T13:07:28.000Z</time>
      </trkpt>
      <trkpt lat="44.74254" lon="-0.07141">
        <ele>66</ele>
        <time>2011-11-02T13:07:38.000Z</time>
      </trkpt>
      <trkpt lat="44.74227" lon="-0.07129">
        <ele>65.3</ele>
        <time>2011-11-02T13:07:46.000Z</time>
      </trkpt>
      <trkpt lat="44.74198" lon="-0.07113">
        <ele>64.9</ele>
        <time>2011-11-02T13:07:55.000Z</time>
      </trkpt>
      <trkpt lat="44.74171" lon="-0.07095">
        <ele>63.8</ele>
        <time>2011-11-02T13:08:03.000Z</time>
      </trkpt>
      <trkpt lat="44.74145" lon="-0.07077">
        <ele>62.9</ele>
        <time>2011-11-02T13:08:10.000Z</time>
      </trkpt>
      <trkpt lat="44.74122" lon="-0.07055">
        <ele>61.6</ele>
        <time>2011-11-02T13:08:16.000Z</time>
      </trkpt>
      <trkpt lat="44.74097" lon="-0.07028">
        <ele>60.7</ele>
        <time>2011-11-02T13:08:22.000Z</time>
      </trkpt>
      <trkpt lat="44.74074" lon="-0.07001">
        <ele>62.4</ele>
        <time>2011-11-02T13:08:28.000Z</time>
      </trkpt>
      <trkpt lat="44.74051" lon="-0.06973">
        <ele>63.8</ele>
        <time>2011-11-02T13:08:35.000Z</time>
      </trkpt>
      <trkpt lat="44.74027" lon="-0.06951">
        <ele>62.2</ele>
        <time>2011-11-02T13:08:42.000Z</time>
      </trkpt>
      <trkpt lat="44.74002" lon="-0.06922">
        <ele>62.2</ele>
        <time>2011-11-02T13:08:49.000Z</time>
      </trkpt>
      <trkpt lat="44.73977" lon="-0.06904">
        <ele>62</ele>
        <time>2011-11-02T13:08:54.000Z</time>
      </trkpt>
      <trkpt lat="44.73945" lon="-0.06895">
        <ele>63.1</ele>
        <time>2011-11-02T13:08:59.000Z</time>
      </trkpt>
      <trkpt lat="44.73916" lon="-0.06886">
        <ele>62.1</ele>
        <time>2011-11-02T13:09:04.000Z</time>
      </trkpt>
      <trkpt lat="44.73889" lon="-0.06883">
        <ele>62.1</ele>
        <time>2011-11-02T13:09:09.000Z</time>
      </trkpt>
      <trkpt lat="44.73859" lon="-0.06886">
        <ele>58.7</ele>
        <time>2011-11-02T13:09:16.000Z</time>
      </trkpt>
      <trkpt lat="44.73831" lon="-0.06893">
        <ele>59.9</ele>
        <time>2011-11-02T13:09:26.000Z</time>
      </trkpt>
      <trkpt lat="44.73803" lon="-0.06897">
        <ele>59.8</ele>
        <time>2011-11-02T13:09:38.000Z</time>
      </trkpt>
      <trkpt lat="44.73774" lon="-0.069">
        <ele>58.6</ele>
        <time>2011-11-02T13:09:50.000Z</time>
      </trkpt>
      <trkpt lat="44.73745" lon="-0.06903">
        <ele>60.5</ele>
        <time>2011-11-02T13:10:04.000Z</time>
      </trkpt>
      <trkpt lat="44.73718" lon="-0.06908">
        <ele>61.4</ele>
        <time>2011-11-02T13:10:19.000Z</time>
      </trkpt>
      <trkpt lat="44.7369" lon="-0.06907">
        <ele>62.2</ele>
        <time>2011-11-02T13:10:33.000Z</time>
      </trkpt>
      <trkpt lat="44.73662" lon="-0.06905">
        <ele>62.4</ele>
        <time>2011-11-02T13:10:47.000Z</time>
      </trkpt>
      <trkpt lat="44.73633" lon="-0.06899">
        <ele>64</ele>
        <time>2011-11-02T13:11:02.000Z</time>
      </trkpt>
      <trkpt lat="44.73606" lon="-0.06891">
        <ele>63.9</ele>
        <time>2011-11-02T13:11:15.000Z</time>
      </trkpt>
      <trkpt lat="44.73579" lon="-0.06882">
        <ele>65.5</ele>
        <time>2011-11-02T13:11:28.000Z</time>
      </trkpt>
      <trkpt lat="44.73552" lon="-0.06873">
        <ele>66.6</ele>
        <time>2011-11-02T13:11:41.000Z</time>
      </trkpt>
      <trkpt lat="44.73525" lon="-0.06866">
        <ele>67.7</ele>
        <time>2011-11-02T13:11:55.000Z</time>
      </trkpt>
      <trkpt lat="44.73497" lon="-0.06865">
        <ele>71.2</ele>
        <time>2011-11-02T13:12:13.000Z</time>
      </trkpt>
      <trkpt lat="44.7347" lon="-0.0686">
        <ele>73.8</ele>
        <time>2011-11-02T13:12:28.000Z</time>
      </trkpt>
      <trkpt lat="44.73441" lon="-0.06856">
        <ele>75.1</ele>
        <time>2011-11-02T13:12:43.000Z</time>
      </trkpt>
      <trkpt lat="44.73414" lon="-0.06852">
        <ele>78.9</ele>
        <time>2011-11-02T13:13:00.000Z</time>
      </trkpt>
      <trkpt lat="44.73386" lon="-0.06852">
        <ele>79.1</ele>
        <time>2011-11-02T13:13:16.000Z</time>
      </trkpt>
      <trkpt lat="44.73357" lon="-0.06847">
        <ele>80.4</ele>
        <time>2011-11-02T13:13:30.000Z</time>
      </trkpt>
      <trkpt lat="44.7333" lon="-0.06842">
        <ele>82.5</ele>
        <time>2011-11-02T13:13:44.000Z</time>
      </trkpt>
      <trkpt lat="44.73302" lon="-0.06839">
        <ele>82.5</ele>
        <time>2011-11-02T13:13:59.000Z</time>
      </trkpt>
      <trkpt lat="44.73275" lon="-0.06834">
        <ele>84.2</ele>
        <time>2011-11-02T13:14:14.000Z</time>
      </trkpt>
      <trkpt lat="44.73248" lon="-0.06824">
        <ele>85.9</ele>
        <time>2011-11-02T13:14:29.000Z</time>
      </trkpt>
      <trkpt lat="44.73221" lon="-0.06815">
        <ele>86.5</ele>
        <time>2011-11-02T13:14:45.000Z</time>
      </trkpt>
      <trkpt lat="44.73193" lon="-0.06805">
        <ele>87.1</ele>
        <time>2011-11-02T13:15:00.000Z</time>
      </trkpt>
      <trkpt lat="44.73166" lon="-0.06793">
        <ele>90.2</ele>
        <time>2011-11-02T13:15:12.000Z</time>
      </trkpt>
      <trkpt lat="44.73138" lon="-0.06782">
        <ele>94</ele>
        <time>2011-11-02T13:15:26.000Z</time>
      </trkpt>
      <trkpt lat="44.73112" lon="-0.06772">
        <ele>97.9</ele>
        <time>2011-11-02T13:15:40.000Z</time>
      </trkpt>
      <trkpt lat="44.73086" lon="-0.06759">
        <ele>100.8</ele>
        <time>2011-11-02T13:15:59.000Z</time>
      </trkpt>
      <trkpt lat="44.73062" lon="-0.06742">
        <ele>99</ele>
        <time>2011-11-02T13:16:14.000Z</time>
      </trkpt>
      <trkpt lat="44.73037" lon="-0.06723">
        <ele>97.8</ele>
        <time>2011-11-02T13:16:29.000Z</time>
      </trkpt>
      <trkpt lat="44.73011" lon="-0.06705">
        <ele>97.6</ele>
        <time>2011-11-02T13:16:41.000Z</time>
      </trkpt>
      <trkpt lat="44.72986" lon="-0.06684">
        <ele>97.9</ele>
        <time>2011-11-02T13:16:51.000Z</time>
      </trkpt>
      <trkpt lat="44.72961" lon="-0.06664">
        <ele>97.3</ele>
        <time>2011-11-02T13:17:00.000Z</time>
      </trkpt>
      <trkpt lat="44.72936" lon="-0.06647">
        <ele>98.1</ele>
        <time>2011-11-02T13:17:09.000Z</time>
      </trkpt>
      <trkpt lat="44.72912" lon="-0.06629">
        <ele>98.8</ele>
        <time>2011-11-02T13:17:21.000Z</time>
      </trkpt>
      <trkpt lat="44.72888" lon="-0.0661">
        <ele>100.9</ele>
        <time>2011-11-02T13:23:51.000Z</time>
      </trkpt>
      <trkpt lat="44.72865" lon="-0.06591">
        <ele>105</ele>
        <time>2011-11-02T13:24:06.000Z</time>
      </trkpt>
      <trkpt lat="44.72841" lon="-0.06572">
        <ele>107.8</ele>
        <time>2011-11-02T13:24:20.000Z</time>
      </trkpt>
      <trkpt lat="44.72815" lon="-0.06558">
        <ele>111.6</ele>
        <time>2011-11-02T13:24:30.000Z</time>
      </trkpt>
      <trkpt lat="44.72794" lon="-0.06534">
        <ele>112.3</ele>
        <time>2011-11-02T13:24:40.000Z</time>
      </trkpt>
      <trkpt lat="44.72771" lon="-0.06513">
        <ele>114.5</ele>
        <time>2011-11-02T13:24:49.000Z</time>
      </trkpt>
      <trkpt lat="44.72746" lon="-0.06492">
        <ele>114.9</ele>
        <time>2011-11-02T13:24:56.000Z</time>
      </trkpt>
      <trkpt lat="44.72718" lon="-0.06475">
        <ele>112.5</ele>
        <time>2011-11-02T13:25:02.000Z</time>
      </trkpt>
      <trkpt lat="44.72692" lon="-0.06461">
        <ele>115.3</ele>
        <time>2011-11-02T13:25:07.000Z</time>
      </trkpt>
      <trkpt lat="44.72663" lon="-0.06448">
        <ele>116.8</ele>
        <time>2011-11-02T13:25:12.000Z</time>
      </trkpt>
      <trkpt lat="44.72637" lon="-0.06434">
        <ele>119.9</ele>
        <time>2011-11-02T13:25:17.000Z</time>
      </trkpt>
      <trkpt lat="44.72609" lon="-0.06425">
        <ele>123.6</ele>
        <time>2011-11-02T13:25:23.000Z</time>
      </trkpt>
      <trkpt lat="44.7258" lon="-0.06417">
        <ele>125.8</ele>
        <time>2011-11-02T13:25:29.000Z</time>
      </trkpt>
      <trkpt lat="44.7255" lon="-0.06413">
        <ele>129.4</ele>
        <time>2011-11-02T13:25:36.000Z</time>
      </trkpt>
      <trkpt lat="44.72524" lon="-0.06412">
        <ele>135.8</ele>
        <time>2011-11-02T13:25:44.000Z</time>
      </trkpt>
      <trkpt lat="44.72493" lon="-0.06411">
        <ele>139.8</ele>
        <time>2011-11-02T13:25:54.000Z</time>
      </trkpt>
      <trkpt lat="44.72466" lon="-0.06409">
        <ele>137.2</ele>
        <time>2011-11-02T13:26:01.000Z</time>
      </trkpt>
      <trkpt lat="44.7246" lon="-0.06445">
        <ele>128.1</ele>
        <time>2011-11-02T13:26:02.000Z</time>
      </trkpt>
      <trkpt lat="44.72431" lon="-0.06443">
        <ele>111.5</ele>
        <time>2011-11-02T13:26:07.000Z</time>
      </trkpt>
      <trkpt lat="44.72403" lon="-0.06438">
        <ele>105.5</ele>
        <time>2011-11-02T13:26:12.000Z</time>
      </trkpt>
      <trkpt lat="44.72372" lon="-0.06435">
        <ele>99.1</ele>
        <time>2011-11-02T13:26:17.000Z</time>
      </trkpt>
      <trkpt lat="44.72343" lon="-0.06434">
        <ele>97.1</ele>
        <time>2011-11-02T13:26:22.000Z</time>
      </trkpt>
      <trkpt lat="44.72315" lon="-0.06432">
        <ele>96.2</ele>
        <time>2011-11-02T13:26:27.000Z</time>
      </trkpt>
      <trkpt lat="44.72287" lon="-0.0643">
        <ele>95.3</ele>
        <time>2011-11-02T13:26:32.000Z</time>
      </trkpt>
      <trkpt lat="44.72259" lon="-0.06429">
        <ele>94.5</ele>
        <time>2011-11-02T13:26:37.000Z</time>
      </trkpt>
      <trkpt lat="44.72232" lon="-0.06429">
        <ele>94</ele>
        <time>2011-11-02T13:26:42.000Z</time>
      </trkpt>
      <trkpt lat="44.72202" lon="-0.06428">
        <ele>93.5</ele>
        <time>2011-11-02T13:26:48.000Z</time>
      </trkpt>
      <trkpt lat="44.72172" lon="-0.06427">
        <ele>93.2</ele>
        <time>2011-11-02T13:26:54.000Z</time>
      </trkpt>
      <trkpt lat="44.72142" lon="-0.06427">
        <ele>92.3</ele>
        <time>2011-11-02T13:27:00.000Z</time>
      </trkpt>
      <trkpt lat="44.72114" lon="-0.0643">
        <ele>92.5</ele>
        <time>2011-11-02T13:27:06.000Z</time>
      </trkpt>
      <trkpt lat="44.72088" lon="-0.06435">
        <ele>91.8</ele>
        <time>2011-11-02T13:27:12.000Z</time>
      </trkpt>
      <trkpt lat="44.72058" lon="-0.06441">
        <ele>91.4</ele>
        <time>2011-11-02T13:27:19.000Z</time>
      </trkpt>
      <trkpt lat="44.72027" lon="-0.06449">
        <ele>90.7</ele>
        <time>2011-11-02T13:27:26.000Z</time>
      </trkpt>
      <trkpt lat="44.72001" lon="-0.06456">
        <ele>90</ele>
        <time>2011-11-02T13:27:32.000Z</time>
      </trkpt>
      <trkpt lat="44.71972" lon="-0.06463">
        <ele>89.3</ele>
        <time>2011-11-02T13:27:38.000Z</time>
      </trkpt>
      <trkpt lat="44.71943" lon="-0.0647">
        <ele>89</ele>
        <time>2011-11-02T13:27:44.000Z</time>
      </trkpt>
      <trkpt lat="44.71915" lon="-0.06477">
        <ele>89</ele>
        <time>2011-11-02T13:27:50.000Z</time>
      </trkpt>
      <trkpt lat="44.71886" lon="-0.06485">
        <ele>88.7</ele>
        <time>2011-11-02T13:27:57.000Z</time>
      </trkpt>
      <trkpt lat="44.71858" lon="-0.06492">
        <ele>88.4</ele>
        <time>2011-11-02T13:28:04.000Z</time>
      </trkpt>
      <trkpt lat="44.71829" lon="-0.06499">
        <ele>89.2</ele>
        <time>2011-11-02T13:28:11.000Z</time>
      </trkpt>
      <trkpt lat="44.71801" lon="-0.06505">
        <ele>89.1</ele>
        <time>2011-11-02T13:28:18.000Z</time>
      </trkpt>
      <trkpt lat="44.71774" lon="-0.06508">
        <ele>89.6</ele>
        <time>2011-11-02T13:28:25.000Z</time>
      </trkpt>
      <trkpt lat="44.71743" lon="-0.06509">
        <ele>90.3</ele>
        <time>2011-11-02T13:28:33.000Z</time>
      </trkpt>
      <trkpt lat="44.71716" lon="-0.06508">
        <ele>91.2</ele>
        <time>2011-11-02T13:28:42.000Z</time>
      </trkpt>
      <trkpt lat="44.71688" lon="-0.06506">
        <ele>92.1</ele>
        <time>2011-11-02T13:28:51.000Z</time>
      </trkpt>
      <trkpt lat="44.7166" lon="-0.06505">
        <ele>91.9</ele>
        <time>2011-11-02T13:29:00.000Z</time>
      </trkpt>
      <trkpt lat="44.71631" lon="-0.06504">
        <ele>91.6</ele>
        <time>2011-11-02T13:29:09.000Z</time>
      </trkpt>
      <trkpt lat="44.71602" lon="-0.06503">
        <ele>91.1</ele>
        <time>2011-11-02T13:29:17.000Z</time>
      </trkpt>
      <trkpt lat="44.71573" lon="-0.06502">
        <ele>90.4</ele>
        <time>2011-11-02T13:29:25.000Z</time>
      </trkpt>
      <trkpt lat="44.71542" lon="-0.06501">
        <ele>90.9</ele>
        <time>2011-11-02T13:29:33.000Z</time>
      </trkpt>
      <trkpt lat="44.71512" lon="-0.06501">
        <ele>91.4</ele>
        <time>2011-11-02T13:29:41.000Z</time>
      </trkpt>
      <trkpt lat="44.71482" lon="-0.06505">
        <ele>92</ele>
        <time>2011-11-02T13:29:49.000Z</time>
      </trkpt>
      <trkpt lat="44.71453" lon="-0.06511">
        <ele>91.7</ele>
        <time>2011-11-02T13:29:57.000Z</time>
      </trkpt>
      <trkpt lat="44.71426" lon="-0.06518">
        <ele>90.9</ele>
        <time>2011-11-02T13:30:04.000Z</time>
      </trkpt>
      <trkpt lat="44.71398" lon="-0.06524">
        <ele>90.6</ele>
        <time>2011-11-02T13:30:11.000Z</time>
      </trkpt>
      <trkpt lat="44.71369" lon="-0.06531">
        <ele>90</ele>
        <time>2011-11-02T13:30:18.000Z</time>
      </trkpt>
      <trkpt lat="44.71338" lon="-0.06538">
        <ele>88.8</ele>
        <time>2011-11-02T13:30:25.000Z</time>
      </trkpt>
      <trkpt lat="44.71309" lon="-0.06545">
        <ele>87.6</ele>
        <time>2011-11-02T13:30:31.000Z</time>
      </trkpt>
      <trkpt lat="44.71281" lon="-0.06551">
        <ele>85.6</ele>
        <time>2011-11-02T13:30:36.000Z</time>
      </trkpt>
      <trkpt lat="44.71252" lon="-0.06557">
        <ele>83.8</ele>
        <time>2011-11-02T13:30:41.000Z</time>
      </trkpt>
      <trkpt lat="44.7122" lon="-0.06562">
        <ele>82.6</ele>
        <time>2011-11-02T13:30:46.000Z</time>
      </trkpt>
      <trkpt lat="44.71188" lon="-0.06568">
        <ele>82</ele>
        <time>2011-11-02T13:30:51.000Z</time>
      </trkpt>
      <trkpt lat="44.71161" lon="-0.06574">
        <ele>81.2</ele>
        <time>2011-11-02T13:30:55.000Z</time>
      </trkpt>
      <trkpt lat="44.7113" lon="-0.06583">
        <ele>78.9</ele>
        <time>2011-11-02T13:30:59.000Z</time>
      </trkpt>
      <trkpt lat="44.71097" lon="-0.06594">
        <ele>76.2</ele>
        <time>2011-11-02T13:31:03.000Z</time>
      </trkpt>
      <trkpt lat="44.71064" lon="-0.06607">
        <ele>74.5</ele>
        <time>2011-11-02T13:31:07.000Z</time>
      </trkpt>
      <trkpt lat="44.71031" lon="-0.0662">
        <ele>74.2</ele>
        <time>2011-11-02T13:31:11.000Z</time>
      </trkpt>
      <trkpt lat="44.71002" lon="-0.06631">
        <ele>74</ele>
        <time>2011-11-02T13:31:15.000Z</time>
      </trkpt>
      <trkpt lat="44.70972" lon="-0.06641">
        <ele>73.1</ele>
        <time>2011-11-02T13:31:19.000Z</time>
      </trkpt>
      <trkpt lat="44.70943" lon="-0.06649">
        <ele>70.7</ele>
        <time>2011-11-02T13:31:23.000Z</time>
      </trkpt>
      <trkpt lat="44.7091" lon="-0.06656">
        <ele>68.3</ele>
        <time>2011-11-02T13:31:27.000Z</time>
      </trkpt>
      <trkpt lat="44.70877" lon="-0.06666">
        <ele>66.7</ele>
        <time>2011-11-02T13:31:31.000Z</time>
      </trkpt>
      <trkpt lat="44.70842" lon="-0.06675">
        <ele>65.2</ele>
        <time>2011-11-02T13:31:35.000Z</time>
      </trkpt>
      <trkpt lat="44.70815" lon="-0.06682">
        <ele>64.6</ele>
        <time>2011-11-02T13:31:38.000Z</time>
      </trkpt>
      <trkpt lat="44.70783" lon="-0.0669">
        <ele>64.6</ele>
        <time>2011-11-02T13:31:42.000Z</time>
      </trkpt>
      <trkpt lat="44.70756" lon="-0.06703">
        <ele>65.3</ele>
        <time>2011-11-02T13:31:46.000Z</time>
      </trkpt>
      <trkpt lat="44.70726" lon="-0.06715">
        <ele>67.4</ele>
        <time>2011-11-02T13:31:51.000Z</time>
      </trkpt>
      <trkpt lat="44.707" lon="-0.06726">
        <ele>69</ele>
        <time>2011-11-02T13:31:57.000Z</time>
      </trkpt>
      <trkpt lat="44.70673" lon="-0.06737">
        <ele>71.1</ele>
        <time>2011-11-02T13:32:06.000Z</time>
      </trkpt>
      <trkpt lat="44.70647" lon="-0.06748">
        <ele>72.8</ele>
        <time>2011-11-02T13:32:18.000Z</time>
      </trkpt>
      <trkpt lat="44.7062" lon="-0.06758">
        <ele>73</ele>
        <time>2011-11-02T13:32:29.000Z</time>
      </trkpt>
      <trkpt lat="44.70594" lon="-0.06768">
        <ele>76.4</ele>
        <time>2011-11-02T13:32:39.000Z</time>
      </trkpt>
      <trkpt lat="44.70568" lon="-0.0678">
        <ele>78.9</ele>
        <time>2011-11-02T13:32:50.000Z</time>
      </trkpt>
      <trkpt lat="44.70545" lon="-0.06801">
        <ele>74</ele>
        <time>2011-11-02T13:32:56.000Z</time>
      </trkpt>
      <trkpt lat="44.70521" lon="-0.06826">
        <ele>74</ele>
        <time>2011-11-02T13:33:02.000Z</time>
      </trkpt>
      <trkpt lat="44.70498" lon="-0.06847">
        <ele>72.4</ele>
        <time>2011-11-02T13:33:07.000Z</time>
      </trkpt>
      <trkpt lat="44.70475" lon="-0.06869">
        <ele>71.3</ele>
        <time>2011-11-02T13:33:12.000Z</time>
      </trkpt>
      <trkpt lat="44.70453" lon="-0.06892">
        <ele>70.9</ele>
        <time>2011-11-02T13:33:17.000Z</time>
      </trkpt>
      <trkpt lat="44.70427" lon="-0.06916">
        <ele>70.7</ele>
        <time>2011-11-02T13:33:23.000Z</time>
      </trkpt>
      <trkpt lat="44.70403" lon="-0.06939">
        <ele>70.6</ele>
        <time>2011-11-02T13:33:29.000Z</time>
      </trkpt>
      <trkpt lat="44.70377" lon="-0.06961">
        <ele>70.9</ele>
        <time>2011-11-02T13:33:36.000Z</time>
      </trkpt>
      <trkpt lat="44.70353" lon="-0.06984">
        <ele>72.2</ele>
        <time>2011-11-02T13:33:44.000Z</time>
      </trkpt>
      <trkpt lat="44.7033" lon="-0.07008">
        <ele>73</ele>
        <time>2011-11-02T13:33:52.000Z</time>
      </trkpt>
      <trkpt lat="44.70308" lon="-0.0703">
        <ele>72.7</ele>
        <time>2011-11-02T13:34:00.000Z</time>
      </trkpt>
      <trkpt lat="44.70284" lon="-0.07055">
        <ele>72.1</ele>
        <time>2011-11-02T13:34:08.000Z</time>
      </trkpt>
      <trkpt lat="44.7026" lon="-0.07077">
        <ele>71.2</ele>
        <time>2011-11-02T13:34:14.000Z</time>
      </trkpt>
      <trkpt lat="44.70237" lon="-0.07103">
        <ele>70.2</ele>
        <time>2011-11-02T13:34:19.000Z</time>
      </trkpt>
      <trkpt lat="44.70215" lon="-0.07127">
        <ele>67.8</ele>
        <time>2011-11-02T13:34:23.000Z</time>
      </trkpt>
      <trkpt lat="44.7019" lon="-0.07155">
        <ele>64.7</ele>
        <time>2011-11-02T13:34:27.000Z</time>
      </trkpt>
      <trkpt lat="44.70163" lon="-0.07187">
        <ele>61.3</ele>
        <time>2011-11-02T13:34:31.000Z</time>
      </trkpt>
      <trkpt lat="44.70143" lon="-0.07218">
        <ele>59.7</ele>
        <time>2011-11-02T13:34:34.000Z</time>
      </trkpt>
      <trkpt lat="44.70123" lon="-0.0725">
        <ele>58.5</ele>
        <time>2011-11-02T13:34:37.000Z</time>
      </trkpt>
      <trkpt lat="44.701" lon="-0.07282">
        <ele>57</ele>
        <time>2011-11-02T13:34:40.000Z</time>
      </trkpt>
      <trkpt lat="44.70078" lon="-0.07316">
        <ele>55.5</ele>
        <time>2011-11-02T13:34:43.000Z</time>
      </trkpt>
      <trkpt lat="44.70055" lon="-0.0735">
        <ele>53.7</ele>
        <time>2011-11-02T13:34:46.000Z</time>
      </trkpt>
      <trkpt lat="44.70031" lon="-0.07384">
        <ele>51.9</ele>
        <time>2011-11-02T13:34:49.000Z</time>
      </trkpt>
      <trkpt lat="44.70006" lon="-0.07418">
        <ele>50.2</ele>
        <time>2011-11-02T13:34:52.000Z</time>
      </trkpt>
      <trkpt lat="44.69981" lon="-0.07453">
        <ele>48</ele>
        <time>2011-11-02T13:34:55.000Z</time>
      </trkpt>
      <trkpt lat="44.69957" lon="-0.07487">
        <ele>45.6</ele>
        <time>2011-11-02T13:34:58.000Z</time>
      </trkpt>
      <trkpt lat="44.69935" lon="-0.07528">
        <ele>43.8</ele>
        <time>2011-11-02T13:35:01.000Z</time>
      </trkpt>
      <trkpt lat="44.69919" lon="-0.07574">
        <ele>42.4</ele>
        <time>2011-11-02T13:35:04.000Z</time>
      </trkpt>
      <trkpt lat="44.69906" lon="-0.07615">
        <ele>44.2</ele>
        <time>2011-11-02T13:35:07.000Z</time>
      </trkpt>
      <trkpt lat="44.69896" lon="-0.07653">
        <ele>46.5</ele>
        <time>2011-11-02T13:35:10.000Z</time>
      </trkpt>
      <trkpt lat="44.69883" lon="-0.07693">
        <ele>47.9</ele>
        <time>2011-11-02T13:35:14.000Z</time>
      </trkpt>
      <trkpt lat="44.69873" lon="-0.07731">
        <ele>50.4</ele>
        <time>2011-11-02T13:35:19.000Z</time>
      </trkpt>
      <trkpt lat="44.69863" lon="-0.07767">
        <ele>53.9</ele>
        <time>2011-11-02T13:35:29.000Z</time>
      </trkpt>
      <trkpt lat="44.69847" lon="-0.078">
        <ele>56.2</ele>
        <time>2011-11-02T13:35:44.000Z</time>
      </trkpt>
      <trkpt lat="44.69824" lon="-0.07823">
        <ele>56.4</ele>
        <time>2011-11-02T13:35:59.000Z</time>
      </trkpt>
      <trkpt lat="44.69803" lon="-0.07848">
        <ele>55.7</ele>
        <time>2011-11-02T13:36:14.000Z</time>
      </trkpt>
      <trkpt lat="44.6978" lon="-0.0787">
        <ele>54.5</ele>
        <time>2011-11-02T13:36:28.000Z</time>
      </trkpt>
      <trkpt lat="44.69758" lon="-0.07892">
        <ele>55.4</ele>
        <time>2011-11-02T13:36:43.000Z</time>
      </trkpt>
      <trkpt lat="44.69734" lon="-0.07913">
        <ele>56.5</ele>
        <time>2011-11-02T13:36:57.000Z</time>
      </trkpt>
      <trkpt lat="44.69715" lon="-0.0794">
        <ele>60.2</ele>
        <time>2011-11-02T13:37:12.000Z</time>
      </trkpt>
      <trkpt lat="44.69696" lon="-0.07972">
        <ele>61</ele>
        <time>2011-11-02T13:37:27.000Z</time>
      </trkpt>
      <trkpt lat="44.69673" lon="-0.07995">
        <ele>60.4</ele>
        <time>2011-11-02T13:37:41.000Z</time>
      </trkpt>
      <trkpt lat="44.69651" lon="-0.0802">
        <ele>63.2</ele>
        <time>2011-11-02T13:37:57.000Z</time>
      </trkpt>
      <trkpt lat="44.6963" lon="-0.08044">
        <ele>66.9</ele>
        <time>2011-11-02T13:38:13.000Z</time>
      </trkpt>
      <trkpt lat="44.69611" lon="-0.08075">
        <ele>67.7</ele>
        <time>2011-11-02T13:38:28.000Z</time>
      </trkpt>
      <trkpt lat="44.69593" lon="-0.08104">
        <ele>68</ele>
        <time>2011-11-02T13:38:41.000Z</time>
      </trkpt>
      <trkpt lat="44.69573" lon="-0.0813">
        <ele>70.6</ele>
        <time>2011-11-02T13:38:56.000Z</time>
      </trkpt>
      <trkpt lat="44.69558" lon="-0.08161">
        <ele>73.5</ele>
        <time>2011-11-02T13:39:11.000Z</time>
      </trkpt>
      <trkpt lat="44.69541" lon="-0.08193">
        <ele>76.7</ele>
        <time>2011-11-02T13:39:27.000Z</time>
      </trkpt>
      <trkpt lat="44.69523" lon="-0.08221">
        <ele>80.5</ele>
        <time>2011-11-02T13:39:42.000Z</time>
      </trkpt>
      <trkpt lat="44.69507" lon="-0.08254">
        <ele>82.3</ele>
        <time>2011-11-02T13:39:57.000Z</time>
      </trkpt>
      <trkpt lat="44.69492" lon="-0.08285">
        <ele>84.3</ele>
        <time>2011-11-02T13:40:09.000Z</time>
      </trkpt>
      <trkpt lat="44.69479" lon="-0.0832">
        <ele>87.5</ele>
        <time>2011-11-02T13:40:20.000Z</time>
      </trkpt>
      <trkpt lat="44.69452" lon="-0.08344">
        <ele>89.7</ele>
        <time>2011-11-02T13:40:31.000Z</time>
      </trkpt>
      <trkpt lat="44.69426" lon="-0.08361">
        <ele>90.7</ele>
        <time>2011-11-02T13:40:36.000Z</time>
      </trkpt>
      <trkpt lat="44.69408" lon="-0.08393">
        <ele>88.9</ele>
        <time>2011-11-02T13:40:41.000Z</time>
      </trkpt>
      <trkpt lat="44.69388" lon="-0.0842">
        <ele>89.8</ele>
        <time>2011-11-02T13:40:46.000Z</time>
      </trkpt>
      <trkpt lat="44.69367" lon="-0.08448">
        <ele>88.4</ele>
        <time>2011-11-02T13:40:51.000Z</time>
      </trkpt>
      <trkpt lat="44.69343" lon="-0.08473">
        <ele>89.6</ele>
        <time>2011-11-02T13:40:56.000Z</time>
      </trkpt>
      <trkpt lat="44.69322" lon="-0.08511">
        <ele>89</ele>
        <time>2011-11-02T13:41:01.000Z</time>
      </trkpt>
      <trkpt lat="44.69303" lon="-0.08542">
        <ele>88</ele>
        <time>2011-11-02T13:41:06.000Z</time>
      </trkpt>
      <trkpt lat="44.69296" lon="-0.08579">
        <ele>81.3</ele>
        <time>2011-11-02T13:41:19.000Z</time>
      </trkpt>
      <trkpt lat="44.69313" lon="-0.08612">
        <ele>80.7</ele>
        <time>2011-11-02T13:41:32.000Z</time>
      </trkpt>
      <trkpt lat="44.69289" lon="-0.08632">
        <ele>79.6</ele>
        <time>2011-11-02T13:42:47.000Z</time>
      </trkpt>
      <trkpt lat="44.69271" lon="-0.08668">
        <ele>78.1</ele>
        <time>2011-11-02T13:42:54.000Z</time>
      </trkpt>
      <trkpt lat="44.69249" lon="-0.08703">
        <ele>76.8</ele>
        <time>2011-11-02T13:42:58.000Z</time>
      </trkpt>
      <trkpt lat="44.69227" lon="-0.08737">
        <ele>74.6</ele>
        <time>2011-11-02T13:43:02.000Z</time>
      </trkpt>
      <trkpt lat="44.69201" lon="-0.08768">
        <ele>72</ele>
        <time>2011-11-02T13:43:06.000Z</time>
      </trkpt>
      <trkpt lat="44.69175" lon="-0.08799">
        <ele>69.5</ele>
        <time>2011-11-02T13:43:10.000Z</time>
      </trkpt>
      <trkpt lat="44.69152" lon="-0.08828">
        <ele>67.8</ele>
        <time>2011-11-02T13:43:14.000Z</time>
      </trkpt>
      <trkpt lat="44.69135" lon="-0.08859">
        <ele>64.2</ele>
        <time>2011-11-02T13:43:20.000Z</time>
      </trkpt>
      <trkpt lat="44.69104" lon="-0.08859">
        <ele>62.5</ele>
        <time>2011-11-02T13:43:30.000Z</time>
      </trkpt>
      <trkpt lat="44.69076" lon="-0.08846">
        <ele>65.1</ele>
        <time>2011-11-02T13:43:35.000Z</time>
      </trkpt>
      <trkpt lat="44.6905" lon="-0.08824">
        <ele>63.6</ele>
        <time>2011-11-02T13:43:40.000Z</time>
      </trkpt>
      <trkpt lat="44.69042" lon="-0.08782">
        <ele>56</ele>
        <time>2011-11-02T13:43:45.000Z</time>
      </trkpt>
      <trkpt lat="44.69043" lon="-0.08744">
        <ele>53.9</ele>
        <time>2011-11-02T13:43:50.000Z</time>
      </trkpt>
      <trkpt lat="44.69044" lon="-0.08703">
        <ele>52.3</ele>
        <time>2011-11-02T13:43:57.000Z</time>
      </trkpt>
      <trkpt lat="44.69053" lon="-0.08665">
        <ele>53.9</ele>
        <time>2011-11-02T13:44:06.000Z</time>
      </trkpt>
      <trkpt lat="44.69061" lon="-0.08626">
        <ele>55.6</ele>
        <time>2011-11-02T13:44:16.000Z</time>
      </trkpt>
      <trkpt lat="44.69065" lon="-0.08588">
        <ele>56.1</ele>
        <time>2011-11-02T13:44:26.000Z</time>
      </trkpt>
      <trkpt lat="44.6907" lon="-0.0855">
        <ele>51</ele>
        <time>2011-11-02T13:44:38.000Z</time>
      </trkpt>
      <trkpt lat="44.69078" lon="-0.08513">
        <ele>50</ele>
        <time>2011-11-02T13:44:54.000Z</time>
      </trkpt>
      <trkpt lat="44.69091" lon="-0.08478">
        <ele>53.3</ele>
        <time>2011-11-02T13:45:09.000Z</time>
      </trkpt>
      <trkpt lat="44.69107" lon="-0.08451">
        <ele>66.2</ele>
        <time>2011-11-02T13:45:26.000Z</time>
      </trkpt>
      <trkpt lat="44.69097" lon="-0.08416">
        <ele>67.9</ele>
        <time>2011-11-02T13:46:11.000Z</time>
      </trkpt>
      <trkpt lat="44.6908" lon="-0.08387">
        <ele>70.3</ele>
        <time>2011-11-02T13:47:49.000Z</time>
      </trkpt>
      <trkpt lat="44.69063" lon="-0.08358">
        <ele>83.6</ele>
        <time>2011-11-02T13:47:59.000Z</time>
      </trkpt>
      <trkpt lat="44.69046" lon="-0.08339">
        <ele>103.9</ele>
        <time>2011-11-02T13:48:08.000Z</time>
      </trkpt>
      <trkpt lat="44.69027" lon="-0.08319">
        <ele>119.2</ele>
        <time>2011-11-02T13:48:18.000Z</time>
      </trkpt>
      <trkpt lat="44.69005" lon="-0.083">
        <ele>130.5</ele>
        <time>2011-11-02T13:48:26.000Z</time>
      </trkpt>
      <trkpt lat="44.68978" lon="-0.08281">
        <ele>135</ele>
        <time>2011-11-02T13:48:34.000Z</time>
      </trkpt>
      <trkpt lat="44.68953" lon="-0.08265">
        <ele>132</ele>
        <time>2011-11-02T13:48:40.000Z</time>
      </trkpt>
      <trkpt lat="44.68929" lon="-0.0825">
        <ele>124</ele>
        <time>2011-11-02T13:48:45.000Z</time>
      </trkpt>
      <trkpt lat="44.68901" lon="-0.08234">
        <ele>114.6</ele>
        <time>2011-11-02T13:48:51.000Z</time>
      </trkpt>
      <trkpt lat="44.68876" lon="-0.08217">
        <ele>108</ele>
        <time>2011-11-02T13:48:57.000Z</time>
      </trkpt>
      <trkpt lat="44.68848" lon="-0.08196">
        <ele>99</ele>
        <time>2011-11-02T13:49:03.000Z</time>
      </trkpt>
      <trkpt lat="44.6882" lon="-0.08176">
        <ele>93.1</ele>
        <time>2011-11-02T13:49:08.000Z</time>
      </trkpt>
      <trkpt lat="44.68792" lon="-0.08158">
        <ele>90.3</ele>
        <time>2011-11-02T13:49:12.000Z</time>
      </trkpt>
      <trkpt lat="44.68764" lon="-0.08139">
        <ele>87.8</ele>
        <time>2011-11-02T13:49:16.000Z</time>
      </trkpt>
      <trkpt lat="44.68735" lon="-0.08121">
        <ele>88.4</ele>
        <time>2011-11-02T13:49:20.000Z</time>
      </trkpt>
      <trkpt lat="44.68705" lon="-0.08104">
        <ele>84.3</ele>
        <time>2011-11-02T13:49:24.000Z</time>
      </trkpt>
      <trkpt lat="44.68673" lon="-0.08083">
        <ele>81.3</ele>
        <time>2011-11-02T13:49:28.000Z</time>
      </trkpt>
      <trkpt lat="44.68645" lon="-0.08066">
        <ele>77.1</ele>
        <time>2011-11-02T13:49:31.000Z</time>
      </trkpt>
      <trkpt lat="44.68619" lon="-0.08051">
        <ele>73</ele>
        <time>2011-11-02T13:49:34.000Z</time>
      </trkpt>
      <trkpt lat="44.68588" lon="-0.08032">
        <ele>72.6</ele>
        <time>2011-11-02T13:49:37.000Z</time>
      </trkpt>
      <trkpt lat="44.68561" lon="-0.0801">
        <ele>75.5</ele>
        <time>2011-11-02T13:49:40.000Z</time>
      </trkpt>
      <trkpt lat="44.68537" lon="-0.07989">
        <ele>72.3</ele>
        <time>2011-11-02T13:49:43.000Z</time>
      </trkpt>
      <trkpt lat="44.68515" lon="-0.07963">
        <ele>67.7</ele>
        <time>2011-11-02T13:49:46.000Z</time>
      </trkpt>
      <trkpt lat="44.68496" lon="-0.07935">
        <ele>62.6</ele>
        <time>2011-11-02T13:49:49.000Z</time>
      </trkpt>
      <trkpt lat="44.68476" lon="-0.07905">
        <ele>57</ele>
        <time>2011-11-02T13:49:52.000Z</time>
      </trkpt>
      <trkpt lat="44.68458" lon="-0.07875">
        <ele>52.5</ele>
        <time>2011-11-02T13:49:55.000Z</time>
      </trkpt>
      <trkpt lat="44.68439" lon="-0.07836">
        <ele>48.6</ele>
        <time>2011-11-02T13:49:59.000Z</time>
      </trkpt>
      <trkpt lat="44.68425" lon="-0.07798">
        <ele>47.8</ele>
        <time>2011-11-02T13:50:03.000Z</time>
      </trkpt>
      <trkpt lat="44.68416" lon="-0.0776">
        <ele>48.1</ele>
        <time>2011-11-02T13:50:08.000Z</time>
      </trkpt>
      <trkpt lat="44.68407" lon="-0.07723">
        <ele>51.1</ele>
        <time>2011-11-02T13:50:14.000Z</time>
      </trkpt>
      <trkpt lat="44.68394" lon="-0.07688">
        <ele>52.9</ele>
        <time>2011-11-02T13:50:24.000Z</time>
      </trkpt>
      <trkpt lat="44.68382" lon="-0.07653">
        <ele>49</ele>
        <time>2011-11-02T13:50:37.000Z</time>
      </trkpt>
      <trkpt lat="44.68379" lon="-0.07615">
        <ele>49.6</ele>
        <time>2011-11-02T13:50:53.000Z</time>
      </trkpt>
      <trkpt lat="44.68378" lon="-0.07577">
        <ele>59.1</ele>
        <time>2011-11-02T13:51:11.000Z</time>
      </trkpt>
      <trkpt lat="44.68374" lon="-0.07541">
        <ele>71.4</ele>
        <time>2011-11-02T13:51:28.000Z</time>
      </trkpt>
      <trkpt lat="44.68354" lon="-0.07514">
        <ele>74.1</ele>
        <time>2011-11-02T13:51:41.000Z</time>
      </trkpt>
      <trkpt lat="44.68337" lon="-0.07482">
        <ele>81.4</ele>
        <time>2011-11-02T13:52:04.000Z</time>
      </trkpt>
      <trkpt lat="44.68325" lon="-0.07446">
        <ele>77</ele>
        <time>2011-11-02T13:52:14.000Z</time>
      </trkpt>
      <trkpt lat="44.68322" lon="-0.07408">
        <ele>76.5</ele>
        <time>2011-11-02T13:52:24.000Z</time>
      </trkpt>
      <trkpt lat="44.68311" lon="-0.07371">
        <ele>70.5</ele>
        <time>2011-11-02T13:52:34.000Z</time>
      </trkpt>
      <trkpt lat="44.683" lon="-0.07336">
        <ele>71.2</ele>
        <time>2011-11-02T13:52:42.000Z</time>
      </trkpt>
      <trkpt lat="44.68292" lon="-0.07296">
        <ele>72.4</ele>
        <time>2011-11-02T13:52:52.000Z</time>
      </trkpt>
      <trkpt lat="44.68287" lon="-0.07256">
        <ele>72.4</ele>
        <time>2011-11-02T13:53:02.000Z</time>
      </trkpt>
      <trkpt lat="44.68282" lon="-0.07216">
        <ele>73.1</ele>
        <time>2011-11-02T13:53:12.000Z</time>
      </trkpt>
      <trkpt lat="44.68282" lon="-0.07176">
        <ele>67.3</ele>
        <time>2011-11-02T13:53:22.000Z</time>
      </trkpt>
      <trkpt lat="44.68282" lon="-0.07136">
        <ele>65.9</ele>
        <time>2011-11-02T13:53:32.000Z</time>
      </trkpt>
      <trkpt lat="44.68279" lon="-0.07098">
        <ele>66.8</ele>
        <time>2011-11-02T13:53:42.000Z</time>
      </trkpt>
      <trkpt lat="44.68277" lon="-0.0706">
        <ele>67.7</ele>
        <time>2011-11-02T13:53:52.000Z</time>
      </trkpt>
      <trkpt lat="44.68273" lon="-0.07022">
        <ele>67.5</ele>
        <time>2011-11-02T13:54:03.000Z</time>
      </trkpt>
      <trkpt lat="44.68269" lon="-0.06979">
        <ele>65.3</ele>
        <time>2011-11-02T13:54:12.000Z</time>
      </trkpt>
      <trkpt lat="44.68265" lon="-0.06936">
        <ele>64.9</ele>
        <time>2011-11-02T13:54:18.000Z</time>
      </trkpt>
      <trkpt lat="44.68258" lon="-0.06894">
        <ele>64</ele>
        <time>2011-11-02T13:54:23.000Z</time>
      </trkpt>
      <trkpt lat="44.68256" lon="-0.06849">
        <ele>61.8</ele>
        <time>2011-11-02T13:54:28.000Z</time>
      </trkpt>
      <trkpt lat="44.68253" lon="-0.06809">
        <ele>62.1</ele>
        <time>2011-11-02T13:54:34.000Z</time>
      </trkpt>
      <trkpt lat="44.68251" lon="-0.06767">
        <ele>61.1</ele>
        <time>2011-11-02T13:54:43.000Z</time>
      </trkpt>
      <trkpt lat="44.68253" lon="-0.06729">
        <ele>57.8</ele>
        <time>2011-11-02T13:54:51.000Z</time>
      </trkpt>
      <trkpt lat="44.68257" lon="-0.0669">
        <ele>57.7</ele>
        <time>2011-11-02T13:54:59.000Z</time>
      </trkpt>
      <trkpt lat="44.6826" lon="-0.06649">
        <ele>58.2</ele>
        <time>2011-11-02T13:55:08.000Z</time>
      </trkpt>
      <trkpt lat="44.68266" lon="-0.06608">
        <ele>57.2</ele>
        <time>2011-11-02T13:55:18.000Z</time>
      </trkpt>
      <trkpt lat="44.68264" lon="-0.06568">
        <ele>58.3</ele>
        <time>2011-11-02T13:55:29.000Z</time>
      </trkpt>
      <trkpt lat="44.68261" lon="-0.06529">
        <ele>59.4</ele>
        <time>2011-11-02T13:55:40.000Z</time>
      </trkpt>
      <trkpt lat="44.68256" lon="-0.06491">
        <ele>59.5</ele>
        <time>2011-11-02T13:55:49.000Z</time>
      </trkpt>
      <trkpt lat="44.68248" lon="-0.0645">
        <ele>57.8</ele>
        <time>2011-11-02T13:55:56.000Z</time>
      </trkpt>
      <trkpt lat="44.68243" lon="-0.06406">
        <ele>57.7</ele>
        <time>2011-11-02T13:56:02.000Z</time>
      </trkpt>
      <trkpt lat="44.68243" lon="-0.06362">
        <ele>56.1</ele>
        <time>2011-11-02T13:56:08.000Z</time>
      </trkpt>
      <trkpt lat="44.68246" lon="-0.0632">
        <ele>54.7</ele>
        <time>2011-11-02T13:56:14.000Z</time>
      </trkpt>
      <trkpt lat="44.6825" lon="-0.06278">
        <ele>54.2</ele>
        <time>2011-11-02T13:56:21.000Z</time>
      </trkpt>
      <trkpt lat="44.68254" lon="-0.06238">
        <ele>56.1</ele>
        <time>2011-11-02T13:56:29.000Z</time>
      </trkpt>
      <trkpt lat="44.68256" lon="-0.062">
        <ele>59.5</ele>
        <time>2011-11-02T13:56:40.000Z</time>
      </trkpt>
      <trkpt lat="44.68258" lon="-0.06161">
        <ele>67</ele>
        <time>2011-11-02T13:56:54.000Z</time>
      </trkpt>
      <trkpt lat="44.68265" lon="-0.06124">
        <ele>68</ele>
        <time>2011-11-02T13:57:08.000Z</time>
      </trkpt>
      <trkpt lat="44.68269" lon="-0.06086">
        <ele>65</ele>
        <time>2011-11-02T13:57:22.000Z</time>
      </trkpt>
      <trkpt lat="44.68271" lon="-0.06048">
        <ele>67.7</ele>
        <time>2011-11-02T13:57:37.000Z</time>
      </trkpt>
      <trkpt lat="44.68279" lon="-0.06011">
        <ele>71.2</ele>
        <time>2011-11-02T13:59:10.000Z</time>
      </trkpt>
      <trkpt lat="44.68292" lon="-0.05975">
        <ele>72.4</ele>
        <time>2011-11-02T13:59:22.000Z</time>
      </trkpt>
      <trkpt lat="44.68305" lon="-0.05942">
        <ele>73.3</ele>
        <time>2011-11-02T13:59:34.000Z</time>
      </trkpt>
      <trkpt lat="44.68319" lon="-0.05906">
        <ele>75.5</ele>
        <time>2011-11-02T13:59:47.000Z</time>
      </trkpt>
      <trkpt lat="44.68332" lon="-0.05872">
        <ele>77.7</ele>
        <time>2011-11-02T13:59:59.000Z</time>
      </trkpt>
      <trkpt lat="44.68346" lon="-0.05837">
        <ele>78.9</ele>
        <time>2011-11-02T14:00:11.000Z</time>
      </trkpt>
      <trkpt lat="44.68359" lon="-0.05802">
        <ele>79.7</ele>
        <time>2011-11-02T14:00:24.000Z</time>
      </trkpt>
      <trkpt lat="44.68372" lon="-0.05766">
        <ele>80.3</ele>
        <time>2011-11-02T14:00:37.000Z</time>
      </trkpt>
      <trkpt lat="44.68383" lon="-0.05732">
        <ele>81.4</ele>
        <time>2011-11-02T14:00:49.000Z</time>
      </trkpt>
      <trkpt lat="44.68398" lon="-0.05697">
        <ele>84.1</ele>
        <time>2011-11-02T14:01:02.000Z</time>
      </trkpt>
      <trkpt lat="44.68404" lon="-0.0566">
        <ele>84</ele>
        <time>2011-11-02T14:01:14.000Z</time>
      </trkpt>
      <trkpt lat="44.68404" lon="-0.0562">
        <ele>83.1</ele>
        <time>2011-11-02T14:01:26.000Z</time>
      </trkpt>
      <trkpt lat="44.68403" lon="-0.05581">
        <ele>82.3</ele>
        <time>2011-11-02T14:01:38.000Z</time>
      </trkpt>
      <trkpt lat="44.68403" lon="-0.0554">
        <ele>84.7</ele>
        <time>2011-11-02T14:01:50.000Z</time>
      </trkpt>
      <trkpt lat="44.68402" lon="-0.055">
        <ele>87.2</ele>
        <time>2011-11-02T14:02:02.000Z</time>
      </trkpt>
      <trkpt lat="44.68399" lon="-0.0546">
        <ele>92.1</ele>
        <time>2011-11-02T14:02:14.000Z</time>
      </trkpt>
      <trkpt lat="44.68398" lon="-0.05422">
        <ele>95.5</ele>
        <time>2011-11-02T14:02:27.000Z</time>
      </trkpt>
      <trkpt lat="44.68396" lon="-0.05383">
        <ele>99.4</ele>
        <time>2011-11-02T14:02:41.000Z</time>
      </trkpt>
      <trkpt lat="44.68402" lon="-0.05344">
        <ele>102</ele>
        <time>2011-11-02T14:02:55.000Z</time>
      </trkpt>
      <trkpt lat="44.68411" lon="-0.05304">
        <ele>101.2</ele>
        <time>2011-11-02T14:03:04.000Z</time>
      </trkpt>
      <trkpt lat="44.68421" lon="-0.05266">
        <ele>102.7</ele>
        <time>2011-11-02T14:03:11.000Z</time>
      </trkpt>
      <trkpt lat="44.68432" lon="-0.05227">
        <ele>99.5</ele>
        <time>2011-11-02T14:03:17.000Z</time>
      </trkpt>
      <trkpt lat="44.68443" lon="-0.05188">
        <ele>98.5</ele>
        <time>2011-11-02T14:03:23.000Z</time>
      </trkpt>
      <trkpt lat="44.68455" lon="-0.05152">
        <ele>96</ele>
        <time>2011-11-02T14:03:28.000Z</time>
      </trkpt>
      <trkpt lat="44.68467" lon="-0.05113">
        <ele>93.6</ele>
        <time>2011-11-02T14:03:33.000Z</time>
      </trkpt>
      <trkpt lat="44.6848" lon="-0.0507">
        <ele>91.2</ele>
        <time>2011-11-02T14:03:38.000Z</time>
      </trkpt>
      <trkpt lat="44.68492" lon="-0.05025">
        <ele>90</ele>
        <time>2011-11-02T14:03:43.000Z</time>
      </trkpt>
      <trkpt lat="44.68502" lon="-0.0499">
        <ele>88.2</ele>
        <time>2011-11-02T14:03:47.000Z</time>
      </trkpt>
      <trkpt lat="44.68512" lon="-0.04947">
        <ele>88.3</ele>
        <time>2011-11-02T14:03:52.000Z</time>
      </trkpt>
      <trkpt lat="44.68523" lon="-0.04907">
        <ele>88.4</ele>
        <time>2011-11-02T14:03:57.000Z</time>
      </trkpt>
      <trkpt lat="44.68531" lon="-0.04869">
        <ele>89.2</ele>
        <time>2011-11-02T14:04:02.000Z</time>
      </trkpt>
      <trkpt lat="44.68541" lon="-0.04828">
        <ele>90.6</ele>
        <time>2011-11-02T14:04:08.000Z</time>
      </trkpt>
      <trkpt lat="44.68549" lon="-0.04789">
        <ele>92.3</ele>
        <time>2011-11-02T14:04:14.000Z</time>
      </trkpt>
      <trkpt lat="44.68556" lon="-0.04752">
        <ele>92.5</ele>
        <time>2011-11-02T14:04:20.000Z</time>
      </trkpt>
      <trkpt lat="44.68559" lon="-0.04713">
        <ele>92.3</ele>
        <time>2011-11-02T14:04:27.000Z</time>
      </trkpt>
      <trkpt lat="44.68562" lon="-0.04674">
        <ele>90.6</ele>
        <time>2011-11-02T14:04:34.000Z</time>
      </trkpt>
      <trkpt lat="44.68563" lon="-0.04634">
        <ele>91.3</ele>
        <time>2011-11-02T14:04:41.000Z</time>
      </trkpt>
      <trkpt lat="44.68563" lon="-0.04593">
        <ele>89.6</ele>
        <time>2011-11-02T14:04:48.000Z</time>
      </trkpt>
      <trkpt lat="44.68566" lon="-0.04554">
        <ele>86.4</ele>
        <time>2011-11-02T14:04:55.000Z</time>
      </trkpt>
      <trkpt lat="44.68568" lon="-0.04514">
        <ele>87.5</ele>
        <time>2011-11-02T14:05:04.000Z</time>
      </trkpt>
      <trkpt lat="44.68567" lon="-0.04476">
        <ele>89.5</ele>
        <time>2011-11-02T14:05:14.000Z</time>
      </trkpt>
      <trkpt lat="44.68569" lon="-0.04437">
        <ele>87.8</ele>
        <time>2011-11-02T14:05:24.000Z</time>
      </trkpt>
      <trkpt lat="44.68568" lon="-0.04397">
        <ele>88.4</ele>
        <time>2011-11-02T14:05:34.000Z</time>
      </trkpt>
      <trkpt lat="44.6857" lon="-0.04358">
        <ele>88</ele>
        <time>2011-11-02T14:05:43.000Z</time>
      </trkpt>
      <trkpt lat="44.68572" lon="-0.04319">
        <ele>86.7</ele>
        <time>2011-11-02T14:05:50.000Z</time>
      </trkpt>
      <trkpt lat="44.68575" lon="-0.04275">
        <ele>86.4</ele>
        <time>2011-11-02T14:05:56.000Z</time>
      </trkpt>
      <trkpt lat="44.6858" lon="-0.04236">
        <ele>85.2</ele>
        <time>2011-11-02T14:06:01.000Z</time>
      </trkpt>
      <trkpt lat="44.68585" lon="-0.04197">
        <ele>85.7</ele>
        <time>2011-11-02T14:06:06.000Z</time>
      </trkpt>
      <trkpt lat="44.68593" lon="-0.04157">
        <ele>85.9</ele>
        <time>2011-11-02T14:06:11.000Z</time>
      </trkpt>
      <trkpt lat="44.68604" lon="-0.04116">
        <ele>85.9</ele>
        <time>2011-11-02T14:06:16.000Z</time>
      </trkpt>
      <trkpt lat="44.68614" lon="-0.04077">
        <ele>89</ele>
        <time>2011-11-02T14:06:21.000Z</time>
      </trkpt>
      <trkpt lat="44.68629" lon="-0.0404">
        <ele>90.1</ele>
        <time>2011-11-02T14:06:26.000Z</time>
      </trkpt>
      <trkpt lat="44.68645" lon="-0.04005">
        <ele>91.8</ele>
        <time>2011-11-02T14:06:31.000Z</time>
      </trkpt>
      <trkpt lat="44.6866" lon="-0.0397">
        <ele>92.1</ele>
        <time>2011-11-02T14:06:36.000Z</time>
      </trkpt>
      <trkpt lat="44.68675" lon="-0.03929">
        <ele>90.2</ele>
        <time>2011-11-02T14:06:41.000Z</time>
      </trkpt>
      <trkpt lat="44.68685" lon="-0.03892">
        <ele>87.4</ele>
        <time>2011-11-02T14:06:45.000Z</time>
      </trkpt>
      <trkpt lat="44.68693" lon="-0.03855">
        <ele>86.9</ele>
        <time>2011-11-02T14:06:49.000Z</time>
      </trkpt>
      <trkpt lat="44.68698" lon="-0.03818">
        <ele>86.6</ele>
        <time>2011-11-02T14:06:53.000Z</time>
      </trkpt>
      <trkpt lat="44.68705" lon="-0.03772">
        <ele>86.9</ele>
        <time>2011-11-02T14:06:58.000Z</time>
      </trkpt>
      <trkpt lat="44.68711" lon="-0.03734">
        <ele>87.4</ele>
        <time>2011-11-02T14:07:02.000Z</time>
      </trkpt>
      <trkpt lat="44.68718" lon="-0.03696">
        <ele>87.6</ele>
        <time>2011-11-02T14:07:06.000Z</time>
      </trkpt>
      <trkpt lat="44.68724" lon="-0.03658">
        <ele>87.9</ele>
        <time>2011-11-02T14:07:10.000Z</time>
      </trkpt>
      <trkpt lat="44.68729" lon="-0.03616">
        <ele>89.6</ele>
        <time>2011-11-02T14:07:15.000Z</time>
      </trkpt>
      <trkpt lat="44.68733" lon="-0.03573">
        <ele>88.9</ele>
        <time>2011-11-02T14:07:21.000Z</time>
      </trkpt>
      <trkpt lat="44.68731" lon="-0.03534">
        <ele>89.9</ele>
        <time>2011-11-02T14:07:28.000Z</time>
      </trkpt>
      <trkpt lat="44.68734" lon="-0.03497">
        <ele>94.2</ele>
        <time>2011-11-02T14:07:38.000Z</time>
      </trkpt>
      <trkpt lat="44.68732" lon="-0.03461">
        <ele>103.9</ele>
        <time>2011-11-02T14:07:48.000Z</time>
      </trkpt>
      <trkpt lat="44.68738" lon="-0.03419">
        <ele>97.2</ele>
        <time>2011-11-02T14:07:57.000Z</time>
      </trkpt>
      <trkpt lat="44.68742" lon="-0.03382">
        <ele>98.8</ele>
        <time>2011-11-02T14:08:06.000Z</time>
      </trkpt>
      <trkpt lat="44.6875" lon="-0.03345">
        <ele>93</ele>
        <time>2011-11-02T14:08:14.000Z</time>
      </trkpt>
      <trkpt lat="44.68759" lon="-0.03306">
        <ele>91.4</ele>
        <time>2011-11-02T14:08:24.000Z</time>
      </trkpt>
      <trkpt lat="44.68765" lon="-0.03264">
        <ele>90</ele>
        <time>2011-11-02T14:08:34.000Z</time>
      </trkpt>
      <trkpt lat="44.68774" lon="-0.03225">
        <ele>91.3</ele>
        <time>2011-11-02T14:08:43.000Z</time>
      </trkpt>
      <trkpt lat="44.68784" lon="-0.03187">
        <ele>89.1</ele>
        <time>2011-11-02T14:08:52.000Z</time>
      </trkpt>
      <trkpt lat="44.68791" lon="-0.03149">
        <ele>89.4</ele>
        <time>2011-11-02T14:09:00.000Z</time>
      </trkpt>
      <trkpt lat="44.68799" lon="-0.03108">
        <ele>89.5</ele>
        <time>2011-11-02T14:09:08.000Z</time>
      </trkpt>
      <trkpt lat="44.68806" lon="-0.03071">
        <ele>91.2</ele>
        <time>2011-11-02T14:09:16.000Z</time>
      </trkpt>
      <trkpt lat="44.68811" lon="-0.03031">
        <ele>91.4</ele>
        <time>2011-11-02T14:09:26.000Z</time>
      </trkpt>
      <trkpt lat="44.68811" lon="-0.02989">
        <ele>92.1</ele>
        <time>2011-11-02T14:09:36.000Z</time>
      </trkpt>
      <trkpt lat="44.68813" lon="-0.02947">
        <ele>94.7</ele>
        <time>2011-11-02T14:09:45.000Z</time>
      </trkpt>
      <trkpt lat="44.68804" lon="-0.02911">
        <ele>94.5</ele>
        <time>2011-11-02T14:09:51.000Z</time>
      </trkpt>
      <trkpt lat="44.68799" lon="-0.02871">
        <ele>93.7</ele>
        <time>2011-11-02T14:09:58.000Z</time>
      </trkpt>
      <trkpt lat="44.68797" lon="-0.0283">
        <ele>93.2</ele>
        <time>2011-11-02T14:10:06.000Z</time>
      </trkpt>
      <trkpt lat="44.68792" lon="-0.0279">
        <ele>91.6</ele>
        <time>2011-11-02T14:10:13.000Z</time>
      </trkpt>
      <trkpt lat="44.68785" lon="-0.02749">
        <ele>93.5</ele>
        <time>2011-11-02T14:10:20.000Z</time>
      </trkpt>
      <trkpt lat="44.68781" lon="-0.02711">
        <ele>92.9</ele>
        <time>2011-11-02T14:10:27.000Z</time>
      </trkpt>
      <trkpt lat="44.68774" lon="-0.02672">
        <ele>93.4</ele>
        <time>2011-11-02T14:10:34.000Z</time>
      </trkpt>
      <trkpt lat="44.68762" lon="-0.02634">
        <ele>93.5</ele>
        <time>2011-11-02T14:10:42.000Z</time>
      </trkpt>
      <trkpt lat="44.68745" lon="-0.02602">
        <ele>92.2</ele>
        <time>2011-11-02T14:10:50.000Z</time>
      </trkpt>
      <trkpt lat="44.68724" lon="-0.02574">
        <ele>89.1</ele>
        <time>2011-11-02T14:10:57.000Z</time>
      </trkpt>
      <trkpt lat="44.68707" lon="-0.02543">
        <ele>87.4</ele>
        <time>2011-11-02T14:11:03.000Z</time>
      </trkpt>
      <trkpt lat="44.68691" lon="-0.02511">
        <ele>86</ele>
        <time>2011-11-02T14:11:09.000Z</time>
      </trkpt>
      <trkpt lat="44.68675" lon="-0.02479">
        <ele>84.9</ele>
        <time>2011-11-02T14:11:15.000Z</time>
      </trkpt>
      <trkpt lat="44.68657" lon="-0.02444">
        <ele>85.7</ele>
        <time>2011-11-02T14:11:22.000Z</time>
      </trkpt>
      <trkpt lat="44.68645" lon="-0.02408">
        <ele>87.1</ele>
        <time>2011-11-02T14:11:29.000Z</time>
      </trkpt>
      <trkpt lat="44.68633" lon="-0.02369">
        <ele>86.1</ele>
        <time>2011-11-02T14:11:35.000Z</time>
      </trkpt>
      <trkpt lat="44.68623" lon="-0.02327">
        <ele>83.9</ele>
        <time>2011-11-02T14:11:40.000Z</time>
      </trkpt>
      <trkpt lat="44.68611" lon="-0.02287">
        <ele>80.9</ele>
        <time>2011-11-02T14:11:44.000Z</time>
      </trkpt>
      <trkpt lat="44.68594" lon="-0.02246">
        <ele>79.2</ele>
        <time>2011-11-02T14:11:48.000Z</time>
      </trkpt>
      <trkpt lat="44.68577" lon="-0.02216">
        <ele>77.3</ele>
        <time>2011-11-02T14:11:51.000Z</time>
      </trkpt>
      <trkpt lat="44.68557" lon="-0.02187">
        <ele>75.5</ele>
        <time>2011-11-02T14:11:54.000Z</time>
      </trkpt>
      <trkpt lat="44.68538" lon="-0.02157">
        <ele>73.6</ele>
        <time>2011-11-02T14:11:57.000Z</time>
      </trkpt>
      <trkpt lat="44.68518" lon="-0.02127">
        <ele>72.1</ele>
        <time>2011-11-02T14:12:00.000Z</time>
      </trkpt>
      <trkpt lat="44.68501" lon="-0.02099">
        <ele>71.4</ele>
        <time>2011-11-02T14:12:03.000Z</time>
      </trkpt>
      <trkpt lat="44.68479" lon="-0.02063">
        <ele>70.3</ele>
        <time>2011-11-02T14:12:07.000Z</time>
      </trkpt>
      <trkpt lat="44.68457" lon="-0.02024">
        <ele>68.5</ele>
        <time>2011-11-02T14:12:11.000Z</time>
      </trkpt>
      <trkpt lat="44.68436" lon="-0.01992">
        <ele>66.9</ele>
        <time>2011-11-02T14:12:14.000Z</time>
      </trkpt>
      <trkpt lat="44.68417" lon="-0.0196">
        <ele>66.6</ele>
        <time>2011-11-02T14:12:17.000Z</time>
      </trkpt>
      <trkpt lat="44.68401" lon="-0.01927">
        <ele>66</ele>
        <time>2011-11-02T14:12:20.000Z</time>
      </trkpt>
      <trkpt lat="44.68386" lon="-0.0189">
        <ele>64.8</ele>
        <time>2011-11-02T14:12:23.000Z</time>
      </trkpt>
      <trkpt lat="44.68373" lon="-0.01851">
        <ele>63.3</ele>
        <time>2011-11-02T14:12:26.000Z</time>
      </trkpt>
      <trkpt lat="44.6836" lon="-0.0181">
        <ele>61</ele>
        <time>2011-11-02T14:12:29.000Z</time>
      </trkpt>
      <trkpt lat="44.6835" lon="-0.01769">
        <ele>60.1</ele>
        <time>2011-11-02T14:12:32.000Z</time>
      </trkpt>
      <trkpt lat="44.6834" lon="-0.01731">
        <ele>59.2</ele>
        <time>2011-11-02T14:12:35.000Z</time>
      </trkpt>
      <trkpt lat="44.6833" lon="-0.01693">
        <ele>59.8</ele>
        <time>2011-11-02T14:12:38.000Z</time>
      </trkpt>
      <trkpt lat="44.68318" lon="-0.01649">
        <ele>60.2</ele>
        <time>2011-11-02T14:12:42.000Z</time>
      </trkpt>
      <trkpt lat="44.68308" lon="-0.0161">
        <ele>59.8</ele>
        <time>2011-11-02T14:12:46.000Z</time>
      </trkpt>
      <trkpt lat="44.68296" lon="-0.01573">
        <ele>59.1</ele>
        <time>2011-11-02T14:12:50.000Z</time>
      </trkpt>
      <trkpt lat="44.6828" lon="-0.01539">
        <ele>58.3</ele>
        <time>2011-11-02T14:12:54.000Z</time>
      </trkpt>
      <trkpt lat="44.68261" lon="-0.01509">
        <ele>57.8</ele>
        <time>2011-11-02T14:12:58.000Z</time>
      </trkpt>
      <trkpt lat="44.68242" lon="-0.01482">
        <ele>57</ele>
        <time>2011-11-02T14:13:02.000Z</time>
      </trkpt>
      <trkpt lat="44.68218" lon="-0.0145">
        <ele>56.4</ele>
        <time>2011-11-02T14:13:07.000Z</time>
      </trkpt>
      <trkpt lat="44.68195" lon="-0.01419">
        <ele>56</ele>
        <time>2011-11-02T14:13:12.000Z</time>
      </trkpt>
      <trkpt lat="44.68171" lon="-0.01388">
        <ele>55.2</ele>
        <time>2011-11-02T14:13:17.000Z</time>
      </trkpt>
      <trkpt lat="44.68153" lon="-0.01359">
        <ele>54.7</ele>
        <time>2011-11-02T14:13:21.000Z</time>
      </trkpt>
      <trkpt lat="44.68138" lon="-0.01323">
        <ele>54.3</ele>
        <time>2011-11-02T14:13:25.000Z</time>
      </trkpt>
      <trkpt lat="44.68123" lon="-0.01284">
        <ele>53.6</ele>
        <time>2011-11-02T14:13:29.000Z</time>
      </trkpt>
      <trkpt lat="44.68098" lon="-0.0125">
        <ele>52.4</ele>
        <time>2011-11-02T14:13:33.000Z</time>
      </trkpt>
      <trkpt lat="44.68074" lon="-0.01222">
        <ele>51.2</ele>
        <time>2011-11-02T14:13:36.000Z</time>
      </trkpt>
      <trkpt lat="44.68052" lon="-0.01193">
        <ele>49.6</ele>
        <time>2011-11-02T14:13:39.000Z</time>
      </trkpt>
      <trkpt lat="44.6803" lon="-0.01164">
        <ele>48.9</ele>
        <time>2011-11-02T14:13:42.000Z</time>
      </trkpt>
      <trkpt lat="44.68009" lon="-0.01134">
        <ele>48.7</ele>
        <time>2011-11-02T14:13:45.000Z</time>
      </trkpt>
      <trkpt lat="44.67985" lon="-0.01107">
        <ele>49.1</ele>
        <time>2011-11-02T14:13:48.000Z</time>
      </trkpt>
      <trkpt lat="44.6796" lon="-0.01076">
        <ele>48</ele>
        <time>2011-11-02T14:13:51.000Z</time>
      </trkpt>
      <trkpt lat="44.67935" lon="-0.01044">
        <ele>46.8</ele>
        <time>2011-11-02T14:13:54.000Z</time>
      </trkpt>
      <trkpt lat="44.6791" lon="-0.01014">
        <ele>45.1</ele>
        <time>2011-11-02T14:13:57.000Z</time>
      </trkpt>
      <trkpt lat="44.67883" lon="-0.00984">
        <ele>43.6</ele>
        <time>2011-11-02T14:14:00.000Z</time>
      </trkpt>
      <trkpt lat="44.6786" lon="-0.00957">
        <ele>43.8</ele>
        <time>2011-11-02T14:14:03.000Z</time>
      </trkpt>
      <trkpt lat="44.67836" lon="-0.00931">
        <ele>45.4</ele>
        <time>2011-11-02T14:14:07.000Z</time>
      </trkpt>
      <trkpt lat="44.67813" lon="-0.00906">
        <ele>45.9</ele>
        <time>2011-11-02T14:14:13.000Z</time>
      </trkpt>
      <trkpt lat="44.67791" lon="-0.00885">
        <ele>48.4</ele>
        <time>2011-11-02T14:14:27.000Z</time>
      </trkpt>
      <trkpt lat="44.6777" lon="-0.00858">
        <ele>52.1</ele>
        <time>2011-11-02T14:14:43.000Z</time>
      </trkpt>
      <trkpt lat="44.67744" lon="-0.00839">
        <ele>54.7</ele>
        <time>2011-11-02T14:14:59.000Z</time>
      </trkpt>
      <trkpt lat="44.67718" lon="-0.00848">
        <ele>54.4</ele>
        <time>2011-11-02T14:15:12.000Z</time>
      </trkpt>
      <trkpt lat="44.67691" lon="-0.00861">
        <ele>55.6</ele>
        <time>2011-11-02T14:15:25.000Z</time>
      </trkpt>
      <trkpt lat="44.67667" lon="-0.00843">
        <ele>56.8</ele>
        <time>2011-11-02T14:15:43.000Z</time>
      </trkpt>
      <trkpt lat="44.67662" lon="-0.00804">
        <ele>58.4</ele>
        <time>2011-11-02T14:15:53.000Z</time>
      </trkpt>
      <trkpt lat="44.67656" lon="-0.00765">
        <ele>57.7</ele>
        <time>2011-11-02T14:16:02.000Z</time>
      </trkpt>
      <trkpt lat="44.67651" lon="-0.00724">
        <ele>55.5</ele>
        <time>2011-11-02T14:16:11.000Z</time>
      </trkpt>
      <trkpt lat="44.67641" lon="-0.00687">
        <ele>56.7</ele>
        <time>2011-11-02T14:16:20.000Z</time>
      </trkpt>
      <trkpt lat="44.67631" lon="-0.0065">
        <ele>58.8</ele>
        <time>2011-11-02T14:16:29.000Z</time>
      </trkpt>
      <trkpt lat="44.67619" lon="-0.00616">
        <ele>58.9</ele>
        <time>2011-11-02T14:16:38.000Z</time>
      </trkpt>
      <trkpt lat="44.67608" lon="-0.0058">
        <ele>59</ele>
        <time>2011-11-02T14:16:48.000Z</time>
      </trkpt>
      <trkpt lat="44.67597" lon="-0.00544">
        <ele>58.7</ele>
        <time>2011-11-02T14:16:58.000Z</time>
      </trkpt>
      <trkpt lat="44.67585" lon="-0.00509">
        <ele>58.8</ele>
        <time>2011-11-02T14:17:07.000Z</time>
      </trkpt>
      <trkpt lat="44.67574" lon="-0.00472">
        <ele>60.6</ele>
        <time>2011-11-02T14:17:17.000Z</time>
      </trkpt>
      <trkpt lat="44.67561" lon="-0.00435">
        <ele>60.5</ele>
        <time>2011-11-02T14:17:27.000Z</time>
      </trkpt>
      <trkpt lat="44.67544" lon="-0.00404">
        <ele>60.3</ele>
        <time>2011-11-02T14:17:37.000Z</time>
      </trkpt>
      <trkpt lat="44.67525" lon="-0.00374">
        <ele>59.5</ele>
        <time>2011-11-02T14:17:47.000Z</time>
      </trkpt>
      <trkpt lat="44.67507" lon="-0.00344">
        <ele>59.2</ele>
        <time>2011-11-02T14:17:57.000Z</time>
      </trkpt>
      <trkpt lat="44.67493" lon="-0.00311">
        <ele>61.9</ele>
        <time>2011-11-02T14:18:08.000Z</time>
      </trkpt>
      <trkpt lat="44.67481" lon="-0.00275">
        <ele>64.7</ele>
        <time>2011-11-02T14:18:21.000Z</time>
      </trkpt>
      <trkpt lat="44.67471" lon="-0.0024">
        <ele>70.9</ele>
        <time>2011-11-02T14:18:37.000Z</time>
      </trkpt>
      <trkpt lat="44.67459" lon="-0.00205">
        <ele>73.9</ele>
        <time>2011-11-02T14:18:51.000Z</time>
      </trkpt>
      <trkpt lat="44.67445" lon="-0.00172">
        <ele>75.1</ele>
        <time>2011-11-02T14:19:05.000Z</time>
      </trkpt>
      <trkpt lat="44.67431" lon="-0.00139">
        <ele>77.3</ele>
        <time>2011-11-02T14:19:19.000Z</time>
      </trkpt>
      <trkpt lat="44.67415" lon="-0.00109">
        <ele>76.5</ele>
        <time>2011-11-02T14:19:33.000Z</time>
      </trkpt>
      <trkpt lat="44.67398" lon="-0.00079">
        <ele>79.7</ele>
        <time>2011-11-02T14:19:47.000Z</time>
      </trkpt>
      <trkpt lat="44.6738" lon="-0.00049">
        <ele>78.6</ele>
        <time>2011-11-02T14:20:00.000Z</time>
      </trkpt>
      <trkpt lat="44.67363" lon="-0.00018">
        <ele>78.4</ele>
        <time>2011-11-02T14:20:13.000Z</time>
      </trkpt>
      <trkpt lat="44.67343" lon="0.00012">
        <ele>78.7</ele>
        <time>2011-11-02T14:20:27.000Z</time>
      </trkpt>
      <trkpt lat="44.67323" lon="0.00037">
        <ele>77.5</ele>
        <time>2011-11-02T14:20:39.000Z</time>
      </trkpt>
      <trkpt lat="44.67305" lon="0.0007">
        <ele>75.4</ele>
        <time>2011-11-02T14:20:47.000Z</time>
      </trkpt>
      <trkpt lat="44.67297" lon="0.00113">
        <ele>72.9</ele>
        <time>2011-11-02T14:20:52.000Z</time>
      </trkpt>
      <trkpt lat="44.6728" lon="0.00153">
        <ele>70.2</ele>
        <time>2011-11-02T14:20:56.000Z</time>
      </trkpt>
      <trkpt lat="44.6726" lon="0.00184">
        <ele>68.5</ele>
        <time>2011-11-02T14:20:59.000Z</time>
      </trkpt>
      <trkpt lat="44.67241" lon="0.00223">
        <ele>67.4</ele>
        <time>2011-11-02T14:21:02.000Z</time>
      </trkpt>
      <trkpt lat="44.67224" lon="0.00271">
        <ele>63.8</ele>
        <time>2011-11-02T14:21:05.000Z</time>
      </trkpt>
      <trkpt lat="44.67213" lon="0.00323">
        <ele>60.1</ele>
        <time>2011-11-02T14:21:08.000Z</time>
      </trkpt>
      <trkpt lat="44.67204" lon="0.00378">
        <ele>56.5</ele>
        <time>2011-11-02T14:21:11.000Z</time>
      </trkpt>
      <trkpt lat="44.67197" lon="0.00415">
        <ele>55.3</ele>
        <time>2011-11-02T14:21:13.000Z</time>
      </trkpt>
      <trkpt lat="44.67192" lon="0.00465">
        <ele>57.2</ele>
        <time>2011-11-02T14:21:16.000Z</time>
      </trkpt>
      <trkpt lat="44.67192" lon="0.00508">
        <ele>58.7</ele>
        <time>2011-11-02T14:21:19.000Z</time>
      </trkpt>
      <trkpt lat="44.67189" lon="0.00556">
        <ele>61.3</ele>
        <time>2011-11-02T14:21:23.000Z</time>
      </trkpt>
      <trkpt lat="44.67188" lon="0.00595">
        <ele>62.7</ele>
        <time>2011-11-02T14:21:27.000Z</time>
      </trkpt>
      <trkpt lat="44.67198" lon="0.00636">
        <ele>64.6</ele>
        <time>2011-11-02T14:21:33.000Z</time>
      </trkpt>
      <trkpt lat="44.67212" lon="0.0067">
        <ele>66.1</ele>
        <time>2011-11-02T14:21:41.000Z</time>
      </trkpt>
      <trkpt lat="44.6722" lon="0.00707">
        <ele>67.7</ele>
        <time>2011-11-02T14:21:50.000Z</time>
      </trkpt>
      <trkpt lat="44.67223" lon="0.00746">
        <ele>69</ele>
        <time>2011-11-02T14:21:59.000Z</time>
      </trkpt>
      <trkpt lat="44.67228" lon="0.00786">
        <ele>69</ele>
        <time>2011-11-02T14:22:08.000Z</time>
      </trkpt>
      <trkpt lat="44.67234" lon="0.00824">
        <ele>68</ele>
        <time>2011-11-02T14:22:17.000Z</time>
      </trkpt>
      <trkpt lat="44.67233" lon="0.00866">
        <ele>67.4</ele>
        <time>2011-11-02T14:22:25.000Z</time>
      </trkpt>
      <trkpt lat="44.67231" lon="0.00909">
        <ele>65.5</ele>
        <time>2011-11-02T14:22:31.000Z</time>
      </trkpt>
      <trkpt lat="44.67232" lon="0.00953">
        <ele>62.7</ele>
        <time>2011-11-02T14:22:36.000Z</time>
      </trkpt>
      <trkpt lat="44.67232" lon="0.00993">
        <ele>61.9</ele>
        <time>2011-11-02T14:22:40.000Z</time>
      </trkpt>
      <trkpt lat="44.67234" lon="0.01035">
        <ele>61</ele>
        <time>2011-11-02T14:22:44.000Z</time>
      </trkpt>
      <trkpt lat="44.67235" lon="0.0108">
        <ele>58.9</ele>
        <time>2011-11-02T14:22:48.000Z</time>
      </trkpt>
      <trkpt lat="44.67236" lon="0.01118">
        <ele>56.7</ele>
        <time>2011-11-02T14:22:51.000Z</time>
      </trkpt>
      <trkpt lat="44.67241" lon="0.01159">
        <ele>54.1</ele>
        <time>2011-11-02T14:22:54.000Z</time>
      </trkpt>
      <trkpt lat="44.67249" lon="0.012">
        <ele>52</ele>
        <time>2011-11-02T14:22:57.000Z</time>
      </trkpt>
      <trkpt lat="44.67259" lon="0.01243">
        <ele>49.8</ele>
        <time>2011-11-02T14:23:00.000Z</time>
      </trkpt>
      <trkpt lat="44.67269" lon="0.01289">
        <ele>47.1</ele>
        <time>2011-11-02T14:23:03.000Z</time>
      </trkpt>
      <trkpt lat="44.67279" lon="0.01335">
        <ele>44.7</ele>
        <time>2011-11-02T14:23:06.000Z</time>
      </trkpt>
      <trkpt lat="44.67291" lon="0.01382">
        <ele>42.7</ele>
        <time>2011-11-02T14:23:09.000Z</time>
      </trkpt>
      <trkpt lat="44.67301" lon="0.01426">
        <ele>42.3</ele>
        <time>2011-11-02T14:23:12.000Z</time>
      </trkpt>
      <trkpt lat="44.67311" lon="0.01469">
        <ele>41.5</ele>
        <time>2011-11-02T14:23:15.000Z</time>
      </trkpt>
      <trkpt lat="44.67321" lon="0.0151">
        <ele>40.8</ele>
        <time>2011-11-02T14:23:18.000Z</time>
      </trkpt>
      <trkpt lat="44.67329" lon="0.01548">
        <ele>41.8</ele>
        <time>2011-11-02T14:23:21.000Z</time>
      </trkpt>
      <trkpt lat="44.67339" lon="0.01594">
        <ele>43.4</ele>
        <time>2011-11-02T14:23:25.000Z</time>
      </trkpt>
      <trkpt lat="44.67347" lon="0.01634">
        <ele>43.7</ele>
        <time>2011-11-02T14:23:29.000Z</time>
      </trkpt>
      <trkpt lat="44.67353" lon="0.01678">
        <ele>42.9</ele>
        <time>2011-11-02T14:23:34.000Z</time>
      </trkpt>
      <trkpt lat="44.67354" lon="0.01721">
        <ele>44.1</ele>
        <time>2011-11-02T14:23:40.000Z</time>
      </trkpt>
      <trkpt lat="44.67354" lon="0.01759">
        <ele>49.6</ele>
        <time>2011-11-02T14:23:49.000Z</time>
      </trkpt>
      <trkpt lat="44.67365" lon="0.01794">
        <ele>57.2</ele>
        <time>2011-11-02T14:24:00.000Z</time>
      </trkpt>
      <trkpt lat="44.67375" lon="0.01832">
        <ele>64.4</ele>
        <time>2011-11-02T14:24:12.000Z</time>
      </trkpt>
      <trkpt lat="44.67376" lon="0.01871">
        <ele>68.3</ele>
        <time>2011-11-02T14:24:25.000Z</time>
      </trkpt>
      <trkpt lat="44.67364" lon="0.01906">
        <ele>71.9</ele>
        <time>2011-11-02T14:24:40.000Z</time>
      </trkpt>
      <trkpt lat="44.67345" lon="0.01936">
        <ele>75</ele>
        <time>2011-11-02T14:24:55.000Z</time>
      </trkpt>
      <trkpt lat="44.67334" lon="0.01969">
        <ele>84.8</ele>
        <time>2011-11-02T14:25:11.000Z</time>
      </trkpt>
      <trkpt lat="44.67317" lon="0.02">
        <ele>91.3</ele>
        <time>2011-11-02T14:25:28.000Z</time>
      </trkpt>
      <trkpt lat="44.67299" lon="0.02029">
        <ele>93.4</ele>
        <time>2011-11-02T14:25:42.000Z</time>
      </trkpt>
      <trkpt lat="44.67278" lon="0.02057">
        <ele>95.1</ele>
        <time>2011-11-02T14:25:54.000Z</time>
      </trkpt>
      <trkpt lat="44.67257" lon="0.02084">
        <ele>95.5</ele>
        <time>2011-11-02T14:26:05.000Z</time>
      </trkpt>
      <trkpt lat="44.67235" lon="0.02111">
        <ele>88.9</ele>
        <time>2011-11-02T14:26:14.000Z</time>
      </trkpt>
      <trkpt lat="44.67213" lon="0.02138">
        <ele>86.8</ele>
        <time>2011-11-02T14:26:25.000Z</time>
      </trkpt>
      <trkpt lat="44.672" lon="0.02174">
        <ele>81.9</ele>
        <time>2011-11-02T14:26:39.000Z</time>
      </trkpt>
      <trkpt lat="44.67186" lon="0.02208">
        <ele>76.8</ele>
        <time>2011-11-02T14:26:52.000Z</time>
      </trkpt>
      <trkpt lat="44.67172" lon="0.02241">
        <ele>72.1</ele>
        <time>2011-11-02T14:27:05.000Z</time>
      </trkpt>
      <trkpt lat="44.67155" lon="0.02274">
        <ele>72.2</ele>
        <time>2011-11-02T14:27:18.000Z</time>
      </trkpt>
      <trkpt lat="44.67136" lon="0.02305">
        <ele>75.9</ele>
        <time>2011-11-02T14:27:32.000Z</time>
      </trkpt>
      <trkpt lat="44.67119" lon="0.02335">
        <ele>76.3</ele>
        <time>2011-11-02T14:27:44.000Z</time>
      </trkpt>
      <trkpt lat="44.67104" lon="0.02368">
        <ele>70.7</ele>
        <time>2011-11-02T14:27:56.000Z</time>
      </trkpt>
      <trkpt lat="44.67087" lon="0.024">
        <ele>72.4</ele>
        <time>2011-11-02T14:28:10.000Z</time>
      </trkpt>
      <trkpt lat="44.6707" lon="0.02431">
        <ele>72</ele>
        <time>2011-11-02T14:28:23.000Z</time>
      </trkpt>
      <trkpt lat="44.67054" lon="0.02462">
        <ele>73.4</ele>
        <time>2011-11-02T14:28:36.000Z</time>
      </trkpt>
      <trkpt lat="44.67038" lon="0.02494">
        <ele>74.5</ele>
        <time>2011-11-02T14:28:49.000Z</time>
      </trkpt>
      <trkpt lat="44.67022" lon="0.02525">
        <ele>75.6</ele>
        <time>2011-11-02T14:29:01.000Z</time>
      </trkpt>
      <trkpt lat="44.67005" lon="0.02557">
        <ele>76.8</ele>
        <time>2011-11-02T14:29:14.000Z</time>
      </trkpt>
      <trkpt lat="44.66988" lon="0.02588">
        <ele>75.7</ele>
        <time>2011-11-02T14:29:26.000Z</time>
      </trkpt>
      <trkpt lat="44.66972" lon="0.02618">
        <ele>76.3</ele>
        <time>2011-11-02T14:29:38.000Z</time>
      </trkpt>
      <trkpt lat="44.66955" lon="0.02652">
        <ele>76.3</ele>
        <time>2011-11-02T14:29:51.000Z</time>
      </trkpt>
      <trkpt lat="44.66939" lon="0.02683">
        <ele>76.9</ele>
        <time>2011-11-02T14:30:04.000Z</time>
      </trkpt>
      <trkpt lat="44.66921" lon="0.02712">
        <ele>77.7</ele>
        <time>2011-11-02T14:30:16.000Z</time>
      </trkpt>
      <trkpt lat="44.66904" lon="0.02742">
        <ele>79.2</ele>
        <time>2011-11-02T14:30:29.000Z</time>
      </trkpt>
      <trkpt lat="44.66888" lon="0.02773">
        <ele>83.2</ele>
        <time>2011-11-02T14:30:41.000Z</time>
      </trkpt>
      <trkpt lat="44.66876" lon="0.02808">
        <ele>88.4</ele>
        <time>2011-11-02T14:30:53.000Z</time>
      </trkpt>
      <trkpt lat="44.66862" lon="0.02839">
        <ele>95.4</ele>
        <time>2011-11-02T14:31:04.000Z</time>
      </trkpt>
      <trkpt lat="44.66842" lon="0.02869">
        <ele>93.2</ele>
        <time>2011-11-02T14:31:14.000Z</time>
      </trkpt>
      <trkpt lat="44.66829" lon="0.02904">
        <ele>93.3</ele>
        <time>2011-11-02T14:31:24.000Z</time>
      </trkpt>
      <trkpt lat="44.66808" lon="0.02931">
        <ele>89.1</ele>
        <time>2011-11-02T14:31:36.000Z</time>
      </trkpt>
      <trkpt lat="44.66789" lon="0.0296">
        <ele>86.3</ele>
        <time>2011-11-02T14:31:49.000Z</time>
      </trkpt>
      <trkpt lat="44.66772" lon="0.0299">
        <ele>86</ele>
        <time>2011-11-02T14:32:02.000Z</time>
      </trkpt>
      <trkpt lat="44.66757" lon="0.03021">
        <ele>90.1</ele>
        <time>2011-11-02T14:32:17.000Z</time>
      </trkpt>
      <trkpt lat="44.66745" lon="0.03055">
        <ele>101.5</ele>
        <time>2011-11-02T14:32:34.000Z</time>
      </trkpt>
      <trkpt lat="44.6673" lon="0.03084">
        <ele>108.2</ele>
        <time>2011-11-02T14:32:49.000Z</time>
      </trkpt>
      <trkpt lat="44.66714" lon="0.03114">
        <ele>121.1</ele>
        <time>2011-11-02T14:33:06.000Z</time>
      </trkpt>
      <trkpt lat="44.667" lon="0.03146">
        <ele>127.6</ele>
        <time>2011-11-02T14:33:20.000Z</time>
      </trkpt>
      <trkpt lat="44.66682" lon="0.03176">
        <ele>134.1</ele>
        <time>2011-11-02T14:33:35.000Z</time>
      </trkpt>
      <trkpt lat="44.66667" lon="0.0321">
        <ele>136.2</ele>
        <time>2011-11-02T14:33:47.000Z</time>
      </trkpt>
      <trkpt lat="44.66655" lon="0.0325">
        <ele>135.3</ele>
        <time>2011-11-02T14:33:55.000Z</time>
      </trkpt>
      <trkpt lat="44.66633" lon="0.0328">
        <ele>135.5</ele>
        <time>2011-11-02T14:34:00.000Z</time>
      </trkpt>
      <trkpt lat="44.66608" lon="0.03308">
        <ele>130.7</ele>
        <time>2011-11-02T14:34:04.000Z</time>
      </trkpt>
      <trkpt lat="44.66583" lon="0.03329">
        <ele>127.7</ele>
        <time>2011-11-02T14:34:07.000Z</time>
      </trkpt>
      <trkpt lat="44.66557" lon="0.03349">
        <ele>124.9</ele>
        <time>2011-11-02T14:34:10.000Z</time>
      </trkpt>
      <trkpt lat="44.66532" lon="0.03371">
        <ele>121.8</ele>
        <time>2011-11-02T14:34:13.000Z</time>
      </trkpt>
      <trkpt lat="44.66506" lon="0.03396">
        <ele>119.9</ele>
        <time>2011-11-02T14:34:16.000Z</time>
      </trkpt>
      <trkpt lat="44.66478" lon="0.03418">
        <ele>117.7</ele>
        <time>2011-11-02T14:34:19.000Z</time>
      </trkpt>
      <trkpt lat="44.66449" lon="0.03441">
        <ele>113.6</ele>
        <time>2011-11-02T14:34:22.000Z</time>
      </trkpt>
      <trkpt lat="44.6642" lon="0.03462">
        <ele>110.8</ele>
        <time>2011-11-02T14:34:25.000Z</time>
      </trkpt>
      <trkpt lat="44.66386" lon="0.03481">
        <ele>104.5</ele>
        <time>2011-11-02T14:34:28.000Z</time>
      </trkpt>
      <trkpt lat="44.66353" lon="0.03503">
        <ele>100.6</ele>
        <time>2011-11-02T14:34:31.000Z</time>
      </trkpt>
      <trkpt lat="44.66319" lon="0.03526">
        <ele>96.3</ele>
        <time>2011-11-02T14:34:34.000Z</time>
      </trkpt>
      <trkpt lat="44.66287" lon="0.03548">
        <ele>92.6</ele>
        <time>2011-11-02T14:34:37.000Z</time>
      </trkpt>
      <trkpt lat="44.66256" lon="0.0357">
        <ele>89.6</ele>
        <time>2011-11-02T14:34:40.000Z</time>
      </trkpt>
      <trkpt lat="44.6623" lon="0.03602">
        <ele>87.4</ele>
        <time>2011-11-02T14:34:43.000Z</time>
      </trkpt>
      <trkpt lat="44.66207" lon="0.0364">
        <ele>83.8</ele>
        <time>2011-11-02T14:34:46.000Z</time>
      </trkpt>
      <trkpt lat="44.66193" lon="0.0368">
        <ele>84.3</ele>
        <time>2011-11-02T14:34:49.000Z</time>
      </trkpt>
      <trkpt lat="44.6618" lon="0.03721">
        <ele>85.9</ele>
        <time>2011-11-02T14:34:53.000Z</time>
      </trkpt>
      <trkpt lat="44.66169" lon="0.03756">
        <ele>87.8</ele>
        <time>2011-11-02T14:34:58.000Z</time>
      </trkpt>
      <trkpt lat="44.6615" lon="0.03787">
        <ele>87.7</ele>
        <time>2011-11-02T14:35:06.000Z</time>
      </trkpt>
      <trkpt lat="44.66138" lon="0.03821">
        <ele>86</ele>
        <time>2011-11-02T14:35:17.000Z</time>
      </trkpt>
      <trkpt lat="44.66122" lon="0.03852">
        <ele>81.7</ele>
        <time>2011-11-02T14:35:30.000Z</time>
      </trkpt>
      <trkpt lat="44.66107" lon="0.03883">
        <ele>81.7</ele>
        <time>2011-11-02T14:35:43.000Z</time>
      </trkpt>
      <trkpt lat="44.66092" lon="0.03916">
        <ele>84.1</ele>
        <time>2011-11-02T14:35:57.000Z</time>
      </trkpt>
      <trkpt lat="44.6608" lon="0.03953">
        <ele>80.7</ele>
        <time>2011-11-02T14:36:12.000Z</time>
      </trkpt>
      <trkpt lat="44.66068" lon="0.0399">
        <ele>80</ele>
        <time>2011-11-02T14:36:26.000Z</time>
      </trkpt>
      <trkpt lat="44.66055" lon="0.04023">
        <ele>80</ele>
        <time>2011-11-02T14:36:40.000Z</time>
      </trkpt>
      <trkpt lat="44.66043" lon="0.0406">
        <ele>80.4</ele>
        <time>2011-11-02T14:36:55.000Z</time>
      </trkpt>
      <trkpt lat="44.6603" lon="0.04094">
        <ele>81.4</ele>
        <time>2011-11-02T14:37:09.000Z</time>
      </trkpt>
      <trkpt lat="44.66016" lon="0.04128">
        <ele>82.2</ele>
        <time>2011-11-02T14:37:23.000Z</time>
      </trkpt>
      <trkpt lat="44.66001" lon="0.04162">
        <ele>83.9</ele>
        <time>2011-11-02T14:37:37.000Z</time>
      </trkpt>
      <trkpt lat="44.65983" lon="0.04192">
        <ele>84.2</ele>
        <time>2011-11-02T14:37:51.000Z</time>
      </trkpt>
      <trkpt lat="44.65963" lon="0.04219">
        <ele>83.2</ele>
        <time>2011-11-02T14:38:00.000Z</time>
      </trkpt>
      <trkpt lat="44.6594" lon="0.04249">
        <ele>80</ele>
        <time>2011-11-02T14:38:06.000Z</time>
      </trkpt>
      <trkpt lat="44.65919" lon="0.04274">
        <ele>79.1</ele>
        <time>2011-11-02T14:38:10.000Z</time>
      </trkpt>
      <trkpt lat="44.65895" lon="0.04304">
        <ele>76.4</ele>
        <time>2011-11-02T14:38:14.000Z</time>
      </trkpt>
      <trkpt lat="44.65868" lon="0.04338">
        <ele>74.8</ele>
        <time>2011-11-02T14:38:18.000Z</time>
      </trkpt>
      <trkpt lat="44.65846" lon="0.04364">
        <ele>74</ele>
        <time>2011-11-02T14:38:21.000Z</time>
      </trkpt>
      <trkpt lat="44.65825" lon="0.04393">
        <ele>72</ele>
        <time>2011-11-02T14:38:24.000Z</time>
      </trkpt>
      <trkpt lat="44.65807" lon="0.04428">
        <ele>67.9</ele>
        <time>2011-11-02T14:38:27.000Z</time>
      </trkpt>
      <trkpt lat="44.65797" lon="0.04472">
        <ele>65.2</ele>
        <time>2011-11-02T14:38:30.000Z</time>
      </trkpt>
      <trkpt lat="44.65796" lon="0.04519">
        <ele>64.3</ele>
        <time>2011-11-02T14:38:33.000Z</time>
      </trkpt>
      <trkpt lat="44.658" lon="0.04567">
        <ele>64</ele>
        <time>2011-11-02T14:38:36.000Z</time>
      </trkpt>
      <trkpt lat="44.65806" lon="0.04616">
        <ele>63.4</ele>
        <time>2011-11-02T14:38:39.000Z</time>
      </trkpt>
      <trkpt lat="44.65812" lon="0.04666">
        <ele>61.7</ele>
        <time>2011-11-02T14:38:42.000Z</time>
      </trkpt>
      <trkpt lat="44.65797" lon="0.04711">
        <ele>59.9</ele>
        <time>2011-11-02T14:38:45.000Z</time>
      </trkpt>
      <trkpt lat="44.65768" lon="0.04739">
        <ele>58.6</ele>
        <time>2011-11-02T14:38:48.000Z</time>
      </trkpt>
      <trkpt lat="44.65741" lon="0.04771">
        <ele>56.3</ele>
        <time>2011-11-02T14:38:51.000Z</time>
      </trkpt>
      <trkpt lat="44.65722" lon="0.04815">
        <ele>54.4</ele>
        <time>2011-11-02T14:38:54.000Z</time>
      </trkpt>
      <trkpt lat="44.65706" lon="0.04862">
        <ele>51.3</ele>
        <time>2011-11-02T14:38:57.000Z</time>
      </trkpt>
      <trkpt lat="44.65694" lon="0.04911">
        <ele>48.3</ele>
        <time>2011-11-02T14:39:00.000Z</time>
      </trkpt>
      <trkpt lat="44.65697" lon="0.04964">
        <ele>46.4</ele>
        <time>2011-11-02T14:39:03.000Z</time>
      </trkpt>
      <trkpt lat="44.65716" lon="0.05008">
        <ele>45.2</ele>
        <time>2011-11-02T14:39:06.000Z</time>
      </trkpt>
      <trkpt lat="44.65744" lon="0.05044">
        <ele>43.6</ele>
        <time>2011-11-02T14:39:09.000Z</time>
      </trkpt>
      <trkpt lat="44.65767" lon="0.05087">
        <ele>41.1</ele>
        <time>2011-11-02T14:39:12.000Z</time>
      </trkpt>
      <trkpt lat="44.65776" lon="0.05137">
        <ele>39.6</ele>
        <time>2011-11-02T14:39:15.000Z</time>
      </trkpt>
      <trkpt lat="44.6577" lon="0.05187">
        <ele>36.4</ele>
        <time>2011-11-02T14:39:18.000Z</time>
      </trkpt>
      <trkpt lat="44.65758" lon="0.05232">
        <ele>33.3</ele>
        <time>2011-11-02T14:39:21.000Z</time>
      </trkpt>
      <trkpt lat="44.65746" lon="0.05273">
        <ele>33</ele>
        <time>2011-11-02T14:39:24.000Z</time>
      </trkpt>
      <trkpt lat="44.65735" lon="0.05311">
        <ele>31.7</ele>
        <time>2011-11-02T14:39:27.000Z</time>
      </trkpt>
      <trkpt lat="44.65724" lon="0.05347">
        <ele>31</ele>
        <time>2011-11-02T14:39:30.000Z</time>
      </trkpt>
      <trkpt lat="44.65711" lon="0.05391">
        <ele>30.4</ele>
        <time>2011-11-02T14:39:34.000Z</time>
      </trkpt>
      <trkpt lat="44.65699" lon="0.05432">
        <ele>30</ele>
        <time>2011-11-02T14:39:38.000Z</time>
      </trkpt>
      <trkpt lat="44.65689" lon="0.05472">
        <ele>29.3</ele>
        <time>2011-11-02T14:39:42.000Z</time>
      </trkpt>
      <trkpt lat="44.65678" lon="0.05508">
        <ele>29.4</ele>
        <time>2011-11-02T14:39:46.000Z</time>
      </trkpt>
      <trkpt lat="44.65665" lon="0.05552">
        <ele>29.4</ele>
        <time>2011-11-02T14:39:51.000Z</time>
      </trkpt>
      <trkpt lat="44.65653" lon="0.05592">
        <ele>29</ele>
        <time>2011-11-02T14:39:56.000Z</time>
      </trkpt>
      <trkpt lat="44.65635" lon="0.05624">
        <ele>28.9</ele>
        <time>2011-11-02T14:40:01.000Z</time>
      </trkpt>
      <trkpt lat="44.65608" lon="0.05633">
        <ele>27.5</ele>
        <time>2011-11-02T14:40:06.000Z</time>
      </trkpt>
      <trkpt lat="44.65582" lon="0.05648">
        <ele>27.2</ele>
        <time>2011-11-02T14:40:12.000Z</time>
      </trkpt>
      <trkpt lat="44.65561" lon="0.05672">
        <ele>27.2</ele>
        <time>2011-11-02T14:40:18.000Z</time>
      </trkpt>
      <trkpt lat="44.65543" lon="0.05704">
        <ele>27.3</ele>
        <time>2011-11-02T14:40:24.000Z</time>
      </trkpt>
      <trkpt lat="44.65529" lon="0.05741">
        <ele>26.9</ele>
        <time>2011-11-02T14:40:30.000Z</time>
      </trkpt>
      <trkpt lat="44.65516" lon="0.05779">
        <ele>26.2</ele>
        <time>2011-11-02T14:40:36.000Z</time>
      </trkpt>
      <trkpt lat="44.65501" lon="0.05816">
        <ele>26</ele>
        <time>2011-11-02T14:40:42.000Z</time>
      </trkpt>
      <trkpt lat="44.65487" lon="0.05854">
        <ele>25.8</ele>
        <time>2011-11-02T14:40:48.000Z</time>
      </trkpt>
      <trkpt lat="44.65474" lon="0.0589">
        <ele>25.2</ele>
        <time>2011-11-02T14:40:54.000Z</time>
      </trkpt>
      <trkpt lat="44.65459" lon="0.05927">
        <ele>25.4</ele>
        <time>2011-11-02T14:41:01.000Z</time>
      </trkpt>
      <trkpt lat="44.65448" lon="0.05963">
        <ele>27.3</ele>
        <time>2011-11-02T14:41:08.000Z</time>
      </trkpt>
      <trkpt lat="44.65432" lon="0.06003">
        <ele>26.9</ele>
        <time>2011-11-02T14:41:15.000Z</time>
      </trkpt>
      <trkpt lat="44.65418" lon="0.06039">
        <ele>25.7</ele>
        <time>2011-11-02T14:41:21.000Z</time>
      </trkpt>
      <trkpt lat="44.65406" lon="0.06074">
        <ele>25.4</ele>
        <time>2011-11-02T14:41:27.000Z</time>
      </trkpt>
      <trkpt lat="44.65399" lon="0.06116">
        <ele>24.6</ele>
        <time>2011-11-02T14:41:34.000Z</time>
      </trkpt>
      <trkpt lat="44.65398" lon="0.06157">
        <ele>24.5</ele>
        <time>2011-11-02T14:41:42.000Z</time>
      </trkpt>
      <trkpt lat="44.65398" lon="0.06197">
        <ele>24.5</ele>
        <time>2011-11-02T14:41:51.000Z</time>
      </trkpt>
      <trkpt lat="44.654" lon="0.06238">
        <ele>24.3</ele>
        <time>2011-11-02T14:42:00.000Z</time>
      </trkpt>
      <trkpt lat="44.65403" lon="0.0628">
        <ele>24</ele>
        <time>2011-11-02T14:42:09.000Z</time>
      </trkpt>
      <trkpt lat="44.65403" lon="0.06321">
        <ele>24.8</ele>
        <time>2011-11-02T14:42:18.000Z</time>
      </trkpt>
      <trkpt lat="44.65405" lon="0.06361">
        <ele>28.5</ele>
        <time>2011-11-02T14:42:28.000Z</time>
      </trkpt>
      <trkpt lat="44.65412" lon="0.06401">
        <ele>33</ele>
        <time>2011-11-02T14:42:39.000Z</time>
      </trkpt>
      <trkpt lat="44.65426" lon="0.06434">
        <ele>29.7</ele>
        <time>2011-11-02T14:42:48.000Z</time>
      </trkpt>
      <trkpt lat="44.65439" lon="0.0647">
        <ele>29.6</ele>
        <time>2011-11-02T14:42:57.000Z</time>
      </trkpt>
      <trkpt lat="44.65452" lon="0.06506">
        <ele>30.4</ele>
        <time>2011-11-02T14:43:06.000Z</time>
      </trkpt>
      <trkpt lat="44.65465" lon="0.06541">
        <ele>30.8</ele>
        <time>2011-11-02T14:43:14.000Z</time>
      </trkpt>
      <trkpt lat="44.6548" lon="0.06578">
        <ele>29.8</ele>
        <time>2011-11-02T14:43:22.000Z</time>
      </trkpt>
      <trkpt lat="44.65497" lon="0.06609">
        <ele>29.8</ele>
        <time>2011-11-02T14:43:29.000Z</time>
      </trkpt>
      <trkpt lat="44.65516" lon="0.06637">
        <ele>28.4</ele>
        <time>2011-11-02T14:43:35.000Z</time>
      </trkpt>
      <trkpt lat="44.65537" lon="0.0667">
        <ele>28.1</ele>
        <time>2011-11-02T14:43:41.000Z</time>
      </trkpt>
      <trkpt lat="44.65555" lon="0.06699">
        <ele>29</ele>
        <time>2011-11-02T14:43:46.000Z</time>
      </trkpt>
      <trkpt lat="44.65573" lon="0.06729">
        <ele>28.7</ele>
        <time>2011-11-02T14:43:51.000Z</time>
      </trkpt>
      <trkpt lat="44.65592" lon="0.06762">
        <ele>27.7</ele>
        <time>2011-11-02T14:43:56.000Z</time>
      </trkpt>
      <trkpt lat="44.65606" lon="0.06798">
        <ele>27.2</ele>
        <time>2011-11-02T14:44:01.000Z</time>
      </trkpt>
      <trkpt lat="44.65615" lon="0.06838">
        <ele>26.5</ele>
        <time>2011-11-02T14:44:06.000Z</time>
      </trkpt>
      <trkpt lat="44.65622" lon="0.06878">
        <ele>25.8</ele>
        <time>2011-11-02T14:44:11.000Z</time>
      </trkpt>
      <trkpt lat="44.65628" lon="0.06918">
        <ele>25.1</ele>
        <time>2011-11-02T14:44:16.000Z</time>
      </trkpt>
      <trkpt lat="44.6563" lon="0.06959">
        <ele>24.7</ele>
        <time>2011-11-02T14:44:21.000Z</time>
      </trkpt>
      <trkpt lat="44.65631" lon="0.06998">
        <ele>25.3</ele>
        <time>2011-11-02T14:44:26.000Z</time>
      </trkpt>
      <trkpt lat="44.65633" lon="0.07036">
        <ele>25.5</ele>
        <time>2011-11-02T14:44:31.000Z</time>
      </trkpt>
      <trkpt lat="44.65643" lon="0.07078">
        <ele>26.3</ele>
        <time>2011-11-02T14:44:37.000Z</time>
      </trkpt>
      <trkpt lat="44.65654" lon="0.07113">
        <ele>25.9</ele>
        <time>2011-11-02T14:44:42.000Z</time>
      </trkpt>
      <trkpt lat="44.65665" lon="0.07149">
        <ele>25.2</ele>
        <time>2011-11-02T14:44:47.000Z</time>
      </trkpt>
      <trkpt lat="44.65676" lon="0.07184">
        <ele>26.2</ele>
        <time>2011-11-02T14:44:52.000Z</time>
      </trkpt>
      <trkpt lat="44.65684" lon="0.07221">
        <ele>25.8</ele>
        <time>2011-11-02T14:44:57.000Z</time>
      </trkpt>
      <trkpt lat="44.65686" lon="0.07264">
        <ele>24.6</ele>
        <time>2011-11-02T14:45:03.000Z</time>
      </trkpt>
      <trkpt lat="44.65686" lon="0.07306">
        <ele>24.7</ele>
        <time>2011-11-02T14:45:09.000Z</time>
      </trkpt>
      <trkpt lat="44.65685" lon="0.07347">
        <ele>24.8</ele>
        <time>2011-11-02T14:45:15.000Z</time>
      </trkpt>
      <trkpt lat="44.65684" lon="0.07388">
        <ele>25.3</ele>
        <time>2011-11-02T14:45:21.000Z</time>
      </trkpt>
      <trkpt lat="44.65683" lon="0.07427">
        <ele>25.7</ele>
        <time>2011-11-02T14:45:27.000Z</time>
      </trkpt>
      <trkpt lat="44.6568" lon="0.07466">
        <ele>25.4</ele>
        <time>2011-11-02T14:45:33.000Z</time>
      </trkpt>
      <trkpt lat="44.65672" lon="0.07503">
        <ele>25.6</ele>
        <time>2011-11-02T14:45:39.000Z</time>
      </trkpt>
      <trkpt lat="44.65662" lon="0.07544">
        <ele>26</ele>
        <time>2011-11-02T14:45:46.000Z</time>
      </trkpt>
      <trkpt lat="44.65651" lon="0.07583">
        <ele>25.3</ele>
        <time>2011-11-02T14:45:53.000Z</time>
      </trkpt>
      <trkpt lat="44.65641" lon="0.07618">
        <ele>27.2</ele>
        <time>2011-11-02T14:46:02.000Z</time>
      </trkpt>
      <trkpt lat="44.65616" lon="0.07629">
        <ele>27.1</ele>
        <time>2011-11-02T14:47:43.000Z</time>
      </trkpt>
      <trkpt lat="44.65588" lon="0.07638">
        <ele>32</ele>
        <time>2011-11-02T14:47:52.000Z</time>
      </trkpt>
      <trkpt lat="44.65558" lon="0.07648">
        <ele>35.2</ele>
        <time>2011-11-02T14:48:00.000Z</time>
      </trkpt>
      <trkpt lat="44.6553" lon="0.07661">
        <ele>36</ele>
        <time>2011-11-02T14:48:07.000Z</time>
      </trkpt>
      <trkpt lat="44.65504" lon="0.07676">
        <ele>32.2</ele>
        <time>2011-11-02T14:48:14.000Z</time>
      </trkpt>
      <trkpt lat="44.65475" lon="0.07687">
        <ele>29.6</ele>
        <time>2011-11-02T14:48:22.000Z</time>
      </trkpt>
      <trkpt lat="44.65447" lon="0.07695">
        <ele>32.9</ele>
        <time>2011-11-02T14:48:31.000Z</time>
      </trkpt>
      <trkpt lat="44.65419" lon="0.07704">
        <ele>32.5</ele>
        <time>2011-11-02T14:48:41.000Z</time>
      </trkpt>
      <trkpt lat="44.65391" lon="0.07717">
        <ele>32</ele>
        <time>2011-11-02T14:48:50.000Z</time>
      </trkpt>
      <trkpt lat="44.65363" lon="0.07728">
        <ele>35.9</ele>
        <time>2011-11-02T14:48:58.000Z</time>
      </trkpt>
      <trkpt lat="44.65334" lon="0.07737">
        <ele>35.6</ele>
        <time>2011-11-02T14:49:06.000Z</time>
      </trkpt>
      <trkpt lat="44.65304" lon="0.07742">
        <ele>33.9</ele>
        <time>2011-11-02T14:49:15.000Z</time>
      </trkpt>
      <trkpt lat="44.65277" lon="0.07744">
        <ele>32</ele>
        <time>2011-11-02T14:49:24.000Z</time>
      </trkpt>
      <trkpt lat="44.6525" lon="0.0774">
        <ele>25.9</ele>
        <time>2011-11-02T14:49:33.000Z</time>
      </trkpt>
      <trkpt lat="44.65223" lon="0.07729">
        <ele>25.3</ele>
        <time>2011-11-02T14:49:42.000Z</time>
      </trkpt>
      <trkpt lat="44.65196" lon="0.07715">
        <ele>27.6</ele>
        <time>2011-11-02T14:49:52.000Z</time>
      </trkpt>
      <trkpt lat="44.65174" lon="0.07692">
        <ele>25.1</ele>
        <time>2011-11-02T14:50:02.000Z</time>
      </trkpt>
      <trkpt lat="44.65151" lon="0.07669">
        <ele>26.2</ele>
        <time>2011-11-02T14:50:13.000Z</time>
      </trkpt>
      <trkpt lat="44.65131" lon="0.07642">
        <ele>29.6</ele>
        <time>2011-11-02T14:50:24.000Z</time>
      </trkpt>
      <trkpt lat="44.65104" lon="0.07635">
        <ele>30.5</ele>
        <time>2011-11-02T14:50:35.000Z</time>
      </trkpt>
      <trkpt lat="44.6508" lon="0.07616">
        <ele>26.9</ele>
        <time>2011-11-02T14:50:48.000Z</time>
      </trkpt>
      <trkpt lat="44.65052" lon="0.07613">
        <ele>35.6</ele>
        <time>2011-11-02T14:51:02.000Z</time>
      </trkpt>
      <trkpt lat="44.65035" lon="0.07643">
        <ele>41</ele>
        <time>2011-11-02T14:51:17.000Z</time>
      </trkpt>
      <trkpt lat="44.65043" lon="0.0768">
        <ele>41.4</ele>
        <time>2011-11-02T14:51:30.000Z</time>
      </trkpt>
      <trkpt lat="44.65056" lon="0.07716">
        <ele>41.6</ele>
        <time>2011-11-02T14:51:43.000Z</time>
      </trkpt>
      <trkpt lat="44.65065" lon="0.07752">
        <ele>46.5</ele>
        <time>2011-11-02T14:51:57.000Z</time>
      </trkpt>
      <trkpt lat="44.65078" lon="0.07788">
        <ele>48.2</ele>
        <time>2011-11-02T14:52:11.000Z</time>
      </trkpt>
      <trkpt lat="44.65089" lon="0.07824">
        <ele>52</ele>
        <time>2011-11-02T14:52:25.000Z</time>
      </trkpt>
      <trkpt lat="44.651" lon="0.07859">
        <ele>56.6</ele>
        <time>2011-11-02T14:52:39.000Z</time>
      </trkpt>
      <trkpt lat="44.651" lon="0.07897">
        <ele>60.1</ele>
        <time>2011-11-02T14:52:56.000Z</time>
      </trkpt>
      <trkpt lat="44.65076" lon="0.07915">
        <ele>66.1</ele>
        <time>2011-11-02T14:53:10.000Z</time>
      </trkpt>
      <trkpt lat="44.65059" lon="0.07943">
        <ele>73.8</ele>
        <time>2011-11-02T14:53:23.000Z</time>
      </trkpt>
      <trkpt lat="44.65048" lon="0.07977">
        <ele>83.2</ele>
        <time>2011-11-02T14:53:46.000Z</time>
      </trkpt>
      <trkpt lat="44.6504" lon="0.08013">
        <ele>84.6</ele>
        <time>2011-11-02T14:54:14.000Z</time>
      </trkpt>
      <trkpt lat="44.65018" lon="0.08037">
        <ele>83.4</ele>
        <time>2011-11-02T14:54:53.000Z</time>
      </trkpt>
      <trkpt lat="44.64989" lon="0.0804">
        <ele>84.5</ele>
        <time>2011-11-02T14:55:03.000Z</time>
      </trkpt>
      <trkpt lat="44.64959" lon="0.08041">
        <ele>85.1</ele>
        <time>2011-11-02T14:55:10.000Z</time>
      </trkpt>
      <trkpt lat="44.6493" lon="0.08055">
        <ele>85.3</ele>
        <time>2011-11-02T14:55:17.000Z</time>
      </trkpt>
      <trkpt lat="44.64901" lon="0.08071">
        <ele>83.8</ele>
        <time>2011-11-02T14:55:22.000Z</time>
      </trkpt>
      <trkpt lat="44.64873" lon="0.08084">
        <ele>81.2</ele>
        <time>2011-11-02T14:55:27.000Z</time>
      </trkpt>
      <trkpt lat="44.64847" lon="0.08097">
        <ele>75.6</ele>
        <time>2011-11-02T14:55:34.000Z</time>
      </trkpt>
      <trkpt lat="44.64822" lon="0.08111">
        <ele>73.9</ele>
        <time>2011-11-02T14:55:42.000Z</time>
      </trkpt>
      <trkpt lat="44.64797" lon="0.08127">
        <ele>68.5</ele>
        <time>2011-11-02T14:55:51.000Z</time>
      </trkpt>
      <trkpt lat="44.64771" lon="0.08142">
        <ele>62.4</ele>
        <time>2011-11-02T14:56:00.000Z</time>
      </trkpt>
      <trkpt lat="44.64743" lon="0.08156">
        <ele>58</ele>
        <time>2011-11-02T14:56:09.000Z</time>
      </trkpt>
      <trkpt lat="44.64718" lon="0.08174">
        <ele>61.5</ele>
        <time>2011-11-02T14:56:20.000Z</time>
      </trkpt>
      <trkpt lat="44.64689" lon="0.08187">
        <ele>61.7</ele>
        <time>2011-11-02T14:56:31.000Z</time>
      </trkpt>
      <trkpt lat="44.64663" lon="0.08202">
        <ele>57.4</ele>
        <time>2011-11-02T14:56:40.000Z</time>
      </trkpt>
      <trkpt lat="44.64637" lon="0.08216">
        <ele>59.1</ele>
        <time>2011-11-02T14:56:50.000Z</time>
      </trkpt>
      <trkpt lat="44.6461" lon="0.0823">
        <ele>59.9</ele>
        <time>2011-11-02T14:57:00.000Z</time>
      </trkpt>
      <trkpt lat="44.64585" lon="0.0825">
        <ele>61.4</ele>
        <time>2011-11-02T14:57:11.000Z</time>
      </trkpt>
      <trkpt lat="44.64558" lon="0.08268">
        <ele>61.1</ele>
        <time>2011-11-02T14:57:21.000Z</time>
      </trkpt>
      <trkpt lat="44.64534" lon="0.08285">
        <ele>63.1</ele>
        <time>2011-11-02T14:57:30.000Z</time>
      </trkpt>
      <trkpt lat="44.64512" lon="0.08308">
        <ele>65.2</ele>
        <time>2011-11-02T14:57:40.000Z</time>
      </trkpt>
      <trkpt lat="44.64489" lon="0.08333">
        <ele>68.8</ele>
        <time>2011-11-02T14:57:50.000Z</time>
      </trkpt>
      <trkpt lat="44.64467" lon="0.08358">
        <ele>70.3</ele>
        <time>2011-11-02T14:58:00.000Z</time>
      </trkpt>
      <trkpt lat="44.64444" lon="0.08382">
        <ele>72</ele>
        <time>2011-11-02T14:58:11.000Z</time>
      </trkpt>
      <trkpt lat="44.64422" lon="0.08408">
        <ele>79.2</ele>
        <time>2011-11-02T14:58:24.000Z</time>
      </trkpt>
      <trkpt lat="44.64398" lon="0.08427">
        <ele>70.8</ele>
        <time>2011-11-02T14:58:35.000Z</time>
      </trkpt>
      <trkpt lat="44.64376" lon="0.08452">
        <ele>70.7</ele>
        <time>2011-11-02T14:58:47.000Z</time>
      </trkpt>
      <trkpt lat="44.64355" lon="0.08476">
        <ele>78</ele>
        <time>2011-11-02T14:58:59.000Z</time>
      </trkpt>
      <trkpt lat="44.64333" lon="0.08499">
        <ele>82.1</ele>
        <time>2011-11-02T14:59:13.000Z</time>
      </trkpt>
      <trkpt lat="44.6431" lon="0.08521">
        <ele>82.9</ele>
        <time>2011-11-02T14:59:28.000Z</time>
      </trkpt>
      <trkpt lat="44.64285" lon="0.08536">
        <ele>83.1</ele>
        <time>2011-11-02T14:59:43.000Z</time>
      </trkpt>
      <trkpt lat="44.64258" lon="0.08552">
        <ele>79.2</ele>
        <time>2011-11-02T14:59:56.000Z</time>
      </trkpt>
      <trkpt lat="44.64233" lon="0.08565">
        <ele>79.8</ele>
        <time>2011-11-02T15:00:05.000Z</time>
      </trkpt>
      <trkpt lat="44.64204" lon="0.08574">
        <ele>79.2</ele>
        <time>2011-11-02T15:00:13.000Z</time>
      </trkpt>
      <trkpt lat="44.64176" lon="0.08581">
        <ele>78.7</ele>
        <time>2011-11-02T15:00:21.000Z</time>
      </trkpt>
      <trkpt lat="44.64147" lon="0.08587">
        <ele>79.9</ele>
        <time>2011-11-02T15:00:29.000Z</time>
      </trkpt>
      <trkpt lat="44.64119" lon="0.08592">
        <ele>81.9</ele>
        <time>2011-11-02T15:00:38.000Z</time>
      </trkpt>
      <trkpt lat="44.64093" lon="0.08598">
        <ele>83.5</ele>
        <time>2011-11-02T15:00:47.000Z</time>
      </trkpt>
      <trkpt lat="44.64064" lon="0.08599">
        <ele>79.6</ele>
        <time>2011-11-02T15:00:56.000Z</time>
      </trkpt>
      <trkpt lat="44.64037" lon="0.086">
        <ele>70.2</ele>
        <time>2011-11-02T15:01:06.000Z</time>
      </trkpt>
      <trkpt lat="44.64008" lon="0.08603">
        <ele>75.3</ele>
        <time>2011-11-02T15:01:23.000Z</time>
      </trkpt>
      <trkpt lat="44.63982" lon="0.08612">
        <ele>75.4</ele>
        <time>2011-11-02T15:01:40.000Z</time>
      </trkpt>
      <trkpt lat="44.63956" lon="0.08628">
        <ele>79.6</ele>
        <time>2011-11-02T15:01:54.000Z</time>
      </trkpt>
      <trkpt lat="44.63931" lon="0.08641">
        <ele>84</ele>
        <time>2011-11-02T15:02:07.000Z</time>
      </trkpt>
      <trkpt lat="44.63905" lon="0.08652">
        <ele>91.5</ele>
        <time>2011-11-02T15:02:21.000Z</time>
      </trkpt>
      <trkpt lat="44.63878" lon="0.08654">
        <ele>96.6</ele>
        <time>2011-11-02T15:02:34.000Z</time>
      </trkpt>
      <trkpt lat="44.6385" lon="0.08659">
        <ele>95</ele>
        <time>2011-11-02T15:02:46.000Z</time>
      </trkpt>
      <trkpt lat="44.63824" lon="0.08669">
        <ele>89.3</ele>
        <time>2011-11-02T15:02:56.000Z</time>
      </trkpt>
      <trkpt lat="44.63798" lon="0.08679">
        <ele>86.8</ele>
        <time>2011-11-02T15:03:05.000Z</time>
      </trkpt>
      <trkpt lat="44.63771" lon="0.08688">
        <ele>84</ele>
        <time>2011-11-02T15:03:13.000Z</time>
      </trkpt>
      <trkpt lat="44.63745" lon="0.08698">
        <ele>85.7</ele>
        <time>2011-11-02T15:03:21.000Z</time>
      </trkpt>
      <trkpt lat="44.63718" lon="0.0871">
        <ele>86.6</ele>
        <time>2011-11-02T15:03:29.000Z</time>
      </trkpt>
      <trkpt lat="44.6369" lon="0.08726">
        <ele>86.5</ele>
        <time>2011-11-02T15:03:36.000Z</time>
      </trkpt>
      <trkpt lat="44.63662" lon="0.08745">
        <ele>84.5</ele>
        <time>2011-11-02T15:03:42.000Z</time>
      </trkpt>
      <trkpt lat="44.63636" lon="0.08762">
        <ele>80.2</ele>
        <time>2011-11-02T15:03:47.000Z</time>
      </trkpt>
      <trkpt lat="44.63609" lon="0.0878">
        <ele>75.7</ele>
        <time>2011-11-02T15:03:52.000Z</time>
      </trkpt>
      <trkpt lat="44.6358" lon="0.08801">
        <ele>76.4</ele>
        <time>2011-11-02T15:03:57.000Z</time>
      </trkpt>
      <trkpt lat="44.63556" lon="0.08817">
        <ele>77.9</ele>
        <time>2011-11-02T15:04:01.000Z</time>
      </trkpt>
      <trkpt lat="44.63531" lon="0.08834">
        <ele>77.5</ele>
        <time>2011-11-02T15:04:05.000Z</time>
      </trkpt>
      <trkpt lat="44.63505" lon="0.08851">
        <ele>77.3</ele>
        <time>2011-11-02T15:04:09.000Z</time>
      </trkpt>
      <trkpt lat="44.63475" lon="0.0887">
        <ele>73.7</ele>
        <time>2011-11-02T15:04:13.000Z</time>
      </trkpt>
      <trkpt lat="44.63447" lon="0.08893">
        <ele>81.1</ele>
        <time>2011-11-02T15:04:17.000Z</time>
      </trkpt>
      <trkpt lat="44.63425" lon="0.08915">
        <ele>82.9</ele>
        <time>2011-11-02T15:04:20.000Z</time>
      </trkpt>
      <trkpt lat="44.63403" lon="0.08941">
        <ele>80.8</ele>
        <time>2011-11-02T15:04:23.000Z</time>
      </trkpt>
      <trkpt lat="44.63382" lon="0.08968">
        <ele>79.5</ele>
        <time>2011-11-02T15:04:26.000Z</time>
      </trkpt>
      <trkpt lat="44.63363" lon="0.08999">
        <ele>76.4</ele>
        <time>2011-11-02T15:04:29.000Z</time>
      </trkpt>
      <trkpt lat="44.63341" lon="0.09031">
        <ele>75.2</ele>
        <time>2011-11-02T15:04:32.000Z</time>
      </trkpt>
      <trkpt lat="44.63318" lon="0.09063">
        <ele>74.4</ele>
        <time>2011-11-02T15:04:35.000Z</time>
      </trkpt>
      <trkpt lat="44.63294" lon="0.09096">
        <ele>71.7</ele>
        <time>2011-11-02T15:04:38.000Z</time>
      </trkpt>
      <trkpt lat="44.6327" lon="0.0913">
        <ele>69.2</ele>
        <time>2011-11-02T15:04:41.000Z</time>
      </trkpt>
      <trkpt lat="44.63245" lon="0.09164">
        <ele>65.7</ele>
        <time>2011-11-02T15:04:44.000Z</time>
      </trkpt>
      <trkpt lat="44.6322" lon="0.09198">
        <ele>63.7</ele>
        <time>2011-11-02T15:04:47.000Z</time>
      </trkpt>
      <trkpt lat="44.63196" lon="0.09231">
        <ele>62.2</ele>
        <time>2011-11-02T15:04:50.000Z</time>
      </trkpt>
      <trkpt lat="44.63173" lon="0.0926">
        <ele>61.6</ele>
        <time>2011-11-02T15:04:53.000Z</time>
      </trkpt>
      <trkpt lat="44.63144" lon="0.09287">
        <ele>60</ele>
        <time>2011-11-02T15:04:57.000Z</time>
      </trkpt>
      <trkpt lat="44.63115" lon="0.09305">
        <ele>60.1</ele>
        <time>2011-11-02T15:05:02.000Z</time>
      </trkpt>
      <trkpt lat="44.6309" lon="0.0932">
        <ele>55.9</ele>
        <time>2011-11-02T15:05:12.000Z</time>
      </trkpt>
      <trkpt lat="44.63063" lon="0.09335">
        <ele>53.6</ele>
        <time>2011-11-02T15:05:24.000Z</time>
      </trkpt>
      <trkpt lat="44.63039" lon="0.09353">
        <ele>56.8</ele>
        <time>2011-11-02T15:05:40.000Z</time>
      </trkpt>
      <trkpt lat="44.63015" lon="0.0937">
        <ele>60.6</ele>
        <time>2011-11-02T15:05:55.000Z</time>
      </trkpt>
      <trkpt lat="44.62989" lon="0.09387">
        <ele>58.3</ele>
        <time>2011-11-02T15:12:20.000Z</time>
      </trkpt>
      <trkpt lat="44.62967" lon="0.09408">
        <ele>60.2</ele>
        <time>2011-11-02T15:12:36.000Z</time>
      </trkpt>
      <trkpt lat="44.62943" lon="0.09429">
        <ele>64.9</ele>
        <time>2011-11-02T15:12:51.000Z</time>
      </trkpt>
      <trkpt lat="44.62922" lon="0.09452">
        <ele>72.4</ele>
        <time>2011-11-02T15:13:07.000Z</time>
      </trkpt>
      <trkpt lat="44.629" lon="0.09474">
        <ele>74.6</ele>
        <time>2011-11-02T15:13:21.000Z</time>
      </trkpt>
      <trkpt lat="44.62877" lon="0.09497">
        <ele>75.8</ele>
        <time>2011-11-02T15:13:37.000Z</time>
      </trkpt>
      <trkpt lat="44.62858" lon="0.09525">
        <ele>78</ele>
        <time>2011-11-02T15:13:52.000Z</time>
      </trkpt>
      <trkpt lat="44.6284" lon="0.09554">
        <ele>79.4</ele>
        <time>2011-11-02T15:14:06.000Z</time>
      </trkpt>
      <trkpt lat="44.62823" lon="0.09584">
        <ele>80.1</ele>
        <time>2011-11-02T15:14:21.000Z</time>
      </trkpt>
      <trkpt lat="44.62803" lon="0.09613">
        <ele>81.7</ele>
        <time>2011-11-02T15:14:38.000Z</time>
      </trkpt>
      <trkpt lat="44.62783" lon="0.09641">
        <ele>85.9</ele>
        <time>2011-11-02T15:14:52.000Z</time>
      </trkpt>
      <trkpt lat="44.62761" lon="0.09666">
        <ele>84.5</ele>
        <time>2011-11-02T15:15:07.000Z</time>
      </trkpt>
      <trkpt lat="44.62737" lon="0.09687">
        <ele>86</ele>
        <time>2011-11-02T15:15:21.000Z</time>
      </trkpt>
      <trkpt lat="44.62713" lon="0.09702">
        <ele>87.1</ele>
        <time>2011-11-02T15:15:34.000Z</time>
      </trkpt>
      <trkpt lat="44.62688" lon="0.09721">
        <ele>88.6</ele>
        <time>2011-11-02T15:15:48.000Z</time>
      </trkpt>
      <trkpt lat="44.62664" lon="0.09737">
        <ele>86.3</ele>
        <time>2011-11-02T15:16:02.000Z</time>
      </trkpt>
      <trkpt lat="44.62639" lon="0.09756">
        <ele>86.1</ele>
        <time>2011-11-02T15:16:17.000Z</time>
      </trkpt>
      <trkpt lat="44.62613" lon="0.09775">
        <ele>88.4</ele>
        <time>2011-11-02T15:16:27.000Z</time>
      </trkpt>
      <trkpt lat="44.62588" lon="0.09793">
        <ele>89.4</ele>
        <time>2011-11-02T15:16:35.000Z</time>
      </trkpt>
      <trkpt lat="44.62561" lon="0.09812">
        <ele>88.5</ele>
        <time>2011-11-02T15:16:43.000Z</time>
      </trkpt>
      <trkpt lat="44.62536" lon="0.09828">
        <ele>90</ele>
        <time>2011-11-02T15:16:48.000Z</time>
      </trkpt>
      <trkpt lat="44.62507" lon="0.09849">
        <ele>92</ele>
        <time>2011-11-02T15:16:53.000Z</time>
      </trkpt>
      <trkpt lat="44.62479" lon="0.09867">
        <ele>89.4</ele>
        <time>2011-11-02T15:16:57.000Z</time>
      </trkpt>
      <trkpt lat="44.62448" lon="0.09877">
        <ele>86.8</ele>
        <time>2011-11-02T15:17:01.000Z</time>
      </trkpt>
      <trkpt lat="44.62421" lon="0.09883">
        <ele>84.7</ele>
        <time>2011-11-02T15:17:04.000Z</time>
      </trkpt>
      <trkpt lat="44.62392" lon="0.09888">
        <ele>81.8</ele>
        <time>2011-11-02T15:17:07.000Z</time>
      </trkpt>
      <trkpt lat="44.62365" lon="0.09894">
        <ele>81</ele>
        <time>2011-11-02T15:17:10.000Z</time>
      </trkpt>
      <trkpt lat="44.62336" lon="0.099">
        <ele>78.7</ele>
        <time>2011-11-02T15:17:13.000Z</time>
      </trkpt>
      <trkpt lat="44.62307" lon="0.09906">
        <ele>77.9</ele>
        <time>2011-11-02T15:17:16.000Z</time>
      </trkpt>
      <trkpt lat="44.62276" lon="0.09912">
        <ele>76.6</ele>
        <time>2011-11-02T15:17:19.000Z</time>
      </trkpt>
      <trkpt lat="44.62246" lon="0.09918">
        <ele>75.5</ele>
        <time>2011-11-02T15:17:22.000Z</time>
      </trkpt>
      <trkpt lat="44.62216" lon="0.09925">
        <ele>73.1</ele>
        <time>2011-11-02T15:17:25.000Z</time>
      </trkpt>
      <trkpt lat="44.62185" lon="0.09933">
        <ele>70.3</ele>
        <time>2011-11-02T15:17:28.000Z</time>
      </trkpt>
      <trkpt lat="44.62151" lon="0.09939">
        <ele>67.9</ele>
        <time>2011-11-02T15:17:31.000Z</time>
      </trkpt>
      <trkpt lat="44.62117" lon="0.09947">
        <ele>65.4</ele>
        <time>2011-11-02T15:17:34.000Z</time>
      </trkpt>
      <trkpt lat="44.62085" lon="0.0996">
        <ele>63.8</ele>
        <time>2011-11-02T15:17:37.000Z</time>
      </trkpt>
      <trkpt lat="44.62053" lon="0.09974">
        <ele>61.8</ele>
        <time>2011-11-02T15:17:40.000Z</time>
      </trkpt>
      <trkpt lat="44.62026" lon="0.09988">
        <ele>58.8</ele>
        <time>2011-11-02T15:17:43.000Z</time>
      </trkpt>
      <trkpt lat="44.61998" lon="0.10008">
        <ele>57</ele>
        <time>2011-11-02T15:17:47.000Z</time>
      </trkpt>
      <trkpt lat="44.61975" lon="0.10028">
        <ele>57.9</ele>
        <time>2011-11-02T15:17:52.000Z</time>
      </trkpt>
      <trkpt lat="44.6195" lon="0.10049">
        <ele>62.2</ele>
        <time>2011-11-02T15:18:02.000Z</time>
      </trkpt>
      <trkpt lat="44.61927" lon="0.10071">
        <ele>66.8</ele>
        <time>2011-11-02T15:18:17.000Z</time>
      </trkpt>
      <trkpt lat="44.61904" lon="0.10093">
        <ele>68.7</ele>
        <time>2011-11-02T15:18:33.000Z</time>
      </trkpt>
      <trkpt lat="44.6188" lon="0.10114">
        <ele>70</ele>
        <time>2011-11-02T15:18:48.000Z</time>
      </trkpt>
      <trkpt lat="44.61857" lon="0.10135">
        <ele>72.4</ele>
        <time>2011-11-02T15:19:03.000Z</time>
      </trkpt>
      <trkpt lat="44.61834" lon="0.10156">
        <ele>73</ele>
        <time>2011-11-02T15:19:18.000Z</time>
      </trkpt>
      <trkpt lat="44.61812" lon="0.10179">
        <ele>74.8</ele>
        <time>2011-11-02T15:19:33.000Z</time>
      </trkpt>
      <trkpt lat="44.6179" lon="0.10205">
        <ele>77.3</ele>
        <time>2011-11-02T15:19:48.000Z</time>
      </trkpt>
      <trkpt lat="44.61768" lon="0.1023">
        <ele>79.7</ele>
        <time>2011-11-02T15:20:02.000Z</time>
      </trkpt>
      <trkpt lat="44.61745" lon="0.10247">
        <ele>81.2</ele>
        <time>2011-11-02T15:20:54.000Z</time>
      </trkpt>
      <trkpt lat="44.61717" lon="0.10254">
        <ele>81</ele>
        <time>2011-11-02T15:21:01.000Z</time>
      </trkpt>
      <trkpt lat="44.61685" lon="0.10253">
        <ele>79.1</ele>
        <time>2011-11-02T15:21:07.000Z</time>
      </trkpt>
      <trkpt lat="44.61653" lon="0.10254">
        <ele>77.6</ele>
        <time>2011-11-02T15:21:12.000Z</time>
      </trkpt>
      <trkpt lat="44.61624" lon="0.10268">
        <ele>75.7</ele>
        <time>2011-11-02T15:21:16.000Z</time>
      </trkpt>
      <trkpt lat="44.61601" lon="0.10302">
        <ele>71</ele>
        <time>2011-11-02T15:21:20.000Z</time>
      </trkpt>
      <trkpt lat="44.61593" lon="0.10338">
        <ele>68.6</ele>
        <time>2011-11-02T15:21:23.000Z</time>
      </trkpt>
      <trkpt lat="44.61587" lon="0.10376">
        <ele>65.3</ele>
        <time>2011-11-02T15:21:26.000Z</time>
      </trkpt>
      <trkpt lat="44.61581" lon="0.10416">
        <ele>63.2</ele>
        <time>2011-11-02T15:21:29.000Z</time>
      </trkpt>
      <trkpt lat="44.61575" lon="0.10455">
        <ele>61.5</ele>
        <time>2011-11-02T15:21:32.000Z</time>
      </trkpt>
      <trkpt lat="44.61569" lon="0.10496">
        <ele>59.2</ele>
        <time>2011-11-02T15:21:35.000Z</time>
      </trkpt>
      <trkpt lat="44.61562" lon="0.10537">
        <ele>57.4</ele>
        <time>2011-11-02T15:21:38.000Z</time>
      </trkpt>
      <trkpt lat="44.61555" lon="0.10578">
        <ele>55.5</ele>
        <time>2011-11-02T15:21:41.000Z</time>
      </trkpt>
      <trkpt lat="44.6154" lon="0.10613">
        <ele>53.7</ele>
        <time>2011-11-02T15:21:44.000Z</time>
      </trkpt>
      <trkpt lat="44.61511" lon="0.10621">
        <ele>50.9</ele>
        <time>2011-11-02T15:21:47.000Z</time>
      </trkpt>
      <trkpt lat="44.61482" lon="0.10607">
        <ele>49.1</ele>
        <time>2011-11-02T15:21:50.000Z</time>
      </trkpt>
      <trkpt lat="44.61452" lon="0.10594">
        <ele>46.9</ele>
        <time>2011-11-02T15:21:53.000Z</time>
      </trkpt>
      <trkpt lat="44.6142" lon="0.10586">
        <ele>44.3</ele>
        <time>2011-11-02T15:21:56.000Z</time>
      </trkpt>
      <trkpt lat="44.61395" lon="0.10606">
        <ele>41.8</ele>
        <time>2011-11-02T15:21:59.000Z</time>
      </trkpt>
      <trkpt lat="44.61372" lon="0.10636">
        <ele>39.8</ele>
        <time>2011-11-02T15:22:02.000Z</time>
      </trkpt>
      <trkpt lat="44.61342" lon="0.10637">
        <ele>37.9</ele>
        <time>2011-11-02T15:22:05.000Z</time>
      </trkpt>
      <trkpt lat="44.61312" lon="0.10622">
        <ele>36.4</ele>
        <time>2011-11-02T15:22:08.000Z</time>
      </trkpt>
      <trkpt lat="44.61284" lon="0.10608">
        <ele>36.3</ele>
        <time>2011-11-02T15:22:11.000Z</time>
      </trkpt>
      <trkpt lat="44.61258" lon="0.10594">
        <ele>35.6</ele>
        <time>2011-11-02T15:22:14.000Z</time>
      </trkpt>
      <trkpt lat="44.61228" lon="0.10578">
        <ele>36.9</ele>
        <time>2011-11-02T15:22:18.000Z</time>
      </trkpt>
      <trkpt lat="44.61201" lon="0.10572">
        <ele>37.9</ele>
        <time>2011-11-02T15:22:22.000Z</time>
      </trkpt>
      <trkpt lat="44.61174" lon="0.10588">
        <ele>38.8</ele>
        <time>2011-11-02T15:22:27.000Z</time>
      </trkpt>
      <trkpt lat="44.61155" lon="0.10622">
        <ele>42.3</ele>
        <time>2011-11-02T15:22:33.000Z</time>
      </trkpt>
      <trkpt lat="44.61145" lon="0.10658">
        <ele>46</ele>
        <time>2011-11-02T15:22:39.000Z</time>
      </trkpt>
      <trkpt lat="44.61134" lon="0.10697">
        <ele>51.6</ele>
        <time>2011-11-02T15:22:47.000Z</time>
      </trkpt>
      <trkpt lat="44.6112" lon="0.10734">
        <ele>56.4</ele>
        <time>2011-11-02T15:22:56.000Z</time>
      </trkpt>
      <trkpt lat="44.61099" lon="0.10764">
        <ele>54.3</ele>
        <time>2011-11-02T15:23:05.000Z</time>
      </trkpt>
      <trkpt lat="44.61076" lon="0.10789">
        <ele>53.9</ele>
        <time>2011-11-02T15:23:14.000Z</time>
      </trkpt>
      <trkpt lat="44.61052" lon="0.10807">
        <ele>56.6</ele>
        <time>2011-11-02T15:23:23.000Z</time>
      </trkpt>
      <trkpt lat="44.61025" lon="0.10821">
        <ele>58</ele>
        <time>2011-11-02T15:23:32.000Z</time>
      </trkpt>
      <trkpt lat="44.60999" lon="0.10834">
        <ele>59.3</ele>
        <time>2011-11-02T15:23:41.000Z</time>
      </trkpt>
      <trkpt lat="44.60973" lon="0.10848">
        <ele>57.3</ele>
        <time>2011-11-02T15:23:50.000Z</time>
      </trkpt>
      <trkpt lat="44.60947" lon="0.10863">
        <ele>55.7</ele>
        <time>2011-11-02T15:23:59.000Z</time>
      </trkpt>
      <trkpt lat="44.6092" lon="0.10879">
        <ele>54</ele>
        <time>2011-11-02T15:24:09.000Z</time>
      </trkpt>
      <trkpt lat="44.60894" lon="0.10895">
        <ele>52.3</ele>
        <time>2011-11-02T15:24:18.000Z</time>
      </trkpt>
      <trkpt lat="44.60868" lon="0.1091">
        <ele>55.1</ele>
        <time>2011-11-02T15:24:27.000Z</time>
      </trkpt>
      <trkpt lat="44.60841" lon="0.10926">
        <ele>58</ele>
        <time>2011-11-02T15:24:37.000Z</time>
      </trkpt>
      <trkpt lat="44.60816" lon="0.10943">
        <ele>63.2</ele>
        <time>2011-11-02T15:24:48.000Z</time>
      </trkpt>
      <trkpt lat="44.6079" lon="0.10958">
        <ele>61.7</ele>
        <time>2011-11-02T15:24:59.000Z</time>
      </trkpt>
      <trkpt lat="44.60764" lon="0.10968">
        <ele>62.7</ele>
        <time>2011-11-02T15:25:13.000Z</time>
      </trkpt>
      <trkpt lat="44.60737" lon="0.10975">
        <ele>69.5</ele>
        <time>2011-11-02T15:25:30.000Z</time>
      </trkpt>
      <trkpt lat="44.60711" lon="0.10984">
        <ele>73.3</ele>
        <time>2011-11-02T15:25:50.000Z</time>
      </trkpt>
      <trkpt lat="44.60683" lon="0.10995">
        <ele>76</ele>
        <time>2011-11-02T15:26:03.000Z</time>
      </trkpt>
      <trkpt lat="44.60658" lon="0.11009">
        <ele>80.6</ele>
        <time>2011-11-02T15:26:15.000Z</time>
      </trkpt>
      <trkpt lat="44.6063" lon="0.11017">
        <ele>81.2</ele>
        <time>2011-11-02T15:26:29.000Z</time>
      </trkpt>
      <trkpt lat="44.60602" lon="0.11024">
        <ele>83.3</ele>
        <time>2011-11-02T15:26:43.000Z</time>
      </trkpt>
      <trkpt lat="44.60574" lon="0.11024">
        <ele>82.2</ele>
        <time>2011-11-02T15:26:59.000Z</time>
      </trkpt>
      <trkpt lat="44.60548" lon="0.11012">
        <ele>82</ele>
        <time>2011-11-02T15:27:18.000Z</time>
      </trkpt>
      <trkpt lat="44.60524" lon="0.10993">
        <ele>86.7</ele>
        <time>2011-11-02T15:27:30.000Z</time>
      </trkpt>
      <trkpt lat="44.60504" lon="0.10967">
        <ele>90.3</ele>
        <time>2011-11-02T15:27:44.000Z</time>
      </trkpt>
      <trkpt lat="44.60487" lon="0.10937">
        <ele>97.9</ele>
        <time>2011-11-02T15:28:01.000Z</time>
      </trkpt>
      <trkpt lat="44.6047" lon="0.10906">
        <ele>103.6</ele>
        <time>2011-11-02T15:28:16.000Z</time>
      </trkpt>
      <trkpt lat="44.60457" lon="0.10872">
        <ele>102.1</ele>
        <time>2011-11-02T15:28:29.000Z</time>
      </trkpt>
      <trkpt lat="44.60438" lon="0.10844">
        <ele>100.3</ele>
        <time>2011-11-02T15:28:44.000Z</time>
      </trkpt>
      <trkpt lat="44.60415" lon="0.10826">
        <ele>110.5</ele>
        <time>2011-11-02T15:29:02.000Z</time>
      </trkpt>
      <trkpt lat="44.60388" lon="0.10812">
        <ele>108.7</ele>
        <time>2011-11-02T15:29:18.000Z</time>
      </trkpt>
      <trkpt lat="44.6036" lon="0.10808">
        <ele>115.3</ele>
        <time>2011-11-02T15:29:39.000Z</time>
      </trkpt>
      <trkpt lat="44.60332" lon="0.10807">
        <ele>117.5</ele>
        <time>2011-11-02T15:29:52.000Z</time>
      </trkpt>
      <trkpt lat="44.60304" lon="0.10807">
        <ele>119.3</ele>
        <time>2011-11-02T15:30:06.000Z</time>
      </trkpt>
      <trkpt lat="44.60277" lon="0.10803">
        <ele>118.2</ele>
        <time>2011-11-02T15:30:17.000Z</time>
      </trkpt>
      <trkpt lat="44.60251" lon="0.10802">
        <ele>111.4</ele>
        <time>2011-11-02T15:30:29.000Z</time>
      </trkpt>
      <trkpt lat="44.60223" lon="0.108">
        <ele>105.1</ele>
        <time>2011-11-02T15:30:42.000Z</time>
      </trkpt>
      <trkpt lat="44.60194" lon="0.10796">
        <ele>103</ele>
        <time>2011-11-02T15:30:58.000Z</time>
      </trkpt>
      <trkpt lat="44.60167" lon="0.10792">
        <ele>102.5</ele>
        <time>2011-11-02T15:31:12.000Z</time>
      </trkpt>
      <trkpt lat="44.60139" lon="0.1079">
        <ele>103.1</ele>
        <time>2011-11-02T15:31:28.000Z</time>
      </trkpt>
      <trkpt lat="44.60111" lon="0.10787">
        <ele>104.3</ele>
        <time>2011-11-02T15:31:43.000Z</time>
      </trkpt>
      <trkpt lat="44.60083" lon="0.10783">
        <ele>105.4</ele>
        <time>2011-11-02T15:31:57.000Z</time>
      </trkpt>
      <trkpt lat="44.60054" lon="0.1078">
        <ele>107.9</ele>
        <time>2011-11-02T15:32:12.000Z</time>
      </trkpt>
      <trkpt lat="44.60028" lon="0.1077">
        <ele>110.7</ele>
        <time>2011-11-02T15:32:27.000Z</time>
      </trkpt>
      <trkpt lat="44.60002" lon="0.10756">
        <ele>117.8</ele>
        <time>2011-11-02T15:32:43.000Z</time>
      </trkpt>
      <trkpt lat="44.59978" lon="0.10742">
        <ele>126.2</ele>
        <time>2011-11-02T15:33:01.000Z</time>
      </trkpt>
      <trkpt lat="44.59951" lon="0.10733">
        <ele>129.8</ele>
        <time>2011-11-02T15:33:15.000Z</time>
      </trkpt>
      <trkpt lat="44.59927" lon="0.10717">
        <ele>124.7</ele>
        <time>2011-11-02T15:33:28.000Z</time>
      </trkpt>
      <trkpt lat="44.599" lon="0.10704">
        <ele>117.9</ele>
        <time>2011-11-02T15:33:41.000Z</time>
      </trkpt>
      <trkpt lat="44.59872" lon="0.10696">
        <ele>112.6</ele>
        <time>2011-11-02T15:34:30.000Z</time>
      </trkpt>
      <trkpt lat="44.59842" lon="0.10694">
        <ele>111.2</ele>
        <time>2011-11-02T15:34:40.000Z</time>
      </trkpt>
      <trkpt lat="44.59811" lon="0.10695">
        <ele>113</ele>
        <time>2011-11-02T15:34:49.000Z</time>
      </trkpt>
      <trkpt lat="44.59784" lon="0.10702">
        <ele>114.4</ele>
        <time>2011-11-02T15:34:56.000Z</time>
      </trkpt>
      <trkpt lat="44.59755" lon="0.10709">
        <ele>112.6</ele>
        <time>2011-11-02T15:35:02.000Z</time>
      </trkpt>
      <trkpt lat="44.59724" lon="0.10717">
        <ele>110</ele>
        <time>2011-11-02T15:35:08.000Z</time>
      </trkpt>
      <trkpt lat="44.59694" lon="0.10726">
        <ele>108.3</ele>
        <time>2011-11-02T15:35:13.000Z</time>
      </trkpt>
      <trkpt lat="44.59667" lon="0.10732">
        <ele>104.9</ele>
        <time>2011-11-02T15:35:17.000Z</time>
      </trkpt>
      <trkpt lat="44.59637" lon="0.10743">
        <ele>104</ele>
        <time>2011-11-02T15:35:21.000Z</time>
      </trkpt>
      <trkpt lat="44.59606" lon="0.10752">
        <ele>101.7</ele>
        <time>2011-11-02T15:35:25.000Z</time>
      </trkpt>
      <trkpt lat="44.59573" lon="0.10764">
        <ele>103.4</ele>
        <time>2011-11-02T15:35:29.000Z</time>
      </trkpt>
      <trkpt lat="44.59539" lon="0.10766">
        <ele>100.8</ele>
        <time>2011-11-02T15:35:33.000Z</time>
      </trkpt>
      <trkpt lat="44.59511" lon="0.10761">
        <ele>97</ele>
        <time>2011-11-02T15:35:36.000Z</time>
      </trkpt>
      <trkpt lat="44.59483" lon="0.10747">
        <ele>94.8</ele>
        <time>2011-11-02T15:35:39.000Z</time>
      </trkpt>
      <trkpt lat="44.59454" lon="0.10731">
        <ele>93.5</ele>
        <time>2011-11-02T15:35:42.000Z</time>
      </trkpt>
      <trkpt lat="44.59425" lon="0.10714">
        <ele>90.8</ele>
        <time>2011-11-02T15:35:45.000Z</time>
      </trkpt>
      <trkpt lat="44.59396" lon="0.10696">
        <ele>88.2</ele>
        <time>2011-11-02T15:35:48.000Z</time>
      </trkpt>
      <trkpt lat="44.59366" lon="0.10677">
        <ele>85.5</ele>
        <time>2011-11-02T15:35:51.000Z</time>
      </trkpt>
      <trkpt lat="44.59336" lon="0.1066">
        <ele>82.8</ele>
        <time>2011-11-02T15:35:54.000Z</time>
      </trkpt>
      <trkpt lat="44.59306" lon="0.1064">
        <ele>81.3</ele>
        <time>2011-11-02T15:35:57.000Z</time>
      </trkpt>
      <trkpt lat="44.59277" lon="0.10616">
        <ele>80.7</ele>
        <time>2011-11-02T15:36:00.000Z</time>
      </trkpt>
      <trkpt lat="44.59251" lon="0.10586">
        <ele>79.7</ele>
        <time>2011-11-02T15:36:03.000Z</time>
      </trkpt>
      <trkpt lat="44.59227" lon="0.1055">
        <ele>77.2</ele>
        <time>2011-11-02T15:36:06.000Z</time>
      </trkpt>
      <trkpt lat="44.59203" lon="0.10513">
        <ele>74.6</ele>
        <time>2011-11-02T15:36:09.000Z</time>
      </trkpt>
      <trkpt lat="44.59179" lon="0.10477">
        <ele>72.1</ele>
        <time>2011-11-02T15:36:12.000Z</time>
      </trkpt>
      <trkpt lat="44.59154" lon="0.10441">
        <ele>69.9</ele>
        <time>2011-11-02T15:36:15.000Z</time>
      </trkpt>
      <trkpt lat="44.59129" lon="0.10405">
        <ele>67.5</ele>
        <time>2011-11-02T15:36:18.000Z</time>
      </trkpt>
      <trkpt lat="44.59099" lon="0.10381">
        <ele>65.3</ele>
        <time>2011-11-02T15:36:21.000Z</time>
      </trkpt>
      <trkpt lat="44.59065" lon="0.1037">
        <ele>63.1</ele>
        <time>2011-11-02T15:36:24.000Z</time>
      </trkpt>
      <trkpt lat="44.59029" lon="0.10364">
        <ele>60.4</ele>
        <time>2011-11-02T15:36:27.000Z</time>
      </trkpt>
      <trkpt lat="44.58995" lon="0.10359">
        <ele>58.7</ele>
        <time>2011-11-02T15:36:30.000Z</time>
      </trkpt>
      <trkpt lat="44.58959" lon="0.10359">
        <ele>56.8</ele>
        <time>2011-11-02T15:36:33.000Z</time>
      </trkpt>
      <trkpt lat="44.58926" lon="0.10373">
        <ele>54.6</ele>
        <time>2011-11-02T15:36:36.000Z</time>
      </trkpt>
      <trkpt lat="44.58899" lon="0.10401">
        <ele>52.3</ele>
        <time>2011-11-02T15:36:39.000Z</time>
      </trkpt>
      <trkpt lat="44.5888" lon="0.10438">
        <ele>50.5</ele>
        <time>2011-11-02T15:36:42.000Z</time>
      </trkpt>
      <trkpt lat="44.5887" lon="0.10476">
        <ele>53</ele>
        <time>2011-11-02T15:36:45.000Z</time>
      </trkpt>
      <trkpt lat="44.58868" lon="0.10518">
        <ele>56.5</ele>
        <time>2011-11-02T15:36:49.000Z</time>
      </trkpt>
      <trkpt lat="44.5887" lon="0.10559">
        <ele>60.5</ele>
        <time>2011-11-02T15:36:55.000Z</time>
      </trkpt>
      <trkpt lat="44.58875" lon="0.10596">
        <ele>65.2</ele>
        <time>2011-11-02T15:37:04.000Z</time>
      </trkpt>
      <trkpt lat="44.58878" lon="0.10635">
        <ele>66.6</ele>
        <time>2011-11-02T15:37:16.000Z</time>
      </trkpt>
      <trkpt lat="44.5888" lon="0.10674">
        <ele>69.2</ele>
        <time>2011-11-02T15:37:29.000Z</time>
      </trkpt>
      <trkpt lat="44.58884" lon="0.10713">
        <ele>70.9</ele>
        <time>2011-11-02T15:37:41.000Z</time>
      </trkpt>
      <trkpt lat="44.58886" lon="0.10752">
        <ele>71.9</ele>
        <time>2011-11-02T15:37:54.000Z</time>
      </trkpt>
      <trkpt lat="44.58893" lon="0.10789">
        <ele>74.5</ele>
        <time>2011-11-02T15:38:07.000Z</time>
      </trkpt>
      <trkpt lat="44.5889" lon="0.10828">
        <ele>71.2</ele>
        <time>2011-11-02T15:38:22.000Z</time>
      </trkpt>
      <trkpt lat="44.58884" lon="0.10866">
        <ele>70.1</ele>
        <time>2011-11-02T15:38:35.000Z</time>
      </trkpt>
      <trkpt lat="44.58875" lon="0.10904">
        <ele>70.4</ele>
        <time>2011-11-02T15:38:53.000Z</time>
      </trkpt>
      <trkpt lat="44.58867" lon="0.10941">
        <ele>73.7</ele>
        <time>2011-11-02T15:39:09.000Z</time>
      </trkpt>
      <trkpt lat="44.58849" lon="0.10972">
        <ele>75.8</ele>
        <time>2011-11-02T15:39:25.000Z</time>
      </trkpt>
      <trkpt lat="44.58826" lon="0.10996">
        <ele>76.1</ele>
        <time>2011-11-02T15:39:39.000Z</time>
      </trkpt>
      <trkpt lat="44.58804" lon="0.11021">
        <ele>77.1</ele>
        <time>2011-11-02T15:39:54.000Z</time>
      </trkpt>
      <trkpt lat="44.5878" lon="0.11045">
        <ele>77.3</ele>
        <time>2011-11-02T15:40:09.000Z</time>
      </trkpt>
      <trkpt lat="44.58757" lon="0.11068">
        <ele>78.8</ele>
        <time>2011-11-02T15:40:24.000Z</time>
      </trkpt>
      <trkpt lat="44.58735" lon="0.11092">
        <ele>79.9</ele>
        <time>2011-11-02T15:40:39.000Z</time>
      </trkpt>
      <trkpt lat="44.58715" lon="0.11119">
        <ele>81.9</ele>
        <time>2011-11-02T15:40:56.000Z</time>
      </trkpt>
      <trkpt lat="44.58701" lon="0.11152">
        <ele>84.8</ele>
        <time>2011-11-02T15:41:13.000Z</time>
      </trkpt>
      <trkpt lat="44.5869" lon="0.11188">
        <ele>85.9</ele>
        <time>2011-11-02T15:41:28.000Z</time>
      </trkpt>
      <trkpt lat="44.58684" lon="0.11227">
        <ele>86.8</ele>
        <time>2011-11-02T15:41:44.000Z</time>
      </trkpt>
      <trkpt lat="44.58682" lon="0.11267">
        <ele>87.2</ele>
        <time>2011-11-02T15:41:59.000Z</time>
      </trkpt>
      <trkpt lat="44.58687" lon="0.11306">
        <ele>88.7</ele>
        <time>2011-11-02T15:42:14.000Z</time>
      </trkpt>
      <trkpt lat="44.58695" lon="0.11343">
        <ele>89.4</ele>
        <time>2011-11-02T15:42:29.000Z</time>
      </trkpt>
      <trkpt lat="44.58701" lon="0.11382">
        <ele>91.7</ele>
        <time>2011-11-02T15:42:45.000Z</time>
      </trkpt>
      <trkpt lat="44.58703" lon="0.1142">
        <ele>97</ele>
        <time>2011-11-02T15:43:01.000Z</time>
      </trkpt>
      <trkpt lat="44.58699" lon="0.11457">
        <ele>95.1</ele>
        <time>2011-11-02T15:43:16.000Z</time>
      </trkpt>
      <trkpt lat="44.58688" lon="0.11495">
        <ele>96.4</ele>
        <time>2011-11-02T15:43:31.000Z</time>
      </trkpt>
      <trkpt lat="44.58672" lon="0.11527">
        <ele>98.2</ele>
        <time>2011-11-02T15:43:46.000Z</time>
      </trkpt>
      <trkpt lat="44.58656" lon="0.11559">
        <ele>103</ele>
        <time>2011-11-02T15:44:00.000Z</time>
      </trkpt>
      <trkpt lat="44.58635" lon="0.11586">
        <ele>101.3</ele>
        <time>2011-11-02T15:44:09.000Z</time>
      </trkpt>
      <trkpt lat="44.58614" lon="0.11614">
        <ele>101.6</ele>
        <time>2011-11-02T15:44:17.000Z</time>
      </trkpt>
      <trkpt lat="44.58596" lon="0.11646">
        <ele>98.9</ele>
        <time>2011-11-02T15:44:24.000Z</time>
      </trkpt>
      <trkpt lat="44.58584" lon="0.11681">
        <ele>96.4</ele>
        <time>2011-11-02T15:44:31.000Z</time>
      </trkpt>
      <trkpt lat="44.5858" lon="0.11719">
        <ele>95.6</ele>
        <time>2011-11-02T15:44:38.000Z</time>
      </trkpt>
      <trkpt lat="44.58579" lon="0.11759">
        <ele>96.1</ele>
        <time>2011-11-02T15:44:45.000Z</time>
      </trkpt>
      <trkpt lat="44.58579" lon="0.11798">
        <ele>94.5</ele>
        <time>2011-11-02T15:44:51.000Z</time>
      </trkpt>
      <trkpt lat="44.58578" lon="0.11838">
        <ele>94</ele>
        <time>2011-11-02T15:44:59.000Z</time>
      </trkpt>
      <trkpt lat="44.58577" lon="0.11878">
        <ele>95.5</ele>
        <time>2011-11-02T15:45:09.000Z</time>
      </trkpt>
      <trkpt lat="44.58575" lon="0.11918">
        <ele>96.7</ele>
        <time>2011-11-02T15:45:22.000Z</time>
      </trkpt>
      <trkpt lat="44.58573" lon="0.11956">
        <ele>96.7</ele>
        <time>2011-11-02T15:45:36.000Z</time>
      </trkpt>
      <trkpt lat="44.58571" lon="0.11995">
        <ele>97.8</ele>
        <time>2011-11-02T15:45:52.000Z</time>
      </trkpt>
      <trkpt lat="44.58567" lon="0.12034">
        <ele>98.7</ele>
        <time>2011-11-02T15:46:07.000Z</time>
      </trkpt>
      <trkpt lat="44.58556" lon="0.12071">
        <ele>100</ele>
        <time>2011-11-02T15:46:21.000Z</time>
      </trkpt>
      <trkpt lat="44.58533" lon="0.1209">
        <ele>101.4</ele>
        <time>2011-11-02T15:46:33.000Z</time>
      </trkpt>
      <trkpt lat="44.58505" lon="0.12101">
        <ele>104</ele>
        <time>2011-11-02T15:46:46.000Z</time>
      </trkpt>
      <trkpt lat="44.58478" lon="0.12111">
        <ele>102</ele>
        <time>2011-11-02T15:47:01.000Z</time>
      </trkpt>
      <trkpt lat="44.5845" lon="0.12124">
        <ele>105.5</ele>
        <time>2011-11-02T15:47:15.000Z</time>
      </trkpt>
      <trkpt lat="44.58423" lon="0.12128">
        <ele>106.9</ele>
        <time>2011-11-02T15:47:31.000Z</time>
      </trkpt>
      <trkpt lat="44.58397" lon="0.12109">
        <ele>108.6</ele>
        <time>2011-11-02T15:47:48.000Z</time>
      </trkpt>
      <trkpt lat="44.58372" lon="0.12091">
        <ele>114.2</ele>
        <time>2011-11-02T15:48:03.000Z</time>
      </trkpt>
      <trkpt lat="44.58347" lon="0.12068">
        <ele>114.3</ele>
        <time>2011-11-02T15:48:16.000Z</time>
      </trkpt>
      <trkpt lat="44.58323" lon="0.12049">
        <ele>118.8</ele>
        <time>2011-11-02T15:48:28.000Z</time>
      </trkpt>
      <trkpt lat="44.58298" lon="0.12028">
        <ele>119.1</ele>
        <time>2011-11-02T15:48:37.000Z</time>
      </trkpt>
      <trkpt lat="44.58273" lon="0.12007">
        <ele>115.8</ele>
        <time>2011-11-02T15:48:44.000Z</time>
      </trkpt>
      <trkpt lat="44.58248" lon="0.11986">
        <ele>114.8</ele>
        <time>2011-11-02T15:48:50.000Z</time>
      </trkpt>
      <trkpt lat="44.58222" lon="0.11962">
        <ele>113.9</ele>
        <time>2011-11-02T15:48:56.000Z</time>
      </trkpt>
      <trkpt lat="44.58198" lon="0.11943">
        <ele>113.8</ele>
        <time>2011-11-02T15:49:01.000Z</time>
      </trkpt>
      <trkpt lat="44.58175" lon="0.11922">
        <ele>114.7</ele>
        <time>2011-11-02T15:49:06.000Z</time>
      </trkpt>
      <trkpt lat="44.58151" lon="0.11902">
        <ele>112.6</ele>
        <time>2011-11-02T15:49:11.000Z</time>
      </trkpt>
      <trkpt lat="44.58122" lon="0.11881">
        <ele>109.4</ele>
        <time>2011-11-02T15:49:17.000Z</time>
      </trkpt>
      <trkpt lat="44.58091" lon="0.1187">
        <ele>106</ele>
        <time>2011-11-02T15:49:23.000Z</time>
      </trkpt>
      <trkpt lat="44.58061" lon="0.11871">
        <ele>103.7</ele>
        <time>2011-11-02T15:49:29.000Z</time>
      </trkpt>
      <trkpt lat="44.58031" lon="0.11877">
        <ele>101.4</ele>
        <time>2011-11-02T15:49:35.000Z</time>
      </trkpt>
      <trkpt lat="44.58002" lon="0.11885">
        <ele>100.9</ele>
        <time>2011-11-02T15:49:41.000Z</time>
      </trkpt>
      <trkpt lat="44.57972" lon="0.11893">
        <ele>101</ele>
        <time>2011-11-02T15:49:47.000Z</time>
      </trkpt>
      <trkpt lat="44.57942" lon="0.11901">
        <ele>99.6</ele>
        <time>2011-11-02T15:49:54.000Z</time>
      </trkpt>
      <trkpt lat="44.57912" lon="0.11909">
        <ele>98.7</ele>
        <time>2011-11-02T15:50:01.000Z</time>
      </trkpt>
      <trkpt lat="44.57884" lon="0.11915">
        <ele>101.4</ele>
        <time>2011-11-02T15:50:07.000Z</time>
      </trkpt>
      <trkpt lat="44.57855" lon="0.11922">
        <ele>102.5</ele>
        <time>2011-11-02T15:50:13.000Z</time>
      </trkpt>
      <trkpt lat="44.57825" lon="0.11926">
        <ele>105.3</ele>
        <time>2011-11-02T15:50:19.000Z</time>
      </trkpt>
      <trkpt lat="44.57797" lon="0.11932">
        <ele>107.7</ele>
        <time>2011-11-02T15:50:25.000Z</time>
      </trkpt>
      <trkpt lat="44.57769" lon="0.11942">
        <ele>107.6</ele>
        <time>2011-11-02T15:50:31.000Z</time>
      </trkpt>
      <trkpt lat="44.57741" lon="0.11949">
        <ele>106.5</ele>
        <time>2011-11-02T15:50:37.000Z</time>
      </trkpt>
      <trkpt lat="44.5771" lon="0.11955">
        <ele>106.9</ele>
        <time>2011-11-02T15:50:44.000Z</time>
      </trkpt>
      <trkpt lat="44.57683" lon="0.11961">
        <ele>109.2</ele>
        <time>2011-11-02T15:50:50.000Z</time>
      </trkpt>
      <trkpt lat="44.57654" lon="0.11966">
        <ele>107.7</ele>
        <time>2011-11-02T15:50:57.000Z</time>
      </trkpt>
      <trkpt lat="44.57626" lon="0.11974">
        <ele>106.4</ele>
        <time>2011-11-02T15:51:03.000Z</time>
      </trkpt>
      <trkpt lat="44.57599" lon="0.11982">
        <ele>103.3</ele>
        <time>2011-11-02T15:51:09.000Z</time>
      </trkpt>
      <trkpt lat="44.57571" lon="0.11977">
        <ele>104.2</ele>
        <time>2011-11-02T15:51:16.000Z</time>
      </trkpt>
      <trkpt lat="44.57544" lon="0.11969">
        <ele>104.4</ele>
        <time>2011-11-02T15:51:22.000Z</time>
      </trkpt>
      <trkpt lat="44.57514" lon="0.1196">
        <ele>106.2</ele>
        <time>2011-11-02T15:51:28.000Z</time>
      </trkpt>
      <trkpt lat="44.57486" lon="0.11951">
        <ele>107.3</ele>
        <time>2011-11-02T15:51:33.000Z</time>
      </trkpt>
      <trkpt lat="44.57456" lon="0.1194">
        <ele>107.7</ele>
        <time>2011-11-02T15:51:39.000Z</time>
      </trkpt>
      <trkpt lat="44.57423" lon="0.11929">
        <ele>104</ele>
        <time>2011-11-02T15:51:44.000Z</time>
      </trkpt>
      <trkpt lat="44.57393" lon="0.11918">
        <ele>101.9</ele>
        <time>2011-11-02T15:51:49.000Z</time>
      </trkpt>
      <trkpt lat="44.57361" lon="0.11906">
        <ele>101.1</ele>
        <time>2011-11-02T15:51:54.000Z</time>
      </trkpt>
      <trkpt lat="44.57329" lon="0.1189">
        <ele>100.5</ele>
        <time>2011-11-02T15:51:59.000Z</time>
      </trkpt>
      <trkpt lat="44.57298" lon="0.11874">
        <ele>100.5</ele>
        <time>2011-11-02T15:52:04.000Z</time>
      </trkpt>
      <trkpt lat="44.57267" lon="0.11858">
        <ele>100.6</ele>
        <time>2011-11-02T15:52:09.000Z</time>
      </trkpt>
      <trkpt lat="44.57239" lon="0.11843">
        <ele>100.4</ele>
        <time>2011-11-02T15:52:14.000Z</time>
      </trkpt>
      <trkpt lat="44.57214" lon="0.11831">
        <ele>99.9</ele>
        <time>2011-11-02T15:52:20.000Z</time>
      </trkpt>
      <trkpt lat="44.57188" lon="0.11817">
        <ele>99.4</ele>
        <time>2011-11-02T15:52:27.000Z</time>
      </trkpt>
      <trkpt lat="44.57163" lon="0.11804">
        <ele>102.5</ele>
        <time>2011-11-02T15:52:36.000Z</time>
      </trkpt>
      <trkpt lat="44.57135" lon="0.11786">
        <ele>103.9</ele>
        <time>2011-11-02T15:52:45.000Z</time>
      </trkpt>
      <trkpt lat="44.57107" lon="0.11765">
        <ele>108.6</ele>
        <time>2011-11-02T15:52:53.000Z</time>
      </trkpt>
      <trkpt lat="44.57079" lon="0.11749">
        <ele>108.9</ele>
        <time>2011-11-02T15:52:58.000Z</time>
      </trkpt>
      <trkpt lat="44.57046" lon="0.11734">
        <ele>108</ele>
        <time>2011-11-02T15:53:02.000Z</time>
      </trkpt>
      <trkpt lat="44.5702" lon="0.11722">
        <ele>106.2</ele>
        <time>2011-11-02T15:53:05.000Z</time>
      </trkpt>
      <trkpt lat="44.56994" lon="0.11709">
        <ele>104.3</ele>
        <time>2011-11-02T15:53:08.000Z</time>
      </trkpt>
      <trkpt lat="44.56963" lon="0.11695">
        <ele>100.5</ele>
        <time>2011-11-02T15:53:11.000Z</time>
      </trkpt>
      <trkpt lat="44.56934" lon="0.11682">
        <ele>97.5</ele>
        <time>2011-11-02T15:53:14.000Z</time>
      </trkpt>
      <trkpt lat="44.569" lon="0.11665">
        <ele>96.3</ele>
        <time>2011-11-02T15:53:18.000Z</time>
      </trkpt>
      <trkpt lat="44.56867" lon="0.11649">
        <ele>94.4</ele>
        <time>2011-11-02T15:53:22.000Z</time>
      </trkpt>
      <trkpt lat="44.56833" lon="0.11633">
        <ele>91.7</ele>
        <time>2011-11-02T15:53:26.000Z</time>
      </trkpt>
      <trkpt lat="44.56801" lon="0.11624">
        <ele>89.6</ele>
        <time>2011-11-02T15:53:30.000Z</time>
      </trkpt>
      <trkpt lat="44.56769" lon="0.11618">
        <ele>88</ele>
        <time>2011-11-02T15:53:34.000Z</time>
      </trkpt>
      <trkpt lat="44.56739" lon="0.11612">
        <ele>87.2</ele>
        <time>2011-11-02T15:53:38.000Z</time>
      </trkpt>
      <trkpt lat="44.5671" lon="0.11608">
        <ele>86.3</ele>
        <time>2011-11-02T15:53:42.000Z</time>
      </trkpt>
      <trkpt lat="44.56682" lon="0.11604">
        <ele>85</ele>
        <time>2011-11-02T15:53:46.000Z</time>
      </trkpt>
      <trkpt lat="44.56652" lon="0.11601">
        <ele>83.6</ele>
        <time>2011-11-02T15:53:50.000Z</time>
      </trkpt>
      <trkpt lat="44.56621" lon="0.11596">
        <ele>81.7</ele>
        <time>2011-11-02T15:53:54.000Z</time>
      </trkpt>
      <trkpt lat="44.56589" lon="0.11592">
        <ele>79.9</ele>
        <time>2011-11-02T15:53:58.000Z</time>
      </trkpt>
      <trkpt lat="44.56556" lon="0.11587">
        <ele>77.9</ele>
        <time>2011-11-02T15:54:02.000Z</time>
      </trkpt>
      <trkpt lat="44.56522" lon="0.11583">
        <ele>76.2</ele>
        <time>2011-11-02T15:54:06.000Z</time>
      </trkpt>
      <trkpt lat="44.56494" lon="0.11579">
        <ele>74.8</ele>
        <time>2011-11-02T15:54:09.000Z</time>
      </trkpt>
      <trkpt lat="44.56466" lon="0.11576">
        <ele>72.3</ele>
        <time>2011-11-02T15:54:12.000Z</time>
      </trkpt>
      <trkpt lat="44.56437" lon="0.11572">
        <ele>70.5</ele>
        <time>2011-11-02T15:54:15.000Z</time>
      </trkpt>
      <trkpt lat="44.56406" lon="0.11568">
        <ele>69.3</ele>
        <time>2011-11-02T15:54:18.000Z</time>
      </trkpt>
      <trkpt lat="44.56377" lon="0.11564">
        <ele>67.3</ele>
        <time>2011-11-02T15:54:21.000Z</time>
      </trkpt>
      <trkpt lat="44.56347" lon="0.11561">
        <ele>65.1</ele>
        <time>2011-11-02T15:54:24.000Z</time>
      </trkpt>
      <trkpt lat="44.56316" lon="0.11557">
        <ele>62.9</ele>
        <time>2011-11-02T15:54:27.000Z</time>
      </trkpt>
      <trkpt lat="44.56285" lon="0.11553">
        <ele>61.3</ele>
        <time>2011-11-02T15:54:30.000Z</time>
      </trkpt>
      <trkpt lat="44.56255" lon="0.1155">
        <ele>60.6</ele>
        <time>2011-11-02T15:54:33.000Z</time>
      </trkpt>
      <trkpt lat="44.56226" lon="0.11546">
        <ele>59.7</ele>
        <time>2011-11-02T15:54:36.000Z</time>
      </trkpt>
      <trkpt lat="44.56198" lon="0.11543">
        <ele>59</ele>
        <time>2011-11-02T15:54:39.000Z</time>
      </trkpt>
      <trkpt lat="44.56171" lon="0.11536">
        <ele>57.9</ele>
        <time>2011-11-02T15:54:42.000Z</time>
      </trkpt>
      <trkpt lat="44.56138" lon="0.11524">
        <ele>56.9</ele>
        <time>2011-11-02T15:54:46.000Z</time>
      </trkpt>
      <trkpt lat="44.56107" lon="0.11507">
        <ele>55.8</ele>
        <time>2011-11-02T15:54:50.000Z</time>
      </trkpt>
      <trkpt lat="44.56078" lon="0.11491">
        <ele>54.6</ele>
        <time>2011-11-02T15:54:54.000Z</time>
      </trkpt>
      <trkpt lat="44.56045" lon="0.11484">
        <ele>53.1</ele>
        <time>2011-11-02T15:54:58.000Z</time>
      </trkpt>
      <trkpt lat="44.56018" lon="0.1149">
        <ele>51.6</ele>
        <time>2011-11-02T15:55:01.000Z</time>
      </trkpt>
      <trkpt lat="44.55985" lon="0.11504">
        <ele>49.8</ele>
        <time>2011-11-02T15:55:05.000Z</time>
      </trkpt>
      <trkpt lat="44.55959" lon="0.11512">
        <ele>48.2</ele>
        <time>2011-11-02T15:55:08.000Z</time>
      </trkpt>
      <trkpt lat="44.55931" lon="0.11508">
        <ele>46.4</ele>
        <time>2011-11-02T15:55:11.000Z</time>
      </trkpt>
      <trkpt lat="44.55904" lon="0.11496">
        <ele>46.1</ele>
        <time>2011-11-02T15:55:14.000Z</time>
      </trkpt>
      <trkpt lat="44.55875" lon="0.11489">
        <ele>45.8</ele>
        <time>2011-11-02T15:55:17.000Z</time>
      </trkpt>
      <trkpt lat="44.55844" lon="0.11496">
        <ele>44.5</ele>
        <time>2011-11-02T15:55:20.000Z</time>
      </trkpt>
      <trkpt lat="44.55815" lon="0.11513">
        <ele>43.2</ele>
        <time>2011-11-02T15:55:23.000Z</time>
      </trkpt>
      <trkpt lat="44.55786" lon="0.11532">
        <ele>40.9</ele>
        <time>2011-11-02T15:55:26.000Z</time>
      </trkpt>
      <trkpt lat="44.55761" lon="0.11548">
        <ele>40.1</ele>
        <time>2011-11-02T15:55:29.000Z</time>
      </trkpt>
      <trkpt lat="44.55739" lon="0.11571">
        <ele>38</ele>
        <time>2011-11-02T15:55:49.000Z</time>
      </trkpt>
      <trkpt lat="44.55749" lon="0.11609">
        <ele>39.8</ele>
        <time>2011-11-02T15:55:56.000Z</time>
      </trkpt>
      <trkpt lat="44.5576" lon="0.11644">
        <ele>41</ele>
        <time>2011-11-02T15:56:00.000Z</time>
      </trkpt>
      <trkpt lat="44.55771" lon="0.11684">
        <ele>39.3</ele>
        <time>2011-11-02T15:56:04.000Z</time>
      </trkpt>
      <trkpt lat="44.55782" lon="0.11727">
        <ele>37.5</ele>
        <time>2011-11-02T15:56:08.000Z</time>
      </trkpt>
      <trkpt lat="44.55793" lon="0.11773">
        <ele>34.8</ele>
        <time>2011-11-02T15:56:12.000Z</time>
      </trkpt>
      <trkpt lat="44.55804" lon="0.11819">
        <ele>32.5</ele>
        <time>2011-11-02T15:56:16.000Z</time>
      </trkpt>
      <trkpt lat="44.55816" lon="0.11865">
        <ele>31.2</ele>
        <time>2011-11-02T15:56:20.000Z</time>
      </trkpt>
      <trkpt lat="44.55818" lon="0.11912">
        <ele>30.2</ele>
        <time>2011-11-02T15:56:24.000Z</time>
      </trkpt>
      <trkpt lat="44.55812" lon="0.11956">
        <ele>29.5</ele>
        <time>2011-11-02T15:56:28.000Z</time>
      </trkpt>
      <trkpt lat="44.55801" lon="0.11997">
        <ele>28.9</ele>
        <time>2011-11-02T15:56:32.000Z</time>
      </trkpt>
      <trkpt lat="44.55792" lon="0.12033">
        <ele>27.8</ele>
        <time>2011-11-02T15:56:36.000Z</time>
      </trkpt>
      <trkpt lat="44.55782" lon="0.12073">
        <ele>27</ele>
        <time>2011-11-02T15:56:41.000Z</time>
      </trkpt>
      <trkpt lat="44.55772" lon="0.12109">
        <ele>26.8</ele>
        <time>2011-11-02T15:56:46.000Z</time>
      </trkpt>
      <trkpt lat="44.55763" lon="0.12148">
        <ele>25.9</ele>
        <time>2011-11-02T15:56:52.000Z</time>
      </trkpt>
      <trkpt lat="44.55753" lon="0.12183">
        <ele>25.4</ele>
        <time>2011-11-02T15:56:58.000Z</time>
      </trkpt>
      <trkpt lat="44.55743" lon="0.12222">
        <ele>25.1</ele>
        <time>2011-11-02T15:57:05.000Z</time>
      </trkpt>
      <trkpt lat="44.55733" lon="0.1226">
        <ele>24.6</ele>
        <time>2011-11-02T15:57:12.000Z</time>
      </trkpt>
      <trkpt lat="44.55723" lon="0.12299">
        <ele>24.6</ele>
        <time>2011-11-02T15:57:19.000Z</time>
      </trkpt>
      <trkpt lat="44.55714" lon="0.12336">
        <ele>24.7</ele>
        <time>2011-11-02T15:57:26.000Z</time>
      </trkpt>
      <trkpt lat="44.55707" lon="0.12374">
        <ele>25.4</ele>
        <time>2011-11-02T15:57:33.000Z</time>
      </trkpt>
      <trkpt lat="44.55706" lon="0.12414">
        <ele>25.5</ele>
        <time>2011-11-02T15:57:40.000Z</time>
      </trkpt>
      <trkpt lat="44.5571" lon="0.12455">
        <ele>25.6</ele>
        <time>2011-11-02T15:57:47.000Z</time>
      </trkpt>
      <trkpt lat="44.55714" lon="0.12497">
        <ele>26.5</ele>
        <time>2011-11-02T15:57:55.000Z</time>
      </trkpt>
      <trkpt lat="44.55719" lon="0.12537">
        <ele>25.4</ele>
        <time>2011-11-02T16:08:01.000Z</time>
      </trkpt>
      <trkpt lat="44.55724" lon="0.12576">
        <ele>24.5</ele>
        <time>2011-11-02T16:08:11.000Z</time>
      </trkpt>
      <trkpt lat="44.55729" lon="0.12617">
        <ele>24.2</ele>
        <time>2011-11-02T16:08:19.000Z</time>
      </trkpt>
      <trkpt lat="44.55734" lon="0.12658">
        <ele>24</ele>
        <time>2011-11-02T16:08:26.000Z</time>
      </trkpt>
      <trkpt lat="44.55739" lon="0.12701">
        <ele>24</ele>
        <time>2011-11-02T16:08:33.000Z</time>
      </trkpt>
      <trkpt lat="44.55744" lon="0.12739">
        <ele>24.3</ele>
        <time>2011-11-02T16:08:39.000Z</time>
      </trkpt>
      <trkpt lat="44.55748" lon="0.1278">
        <ele>24.1</ele>
        <time>2011-11-02T16:08:45.000Z</time>
      </trkpt>
      <trkpt lat="44.55753" lon="0.12823">
        <ele>24</ele>
        <time>2011-11-02T16:08:51.000Z</time>
      </trkpt>
      <trkpt lat="44.55759" lon="0.12865">
        <ele>23.6</ele>
        <time>2011-11-02T16:08:57.000Z</time>
      </trkpt>
      <trkpt lat="44.55765" lon="0.12908">
        <ele>23</ele>
        <time>2011-11-02T16:09:03.000Z</time>
      </trkpt>
      <trkpt lat="44.55769" lon="0.12946">
        <ele>22.8</ele>
        <time>2011-11-02T16:09:08.000Z</time>
      </trkpt>
      <trkpt lat="44.55774" lon="0.12984">
        <ele>23.7</ele>
        <time>2011-11-02T16:09:13.000Z</time>
      </trkpt>
      <trkpt lat="44.55779" lon="0.13024">
        <ele>23.8</ele>
        <time>2011-11-02T16:09:18.000Z</time>
      </trkpt>
      <trkpt lat="44.55785" lon="0.13064">
        <ele>23.5</ele>
        <time>2011-11-02T16:09:23.000Z</time>
      </trkpt>
      <trkpt lat="44.55791" lon="0.13102">
        <ele>23.9</ele>
        <time>2011-11-02T16:09:28.000Z</time>
      </trkpt>
      <trkpt lat="44.55796" lon="0.13146">
        <ele>24</ele>
        <time>2011-11-02T16:09:34.000Z</time>
      </trkpt>
      <trkpt lat="44.55801" lon="0.13188">
        <ele>24.6</ele>
        <time>2011-11-02T16:09:40.000Z</time>
      </trkpt>
      <trkpt lat="44.55805" lon="0.13228">
        <ele>24.9</ele>
        <time>2011-11-02T16:09:46.000Z</time>
      </trkpt>
      <trkpt lat="44.55809" lon="0.13266">
        <ele>25.3</ele>
        <time>2011-11-02T16:09:53.000Z</time>
      </trkpt>
      <trkpt lat="44.55805" lon="0.13303">
        <ele>26.7</ele>
        <time>2011-11-02T16:10:02.000Z</time>
      </trkpt>
      <trkpt lat="44.55815" lon="0.13341">
        <ele>30.1</ele>
        <time>2011-11-02T16:10:17.000Z</time>
      </trkpt>
      <trkpt lat="44.55817" lon="0.1338">
        <ele>33.4</ele>
        <time>2011-11-02T16:10:30.000Z</time>
      </trkpt>
      <trkpt lat="44.55815" lon="0.1342">
        <ele>35</ele>
        <time>2011-11-02T16:10:43.000Z</time>
      </trkpt>
      <trkpt lat="44.55815" lon="0.13459">
        <ele>38</ele>
        <time>2011-11-02T16:10:58.000Z</time>
      </trkpt>
      <trkpt lat="44.55821" lon="0.13419">
        <ele>36.9</ele>
        <time>2011-11-02T16:11:11.000Z</time>
      </trkpt>
      <trkpt lat="44.55822" lon="0.13377">
        <ele>35.6</ele>
        <time>2011-11-02T16:11:18.000Z</time>
      </trkpt>
      <trkpt lat="44.55821" lon="0.13337">
        <ele>35.5</ele>
        <time>2011-11-02T16:11:28.000Z</time>
      </trkpt>
      <trkpt lat="44.55814" lon="0.133">
        <ele>36.6</ele>
        <time>2011-11-02T16:11:38.000Z</time>
      </trkpt>
      <trkpt lat="44.55783" lon="0.13306">
        <ele>36.4</ele>
        <time>2011-11-02T16:11:46.000Z</time>
      </trkpt>
      <trkpt lat="44.55751" lon="0.13302">
        <ele>36.5</ele>
        <time>2011-11-02T16:11:53.000Z</time>
      </trkpt>
      <trkpt lat="44.55724" lon="0.13296">
        <ele>34.9</ele>
        <time>2011-11-02T16:11:59.000Z</time>
      </trkpt>
      <trkpt lat="44.55695" lon="0.1329">
        <ele>33.8</ele>
        <time>2011-11-02T16:12:05.000Z</time>
      </trkpt>
      <trkpt lat="44.55666" lon="0.13286">
        <ele>31.4</ele>
        <time>2011-11-02T16:12:11.000Z</time>
      </trkpt>
      <trkpt lat="44.55637" lon="0.13283">
        <ele>30.6</ele>
        <time>2011-11-02T16:12:17.000Z</time>
      </trkpt>
      <trkpt lat="44.55608" lon="0.1329">
        <ele>30.5</ele>
        <time>2011-11-02T16:12:23.000Z</time>
      </trkpt>
      <trkpt lat="44.5558" lon="0.13302">
        <ele>29.9</ele>
        <time>2011-11-02T16:12:29.000Z</time>
      </trkpt>
      <trkpt lat="44.55553" lon="0.13314">
        <ele>30</ele>
        <time>2011-11-02T16:12:35.000Z</time>
      </trkpt>
      <trkpt lat="44.55525" lon="0.1333">
        <ele>30.9</ele>
        <time>2011-11-02T16:12:42.000Z</time>
      </trkpt>
      <trkpt lat="44.55497" lon="0.13343">
        <ele>30.5</ele>
        <time>2011-11-02T16:12:49.000Z</time>
      </trkpt>
      <trkpt lat="44.55469" lon="0.13355">
        <ele>31</ele>
        <time>2011-11-02T16:12:56.000Z</time>
      </trkpt>
      <trkpt lat="44.55441" lon="0.13366">
        <ele>30.2</ele>
        <time>2011-11-02T16:13:03.000Z</time>
      </trkpt>
      <trkpt lat="44.55415" lon="0.13377">
        <ele>30.7</ele>
        <time>2011-11-02T16:13:10.000Z</time>
      </trkpt>
      <trkpt lat="44.55388" lon="0.1339">
        <ele>32.4</ele>
        <time>2011-11-02T16:13:20.000Z</time>
      </trkpt>
      <trkpt lat="44.55359" lon="0.13401">
        <ele>32.2</ele>
        <time>2011-11-02T16:13:30.000Z</time>
      </trkpt>
      <trkpt lat="44.55334" lon="0.13415">
        <ele>33.4</ele>
        <time>2011-11-02T16:13:40.000Z</time>
      </trkpt>
      <trkpt lat="44.55308" lon="0.13428">
        <ele>34.6</ele>
        <time>2011-11-02T16:13:51.000Z</time>
      </trkpt>
      <trkpt lat="44.5528" lon="0.1344">
        <ele>36.5</ele>
        <time>2011-11-02T16:14:03.000Z</time>
      </trkpt>
      <trkpt lat="44.55254" lon="0.13449">
        <ele>37.6</ele>
        <time>2011-11-02T16:14:18.000Z</time>
      </trkpt>
      <trkpt lat="44.55227" lon="0.13461">
        <ele>37.3</ele>
        <time>2011-11-02T16:14:31.000Z</time>
      </trkpt>
      <trkpt lat="44.55201" lon="0.13474">
        <ele>38.5</ele>
        <time>2011-11-02T16:14:45.000Z</time>
      </trkpt>
      <trkpt lat="44.55174" lon="0.13484">
        <ele>41.6</ele>
        <time>2011-11-02T16:15:00.000Z</time>
      </trkpt>
      <trkpt lat="44.55146" lon="0.13493">
        <ele>39.5</ele>
        <time>2011-11-02T16:15:15.000Z</time>
      </trkpt>
      <trkpt lat="44.55119" lon="0.13502">
        <ele>40.4</ele>
        <time>2011-11-02T16:15:29.000Z</time>
      </trkpt>
      <trkpt lat="44.55094" lon="0.13521">
        <ele>42.2</ele>
        <time>2011-11-02T16:15:44.000Z</time>
      </trkpt>
      <trkpt lat="44.55076" lon="0.13549">
        <ele>50.2</ele>
        <time>2011-11-02T16:16:03.000Z</time>
      </trkpt>
      <trkpt lat="44.5505" lon="0.13559">
        <ele>46.8</ele>
        <time>2011-11-02T16:16:18.000Z</time>
      </trkpt>
      <trkpt lat="44.55021" lon="0.13559">
        <ele>44</ele>
        <time>2011-11-02T16:16:33.000Z</time>
      </trkpt>
      <trkpt lat="44.54993" lon="0.13561">
        <ele>45</ele>
        <time>2011-11-02T16:16:48.000Z</time>
      </trkpt>
      <trkpt lat="44.54966" lon="0.13571">
        <ele>46.4</ele>
        <time>2011-11-02T16:17:02.000Z</time>
      </trkpt>
      <trkpt lat="44.54939" lon="0.13584">
        <ele>48.7</ele>
        <time>2011-11-02T16:17:15.000Z</time>
      </trkpt>
      <trkpt lat="44.54913" lon="0.13597">
        <ele>51.9</ele>
        <time>2011-11-02T16:17:28.000Z</time>
      </trkpt>
      <trkpt lat="44.54887" lon="0.13611">
        <ele>54.4</ele>
        <time>2011-11-02T16:17:40.000Z</time>
      </trkpt>
      <trkpt lat="44.54859" lon="0.1362">
        <ele>54.9</ele>
        <time>2011-11-02T16:17:53.000Z</time>
      </trkpt>
      <trkpt lat="44.54831" lon="0.13629">
        <ele>54.1</ele>
        <time>2011-11-02T16:18:07.000Z</time>
      </trkpt>
      <trkpt lat="44.54805" lon="0.1364">
        <ele>55</ele>
        <time>2011-11-02T16:18:18.000Z</time>
      </trkpt>
      <trkpt lat="44.54779" lon="0.13652">
        <ele>52.4</ele>
        <time>2011-11-02T16:18:29.000Z</time>
      </trkpt>
      <trkpt lat="44.54751" lon="0.13663">
        <ele>52</ele>
        <time>2011-11-02T16:18:41.000Z</time>
      </trkpt>
      <trkpt lat="44.54725" lon="0.13674">
        <ele>53.1</ele>
        <time>2011-11-02T16:18:53.000Z</time>
      </trkpt>
      <trkpt lat="44.54697" lon="0.13681">
        <ele>57.5</ele>
        <time>2011-11-02T16:19:06.000Z</time>
      </trkpt>
      <trkpt lat="44.54671" lon="0.13691">
        <ele>55.7</ele>
        <time>2011-11-02T16:19:19.000Z</time>
      </trkpt>
      <trkpt lat="44.54643" lon="0.13702">
        <ele>58.4</ele>
        <time>2011-11-02T16:19:32.000Z</time>
      </trkpt>
      <trkpt lat="44.54617" lon="0.13712">
        <ele>59</ele>
        <time>2011-11-02T16:19:44.000Z</time>
      </trkpt>
      <trkpt lat="44.54591" lon="0.13727">
        <ele>57.6</ele>
        <time>2011-11-02T16:19:56.000Z</time>
      </trkpt>
      <trkpt lat="44.54565" lon="0.13739">
        <ele>58.5</ele>
        <time>2011-11-02T16:20:08.000Z</time>
      </trkpt>
      <trkpt lat="44.54538" lon="0.1375">
        <ele>58.6</ele>
        <time>2011-11-02T16:20:20.000Z</time>
      </trkpt>
      <trkpt lat="44.54511" lon="0.13761">
        <ele>59.1</ele>
        <time>2011-11-02T16:20:33.000Z</time>
      </trkpt>
      <trkpt lat="44.54484" lon="0.13771">
        <ele>61.1</ele>
        <time>2011-11-02T16:20:45.000Z</time>
      </trkpt>
      <trkpt lat="44.54459" lon="0.13787">
        <ele>62.9</ele>
        <time>2011-11-02T16:20:56.000Z</time>
      </trkpt>
      <trkpt lat="44.54432" lon="0.138">
        <ele>65</ele>
        <time>2011-11-02T16:21:08.000Z</time>
      </trkpt>
      <trkpt lat="44.54405" lon="0.13811">
        <ele>65.9</ele>
        <time>2011-11-02T16:21:20.000Z</time>
      </trkpt>
      <trkpt lat="44.54377" lon="0.13822">
        <ele>65.7</ele>
        <time>2011-11-02T16:21:33.000Z</time>
      </trkpt>
      <trkpt lat="44.5435" lon="0.13832">
        <ele>68.2</ele>
        <time>2011-11-02T16:21:45.000Z</time>
      </trkpt>
      <trkpt lat="44.54321" lon="0.13841">
        <ele>67.3</ele>
        <time>2011-11-02T16:21:58.000Z</time>
      </trkpt>
      <trkpt lat="44.54295" lon="0.13853">
        <ele>69.1</ele>
        <time>2011-11-02T16:22:09.000Z</time>
      </trkpt>
      <trkpt lat="44.54269" lon="0.13865">
        <ele>69.6</ele>
        <time>2011-11-02T16:22:21.000Z</time>
      </trkpt>
      <trkpt lat="44.54243" lon="0.13877">
        <ele>65.2</ele>
        <time>2011-11-02T16:22:34.000Z</time>
      </trkpt>
      <trkpt lat="44.54216" lon="0.13888">
        <ele>65.6</ele>
        <time>2011-11-02T16:22:46.000Z</time>
      </trkpt>
      <trkpt lat="44.5419" lon="0.139">
        <ele>67.5</ele>
        <time>2011-11-02T16:22:58.000Z</time>
      </trkpt>
      <trkpt lat="44.54163" lon="0.13913">
        <ele>70.6</ele>
        <time>2011-11-02T16:23:10.000Z</time>
      </trkpt>
      <trkpt lat="44.54135" lon="0.13924">
        <ele>71.7</ele>
        <time>2011-11-02T16:23:23.000Z</time>
      </trkpt>
      <trkpt lat="44.54108" lon="0.13935">
        <ele>71.7</ele>
        <time>2011-11-02T16:23:35.000Z</time>
      </trkpt>
      <trkpt lat="44.54083" lon="0.13946">
        <ele>73.7</ele>
        <time>2011-11-02T16:23:47.000Z</time>
      </trkpt>
      <trkpt lat="44.54055" lon="0.13958">
        <ele>72.3</ele>
        <time>2011-11-02T16:24:00.000Z</time>
      </trkpt>
      <trkpt lat="44.54029" lon="0.1397">
        <ele>72.5</ele>
        <time>2011-11-02T16:24:12.000Z</time>
      </trkpt>
      <trkpt lat="44.54002" lon="0.13982">
        <ele>69.3</ele>
        <time>2011-11-02T16:24:24.000Z</time>
      </trkpt>
      <trkpt lat="44.53977" lon="0.13999">
        <ele>68.8</ele>
        <time>2011-11-02T16:24:36.000Z</time>
      </trkpt>
      <trkpt lat="44.53952" lon="0.14019">
        <ele>72.2</ele>
        <time>2011-11-02T16:24:49.000Z</time>
      </trkpt>
      <trkpt lat="44.5393" lon="0.14043">
        <ele>78.8</ele>
        <time>2011-11-02T16:25:00.000Z</time>
      </trkpt>
      <trkpt lat="44.53907" lon="0.14067">
        <ele>82.8</ele>
        <time>2011-11-02T16:25:11.000Z</time>
      </trkpt>
      <trkpt lat="44.53885" lon="0.14091">
        <ele>84.5</ele>
        <time>2011-11-02T16:25:22.000Z</time>
      </trkpt>
      <trkpt lat="44.53865" lon="0.1412">
        <ele>84.4</ele>
        <time>2011-11-02T16:25:32.000Z</time>
      </trkpt>
      <trkpt lat="44.53848" lon="0.14152">
        <ele>84.1</ele>
        <time>2011-11-02T16:25:42.000Z</time>
      </trkpt>
      <trkpt lat="44.5383" lon="0.14181">
        <ele>86.7</ele>
        <time>2011-11-02T16:25:50.000Z</time>
      </trkpt>
      <trkpt lat="44.5381" lon="0.1421">
        <ele>87.5</ele>
        <time>2011-11-02T16:25:58.000Z</time>
      </trkpt>
      <trkpt lat="44.53791" lon="0.14238">
        <ele>88.5</ele>
        <time>2011-11-02T16:26:05.000Z</time>
      </trkpt>
      <trkpt lat="44.53774" lon="0.14266">
        <ele>88.4</ele>
        <time>2011-11-02T16:26:12.000Z</time>
      </trkpt>
      <trkpt lat="44.53754" lon="0.14297">
        <ele>88.4</ele>
        <time>2011-11-02T16:26:20.000Z</time>
      </trkpt>
      <trkpt lat="44.53735" lon="0.14329">
        <ele>89.8</ele>
        <time>2011-11-02T16:26:29.000Z</time>
      </trkpt>
      <trkpt lat="44.53715" lon="0.1436">
        <ele>89.2</ele>
        <time>2011-11-02T16:26:38.000Z</time>
      </trkpt>
      <trkpt lat="44.53695" lon="0.14386">
        <ele>87.9</ele>
        <time>2011-11-02T16:26:46.000Z</time>
      </trkpt>
      <trkpt lat="44.53683" lon="0.1442">
        <ele>89.6</ele>
        <time>2011-11-02T16:26:55.000Z</time>
      </trkpt>
      <trkpt lat="44.53673" lon="0.14458">
        <ele>89.9</ele>
        <time>2011-11-02T16:27:04.000Z</time>
      </trkpt>
      <trkpt lat="44.53663" lon="0.14493">
        <ele>86.5</ele>
        <time>2011-11-02T16:27:12.000Z</time>
      </trkpt>
      <trkpt lat="44.53655" lon="0.14531">
        <ele>88.9</ele>
        <time>2011-11-02T16:27:21.000Z</time>
      </trkpt>
      <trkpt lat="44.53647" lon="0.14569">
        <ele>89.4</ele>
        <time>2011-11-02T16:27:30.000Z</time>
      </trkpt>
      <trkpt lat="44.53639" lon="0.14605">
        <ele>88.6</ele>
        <time>2011-11-02T16:27:38.000Z</time>
      </trkpt>
      <trkpt lat="44.53625" lon="0.14642">
        <ele>88</ele>
        <time>2011-11-02T16:27:47.000Z</time>
      </trkpt>
      <trkpt lat="44.53613" lon="0.14675">
        <ele>86.5</ele>
        <time>2011-11-02T16:27:55.000Z</time>
      </trkpt>
      <trkpt lat="44.53605" lon="0.14712">
        <ele>88.8</ele>
        <time>2011-11-02T16:28:04.000Z</time>
      </trkpt>
      <trkpt lat="44.53593" lon="0.14749">
        <ele>92.3</ele>
        <time>2011-11-02T16:28:14.000Z</time>
      </trkpt>
      <trkpt lat="44.53581" lon="0.14783">
        <ele>100.1</ele>
        <time>2011-11-02T16:28:24.000Z</time>
      </trkpt>
      <trkpt lat="44.53562" lon="0.1481">
        <ele>98.7</ele>
        <time>2011-11-02T16:28:33.000Z</time>
      </trkpt>
      <trkpt lat="44.53545" lon="0.1484">
        <ele>97.5</ele>
        <time>2011-11-02T16:28:42.000Z</time>
      </trkpt>
      <trkpt lat="44.53529" lon="0.14875">
        <ele>96.2</ele>
        <time>2011-11-02T16:28:49.000Z</time>
      </trkpt>
      <trkpt lat="44.53519" lon="0.14913">
        <ele>97.1</ele>
        <time>2011-11-02T16:28:55.000Z</time>
      </trkpt>
      <trkpt lat="44.53509" lon="0.14952">
        <ele>94.2</ele>
        <time>2011-11-02T16:29:01.000Z</time>
      </trkpt>
      <trkpt lat="44.535" lon="0.14992">
        <ele>92.4</ele>
        <time>2011-11-02T16:29:08.000Z</time>
      </trkpt>
      <trkpt lat="44.53494" lon="0.1503">
        <ele>93</ele>
        <time>2011-11-02T16:29:16.000Z</time>
      </trkpt>
      <trkpt lat="44.53487" lon="0.15067">
        <ele>94.9</ele>
        <time>2011-11-02T16:29:26.000Z</time>
      </trkpt>
      <trkpt lat="44.53478" lon="0.15103">
        <ele>96.3</ele>
        <time>2011-11-02T16:29:36.000Z</time>
      </trkpt>
      <trkpt lat="44.53468" lon="0.15139">
        <ele>95.3</ele>
        <time>2011-11-02T16:29:45.000Z</time>
      </trkpt>
      <trkpt lat="44.53458" lon="0.15177">
        <ele>93.1</ele>
        <time>2011-11-02T16:29:53.000Z</time>
      </trkpt>
      <trkpt lat="44.53447" lon="0.15214">
        <ele>90.8</ele>
        <time>2011-11-02T16:30:02.000Z</time>
      </trkpt>
      <trkpt lat="44.53438" lon="0.1525">
        <ele>88.7</ele>
        <time>2011-11-02T16:30:09.000Z</time>
      </trkpt>
      <trkpt lat="44.53431" lon="0.1529">
        <ele>87.9</ele>
        <time>2011-11-02T16:30:16.000Z</time>
      </trkpt>
      <trkpt lat="44.53422" lon="0.15329">
        <ele>88.4</ele>
        <time>2011-11-02T16:30:23.000Z</time>
      </trkpt>
      <trkpt lat="44.53411" lon="0.15364">
        <ele>89.6</ele>
        <time>2011-11-02T16:30:29.000Z</time>
      </trkpt>
      <trkpt lat="44.53394" lon="0.15399">
        <ele>90</ele>
        <time>2011-11-02T16:30:34.000Z</time>
      </trkpt>
      <trkpt lat="44.53375" lon="0.15431">
        <ele>90.2</ele>
        <time>2011-11-02T16:30:38.000Z</time>
      </trkpt>
      <trkpt lat="44.53348" lon="0.1546">
        <ele>89.1</ele>
        <time>2011-11-02T16:30:42.000Z</time>
      </trkpt>
      <trkpt lat="44.53319" lon="0.1548">
        <ele>83</ele>
        <time>2011-11-02T16:30:45.000Z</time>
      </trkpt>
      <trkpt lat="44.53288" lon="0.15491">
        <ele>78.2</ele>
        <time>2011-11-02T16:30:48.000Z</time>
      </trkpt>
      <trkpt lat="44.53257" lon="0.155">
        <ele>76.2</ele>
        <time>2011-11-02T16:30:51.000Z</time>
      </trkpt>
      <trkpt lat="44.53227" lon="0.15514">
        <ele>75.1</ele>
        <time>2011-11-02T16:30:54.000Z</time>
      </trkpt>
      <trkpt lat="44.53199" lon="0.15537">
        <ele>73.4</ele>
        <time>2011-11-02T16:30:57.000Z</time>
      </trkpt>
      <trkpt lat="44.53173" lon="0.15564">
        <ele>71.7</ele>
        <time>2011-11-02T16:31:00.000Z</time>
      </trkpt>
      <trkpt lat="44.53146" lon="0.15593">
        <ele>69.7</ele>
        <time>2011-11-02T16:31:03.000Z</time>
      </trkpt>
      <trkpt lat="44.5312" lon="0.15625">
        <ele>67.6</ele>
        <time>2011-11-02T16:31:06.000Z</time>
      </trkpt>
      <trkpt lat="44.53091" lon="0.15658">
        <ele>65.4</ele>
        <time>2011-11-02T16:31:09.000Z</time>
      </trkpt>
      <trkpt lat="44.53062" lon="0.1569">
        <ele>63</ele>
        <time>2011-11-02T16:31:12.000Z</time>
      </trkpt>
      <trkpt lat="44.53031" lon="0.15718">
        <ele>60.3</ele>
        <time>2011-11-02T16:31:15.000Z</time>
      </trkpt>
      <trkpt lat="44.52997" lon="0.15743">
        <ele>55.8</ele>
        <time>2011-11-02T16:31:18.000Z</time>
      </trkpt>
      <trkpt lat="44.52959" lon="0.15761">
        <ele>52.3</ele>
        <time>2011-11-02T16:31:21.000Z</time>
      </trkpt>
      <trkpt lat="44.52932" lon="0.15769">
        <ele>50.6</ele>
        <time>2011-11-02T16:31:23.000Z</time>
      </trkpt>
      <trkpt lat="44.52906" lon="0.15775">
        <ele>49.3</ele>
        <time>2011-11-02T16:31:25.000Z</time>
      </trkpt>
      <trkpt lat="44.52878" lon="0.15776">
        <ele>48.7</ele>
        <time>2011-11-02T16:31:27.000Z</time>
      </trkpt>
      <trkpt lat="44.52851" lon="0.15773">
        <ele>47.3</ele>
        <time>2011-11-02T16:31:29.000Z</time>
      </trkpt>
      <trkpt lat="44.52824" lon="0.15766">
        <ele>44.5</ele>
        <time>2011-11-02T16:31:31.000Z</time>
      </trkpt>
      <trkpt lat="44.52797" lon="0.15755">
        <ele>42.8</ele>
        <time>2011-11-02T16:31:33.000Z</time>
      </trkpt>
      <trkpt lat="44.5277" lon="0.15743">
        <ele>41.1</ele>
        <time>2011-11-02T16:31:35.000Z</time>
      </trkpt>
      <trkpt lat="44.52744" lon="0.15729">
        <ele>39</ele>
        <time>2011-11-02T16:31:37.000Z</time>
      </trkpt>
      <trkpt lat="44.52717" lon="0.15717">
        <ele>37.4</ele>
        <time>2011-11-02T16:31:39.000Z</time>
      </trkpt>
      <trkpt lat="44.52691" lon="0.15704">
        <ele>36.8</ele>
        <time>2011-11-02T16:31:41.000Z</time>
      </trkpt>
      <trkpt lat="44.52665" lon="0.15693">
        <ele>35.8</ele>
        <time>2011-11-02T16:31:43.000Z</time>
      </trkpt>
      <trkpt lat="44.52628" lon="0.15677">
        <ele>33.6</ele>
        <time>2011-11-02T16:31:46.000Z</time>
      </trkpt>
      <trkpt lat="44.52592" lon="0.15663">
        <ele>31.4</ele>
        <time>2011-11-02T16:31:49.000Z</time>
      </trkpt>
      <trkpt lat="44.52557" lon="0.15655">
        <ele>30.2</ele>
        <time>2011-11-02T16:31:52.000Z</time>
      </trkpt>
      <trkpt lat="44.52523" lon="0.15652">
        <ele>29.7</ele>
        <time>2011-11-02T16:31:55.000Z</time>
      </trkpt>
      <trkpt lat="44.52491" lon="0.15653">
        <ele>29.1</ele>
        <time>2011-11-02T16:31:58.000Z</time>
      </trkpt>
      <trkpt lat="44.52461" lon="0.15659">
        <ele>27.9</ele>
        <time>2011-11-02T16:32:01.000Z</time>
      </trkpt>
      <trkpt lat="44.52431" lon="0.15668">
        <ele>27.2</ele>
        <time>2011-11-02T16:32:04.000Z</time>
      </trkpt>
      <trkpt lat="44.52403" lon="0.1568">
        <ele>26.5</ele>
        <time>2011-11-02T16:32:07.000Z</time>
      </trkpt>
      <trkpt lat="44.52375" lon="0.15692">
        <ele>26.2</ele>
        <time>2011-11-02T16:32:10.000Z</time>
      </trkpt>
      <trkpt lat="44.52349" lon="0.15703">
        <ele>25.1</ele>
        <time>2011-11-02T16:32:13.000Z</time>
      </trkpt>
      <trkpt lat="44.52316" lon="0.15716">
        <ele>24.4</ele>
        <time>2011-11-02T16:32:17.000Z</time>
      </trkpt>
      <trkpt lat="44.52284" lon="0.15712">
        <ele>23.5</ele>
        <time>2011-11-02T16:32:21.000Z</time>
      </trkpt>
      <trkpt lat="44.52258" lon="0.15727">
        <ele>21.9</ele>
        <time>2011-11-02T16:32:25.000Z</time>
      </trkpt>
      <trkpt lat="44.5223" lon="0.15739">
        <ele>20.3</ele>
        <time>2011-11-02T16:32:29.000Z</time>
      </trkpt>
      <trkpt lat="44.522" lon="0.15746">
        <ele>20.7</ele>
        <time>2011-11-02T16:32:33.000Z</time>
      </trkpt>
      <trkpt lat="44.52173" lon="0.15756">
        <ele>19.1</ele>
        <time>2011-11-02T16:32:37.000Z</time>
      </trkpt>
      <trkpt lat="44.52145" lon="0.15764">
        <ele>18.5</ele>
        <time>2011-11-02T16:32:41.000Z</time>
      </trkpt>
      <trkpt lat="44.52113" lon="0.15775">
        <ele>18.1</ele>
        <time>2011-11-02T16:32:46.000Z</time>
      </trkpt>
      <trkpt lat="44.5208" lon="0.15782">
        <ele>17.5</ele>
        <time>2011-11-02T16:32:51.000Z</time>
      </trkpt>
      <trkpt lat="44.52049" lon="0.1579">
        <ele>17.7</ele>
        <time>2011-11-02T16:32:56.000Z</time>
      </trkpt>
      <trkpt lat="44.52018" lon="0.15797">
        <ele>17.1</ele>
        <time>2011-11-02T16:33:01.000Z</time>
      </trkpt>
      <trkpt lat="44.51989" lon="0.15804">
        <ele>17.4</ele>
        <time>2011-11-02T16:33:06.000Z</time>
      </trkpt>
      <trkpt lat="44.51959" lon="0.15811">
        <ele>16.4</ele>
        <time>2011-11-02T16:33:11.000Z</time>
      </trkpt>
      <trkpt lat="44.51932" lon="0.15817">
        <ele>16.8</ele>
        <time>2011-11-02T16:33:16.000Z</time>
      </trkpt>
      <trkpt lat="44.51904" lon="0.15821">
        <ele>17.2</ele>
        <time>2011-11-02T16:33:21.000Z</time>
      </trkpt>
      <trkpt lat="44.51875" lon="0.15827">
        <ele>16.9</ele>
        <time>2011-11-02T16:33:26.000Z</time>
      </trkpt>
      <trkpt lat="44.51846" lon="0.15832">
        <ele>17.2</ele>
        <time>2011-11-02T16:33:31.000Z</time>
      </trkpt>
      <trkpt lat="44.51817" lon="0.15836">
        <ele>17.1</ele>
        <time>2011-11-02T16:33:36.000Z</time>
      </trkpt>
      <trkpt lat="44.51788" lon="0.15839">
        <ele>16.6</ele>
        <time>2011-11-02T16:33:41.000Z</time>
      </trkpt>
      <trkpt lat="44.51759" lon="0.15843">
        <ele>18.3</ele>
        <time>2011-11-02T16:33:46.000Z</time>
      </trkpt>
      <trkpt lat="44.51729" lon="0.15846">
        <ele>17.2</ele>
        <time>2011-11-02T16:33:51.000Z</time>
      </trkpt>
      <trkpt lat="44.51699" lon="0.1585">
        <ele>16.2</ele>
        <time>2011-11-02T16:33:56.000Z</time>
      </trkpt>
      <trkpt lat="44.5167" lon="0.15852">
        <ele>16.3</ele>
        <time>2011-11-02T16:34:01.000Z</time>
      </trkpt>
      <trkpt lat="44.51641" lon="0.15856">
        <ele>15.4</ele>
        <time>2011-11-02T16:34:06.000Z</time>
      </trkpt>
      <trkpt lat="44.51613" lon="0.15861">
        <ele>16.6</ele>
        <time>2011-11-02T16:34:11.000Z</time>
      </trkpt>
      <trkpt lat="44.51585" lon="0.15865">
        <ele>17</ele>
        <time>2011-11-02T16:34:16.000Z</time>
      </trkpt>
      <trkpt lat="44.51555" lon="0.15868">
        <ele>18</ele>
        <time>2011-11-02T16:34:22.000Z</time>
      </trkpt>
      <trkpt lat="44.51527" lon="0.15872">
        <ele>16.6</ele>
        <time>2011-11-02T16:34:29.000Z</time>
      </trkpt>
      <trkpt lat="44.51498" lon="0.15873">
        <ele>17.7</ele>
        <time>2011-11-02T16:34:38.000Z</time>
      </trkpt>
      <trkpt lat="44.51471" lon="0.15877">
        <ele>18.4</ele>
        <time>2011-11-02T16:34:44.000Z</time>
      </trkpt>
      <trkpt lat="44.51443" lon="0.15881">
        <ele>19.8</ele>
        <time>2011-11-02T16:34:50.000Z</time>
      </trkpt>
      <trkpt lat="44.51415" lon="0.15885">
        <ele>20.5</ele>
        <time>2011-11-02T16:34:56.000Z</time>
      </trkpt>
      <trkpt lat="44.51387" lon="0.1589">
        <ele>22</ele>
        <time>2011-11-02T16:35:02.000Z</time>
      </trkpt>
      <trkpt lat="44.51357" lon="0.15892">
        <ele>22.5</ele>
        <time>2011-11-02T16:35:08.000Z</time>
      </trkpt>
      <trkpt lat="44.51326" lon="0.15895">
        <ele>21.3</ele>
        <time>2011-11-02T16:35:14.000Z</time>
      </trkpt>
      <trkpt lat="44.51296" lon="0.15899">
        <ele>22.2</ele>
        <time>2011-11-02T16:35:20.000Z</time>
      </trkpt>
      <trkpt lat="44.51266" lon="0.15905">
        <ele>22.9</ele>
        <time>2011-11-02T16:35:26.000Z</time>
      </trkpt>
      <trkpt lat="44.51238" lon="0.15909">
        <ele>23.3</ele>
        <time>2011-11-02T16:35:32.000Z</time>
      </trkpt>
      <trkpt lat="44.5121" lon="0.15916">
        <ele>24.4</ele>
        <time>2011-11-02T16:35:38.000Z</time>
      </trkpt>
      <trkpt lat="44.51183" lon="0.15925">
        <ele>24.8</ele>
        <time>2011-11-02T16:35:44.000Z</time>
      </trkpt>
      <trkpt lat="44.51155" lon="0.15935">
        <ele>22.3</ele>
        <time>2011-11-02T16:35:50.000Z</time>
      </trkpt>
      <trkpt lat="44.51127" lon="0.15947">
        <ele>21.6</ele>
        <time>2011-11-02T16:35:56.000Z</time>
      </trkpt>
      <trkpt lat="44.51098" lon="0.15959">
        <ele>20.1</ele>
        <time>2011-11-02T16:36:02.000Z</time>
      </trkpt>
      <trkpt lat="44.5107" lon="0.15972">
        <ele>19.8</ele>
        <time>2011-11-02T16:36:08.000Z</time>
      </trkpt>
      <trkpt lat="44.51041" lon="0.15987">
        <ele>18.5</ele>
        <time>2011-11-02T16:36:14.000Z</time>
      </trkpt>
      <trkpt lat="44.51011" lon="0.16">
        <ele>18.8</ele>
        <time>2011-11-02T16:36:20.000Z</time>
      </trkpt>
      <trkpt lat="44.50981" lon="0.16009">
        <ele>19.8</ele>
        <time>2011-11-02T16:36:26.000Z</time>
      </trkpt>
      <trkpt lat="44.50953" lon="0.16014">
        <ele>17.7</ele>
        <time>2011-11-02T16:36:32.000Z</time>
      </trkpt>
      <trkpt lat="44.50924" lon="0.16009">
        <ele>19.3</ele>
        <time>2011-11-02T16:36:39.000Z</time>
      </trkpt>
      <trkpt lat="44.50896" lon="0.16005">
        <ele>16.6</ele>
        <time>2011-11-02T16:36:46.000Z</time>
      </trkpt>
      <trkpt lat="44.50869" lon="0.16012">
        <ele>15</ele>
        <time>2011-11-02T16:36:52.000Z</time>
      </trkpt>
      <trkpt lat="44.50841" lon="0.16015">
        <ele>16.8</ele>
        <time>2011-11-02T16:36:58.000Z</time>
      </trkpt>
      <trkpt lat="44.50813" lon="0.16013">
        <ele>18</ele>
        <time>2011-11-02T16:37:04.000Z</time>
      </trkpt>
      <trkpt lat="44.50784" lon="0.16014">
        <ele>20.1</ele>
        <time>2011-11-02T16:37:11.000Z</time>
      </trkpt>
      <trkpt lat="44.50755" lon="0.16013">
        <ele>20.9</ele>
        <time>2011-11-02T16:37:19.000Z</time>
      </trkpt>
      <trkpt lat="44.50727" lon="0.16011">
        <ele>21.2</ele>
        <time>2011-11-02T16:37:28.000Z</time>
      </trkpt>
      <trkpt lat="44.50699" lon="0.16009">
        <ele>23.7</ele>
        <time>2011-11-02T16:37:37.000Z</time>
      </trkpt>
      <trkpt lat="44.50668" lon="0.16006">
        <ele>22.9</ele>
        <time>2011-11-02T16:37:44.000Z</time>
      </trkpt>
      <trkpt lat="44.5064" lon="0.16004">
        <ele>24.7</ele>
        <time>2011-11-02T16:37:50.000Z</time>
      </trkpt>
      <trkpt lat="44.5061" lon="0.16003">
        <ele>25.9</ele>
        <time>2011-11-02T16:37:57.000Z</time>
      </trkpt>
      <trkpt lat="44.5058" lon="0.15997">
        <ele>25.2</ele>
        <time>2011-11-02T16:38:04.000Z</time>
      </trkpt>
      <trkpt lat="44.50552" lon="0.15991">
        <ele>24.2</ele>
        <time>2011-11-02T16:38:10.000Z</time>
      </trkpt>
      <trkpt lat="44.50525" lon="0.15989">
        <ele>26.1</ele>
        <time>2011-11-02T16:38:16.000Z</time>
      </trkpt>
      <trkpt lat="44.50498" lon="0.15986">
        <ele>26.9</ele>
        <time>2011-11-02T16:38:22.000Z</time>
      </trkpt>
      <trkpt lat="44.50467" lon="0.15982">
        <ele>26.1</ele>
        <time>2011-11-02T16:38:29.000Z</time>
      </trkpt>
      <trkpt lat="44.50437" lon="0.15978">
        <ele>25.4</ele>
        <time>2011-11-02T16:38:36.000Z</time>
      </trkpt>
      <trkpt lat="44.50407" lon="0.15975">
        <ele>24.4</ele>
        <time>2011-11-02T16:38:43.000Z</time>
      </trkpt>
      <trkpt lat="44.50377" lon="0.15971">
        <ele>24.2</ele>
        <time>2011-11-02T16:38:50.000Z</time>
      </trkpt>
      <trkpt lat="44.50347" lon="0.15967">
        <ele>23.1</ele>
        <time>2011-11-02T16:38:57.000Z</time>
      </trkpt>
      <trkpt lat="44.50317" lon="0.15961">
        <ele>23.2</ele>
        <time>2011-11-02T16:39:05.000Z</time>
      </trkpt>
      <trkpt lat="44.50288" lon="0.15957">
        <ele>25.4</ele>
        <time>2011-11-02T16:39:58.000Z</time>
      </trkpt>
      <trkpt lat="44.50259" lon="0.15949">
        <ele>27.6</ele>
        <time>2011-11-02T16:40:05.000Z</time>
      </trkpt>
      <trkpt lat="44.50232" lon="0.15943">
        <ele>25.7</ele>
        <time>2011-11-02T16:40:11.000Z</time>
      </trkpt>
      <trkpt lat="44.50205" lon="0.15937">
        <ele>23.3</ele>
        <time>2011-11-02T16:40:17.000Z</time>
      </trkpt>
      <trkpt lat="44.50178" lon="0.1593">
        <ele>25.7</ele>
        <time>2011-11-02T16:40:24.000Z</time>
      </trkpt>
      <trkpt lat="44.50157" lon="0.15905">
        <ele>22.4</ele>
        <time>2011-11-02T16:41:01.000Z</time>
      </trkpt>
      <trkpt lat="44.50132" lon="0.1588">
        <ele>23.1</ele>
        <time>2011-11-02T16:41:10.000Z</time>
      </trkpt>
      <trkpt lat="44.5011" lon="0.15855">
        <ele>23.9</ele>
        <time>2011-11-02T16:41:16.000Z</time>
      </trkpt>
      <trkpt lat="44.50088" lon="0.15831">
        <ele>22.6</ele>
        <time>2011-11-02T16:41:21.000Z</time>
      </trkpt>
      <trkpt lat="44.50065" lon="0.15804">
        <ele>24.2</ele>
        <time>2011-11-02T16:41:26.000Z</time>
      </trkpt>
      <trkpt lat="44.50044" lon="0.15779">
        <ele>23.1</ele>
        <time>2011-11-02T16:41:30.000Z</time>
      </trkpt>
      <trkpt lat="44.50023" lon="0.15753">
        <ele>21.7</ele>
        <time>2011-11-02T16:41:34.000Z</time>
      </trkpt>
      <trkpt lat="44.50002" lon="0.15727">
        <ele>20.7</ele>
        <time>2011-11-02T16:41:38.000Z</time>
      </trkpt>
      <trkpt lat="44.49979" lon="0.15703">
        <ele>21.3</ele>
        <time>2011-11-02T16:41:42.000Z</time>
      </trkpt>
      <trkpt lat="44.49956" lon="0.15676">
        <ele>19</ele>
        <time>2011-11-02T16:41:46.000Z</time>
      </trkpt>
      <trkpt lat="44.49933" lon="0.15646">
        <ele>19.6</ele>
        <time>2011-11-02T16:41:51.000Z</time>
      </trkpt>
      <trkpt lat="44.4991" lon="0.15616">
        <ele>18.2</ele>
        <time>2011-11-02T16:41:56.000Z</time>
      </trkpt>
      <trkpt lat="44.49886" lon="0.15588">
        <ele>18.1</ele>
        <time>2011-11-02T16:42:01.000Z</time>
      </trkpt>
      <trkpt lat="44.49863" lon="0.15559">
        <ele>17.1</ele>
        <time>2011-11-02T16:42:06.000Z</time>
      </trkpt>
      <trkpt lat="44.4984" lon="0.15532">
        <ele>17.1</ele>
        <time>2011-11-02T16:42:11.000Z</time>
      </trkpt>
      <trkpt lat="44.49817" lon="0.15504">
        <ele>16.3</ele>
        <time>2011-11-02T16:42:16.000Z</time>
      </trkpt>
      <trkpt lat="44.49794" lon="0.15479">
        <ele>14.1</ele>
        <time>2011-11-02T16:42:21.000Z</time>
      </trkpt>
      <trkpt lat="44.4977" lon="0.1545">
        <ele>11.5</ele>
        <time>2011-11-02T16:42:26.000Z</time>
      </trkpt>
      <trkpt lat="44.49748" lon="0.15423">
        <ele>10.7</ele>
        <time>2011-11-02T16:42:30.000Z</time>
      </trkpt>
      <trkpt lat="44.49726" lon="0.15395">
        <ele>10.1</ele>
        <time>2011-11-02T16:42:34.000Z</time>
      </trkpt>
      <trkpt lat="44.49704" lon="0.15367">
        <ele>10.6</ele>
        <time>2011-11-02T16:42:38.000Z</time>
      </trkpt>
      <trkpt lat="44.49684" lon="0.15342">
        <ele>10.5</ele>
        <time>2011-11-02T16:42:42.000Z</time>
      </trkpt>
      <trkpt lat="44.49659" lon="0.15313">
        <ele>10.7</ele>
        <time>2011-11-02T16:42:47.000Z</time>
      </trkpt>
      <trkpt lat="44.49637" lon="0.15286">
        <ele>11</ele>
        <time>2011-11-02T16:42:52.000Z</time>
      </trkpt>
      <trkpt lat="44.49613" lon="0.15258">
        <ele>11</ele>
        <time>2011-11-02T16:42:57.000Z</time>
      </trkpt>
      <trkpt lat="44.4959" lon="0.15229">
        <ele>10.9</ele>
        <time>2011-11-02T16:43:02.000Z</time>
      </trkpt>
      <trkpt lat="44.49566" lon="0.15201">
        <ele>10.7</ele>
        <time>2011-11-02T16:43:07.000Z</time>
      </trkpt>
      <trkpt lat="44.49541" lon="0.15174">
        <ele>10.5</ele>
        <time>2011-11-02T16:43:12.000Z</time>
      </trkpt>
      <trkpt lat="44.49517" lon="0.15146">
        <ele>10.6</ele>
        <time>2011-11-02T16:43:17.000Z</time>
      </trkpt>
      <trkpt lat="44.49494" lon="0.15119">
        <ele>9.9</ele>
        <time>2011-11-02T16:43:22.000Z</time>
      </trkpt>
      <trkpt lat="44.49471" lon="0.15094">
        <ele>10</ele>
        <time>2011-11-02T16:43:27.000Z</time>
      </trkpt>
      <trkpt lat="44.49448" lon="0.1507">
        <ele>11.1</ele>
        <time>2011-11-02T16:43:32.000Z</time>
      </trkpt>
      <trkpt lat="44.49422" lon="0.15047">
        <ele>11.2</ele>
        <time>2011-11-02T16:43:38.000Z</time>
      </trkpt>
      <trkpt lat="44.49392" lon="0.15036">
        <ele>11.6</ele>
        <time>2011-11-02T16:43:45.000Z</time>
      </trkpt>
      <trkpt lat="44.49365" lon="0.15029">
        <ele>10.8</ele>
        <time>2011-11-02T16:43:52.000Z</time>
      </trkpt>
      <trkpt lat="44.49334" lon="0.15025">
        <ele>10</ele>
        <time>2011-11-02T16:43:59.000Z</time>
      </trkpt>
      <trkpt lat="44.49303" lon="0.15028">
        <ele>10.1</ele>
        <time>2011-11-02T16:44:05.000Z</time>
      </trkpt>
      <trkpt lat="44.49274" lon="0.15029">
        <ele>9.1</ele>
        <time>2011-11-02T16:44:10.000Z</time>
      </trkpt>
      <trkpt lat="44.49249" lon="0.15014">
        <ele>8.6</ele>
        <time>2011-11-02T16:44:15.000Z</time>
      </trkpt>
      <trkpt lat="44.49243" lon="0.14972">
        <ele>9.1</ele>
        <time>2011-11-02T16:44:21.000Z</time>
      </trkpt>
      <trkpt lat="44.4925" lon="0.14927">
        <ele>11.2</ele>
        <time>2011-11-02T16:44:27.000Z</time>
      </trkpt>
      <trkpt lat="44.4923" lon="0.14901">
        <ele>12.8</ele>
        <time>2011-11-02T16:44:36.000Z</time>
      </trkpt>
      <trkpt lat="44.49201" lon="0.14896">
        <ele>12</ele>
        <time>2011-11-02T16:44:45.000Z</time>
      </trkpt>
      <trkpt lat="44.49172" lon="0.14892">
        <ele>10.3</ele>
        <time>2011-11-02T16:44:53.000Z</time>
      </trkpt>
      <trkpt lat="44.49143" lon="0.14879">
        <ele>8.8</ele>
        <time>2011-11-02T16:45:00.000Z</time>
      </trkpt>
      <trkpt lat="44.49116" lon="0.14866">
        <ele>7.7</ele>
        <time>2011-11-02T16:45:06.000Z</time>
      </trkpt>
      <trkpt lat="44.49086" lon="0.14852">
        <ele>8</ele>
        <time>2011-11-02T16:45:13.000Z</time>
      </trkpt>
      <trkpt lat="44.49058" lon="0.14839">
        <ele>7.9</ele>
        <time>2011-11-02T16:45:19.000Z</time>
      </trkpt>
      <trkpt lat="44.49028" lon="0.14828">
        <ele>7.9</ele>
        <time>2011-11-02T16:45:25.000Z</time>
      </trkpt>
      <trkpt lat="44.48998" lon="0.14816">
        <ele>6.7</ele>
        <time>2011-11-02T16:45:31.000Z</time>
      </trkpt>
      <trkpt lat="44.48967" lon="0.14805">
        <ele>6.6</ele>
        <time>2011-11-02T16:45:37.000Z</time>
      </trkpt>
      <trkpt lat="44.48939" lon="0.14796">
        <ele>7.6</ele>
        <time>2011-11-02T16:45:43.000Z</time>
      </trkpt>
      <trkpt lat="44.48911" lon="0.14784">
        <ele>7.8</ele>
        <time>2011-11-02T16:45:49.000Z</time>
      </trkpt>
      <trkpt lat="44.4888" lon="0.14773">
        <ele>7.5</ele>
        <time>2011-11-02T16:45:55.000Z</time>
      </trkpt>
      <trkpt lat="44.48853" lon="0.14763">
        <ele>7.7</ele>
        <time>2011-11-02T16:46:01.000Z</time>
      </trkpt>
      <trkpt lat="44.48824" lon="0.14754">
        <ele>7.9</ele>
        <time>2011-11-02T16:46:07.000Z</time>
      </trkpt>
      <trkpt lat="44.48794" lon="0.14745">
        <ele>7.5</ele>
        <time>2011-11-02T16:46:13.000Z</time>
      </trkpt>
      <trkpt lat="44.48765" lon="0.14735">
        <ele>7.7</ele>
        <time>2011-11-02T16:46:19.000Z</time>
      </trkpt>
      <trkpt lat="44.48735" lon="0.14725">
        <ele>7.2</ele>
        <time>2011-11-02T16:46:25.000Z</time>
      </trkpt>
      <trkpt lat="44.48705" lon="0.14715">
        <ele>6.6</ele>
        <time>2011-11-02T16:46:31.000Z</time>
      </trkpt>
      <trkpt lat="44.48674" lon="0.14704">
        <ele>6</ele>
        <time>2011-11-02T16:46:37.000Z</time>
      </trkpt>
      <trkpt lat="44.48644" lon="0.14695">
        <ele>6</ele>
        <time>2011-11-02T16:46:43.000Z</time>
      </trkpt>
      <trkpt lat="44.48614" lon="0.14684">
        <ele>6.2</ele>
        <time>2011-11-02T16:46:49.000Z</time>
      </trkpt>
      <trkpt lat="44.48583" lon="0.14675">
        <ele>6</ele>
        <time>2011-11-02T16:46:55.000Z</time>
      </trkpt>
      <trkpt lat="44.48552" lon="0.14664">
        <ele>6.1</ele>
        <time>2011-11-02T16:47:01.000Z</time>
      </trkpt>
      <trkpt lat="44.48521" lon="0.14653">
        <ele>5.9</ele>
        <time>2011-11-02T16:47:07.000Z</time>
      </trkpt>
      <trkpt lat="44.48492" lon="0.14643">
        <ele>5.8</ele>
        <time>2011-11-02T16:47:13.000Z</time>
      </trkpt>
      <trkpt lat="44.48464" lon="0.14634">
        <ele>6</ele>
        <time>2011-11-02T16:47:19.000Z</time>
      </trkpt>
      <trkpt lat="44.48435" lon="0.14625">
        <ele>5.7</ele>
        <time>2011-11-02T16:47:25.000Z</time>
      </trkpt>
      <trkpt lat="44.48406" lon="0.14615">
        <ele>6</ele>
        <time>2011-11-02T16:47:31.000Z</time>
      </trkpt>
      <trkpt lat="44.48377" lon="0.14607">
        <ele>5.9</ele>
        <time>2011-11-02T16:47:37.000Z</time>
      </trkpt>
      <trkpt lat="44.4835" lon="0.14597">
        <ele>6</ele>
        <time>2011-11-02T16:47:43.000Z</time>
      </trkpt>
      <trkpt lat="44.48325" lon="0.14585">
        <ele>5.5</ele>
        <time>2011-11-02T16:47:52.000Z</time>
      </trkpt>
      <trkpt lat="44.48336" lon="0.14546">
        <ele>4.7</ele>
        <time>2011-11-02T16:48:00.000Z</time>
      </trkpt>
      <trkpt lat="44.48349" lon="0.14511">
        <ele>5.9</ele>
        <time>2011-11-02T16:48:08.000Z</time>
      </trkpt>
      <trkpt lat="44.48363" lon="0.14475">
        <ele>5.8</ele>
        <time>2011-11-02T16:48:17.000Z</time>
      </trkpt>
      <trkpt lat="44.48377" lon="0.14439">
        <ele>5.5</ele>
        <time>2011-11-02T16:48:25.000Z</time>
      </trkpt>
      <trkpt lat="44.48389" lon="0.14405">
        <ele>6.1</ele>
        <time>2011-11-02T16:48:33.000Z</time>
      </trkpt>
      <trkpt lat="44.48401" lon="0.14369">
        <ele>6.7</ele>
        <time>2011-11-02T16:48:42.000Z</time>
      </trkpt>
      <trkpt lat="44.48415" lon="0.14335">
        <ele>6.5</ele>
        <time>2011-11-02T16:48:51.000Z</time>
      </trkpt>
      <trkpt lat="44.48426" lon="0.14297">
        <ele>8</ele>
        <time>2011-11-02T16:49:01.000Z</time>
      </trkpt>
      <trkpt lat="44.48438" lon="0.14263">
        <ele>9.6</ele>
        <time>2011-11-02T16:49:11.000Z</time>
      </trkpt>
      <trkpt lat="44.48448" lon="0.14227">
        <ele>10.7</ele>
        <time>2011-11-02T16:49:25.000Z</time>
      </trkpt>
      <trkpt lat="44.48455" lon="0.14191">
        <ele>11.3</ele>
        <time>2011-11-02T16:49:39.000Z</time>
      </trkpt>
      <trkpt lat="44.48465" lon="0.14152">
        <ele>12.8</ele>
        <time>2011-11-02T16:49:50.000Z</time>
      </trkpt>
      <trkpt lat="44.48476" lon="0.14115">
        <ele>12</ele>
        <time>2011-11-02T16:50:01.000Z</time>
      </trkpt>
      <trkpt lat="44.48484" lon="0.14078">
        <ele>14</ele>
        <time>2011-11-02T16:50:11.000Z</time>
      </trkpt>
      <trkpt lat="44.48494" lon="0.14043">
        <ele>12.6</ele>
        <time>2011-11-02T16:50:21.000Z</time>
      </trkpt>
      <trkpt lat="44.48503" lon="0.14007">
        <ele>11</ele>
        <time>2011-11-02T16:50:31.000Z</time>
      </trkpt>
      <trkpt lat="44.48512" lon="0.1397">
        <ele>10.5</ele>
        <time>2011-11-02T16:50:43.000Z</time>
      </trkpt>
      <trkpt lat="44.48514" lon="0.1393">
        <ele>5.6</ele>
        <time>2011-11-02T16:50:57.000Z</time>
      </trkpt>
      <trkpt lat="44.4852" lon="0.13891">
        <ele>7.1</ele>
        <time>2011-11-02T16:51:11.000Z</time>
      </trkpt>
      <trkpt lat="44.48531" lon="0.13854">
        <ele>9.8</ele>
        <time>2011-11-02T16:51:25.000Z</time>
      </trkpt>
      <trkpt lat="44.4852" lon="0.13889">
        <ele>5.7</ele>
        <time>2011-11-02T16:54:39.000Z</time>
      </trkpt>
      <trkpt lat="44.48512" lon="0.13926">
        <ele>5.9</ele>
        <time>2011-11-02T16:54:54.000Z</time>
      </trkpt>
      <trkpt lat="44.48511" lon="0.13964">
        <ele>4.8</ele>
        <time>2011-11-02T16:55:10.000Z</time>
      </trkpt>
      <trkpt lat="44.48484" lon="0.13968">
        <ele>3.4</ele>
        <time>2011-11-02T16:55:35.000Z</time>
      </trkpt>
      <trkpt lat="44.48508" lon="0.13987">
        <ele>10.5</ele>
        <time>2011-11-02T16:57:40.000Z</time>
      </trkpt>
      <trkpt lat="44.48501" lon="0.14023">
        <ele>7.8</ele>
        <time>2011-11-02T16:57:51.000Z</time>
      </trkpt>
      <trkpt lat="44.48492" lon="0.14061">
        <ele>6.2</ele>
        <time>2011-11-02T16:58:03.000Z</time>
      </trkpt>
      <trkpt lat="44.48484" lon="0.14099">
        <ele>7.5</ele>
        <time>2011-11-02T16:58:16.000Z</time>
      </trkpt>
      <trkpt lat="44.48475" lon="0.14138">
        <ele>7.3</ele>
        <time>2011-11-02T16:58:27.000Z</time>
      </trkpt>
      <trkpt lat="44.48465" lon="0.14177">
        <ele>6</ele>
        <time>2011-11-02T16:58:37.000Z</time>
      </trkpt>
      <trkpt lat="44.48456" lon="0.14212">
        <ele>7.4</ele>
        <time>2011-11-02T16:58:46.000Z</time>
      </trkpt>
      <trkpt lat="44.48444" lon="0.14249">
        <ele>7.9</ele>
        <time>2011-11-02T16:58:56.000Z</time>
      </trkpt>
      <trkpt lat="44.48433" lon="0.14284">
        <ele>7.4</ele>
        <time>2011-11-02T16:59:04.000Z</time>
      </trkpt>
      <trkpt lat="44.4842" lon="0.14318">
        <ele>7.9</ele>
        <time>2011-11-02T16:59:12.000Z</time>
      </trkpt>
      <trkpt lat="44.48408" lon="0.14355">
        <ele>6.3</ele>
        <time>2011-11-02T16:59:20.000Z</time>
      </trkpt>
      <trkpt lat="44.48396" lon="0.14389">
        <ele>4.8</ele>
        <time>2011-11-02T16:59:28.000Z</time>
      </trkpt>
      <trkpt lat="44.48383" lon="0.14427">
        <ele>4.7</ele>
        <time>2011-11-02T16:59:37.000Z</time>
      </trkpt>
      <trkpt lat="44.4837" lon="0.14462">
        <ele>2.8</ele>
        <time>2011-11-02T16:59:46.000Z</time>
      </trkpt>
      <trkpt lat="44.48358" lon="0.14498">
        <ele>2.1</ele>
        <time>2011-11-02T16:59:55.000Z</time>
      </trkpt>
      <trkpt lat="44.48347" lon="0.14535">
        <ele>1.5</ele>
        <time>2011-11-02T17:00:04.000Z</time>
      </trkpt>
      <trkpt lat="44.48335" lon="0.1457">
        <ele>1.5</ele>
        <time>2011-11-02T17:00:13.000Z</time>
      </trkpt>
      <trkpt lat="44.48311" lon="0.14591">
        <ele>3.8</ele>
        <time>2011-11-02T17:00:27.000Z</time>
      </trkpt>
      <trkpt lat="44.48284" lon="0.14581">
        <ele>1.8</ele>
        <time>2011-11-02T17:00:37.000Z</time>
      </trkpt>
      <trkpt lat="44.48257" lon="0.1457">
        <ele>0.9</ele>
        <time>2011-11-02T17:00:45.000Z</time>
      </trkpt>
      <trkpt lat="44.48228" lon="0.14559">
        <ele>0.9</ele>
        <time>2011-11-02T17:00:53.000Z</time>
      </trkpt>
      <trkpt lat="44.48199" lon="0.1455">
        <ele>0.4</ele>
        <time>2011-11-02T17:01:01.000Z</time>
      </trkpt>
      <trkpt lat="44.48171" lon="0.14541">
        <ele>0.3</ele>
        <time>2011-11-02T17:01:08.000Z</time>
      </trkpt>
      <trkpt lat="44.48143" lon="0.14532">
        <ele>0.3</ele>
        <time>2011-11-02T17:01:15.000Z</time>
      </trkpt>
      <trkpt lat="44.48115" lon="0.14522">
        <ele>0.4</ele>
        <time>2011-11-02T17:01:22.000Z</time>
      </trkpt>
      <trkpt lat="44.48087" lon="0.14515">
        <ele>0.1</ele>
        <time>2011-11-02T17:01:29.000Z</time>
      </trkpt>
      <trkpt lat="44.48058" lon="0.14506">
        <ele>0.1</ele>
        <time>2011-11-02T17:01:36.000Z</time>
      </trkpt>
      <trkpt lat="44.48028" lon="0.14497">
        <ele>0.4</ele>
        <time>2011-11-02T17:01:43.000Z</time>
      </trkpt>
      <trkpt lat="44.48" lon="0.14487">
        <ele>0.3</ele>
        <time>2011-11-02T17:01:50.000Z</time>
      </trkpt>
      <trkpt lat="44.47971" lon="0.14475">
        <ele>0.1</ele>
        <time>2011-11-02T17:01:57.000Z</time>
      </trkpt>
      <trkpt lat="44.47945" lon="0.14463">
        <ele>0.5</ele>
        <time>2011-11-02T17:02:03.000Z</time>
      </trkpt>
      <trkpt lat="44.47917" lon="0.14453">
        <ele>1.2</ele>
        <time>2011-11-02T17:02:09.000Z</time>
      </trkpt>
      <trkpt lat="44.47887" lon="0.14443">
        <ele>0.1</ele>
        <time>2011-11-02T17:02:16.000Z</time>
      </trkpt>
      <trkpt lat="44.4786" lon="0.14433">
        <ele>1.6</ele>
        <time>2011-11-02T17:02:22.000Z</time>
      </trkpt>
      <trkpt lat="44.47833" lon="0.14424">
        <ele>2.4</ele>
        <time>2011-11-02T17:02:28.000Z</time>
      </trkpt>
      <trkpt lat="44.47802" lon="0.14417">
        <ele>0.8</ele>
        <time>2011-11-02T17:02:35.000Z</time>
      </trkpt>
      <trkpt lat="44.47773" lon="0.14408">
        <ele>-0.7</ele>
        <time>2011-11-02T17:02:42.000Z</time>
      </trkpt>
      <trkpt lat="44.47744" lon="0.14401">
        <ele>-0.1</ele>
        <time>2011-11-02T17:02:49.000Z</time>
      </trkpt>
      <trkpt lat="44.47717" lon="0.14392">
        <ele>20.3</ele>
        <time>2011-11-02T17:02:56.000Z</time>
      </trkpt>
      <trkpt lat="44.47686" lon="0.14382">
        <ele>0.2</ele>
        <time>2011-11-02T17:03:03.000Z</time>
      </trkpt>
      <trkpt lat="44.4766" lon="0.14373">
        <ele>0.2</ele>
        <time>2011-11-02T17:03:09.000Z</time>
      </trkpt>
      <trkpt lat="44.47633" lon="0.14365">
        <ele>-0.2</ele>
        <time>2011-11-02T17:03:15.000Z</time>
      </trkpt>
      <trkpt lat="44.47606" lon="0.14355">
        <ele>-0.5</ele>
        <time>2011-11-02T17:03:21.000Z</time>
      </trkpt>
      <trkpt lat="44.47579" lon="0.14345">
        <ele>-0.5</ele>
        <time>2011-11-02T17:03:27.000Z</time>
      </trkpt>
      <trkpt lat="44.47553" lon="0.14336">
        <ele>-1.1</ele>
        <time>2011-11-02T17:03:33.000Z</time>
      </trkpt>
      <trkpt lat="44.47524" lon="0.14328">
        <ele>-0.9</ele>
        <time>2011-11-02T17:03:39.000Z</time>
      </trkpt>
      <trkpt lat="44.47497" lon="0.14319">
        <ele>-0.7</ele>
        <time>2011-11-02T17:03:45.000Z</time>
      </trkpt>
      <trkpt lat="44.47469" lon="0.1431">
        <ele>-0.5</ele>
        <time>2011-11-02T17:03:51.000Z</time>
      </trkpt>
      <trkpt lat="44.4744" lon="0.143">
        <ele>-0.5</ele>
        <time>2011-11-02T17:03:57.000Z</time>
      </trkpt>
      <trkpt lat="44.47411" lon="0.14291">
        <ele>-0.8</ele>
        <time>2011-11-02T17:04:03.000Z</time>
      </trkpt>
      <trkpt lat="44.47383" lon="0.14283">
        <ele>-1.1</ele>
        <time>2011-11-02T17:04:09.000Z</time>
      </trkpt>
      <trkpt lat="44.47355" lon="0.14274">
        <ele>-0.8</ele>
        <time>2011-11-02T17:04:15.000Z</time>
      </trkpt>
      <trkpt lat="44.47327" lon="0.1426">
        <ele>-0.8</ele>
        <time>2011-11-02T17:04:22.000Z</time>
      </trkpt>
      <trkpt lat="44.47298" lon="0.14251">
        <ele>-1.4</ele>
        <time>2011-11-02T17:04:29.000Z</time>
      </trkpt>
      <trkpt lat="44.47271" lon="0.14241">
        <ele>-0.7</ele>
        <time>2011-11-02T17:04:36.000Z</time>
      </trkpt>
      <trkpt lat="44.47241" lon="0.14231">
        <ele>-0.3</ele>
        <time>2011-11-02T17:04:43.000Z</time>
      </trkpt>
      <trkpt lat="44.47215" lon="0.14224">
        <ele>0.2</ele>
        <time>2011-11-02T17:04:49.000Z</time>
      </trkpt>
      <trkpt lat="44.47187" lon="0.14215">
        <ele>-0.1</ele>
        <time>2011-11-02T17:04:55.000Z</time>
      </trkpt>
      <trkpt lat="44.4716" lon="0.14207">
        <ele>0.4</ele>
        <time>2011-11-02T17:05:01.000Z</time>
      </trkpt>
      <trkpt lat="44.47133" lon="0.14198">
        <ele>0.2</ele>
        <time>2011-11-02T17:05:07.000Z</time>
      </trkpt>
      <trkpt lat="44.47106" lon="0.14189">
        <ele>0.8</ele>
        <time>2011-11-02T17:05:13.000Z</time>
      </trkpt>
      <trkpt lat="44.47078" lon="0.14178">
        <ele>0.7</ele>
        <time>2011-11-02T17:05:19.000Z</time>
      </trkpt>
      <trkpt lat="44.47049" lon="0.14169">
        <ele>1.2</ele>
        <time>2011-11-02T17:05:25.000Z</time>
      </trkpt>
      <trkpt lat="44.47019" lon="0.14159">
        <ele>1.5</ele>
        <time>2011-11-02T17:05:31.000Z</time>
      </trkpt>
      <trkpt lat="44.46992" lon="0.1415">
        <ele>1.5</ele>
        <time>2011-11-02T17:05:37.000Z</time>
      </trkpt>
      <trkpt lat="44.46965" lon="0.14133">
        <ele>2.9</ele>
        <time>2011-11-02T17:05:44.000Z</time>
      </trkpt>
      <trkpt lat="44.46938" lon="0.14131">
        <ele>3.3</ele>
        <time>2011-11-02T17:05:50.000Z</time>
      </trkpt>
      <trkpt lat="44.46909" lon="0.14123">
        <ele>3.7</ele>
        <time>2011-11-02T17:05:57.000Z</time>
      </trkpt>
      <trkpt lat="44.4688" lon="0.14114">
        <ele>4.4</ele>
        <time>2011-11-02T17:06:04.000Z</time>
      </trkpt>
      <trkpt lat="44.46851" lon="0.14103">
        <ele>4.7</ele>
        <time>2011-11-02T17:06:11.000Z</time>
      </trkpt>
      <trkpt lat="44.46821" lon="0.14094">
        <ele>6.3</ele>
        <time>2011-11-02T17:06:18.000Z</time>
      </trkpt>
      <trkpt lat="44.46792" lon="0.14085">
        <ele>6.9</ele>
        <time>2011-11-02T17:06:25.000Z</time>
      </trkpt>
      <trkpt lat="44.46763" lon="0.14074">
        <ele>7.2</ele>
        <time>2011-11-02T17:06:32.000Z</time>
      </trkpt>
      <trkpt lat="44.46735" lon="0.14063">
        <ele>9.3</ele>
        <time>2011-11-02T17:06:39.000Z</time>
      </trkpt>
      <trkpt lat="44.46705" lon="0.14051">
        <ele>9.2</ele>
        <time>2011-11-02T17:06:46.000Z</time>
      </trkpt>
      <trkpt lat="44.46677" lon="0.14042">
        <ele>9.1</ele>
        <time>2011-11-02T17:06:52.000Z</time>
      </trkpt>
      <trkpt lat="44.46648" lon="0.14035">
        <ele>8.4</ele>
        <time>2011-11-02T17:06:58.000Z</time>
      </trkpt>
      <trkpt lat="44.46621" lon="0.14025">
        <ele>8.2</ele>
        <time>2011-11-02T17:07:04.000Z</time>
      </trkpt>
      <trkpt lat="44.46594" lon="0.1402">
        <ele>7.8</ele>
        <time>2011-11-02T17:07:10.000Z</time>
      </trkpt>
      <trkpt lat="44.46566" lon="0.14012">
        <ele>8.2</ele>
        <time>2011-11-02T17:07:16.000Z</time>
      </trkpt>
      <trkpt lat="44.46539" lon="0.14001">
        <ele>8.2</ele>
        <time>2011-11-02T17:07:22.000Z</time>
      </trkpt>
      <trkpt lat="44.46512" lon="0.13992">
        <ele>8.8</ele>
        <time>2011-11-02T17:07:28.000Z</time>
      </trkpt>
      <trkpt lat="44.46483" lon="0.13982">
        <ele>10</ele>
        <time>2011-11-02T17:07:35.000Z</time>
      </trkpt>
      <trkpt lat="44.46455" lon="0.13976">
        <ele>10</ele>
        <time>2011-11-02T17:07:41.000Z</time>
      </trkpt>
      <trkpt lat="44.46427" lon="0.13964">
        <ele>12.4</ele>
        <time>2011-11-02T17:07:48.000Z</time>
      </trkpt>
      <trkpt lat="44.464" lon="0.13955">
        <ele>11.8</ele>
        <time>2011-11-02T17:07:54.000Z</time>
      </trkpt>
      <trkpt lat="44.46372" lon="0.13947">
        <ele>13.3</ele>
        <time>2011-11-02T17:08:01.000Z</time>
      </trkpt>
      <trkpt lat="44.46344" lon="0.13942">
        <ele>13.3</ele>
        <time>2011-11-02T17:08:09.000Z</time>
      </trkpt>
      <trkpt lat="44.46317" lon="0.13932">
        <ele>10.6</ele>
        <time>2011-11-02T17:08:18.000Z</time>
      </trkpt>
      <trkpt lat="44.4629" lon="0.13924">
        <ele>11.3</ele>
        <time>2011-11-02T17:08:28.000Z</time>
      </trkpt>
      <trkpt lat="44.46264" lon="0.13911">
        <ele>9.4</ele>
        <time>2011-11-02T17:08:38.000Z</time>
      </trkpt>
      <trkpt lat="44.46236" lon="0.13905">
        <ele>12.7</ele>
        <time>2011-11-02T17:08:50.000Z</time>
      </trkpt>
      <trkpt lat="44.46209" lon="0.13896">
        <ele>10.1</ele>
        <time>2011-11-02T17:09:02.000Z</time>
      </trkpt>
      <trkpt lat="44.46183" lon="0.13892">
        <ele>12.6</ele>
        <time>2011-11-02T17:09:13.000Z</time>
      </trkpt>
      <trkpt lat="44.46158" lon="0.13878">
        <ele>13.5</ele>
        <time>2011-11-02T17:09:26.000Z</time>
      </trkpt>
      <trkpt lat="44.4613" lon="0.1387">
        <ele>14.6</ele>
        <time>2011-11-02T17:09:36.000Z</time>
      </trkpt>
      <trkpt lat="44.46102" lon="0.13878">
        <ele>20.3</ele>
        <time>2011-11-02T17:09:46.000Z</time>
      </trkpt>
      <trkpt lat="44.46074" lon="0.13881">
        <ele>20.2</ele>
        <time>2011-11-02T17:09:54.000Z</time>
      </trkpt>
      <trkpt lat="44.4608" lon="0.13918">
        <ele>23.8</ele>
        <time>2011-11-02T17:10:04.000Z</time>
      </trkpt>
      <trkpt lat="44.46106" lon="0.13934">
        <ele>22.8</ele>
        <time>2011-11-02T17:10:20.000Z</time>
      </trkpt>
      <trkpt lat="44.46109" lon="0.13971">
        <ele>19</ele>
        <time>2011-11-02T17:10:29.000Z</time>
      </trkpt>
      <trkpt lat="44.46104" lon="0.1401">
        <ele>17.4</ele>
        <time>2011-11-02T17:11:27.000Z</time>
      </trkpt>
      <trkpt lat="44.4609" lon="0.14043">
        <ele>15</ele>
        <time>2011-11-02T17:11:35.000Z</time>
      </trkpt>
      <trkpt lat="44.46074" lon="0.14074">
        <ele>12.4</ele>
        <time>2011-11-02T17:11:44.000Z</time>
      </trkpt>
      <trkpt lat="44.46056" lon="0.14107">
        <ele>12.4</ele>
        <time>2011-11-02T17:12:07.000Z</time>
      </trkpt>
      <trkpt lat="44.46041" lon="0.1414">
        <ele>13.1</ele>
        <time>2011-11-02T17:12:17.000Z</time>
      </trkpt>
      <trkpt lat="44.46023" lon="0.14171">
        <ele>18.7</ele>
        <time>2011-11-02T17:12:27.000Z</time>
      </trkpt>
      <trkpt lat="44.46002" lon="0.14202">
        <ele>23.9</ele>
        <time>2011-11-02T17:12:36.000Z</time>
      </trkpt>
      <trkpt lat="44.45981" lon="0.1423">
        <ele>28.1</ele>
        <time>2011-11-02T17:12:43.000Z</time>
      </trkpt>
      <trkpt lat="44.45964" lon="0.14262">
        <ele>30.5</ele>
        <time>2011-11-02T17:12:51.000Z</time>
      </trkpt>
      <trkpt lat="44.45945" lon="0.14291">
        <ele>32.6</ele>
        <time>2011-11-02T17:12:58.000Z</time>
      </trkpt>
      <trkpt lat="44.45927" lon="0.14321">
        <ele>34.4</ele>
        <time>2011-11-02T17:13:05.000Z</time>
      </trkpt>
      <trkpt lat="44.45909" lon="0.1435">
        <ele>37.6</ele>
        <time>2011-11-02T17:13:13.000Z</time>
      </trkpt>
      <trkpt lat="44.45889" lon="0.14384">
        <ele>36.3</ele>
        <time>2011-11-02T17:13:23.000Z</time>
      </trkpt>
      <trkpt lat="44.45874" lon="0.14417">
        <ele>37.9</ele>
        <time>2011-11-02T17:13:32.000Z</time>
      </trkpt>
      <trkpt lat="44.45857" lon="0.14446">
        <ele>43.8</ele>
        <time>2011-11-02T17:13:40.000Z</time>
      </trkpt>
      <trkpt lat="44.45839" lon="0.14477">
        <ele>56.2</ele>
        <time>2011-11-02T17:13:48.000Z</time>
      </trkpt>
      <trkpt lat="44.45822" lon="0.14505">
        <ele>60.8</ele>
        <time>2011-11-02T17:13:55.000Z</time>
      </trkpt>
      <trkpt lat="44.45802" lon="0.14531">
        <ele>69.1</ele>
        <time>2011-11-02T17:14:03.000Z</time>
      </trkpt>
      <trkpt lat="44.45789" lon="0.14564">
        <ele>74.8</ele>
        <time>2011-11-02T17:14:10.000Z</time>
      </trkpt>
      <trkpt lat="44.45773" lon="0.14598">
        <ele>78.7</ele>
        <time>2011-11-02T17:14:19.000Z</time>
      </trkpt>
      <trkpt lat="44.45756" lon="0.1463">
        <ele>81.5</ele>
        <time>2011-11-02T17:14:27.000Z</time>
      </trkpt>
      <trkpt lat="44.45738" lon="0.14668">
        <ele>81.6</ele>
        <time>2011-11-02T17:14:58.000Z</time>
      </trkpt>
      <trkpt lat="44.4572" lon="0.14695">
        <ele>72.2</ele>
        <time>2011-11-02T17:15:10.000Z</time>
      </trkpt>
      <trkpt lat="44.45715" lon="0.14725">
        <ele>51.8</ele>
        <time>2011-11-02T17:15:52.000Z</time>
      </trkpt>
      <trkpt lat="44.45725" lon="0.14761">
        <ele>47.1</ele>
        <time>2011-11-02T17:16:04.000Z</time>
      </trkpt>
      <trkpt lat="44.45698" lon="0.14789">
        <ele>42.7</ele>
        <time>2011-11-02T17:16:11.000Z</time>
      </trkpt>
      <trkpt lat="44.45672" lon="0.14815">
        <ele>37.8</ele>
        <time>2011-11-02T17:16:16.000Z</time>
      </trkpt>
      <trkpt lat="44.45649" lon="0.14841">
        <ele>31.7</ele>
        <time>2011-11-02T17:16:22.000Z</time>
      </trkpt>
      <trkpt lat="44.45627" lon="0.14863">
        <ele>26.1</ele>
        <time>2011-11-02T17:16:28.000Z</time>
      </trkpt>
      <trkpt lat="44.45604" lon="0.14884">
        <ele>19.1</ele>
        <time>2011-11-02T17:16:34.000Z</time>
      </trkpt>
      <trkpt lat="44.45579" lon="0.149">
        <ele>16</ele>
        <time>2011-11-02T17:16:40.000Z</time>
      </trkpt>
      <trkpt lat="44.45552" lon="0.14919">
        <ele>9.6</ele>
        <time>2011-11-02T17:16:47.000Z</time>
      </trkpt>
      <trkpt lat="44.45528" lon="0.1494">
        <ele>15.2</ele>
        <time>2011-11-02T17:16:53.000Z</time>
      </trkpt>
      <trkpt lat="44.45504" lon="0.14959">
        <ele>12.5</ele>
        <time>2011-11-02T17:16:59.000Z</time>
      </trkpt>
      <trkpt lat="44.45479" lon="0.14975">
        <ele>12.5</ele>
        <time>2011-11-02T17:17:05.000Z</time>
      </trkpt>
      <trkpt lat="44.45453" lon="0.14997">
        <ele>12.7</ele>
        <time>2011-11-02T17:17:12.000Z</time>
      </trkpt>
      <trkpt lat="44.45427" lon="0.15017">
        <ele>12.2</ele>
        <time>2011-11-02T17:17:19.000Z</time>
      </trkpt>
      <trkpt lat="44.45405" lon="0.1504">
        <ele>12.3</ele>
        <time>2011-11-02T17:17:25.000Z</time>
      </trkpt>
      <trkpt lat="44.4538" lon="0.15059">
        <ele>13.2</ele>
        <time>2011-11-02T17:17:31.000Z</time>
      </trkpt>
      <trkpt lat="44.45355" lon="0.15073">
        <ele>9.9</ele>
        <time>2011-11-02T17:17:37.000Z</time>
      </trkpt>
      <trkpt lat="44.45329" lon="0.15094">
        <ele>15.4</ele>
        <time>2011-11-02T17:17:44.000Z</time>
      </trkpt>
      <trkpt lat="44.45303" lon="0.15114">
        <ele>14.2</ele>
        <time>2011-11-02T17:17:51.000Z</time>
      </trkpt>
      <trkpt lat="44.45276" lon="0.15134">
        <ele>14.5</ele>
        <time>2011-11-02T17:17:58.000Z</time>
      </trkpt>
      <trkpt lat="44.45251" lon="0.15154">
        <ele>16</ele>
        <time>2011-11-02T17:18:05.000Z</time>
      </trkpt>
      <trkpt lat="44.45228" lon="0.15175">
        <ele>16.7</ele>
        <time>2011-11-02T17:18:12.000Z</time>
      </trkpt>
      <trkpt lat="44.45205" lon="0.152">
        <ele>17.2</ele>
        <time>2011-11-02T17:18:19.000Z</time>
      </trkpt>
      <trkpt lat="44.45183" lon="0.15224">
        <ele>14.2</ele>
        <time>2011-11-02T17:18:26.000Z</time>
      </trkpt>
      <trkpt lat="44.45164" lon="0.15256">
        <ele>12</ele>
        <time>2011-11-02T17:18:35.000Z</time>
      </trkpt>
      <trkpt lat="44.45144" lon="0.15286">
        <ele>13.9</ele>
        <time>2011-11-02T17:18:42.000Z</time>
      </trkpt>
      <trkpt lat="44.45123" lon="0.15318">
        <ele>13.6</ele>
        <time>2011-11-02T17:18:48.000Z</time>
      </trkpt>
      <trkpt lat="44.45102" lon="0.15348">
        <ele>13.9</ele>
        <time>2011-11-02T17:18:54.000Z</time>
      </trkpt>
      <trkpt lat="44.45082" lon="0.15381">
        <ele>14.5</ele>
        <time>2011-11-02T17:19:00.000Z</time>
      </trkpt>
      <trkpt lat="44.45065" lon="0.15416">
        <ele>20.1</ele>
        <time>2011-11-02T17:19:06.000Z</time>
      </trkpt>
      <trkpt lat="44.45051" lon="0.15448">
        <ele>20.1</ele>
        <time>2011-11-02T17:19:12.000Z</time>
      </trkpt>
      <trkpt lat="44.45038" lon="0.15482">
        <ele>21.4</ele>
        <time>2011-11-02T17:19:18.000Z</time>
      </trkpt>
      <trkpt lat="44.45025" lon="0.15518">
        <ele>16.1</ele>
        <time>2011-11-02T17:19:25.000Z</time>
      </trkpt>
      <trkpt lat="44.45015" lon="0.15555">
        <ele>17.2</ele>
        <time>2011-11-02T17:19:31.000Z</time>
      </trkpt>
      <trkpt lat="44.45007" lon="0.15593">
        <ele>19.2</ele>
        <time>2011-11-02T17:19:37.000Z</time>
      </trkpt>
      <trkpt lat="44.44999" lon="0.15634">
        <ele>17.7</ele>
        <time>2011-11-02T17:19:44.000Z</time>
      </trkpt>
      <trkpt lat="44.44994" lon="0.15677">
        <ele>14.2</ele>
        <time>2011-11-02T17:19:51.000Z</time>
      </trkpt>
      <trkpt lat="44.44991" lon="0.1572">
        <ele>11.9</ele>
        <time>2011-11-02T17:19:58.000Z</time>
      </trkpt>
      <trkpt lat="44.44986" lon="0.15759">
        <ele>19.3</ele>
        <time>2011-11-02T17:20:05.000Z</time>
      </trkpt>
      <trkpt lat="44.44983" lon="0.158">
        <ele>19.2</ele>
        <time>2011-11-02T17:20:12.000Z</time>
      </trkpt>
      <trkpt lat="44.44976" lon="0.15841">
        <ele>16.9</ele>
        <time>2011-11-02T17:20:19.000Z</time>
      </trkpt>
      <trkpt lat="44.44967" lon="0.1588">
        <ele>16.2</ele>
        <time>2011-11-02T17:20:26.000Z</time>
      </trkpt>
      <trkpt lat="44.4496" lon="0.15921">
        <ele>18.6</ele>
        <time>2011-11-02T17:20:34.000Z</time>
      </trkpt>
      <trkpt lat="44.4495" lon="0.15957">
        <ele>20.4</ele>
        <time>2011-11-02T17:20:42.000Z</time>
      </trkpt>
      <trkpt lat="44.44939" lon="0.15994">
        <ele>22.3</ele>
        <time>2011-11-02T17:20:51.000Z</time>
      </trkpt>
      <trkpt lat="44.44928" lon="0.16031">
        <ele>21.2</ele>
        <time>2011-11-02T17:21:00.000Z</time>
      </trkpt>
      <trkpt lat="44.44916" lon="0.16067">
        <ele>22.6</ele>
        <time>2011-11-02T17:21:09.000Z</time>
      </trkpt>
      <trkpt lat="44.44903" lon="0.16102">
        <ele>24.6</ele>
        <time>2011-11-02T17:21:18.000Z</time>
      </trkpt>
      <trkpt lat="44.44887" lon="0.16134">
        <ele>31.1</ele>
        <time>2011-11-02T17:21:26.000Z</time>
      </trkpt>
      <trkpt lat="44.4488" lon="0.16172">
        <ele>36.2</ele>
        <time>2011-11-02T17:21:34.000Z</time>
      </trkpt>
      <trkpt lat="44.44867" lon="0.16211">
        <ele>40.9</ele>
        <time>2011-11-02T17:21:42.000Z</time>
      </trkpt>
      <trkpt lat="44.44857" lon="0.16246">
        <ele>43.7</ele>
        <time>2011-11-02T17:21:49.000Z</time>
      </trkpt>
      <trkpt lat="44.44843" lon="0.1628">
        <ele>47</ele>
        <time>2011-11-02T17:21:57.000Z</time>
      </trkpt>
      <trkpt lat="44.44832" lon="0.16318">
        <ele>48.9</ele>
        <time>2011-11-02T17:22:05.000Z</time>
      </trkpt>
      <trkpt lat="44.44822" lon="0.16354">
        <ele>58.1</ele>
        <time>2011-11-02T17:22:13.000Z</time>
      </trkpt>
      <trkpt lat="44.44807" lon="0.16391">
        <ele>62.2</ele>
        <time>2011-11-02T17:22:22.000Z</time>
      </trkpt>
      <trkpt lat="44.44792" lon="0.16422">
        <ele>64</ele>
        <time>2011-11-02T17:22:29.000Z</time>
      </trkpt>
      <trkpt lat="44.44777" lon="0.1646">
        <ele>61.6</ele>
        <time>2011-11-02T17:22:37.000Z</time>
      </trkpt>
      <trkpt lat="44.44761" lon="0.16506">
        <ele>70.2</ele>
        <time>2011-11-02T17:22:43.000Z</time>
      </trkpt>
      <trkpt lat="44.44751" lon="0.16541">
        <ele>73.9</ele>
        <time>2011-11-02T17:22:49.000Z</time>
      </trkpt>
      <trkpt lat="44.44738" lon="0.16578">
        <ele>77.2</ele>
        <time>2011-11-02T17:22:56.000Z</time>
      </trkpt>
      <trkpt lat="44.44723" lon="0.16611">
        <ele>83.9</ele>
        <time>2011-11-02T17:23:04.000Z</time>
      </trkpt>
      <trkpt lat="44.44713" lon="0.16651">
        <ele>93</ele>
        <time>2011-11-02T17:23:14.000Z</time>
      </trkpt>
      <trkpt lat="44.44696" lon="0.16678">
        <ele>101.3</ele>
        <time>2011-11-02T17:23:21.000Z</time>
      </trkpt>
      <trkpt lat="44.44675" lon="0.16708">
        <ele>103.5</ele>
        <time>2011-11-02T17:23:28.000Z</time>
      </trkpt>
      <trkpt lat="44.44659" lon="0.16738">
        <ele>108.2</ele>
        <time>2011-11-02T17:23:35.000Z</time>
      </trkpt>
      <trkpt lat="44.44642" lon="0.16776">
        <ele>113.5</ele>
        <time>2011-11-02T17:23:43.000Z</time>
      </trkpt>
      <trkpt lat="44.44626" lon="0.1681">
        <ele>121.8</ele>
        <time>2011-11-02T17:23:49.000Z</time>
      </trkpt>
      <trkpt lat="44.44612" lon="0.16842">
        <ele>125.8</ele>
        <time>2011-11-02T17:23:55.000Z</time>
      </trkpt>
      <trkpt lat="44.44598" lon="0.16876">
        <ele>131.6</ele>
        <time>2011-11-02T17:24:04.000Z</time>
      </trkpt>
      <trkpt lat="44.44581" lon="0.16915">
        <ele>145.1</ele>
        <time>2011-11-02T17:24:10.000Z</time>
      </trkpt>
      <trkpt lat="44.4457" lon="0.1695">
        <ele>144.9</ele>
        <time>2011-11-02T17:24:17.000Z</time>
      </trkpt>
      <trkpt lat="44.44556" lon="0.1698">
        <ele>125.5</ele>
        <time>2011-11-02T17:24:22.000Z</time>
      </trkpt>
      <trkpt lat="44.44536" lon="0.17005">
        <ele>117.5</ele>
        <time>2011-11-02T17:24:29.000Z</time>
      </trkpt>
      <trkpt lat="44.44519" lon="0.17033">
        <ele>109.7</ele>
        <time>2011-11-02T17:25:38.000Z</time>
      </trkpt>
      <trkpt lat="44.44514" lon="0.17035">
        <ele>80.1</ele>
        <time>2011-11-02T17:26:01.000Z</time>
      </trkpt>
      <trkpt lat="44.44505" lon="0.17046">
        <ele>50.5</ele>
        <time>2011-11-02T17:26:16.000Z</time>
      </trkpt>
      <trkpt lat="44.44491" lon="0.17069">
        <ele>32</ele>
        <time>2011-11-02T17:26:47.000Z</time>
      </trkpt>
      <trkpt lat="44.44514" lon="0.17049">
        <ele>32.2</ele>
        <time>2011-11-02T17:27:09.000Z</time>
      </trkpt>
      <trkpt lat="44.44503" lon="0.17012">
        <ele>29.7</ele>
        <time>2011-11-02T17:27:28.000Z</time>
      </trkpt>
      <trkpt lat="44.44479" lon="0.17033">
        <ele>32.5</ele>
        <time>2011-11-02T17:27:44.000Z</time>
      </trkpt>
      <trkpt lat="44.44472" lon="0.17069">
        <ele>38.5</ele>
        <time>2011-11-02T17:30:32.000Z</time>
      </trkpt>
      <trkpt lat="44.44458" lon="0.17104">
        <ele>40.9</ele>
        <time>2011-11-02T17:30:52.000Z</time>
      </trkpt>
      <trkpt lat="44.44443" lon="0.17136">
        <ele>45.3</ele>
        <time>2011-11-02T17:35:04.000Z</time>
      </trkpt>
      <trkpt lat="44.44416" lon="0.17154">
        <ele>46.2</ele>
        <time>2011-11-02T17:35:20.000Z</time>
      </trkpt>
      <trkpt lat="44.44394" lon="0.17176">
        <ele>52.1</ele>
        <time>2011-11-02T17:35:41.000Z</time>
      </trkpt>
      <trkpt lat="44.44368" lon="0.1719">
        <ele>63.3</ele>
        <time>2011-11-02T17:36:17.000Z</time>
      </trkpt>
      <trkpt lat="44.44342" lon="0.17204">
        <ele>63.5</ele>
        <time>2011-11-02T17:36:38.000Z</time>
      </trkpt>
      <trkpt lat="44.4432" lon="0.17225">
        <ele>67.8</ele>
        <time>2011-11-02T17:37:00.000Z</time>
      </trkpt>
      <trkpt lat="44.44296" lon="0.17207">
        <ele>72.6</ele>
        <time>2011-11-02T17:37:49.000Z</time>
      </trkpt>
      <trkpt lat="44.44294" lon="0.17172">
        <ele>60.3</ele>
        <time>2011-11-02T17:38:14.000Z</time>
      </trkpt>
      <trkpt lat="44.44282" lon="0.17139">
        <ele>53.7</ele>
        <time>2011-11-02T17:45:10.000Z</time>
      </trkpt>
      <trkpt lat="44.44278" lon="0.1714">
        <ele>24</ele>
        <time>2011-11-02T17:50:40.000Z</time>
      </trkpt>
      <trkpt lat="44.44298" lon="0.17123">
        <ele>38.9</ele>
        <time>2011-11-02T18:06:41.000Z</time>
      </trkpt>
      <trkpt lat="44.44274" lon="0.17141">
        <ele>44.5</ele>
        <time>2011-11-02T18:08:37.000Z</time>
      </trkpt>
      <trkpt lat="44.44299" lon="0.17136">
        <ele>55.9</ele>
        <time>2011-11-02T19:07:26.000Z</time>
      </trkpt>
      <trkpt lat="44.44308" lon="0.17155">
        <ele>80.2</ele>
        <time>2011-11-02T19:35:22.000Z</time>
      </trkpt>
      <trkpt lat="44.44289" lon="0.17154">
        <ele>58.4</ele>
        <time>2011-11-02T19:47:56.000Z</time>
      </trkpt>
      <trkpt lat="44.44313" lon="0.17135">
        <ele>57.9</ele>
        <time>2011-11-02T20:08:31.000Z</time>
      </trkpt>
      <trkpt lat="44.44312" lon="0.17155">
        <ele>84.3</ele>
        <time>2011-11-02T20:17:08.000Z</time>
      </trkpt>
      <trkpt lat="44.44295" lon="0.17159">
        <ele>107.9</ele>
        <time>2011-11-02T20:18:32.000Z</time>
      </trkpt>
      <trkpt lat="44.44289" lon="0.17144">
        <ele>81.1</ele>
        <time>2011-11-02T20:20:10.000Z</time>
      </trkpt>
      <trkpt lat="44.44311" lon="0.17147">
        <ele>63.4</ele>
        <time>2011-11-02T20:20:42.000Z</time>
      </trkpt>
      <trkpt lat="44.44297" lon="0.17145">
        <ele>37.5</ele>
        <time>2011-11-02T20:43:23.000Z</time>
      </trkpt>
      <trkpt lat="44.44274" lon="0.17133">
        <ele>47.9</ele>
        <time>2011-11-02T20:54:02.000Z</time>
      </trkpt>
    </trkseg>
  </trk>
</gpx>